<?xml version="1.0" encoding="UTF-8" standalone="no" ?>
<gpx xmlns="http://www.topografix.com/GPX/1/1" xmlns:xsi="http://www.w3.org/2001/XMLSchema-instance" xsi:schemaLocation="http://www.topografix.com/GPX/1/1 http://www.topografix.com/GPX/1/1/gpx.xsd" version="1.1" creator="VisuGPX - https://www.visugpx.com">
  <metadata>
    <name>Coupe du Président AC Rospez</name>
    <desc><![CDATA[Coupe du Président 2014

 AC Rospez]]></desc>
  </metadata>
  <trk>
    <name><![CDATA[Coupe du président]]></name>
    <trkseg>
      <trkpt lat="48.73073" lon="-3.38342">
        <ele>84</ele>
        <time>2014-10-05T07:39:04Z</time>
      </trkpt>
      <trkpt lat="48.73044" lon="-3.3833">
        <ele>83</ele>
        <time>2014-10-05T07:39:12Z</time>
      </trkpt>
      <trkpt lat="48.7304" lon="-3.38336">
        <ele>83</ele>
        <time>2014-10-05T07:39:13Z</time>
      </trkpt>
      <trkpt lat="48.73037" lon="-3.38343">
        <ele>83</ele>
        <time>2014-10-05T07:39:14Z</time>
      </trkpt>
      <trkpt lat="48.73033" lon="-3.3835">
        <ele>82</ele>
        <time>2014-10-05T07:39:15Z</time>
      </trkpt>
      <trkpt lat="48.73029" lon="-3.38357">
        <ele>82</ele>
        <time>2014-10-05T07:39:16Z</time>
      </trkpt>
      <trkpt lat="48.73024" lon="-3.38365">
        <ele>82</ele>
        <time>2014-10-05T07:39:17Z</time>
      </trkpt>
      <trkpt lat="48.7302" lon="-3.38372">
        <ele>82</ele>
        <time>2014-10-05T07:39:18Z</time>
      </trkpt>
      <trkpt lat="48.73015" lon="-3.38381">
        <ele>82</ele>
        <time>2014-10-05T07:39:19Z</time>
      </trkpt>
      <trkpt lat="48.73011" lon="-3.38388">
        <ele>82</ele>
        <time>2014-10-05T07:39:20Z</time>
      </trkpt>
      <trkpt lat="48.73006" lon="-3.38396">
        <ele>82</ele>
        <time>2014-10-05T07:39:21Z</time>
      </trkpt>
      <trkpt lat="48.73001" lon="-3.38404">
        <ele>82</ele>
        <time>2014-10-05T07:39:22Z</time>
      </trkpt>
      <trkpt lat="48.72997" lon="-3.38411">
        <ele>82</ele>
        <time>2014-10-05T07:39:23Z</time>
      </trkpt>
      <trkpt lat="48.72994" lon="-3.38418">
        <ele>82</ele>
        <time>2014-10-05T07:39:24Z</time>
      </trkpt>
      <trkpt lat="48.7299" lon="-3.38424">
        <ele>82</ele>
        <time>2014-10-05T07:39:25Z</time>
      </trkpt>
      <trkpt lat="48.72986" lon="-3.3843">
        <ele>82</ele>
        <time>2014-10-05T07:39:26Z</time>
      </trkpt>
      <trkpt lat="48.72981" lon="-3.38436">
        <ele>82</ele>
        <time>2014-10-05T07:39:27Z</time>
      </trkpt>
      <trkpt lat="48.72976" lon="-3.38441">
        <ele>82</ele>
        <time>2014-10-05T07:39:28Z</time>
      </trkpt>
      <trkpt lat="48.7297" lon="-3.38445">
        <ele>82</ele>
        <time>2014-10-05T07:39:29Z</time>
      </trkpt>
      <trkpt lat="48.72964" lon="-3.38449">
        <ele>82</ele>
        <time>2014-10-05T07:39:30Z</time>
      </trkpt>
      <trkpt lat="48.72958" lon="-3.38451">
        <ele>82</ele>
        <time>2014-10-05T07:39:31Z</time>
      </trkpt>
      <trkpt lat="48.72951" lon="-3.38454">
        <ele>82</ele>
        <time>2014-10-05T07:39:32Z</time>
      </trkpt>
      <trkpt lat="48.72945" lon="-3.38459">
        <ele>82</ele>
        <time>2014-10-05T07:39:33Z</time>
      </trkpt>
      <trkpt lat="48.7294" lon="-3.38465">
        <ele>82</ele>
        <time>2014-10-05T07:39:34Z</time>
      </trkpt>
      <trkpt lat="48.72937" lon="-3.38473">
        <ele>82</ele>
        <time>2014-10-05T07:39:35Z</time>
      </trkpt>
      <trkpt lat="48.72933" lon="-3.38481">
        <ele>82</ele>
        <time>2014-10-05T07:39:36Z</time>
      </trkpt>
      <trkpt lat="48.72931" lon="-3.3849">
        <ele>82</ele>
        <time>2014-10-05T07:39:37Z</time>
      </trkpt>
      <trkpt lat="48.72927" lon="-3.38498">
        <ele>82</ele>
        <time>2014-10-05T07:39:38Z</time>
      </trkpt>
      <trkpt lat="48.72925" lon="-3.38507">
        <ele>82</ele>
        <time>2014-10-05T07:39:39Z</time>
      </trkpt>
      <trkpt lat="48.72922" lon="-3.38515">
        <ele>82</ele>
        <time>2014-10-05T07:39:40Z</time>
      </trkpt>
      <trkpt lat="48.72919" lon="-3.38523">
        <ele>82</ele>
        <time>2014-10-05T07:39:41Z</time>
      </trkpt>
      <trkpt lat="48.72917" lon="-3.38531">
        <ele>82</ele>
        <time>2014-10-05T07:39:42Z</time>
      </trkpt>
      <trkpt lat="48.72915" lon="-3.38539">
        <ele>82</ele>
        <time>2014-10-05T07:39:43Z</time>
      </trkpt>
      <trkpt lat="48.72913" lon="-3.38546">
        <ele>82</ele>
        <time>2014-10-05T07:39:44Z</time>
      </trkpt>
      <trkpt lat="48.72913" lon="-3.38555">
        <ele>82</ele>
        <time>2014-10-05T07:39:45Z</time>
      </trkpt>
      <trkpt lat="48.72913" lon="-3.38563">
        <ele>82</ele>
        <time>2014-10-05T07:39:46Z</time>
      </trkpt>
      <trkpt lat="48.72915" lon="-3.38572">
        <ele>82</ele>
        <time>2014-10-05T07:39:47Z</time>
      </trkpt>
      <trkpt lat="48.72917" lon="-3.38581">
        <ele>82</ele>
        <time>2014-10-05T07:39:48Z</time>
      </trkpt>
      <trkpt lat="48.72919" lon="-3.3859">
        <ele>82</ele>
        <time>2014-10-05T07:39:49Z</time>
      </trkpt>
      <trkpt lat="48.72921" lon="-3.386">
        <ele>82</ele>
        <time>2014-10-05T07:39:50Z</time>
      </trkpt>
      <trkpt lat="48.72921" lon="-3.3861">
        <ele>82</ele>
        <time>2014-10-05T07:39:51Z</time>
      </trkpt>
      <trkpt lat="48.72921" lon="-3.38622">
        <ele>82</ele>
        <time>2014-10-05T07:39:52Z</time>
      </trkpt>
      <trkpt lat="48.72922" lon="-3.38633">
        <ele>82</ele>
        <time>2014-10-05T07:39:53Z</time>
      </trkpt>
      <trkpt lat="48.72922" lon="-3.38645">
        <ele>82</ele>
        <time>2014-10-05T07:39:54Z</time>
      </trkpt>
      <trkpt lat="48.72923" lon="-3.38657">
        <ele>82</ele>
        <time>2014-10-05T07:39:55Z</time>
      </trkpt>
      <trkpt lat="48.72924" lon="-3.3867">
        <ele>82</ele>
        <time>2014-10-05T07:39:56Z</time>
      </trkpt>
      <trkpt lat="48.72924" lon="-3.38682">
        <ele>82</ele>
        <time>2014-10-05T07:39:57Z</time>
      </trkpt>
      <trkpt lat="48.72924" lon="-3.38695">
        <ele>82</ele>
        <time>2014-10-05T07:39:58Z</time>
      </trkpt>
      <trkpt lat="48.72924" lon="-3.38707">
        <ele>82</ele>
        <time>2014-10-05T07:39:59Z</time>
      </trkpt>
      <trkpt lat="48.72922" lon="-3.3872">
        <ele>82</ele>
        <time>2014-10-05T07:40:00Z</time>
      </trkpt>
      <trkpt lat="48.72919" lon="-3.38732">
        <ele>82</ele>
        <time>2014-10-05T07:40:01Z</time>
      </trkpt>
      <trkpt lat="48.72915" lon="-3.38743">
        <ele>82</ele>
        <time>2014-10-05T07:40:02Z</time>
      </trkpt>
      <trkpt lat="48.72911" lon="-3.38754">
        <ele>82</ele>
        <time>2014-10-05T07:40:03Z</time>
      </trkpt>
      <trkpt lat="48.72907" lon="-3.38765">
        <ele>82</ele>
        <time>2014-10-05T07:40:04Z</time>
      </trkpt>
      <trkpt lat="48.72903" lon="-3.38776">
        <ele>82</ele>
        <time>2014-10-05T07:40:05Z</time>
      </trkpt>
      <trkpt lat="48.72899" lon="-3.38787">
        <ele>82</ele>
        <time>2014-10-05T07:40:06Z</time>
      </trkpt>
      <trkpt lat="48.72895" lon="-3.38798">
        <ele>82</ele>
        <time>2014-10-05T07:40:07Z</time>
      </trkpt>
      <trkpt lat="48.72891" lon="-3.38809">
        <ele>82</ele>
        <time>2014-10-05T07:40:08Z</time>
      </trkpt>
      <trkpt lat="48.72888" lon="-3.3882">
        <ele>82</ele>
        <time>2014-10-05T07:40:09Z</time>
      </trkpt>
      <trkpt lat="48.72884" lon="-3.38831">
        <ele>82</ele>
        <time>2014-10-05T07:40:10Z</time>
      </trkpt>
      <trkpt lat="48.72882" lon="-3.38843">
        <ele>82</ele>
        <time>2014-10-05T07:40:11Z</time>
      </trkpt>
      <trkpt lat="48.72879" lon="-3.38856">
        <ele>82</ele>
        <time>2014-10-05T07:40:12Z</time>
      </trkpt>
      <trkpt lat="48.72877" lon="-3.38868">
        <ele>82</ele>
        <time>2014-10-05T07:40:13Z</time>
      </trkpt>
      <trkpt lat="48.72876" lon="-3.3888">
        <ele>82</ele>
        <time>2014-10-05T07:40:14Z</time>
      </trkpt>
      <trkpt lat="48.72874" lon="-3.38893">
        <ele>82</ele>
        <time>2014-10-05T07:40:15Z</time>
      </trkpt>
      <trkpt lat="48.72873" lon="-3.38905">
        <ele>82</ele>
        <time>2014-10-05T07:40:16Z</time>
      </trkpt>
      <trkpt lat="48.72872" lon="-3.38917">
        <ele>82</ele>
        <time>2014-10-05T07:40:17Z</time>
      </trkpt>
      <trkpt lat="48.7287" lon="-3.38929">
        <ele>82</ele>
        <time>2014-10-05T07:40:18Z</time>
      </trkpt>
      <trkpt lat="48.72869" lon="-3.38941">
        <ele>82</ele>
        <time>2014-10-05T07:40:19Z</time>
      </trkpt>
      <trkpt lat="48.72868" lon="-3.38952">
        <ele>82</ele>
        <time>2014-10-05T07:40:20Z</time>
      </trkpt>
      <trkpt lat="48.72866" lon="-3.38963">
        <ele>82</ele>
        <time>2014-10-05T07:40:21Z</time>
      </trkpt>
      <trkpt lat="48.72865" lon="-3.38974">
        <ele>82</ele>
        <time>2014-10-05T07:40:22Z</time>
      </trkpt>
      <trkpt lat="48.72864" lon="-3.38985">
        <ele>82</ele>
        <time>2014-10-05T07:40:23Z</time>
      </trkpt>
      <trkpt lat="48.72863" lon="-3.38996">
        <ele>82</ele>
        <time>2014-10-05T07:40:24Z</time>
      </trkpt>
      <trkpt lat="48.72862" lon="-3.39007">
        <ele>82</ele>
        <time>2014-10-05T07:40:25Z</time>
      </trkpt>
      <trkpt lat="48.7286" lon="-3.39018">
        <ele>82</ele>
        <time>2014-10-05T07:40:26Z</time>
      </trkpt>
      <trkpt lat="48.72859" lon="-3.39028">
        <ele>82</ele>
        <time>2014-10-05T07:40:27Z</time>
      </trkpt>
      <trkpt lat="48.72858" lon="-3.39039">
        <ele>82</ele>
        <time>2014-10-05T07:40:28Z</time>
      </trkpt>
      <trkpt lat="48.72857" lon="-3.39051">
        <ele>82</ele>
        <time>2014-10-05T07:40:29Z</time>
      </trkpt>
      <trkpt lat="48.72855" lon="-3.39063">
        <ele>82</ele>
        <time>2014-10-05T07:40:30Z</time>
      </trkpt>
      <trkpt lat="48.72854" lon="-3.39074">
        <ele>82</ele>
        <time>2014-10-05T07:40:31Z</time>
      </trkpt>
      <trkpt lat="48.72853" lon="-3.39087">
        <ele>82</ele>
        <time>2014-10-05T07:40:32Z</time>
      </trkpt>
      <trkpt lat="48.72851" lon="-3.39099">
        <ele>82</ele>
        <time>2014-10-05T07:40:33Z</time>
      </trkpt>
      <trkpt lat="48.7285" lon="-3.39111">
        <ele>82</ele>
        <time>2014-10-05T07:40:34Z</time>
      </trkpt>
      <trkpt lat="48.72848" lon="-3.39124">
        <ele>82</ele>
        <time>2014-10-05T07:40:35Z</time>
      </trkpt>
      <trkpt lat="48.72847" lon="-3.39136">
        <ele>82</ele>
        <time>2014-10-05T07:40:36Z</time>
      </trkpt>
      <trkpt lat="48.72845" lon="-3.39148">
        <ele>82</ele>
        <time>2014-10-05T07:40:37Z</time>
      </trkpt>
      <trkpt lat="48.72844" lon="-3.39161">
        <ele>82</ele>
        <time>2014-10-05T07:40:38Z</time>
      </trkpt>
      <trkpt lat="48.72843" lon="-3.39173">
        <ele>82</ele>
        <time>2014-10-05T07:40:39Z</time>
      </trkpt>
      <trkpt lat="48.72842" lon="-3.39186">
        <ele>83</ele>
        <time>2014-10-05T07:40:40Z</time>
      </trkpt>
      <trkpt lat="48.72841" lon="-3.39198">
        <ele>83</ele>
        <time>2014-10-05T07:40:41Z</time>
      </trkpt>
      <trkpt lat="48.7284" lon="-3.39211">
        <ele>83</ele>
        <time>2014-10-05T07:40:42Z</time>
      </trkpt>
      <trkpt lat="48.72839" lon="-3.39224">
        <ele>83</ele>
        <time>2014-10-05T07:40:43Z</time>
      </trkpt>
      <trkpt lat="48.72839" lon="-3.39236">
        <ele>83</ele>
        <time>2014-10-05T07:40:44Z</time>
      </trkpt>
      <trkpt lat="48.72838" lon="-3.39249">
        <ele>83</ele>
        <time>2014-10-05T07:40:45Z</time>
      </trkpt>
      <trkpt lat="48.72838" lon="-3.39261">
        <ele>83</ele>
        <time>2014-10-05T07:40:46Z</time>
      </trkpt>
      <trkpt lat="48.72838" lon="-3.39274">
        <ele>83</ele>
        <time>2014-10-05T07:40:47Z</time>
      </trkpt>
      <trkpt lat="48.72838" lon="-3.39286">
        <ele>83</ele>
        <time>2014-10-05T07:40:48Z</time>
      </trkpt>
      <trkpt lat="48.72838" lon="-3.39299">
        <ele>83</ele>
        <time>2014-10-05T07:40:49Z</time>
      </trkpt>
      <trkpt lat="48.72839" lon="-3.39312">
        <ele>83</ele>
        <time>2014-10-05T07:40:50Z</time>
      </trkpt>
      <trkpt lat="48.72839" lon="-3.39325">
        <ele>83</ele>
        <time>2014-10-05T07:40:51Z</time>
      </trkpt>
      <trkpt lat="48.72839" lon="-3.39337">
        <ele>83</ele>
        <time>2014-10-05T07:40:52Z</time>
      </trkpt>
      <trkpt lat="48.72839" lon="-3.3935">
        <ele>83</ele>
        <time>2014-10-05T07:40:53Z</time>
      </trkpt>
      <trkpt lat="48.72839" lon="-3.39363">
        <ele>83</ele>
        <time>2014-10-05T07:40:54Z</time>
      </trkpt>
      <trkpt lat="48.72839" lon="-3.39375">
        <ele>84</ele>
        <time>2014-10-05T07:40:55Z</time>
      </trkpt>
      <trkpt lat="48.72838" lon="-3.39388">
        <ele>84</ele>
        <time>2014-10-05T07:40:56Z</time>
      </trkpt>
      <trkpt lat="48.72838" lon="-3.39401">
        <ele>84</ele>
        <time>2014-10-05T07:40:57Z</time>
      </trkpt>
      <trkpt lat="48.72837" lon="-3.39414">
        <ele>84</ele>
        <time>2014-10-05T07:40:58Z</time>
      </trkpt>
      <trkpt lat="48.72837" lon="-3.39427">
        <ele>84</ele>
        <time>2014-10-05T07:40:59Z</time>
      </trkpt>
      <trkpt lat="48.72835" lon="-3.3944">
        <ele>85</ele>
        <time>2014-10-05T07:41:00Z</time>
      </trkpt>
      <trkpt lat="48.72834" lon="-3.39453">
        <ele>85</ele>
        <time>2014-10-05T07:41:01Z</time>
      </trkpt>
      <trkpt lat="48.72833" lon="-3.39466">
        <ele>85</ele>
        <time>2014-10-05T07:41:02Z</time>
      </trkpt>
      <trkpt lat="48.72831" lon="-3.39479">
        <ele>85</ele>
        <time>2014-10-05T07:41:03Z</time>
      </trkpt>
      <trkpt lat="48.72831" lon="-3.39492">
        <ele>85</ele>
        <time>2014-10-05T07:41:04Z</time>
      </trkpt>
      <trkpt lat="48.7283" lon="-3.39505">
        <ele>85</ele>
        <time>2014-10-05T07:41:05Z</time>
      </trkpt>
      <trkpt lat="48.72829" lon="-3.39518">
        <ele>85</ele>
        <time>2014-10-05T07:41:06Z</time>
      </trkpt>
      <trkpt lat="48.72829" lon="-3.39531">
        <ele>85</ele>
        <time>2014-10-05T07:41:07Z</time>
      </trkpt>
      <trkpt lat="48.72829" lon="-3.39544">
        <ele>85</ele>
        <time>2014-10-05T07:41:08Z</time>
      </trkpt>
      <trkpt lat="48.72829" lon="-3.39557">
        <ele>85</ele>
        <time>2014-10-05T07:41:09Z</time>
      </trkpt>
      <trkpt lat="48.72829" lon="-3.39569">
        <ele>85</ele>
        <time>2014-10-05T07:41:10Z</time>
      </trkpt>
      <trkpt lat="48.72829" lon="-3.39582">
        <ele>85</ele>
        <time>2014-10-05T07:41:11Z</time>
      </trkpt>
      <trkpt lat="48.72829" lon="-3.39595">
        <ele>85</ele>
        <time>2014-10-05T07:41:12Z</time>
      </trkpt>
      <trkpt lat="48.72829" lon="-3.39608">
        <ele>85</ele>
        <time>2014-10-05T07:41:13Z</time>
      </trkpt>
      <trkpt lat="48.7283" lon="-3.39621">
        <ele>85</ele>
        <time>2014-10-05T07:41:14Z</time>
      </trkpt>
      <trkpt lat="48.72832" lon="-3.39634">
        <ele>85</ele>
        <time>2014-10-05T07:41:15Z</time>
      </trkpt>
      <trkpt lat="48.72834" lon="-3.39647">
        <ele>85</ele>
        <time>2014-10-05T07:41:16Z</time>
      </trkpt>
      <trkpt lat="48.72836" lon="-3.3966">
        <ele>85</ele>
        <time>2014-10-05T07:41:17Z</time>
      </trkpt>
      <trkpt lat="48.72839" lon="-3.39672">
        <ele>85</ele>
        <time>2014-10-05T07:41:18Z</time>
      </trkpt>
      <trkpt lat="48.72841" lon="-3.39685">
        <ele>85</ele>
        <time>2014-10-05T07:41:19Z</time>
      </trkpt>
      <trkpt lat="48.72845" lon="-3.39698">
        <ele>85</ele>
        <time>2014-10-05T07:41:20Z</time>
      </trkpt>
      <trkpt lat="48.72849" lon="-3.3971">
        <ele>85</ele>
        <time>2014-10-05T07:41:21Z</time>
      </trkpt>
      <trkpt lat="48.72853" lon="-3.39722">
        <ele>85</ele>
        <time>2014-10-05T07:41:22Z</time>
      </trkpt>
      <trkpt lat="48.72858" lon="-3.39734">
        <ele>85</ele>
        <time>2014-10-05T07:41:23Z</time>
      </trkpt>
      <trkpt lat="48.72863" lon="-3.39746">
        <ele>85</ele>
        <time>2014-10-05T07:41:24Z</time>
      </trkpt>
      <trkpt lat="48.72868" lon="-3.39757">
        <ele>85</ele>
        <time>2014-10-05T07:41:25Z</time>
      </trkpt>
      <trkpt lat="48.72874" lon="-3.39768">
        <ele>85</ele>
        <time>2014-10-05T07:41:26Z</time>
      </trkpt>
      <trkpt lat="48.7288" lon="-3.39779">
        <ele>85</ele>
        <time>2014-10-05T07:41:27Z</time>
      </trkpt>
      <trkpt lat="48.72886" lon="-3.3979">
        <ele>85</ele>
        <time>2014-10-05T07:41:28Z</time>
      </trkpt>
      <trkpt lat="48.72892" lon="-3.39801">
        <ele>85</ele>
        <time>2014-10-05T07:41:29Z</time>
      </trkpt>
      <trkpt lat="48.72898" lon="-3.39811">
        <ele>85</ele>
        <time>2014-10-05T07:41:30Z</time>
      </trkpt>
      <trkpt lat="48.72904" lon="-3.39823">
        <ele>85</ele>
        <time>2014-10-05T07:41:31Z</time>
      </trkpt>
      <trkpt lat="48.7291" lon="-3.39834">
        <ele>85</ele>
        <time>2014-10-05T07:41:32Z</time>
      </trkpt>
      <trkpt lat="48.72915" lon="-3.39845">
        <ele>85</ele>
        <time>2014-10-05T07:41:33Z</time>
      </trkpt>
      <trkpt lat="48.7292" lon="-3.39858">
        <ele>85</ele>
        <time>2014-10-05T07:41:34Z</time>
      </trkpt>
      <trkpt lat="48.72925" lon="-3.3987">
        <ele>85</ele>
        <time>2014-10-05T07:41:35Z</time>
      </trkpt>
      <trkpt lat="48.72929" lon="-3.39882">
        <ele>85</ele>
        <time>2014-10-05T07:41:36Z</time>
      </trkpt>
      <trkpt lat="48.72934" lon="-3.39895">
        <ele>85</ele>
        <time>2014-10-05T07:41:37Z</time>
      </trkpt>
      <trkpt lat="48.72938" lon="-3.39907">
        <ele>85</ele>
        <time>2014-10-05T07:41:38Z</time>
      </trkpt>
      <trkpt lat="48.72943" lon="-3.3992">
        <ele>85</ele>
        <time>2014-10-05T07:41:39Z</time>
      </trkpt>
      <trkpt lat="48.72947" lon="-3.39933">
        <ele>85</ele>
        <time>2014-10-05T07:41:40Z</time>
      </trkpt>
      <trkpt lat="48.72951" lon="-3.39946">
        <ele>85</ele>
        <time>2014-10-05T07:41:41Z</time>
      </trkpt>
      <trkpt lat="48.72955" lon="-3.39959">
        <ele>85</ele>
        <time>2014-10-05T07:41:42Z</time>
      </trkpt>
      <trkpt lat="48.72959" lon="-3.39972">
        <ele>85</ele>
        <time>2014-10-05T07:41:43Z</time>
      </trkpt>
      <trkpt lat="48.72963" lon="-3.39985">
        <ele>85</ele>
        <time>2014-10-05T07:41:44Z</time>
      </trkpt>
      <trkpt lat="48.72966" lon="-3.39998">
        <ele>85</ele>
        <time>2014-10-05T07:41:45Z</time>
      </trkpt>
      <trkpt lat="48.7297" lon="-3.40011">
        <ele>85</ele>
        <time>2014-10-05T07:41:46Z</time>
      </trkpt>
      <trkpt lat="48.72973" lon="-3.40024">
        <ele>85</ele>
        <time>2014-10-05T07:41:47Z</time>
      </trkpt>
      <trkpt lat="48.72976" lon="-3.40038">
        <ele>85</ele>
        <time>2014-10-05T07:41:48Z</time>
      </trkpt>
      <trkpt lat="48.72979" lon="-3.40052">
        <ele>85</ele>
        <time>2014-10-05T07:41:49Z</time>
      </trkpt>
      <trkpt lat="48.7298" lon="-3.40067">
        <ele>85</ele>
        <time>2014-10-05T07:41:50Z</time>
      </trkpt>
      <trkpt lat="48.72982" lon="-3.40081">
        <ele>85</ele>
        <time>2014-10-05T07:41:51Z</time>
      </trkpt>
      <trkpt lat="48.72983" lon="-3.40095">
        <ele>85</ele>
        <time>2014-10-05T07:41:52Z</time>
      </trkpt>
      <trkpt lat="48.72985" lon="-3.4011">
        <ele>85</ele>
        <time>2014-10-05T07:41:53Z</time>
      </trkpt>
      <trkpt lat="48.72987" lon="-3.40124">
        <ele>85</ele>
        <time>2014-10-05T07:41:54Z</time>
      </trkpt>
      <trkpt lat="48.72989" lon="-3.40139">
        <ele>85</ele>
        <time>2014-10-05T07:41:55Z</time>
      </trkpt>
      <trkpt lat="48.72991" lon="-3.40153">
        <ele>85</ele>
        <time>2014-10-05T07:41:56Z</time>
      </trkpt>
      <trkpt lat="48.72995" lon="-3.40167">
        <ele>85</ele>
        <time>2014-10-05T07:41:57Z</time>
      </trkpt>
      <trkpt lat="48.72999" lon="-3.4018">
        <ele>85</ele>
        <time>2014-10-05T07:41:58Z</time>
      </trkpt>
      <trkpt lat="48.73003" lon="-3.40194">
        <ele>85</ele>
        <time>2014-10-05T07:41:59Z</time>
      </trkpt>
      <trkpt lat="48.73007" lon="-3.40208">
        <ele>85</ele>
        <time>2014-10-05T07:42:00Z</time>
      </trkpt>
      <trkpt lat="48.7301" lon="-3.40221">
        <ele>85</ele>
        <time>2014-10-05T07:42:01Z</time>
      </trkpt>
      <trkpt lat="48.73013" lon="-3.40235">
        <ele>85</ele>
        <time>2014-10-05T07:42:02Z</time>
      </trkpt>
      <trkpt lat="48.73016" lon="-3.40249">
        <ele>85</ele>
        <time>2014-10-05T07:42:03Z</time>
      </trkpt>
      <trkpt lat="48.73017" lon="-3.40263">
        <ele>85</ele>
        <time>2014-10-05T07:42:04Z</time>
      </trkpt>
      <trkpt lat="48.73019" lon="-3.40277">
        <ele>85</ele>
        <time>2014-10-05T07:42:05Z</time>
      </trkpt>
      <trkpt lat="48.73019" lon="-3.40291">
        <ele>85</ele>
        <time>2014-10-05T07:42:06Z</time>
      </trkpt>
      <trkpt lat="48.7302" lon="-3.40305">
        <ele>85</ele>
        <time>2014-10-05T07:42:07Z</time>
      </trkpt>
      <trkpt lat="48.73021" lon="-3.40319">
        <ele>85</ele>
        <time>2014-10-05T07:42:08Z</time>
      </trkpt>
      <trkpt lat="48.73023" lon="-3.40332">
        <ele>85</ele>
        <time>2014-10-05T07:42:09Z</time>
      </trkpt>
      <trkpt lat="48.73025" lon="-3.40345">
        <ele>85</ele>
        <time>2014-10-05T07:42:10Z</time>
      </trkpt>
      <trkpt lat="48.73027" lon="-3.40358">
        <ele>85</ele>
        <time>2014-10-05T07:42:11Z</time>
      </trkpt>
      <trkpt lat="48.7303" lon="-3.40371">
        <ele>85</ele>
        <time>2014-10-05T07:42:12Z</time>
      </trkpt>
      <trkpt lat="48.73034" lon="-3.40383">
        <ele>85</ele>
        <time>2014-10-05T07:42:13Z</time>
      </trkpt>
      <trkpt lat="48.73038" lon="-3.40395">
        <ele>85</ele>
        <time>2014-10-05T07:42:14Z</time>
      </trkpt>
      <trkpt lat="48.73042" lon="-3.40406">
        <ele>85</ele>
        <time>2014-10-05T07:42:15Z</time>
      </trkpt>
      <trkpt lat="48.73045" lon="-3.40418">
        <ele>85</ele>
        <time>2014-10-05T07:42:16Z</time>
      </trkpt>
      <trkpt lat="48.73049" lon="-3.4043">
        <ele>85</ele>
        <time>2014-10-05T07:42:17Z</time>
      </trkpt>
      <trkpt lat="48.73052" lon="-3.40442">
        <ele>85</ele>
        <time>2014-10-05T07:42:18Z</time>
      </trkpt>
      <trkpt lat="48.73054" lon="-3.40455">
        <ele>85</ele>
        <time>2014-10-05T07:42:19Z</time>
      </trkpt>
      <trkpt lat="48.73056" lon="-3.40468">
        <ele>85</ele>
        <time>2014-10-05T07:42:20Z</time>
      </trkpt>
      <trkpt lat="48.73058" lon="-3.4048">
        <ele>85</ele>
        <time>2014-10-05T07:42:21Z</time>
      </trkpt>
      <trkpt lat="48.73058" lon="-3.40494">
        <ele>85</ele>
        <time>2014-10-05T07:42:22Z</time>
      </trkpt>
      <trkpt lat="48.73059" lon="-3.40507">
        <ele>85</ele>
        <time>2014-10-05T07:42:23Z</time>
      </trkpt>
      <trkpt lat="48.73058" lon="-3.4052">
        <ele>85</ele>
        <time>2014-10-05T07:42:24Z</time>
      </trkpt>
      <trkpt lat="48.73058" lon="-3.40534">
        <ele>85</ele>
        <time>2014-10-05T07:42:25Z</time>
      </trkpt>
      <trkpt lat="48.73058" lon="-3.40547">
        <ele>85</ele>
        <time>2014-10-05T07:42:26Z</time>
      </trkpt>
      <trkpt lat="48.73059" lon="-3.40561">
        <ele>85</ele>
        <time>2014-10-05T07:42:27Z</time>
      </trkpt>
      <trkpt lat="48.73061" lon="-3.40574">
        <ele>85</ele>
        <time>2014-10-05T07:42:28Z</time>
      </trkpt>
      <trkpt lat="48.73063" lon="-3.40587">
        <ele>85</ele>
        <time>2014-10-05T07:42:29Z</time>
      </trkpt>
      <trkpt lat="48.73066" lon="-3.406">
        <ele>85</ele>
        <time>2014-10-05T07:42:30Z</time>
      </trkpt>
      <trkpt lat="48.7307" lon="-3.40613">
        <ele>85</ele>
        <time>2014-10-05T07:42:31Z</time>
      </trkpt>
      <trkpt lat="48.73075" lon="-3.40625">
        <ele>85</ele>
        <time>2014-10-05T07:42:32Z</time>
      </trkpt>
      <trkpt lat="48.7308" lon="-3.40636">
        <ele>85</ele>
        <time>2014-10-05T07:42:33Z</time>
      </trkpt>
      <trkpt lat="48.73085" lon="-3.40648">
        <ele>85</ele>
        <time>2014-10-05T07:42:34Z</time>
      </trkpt>
      <trkpt lat="48.73091" lon="-3.40658">
        <ele>85</ele>
        <time>2014-10-05T07:42:35Z</time>
      </trkpt>
      <trkpt lat="48.73097" lon="-3.40669">
        <ele>85</ele>
        <time>2014-10-05T07:42:36Z</time>
      </trkpt>
      <trkpt lat="48.73102" lon="-3.40681">
        <ele>85</ele>
        <time>2014-10-05T07:42:37Z</time>
      </trkpt>
      <trkpt lat="48.73107" lon="-3.40692">
        <ele>85</ele>
        <time>2014-10-05T07:42:38Z</time>
      </trkpt>
      <trkpt lat="48.73112" lon="-3.40704">
        <ele>85</ele>
        <time>2014-10-05T07:42:38Z</time>
      </trkpt>
      <trkpt lat="48.73117" lon="-3.40717">
        <ele>85</ele>
        <time>2014-10-05T07:42:40Z</time>
      </trkpt>
      <trkpt lat="48.73121" lon="-3.4073">
        <ele>85</ele>
        <time>2014-10-05T07:42:41Z</time>
      </trkpt>
      <trkpt lat="48.73124" lon="-3.40744">
        <ele>85</ele>
        <time>2014-10-05T07:42:42Z</time>
      </trkpt>
      <trkpt lat="48.73127" lon="-3.40758">
        <ele>85</ele>
        <time>2014-10-05T07:42:43Z</time>
      </trkpt>
      <trkpt lat="48.7313" lon="-3.40772">
        <ele>85</ele>
        <time>2014-10-05T07:42:44Z</time>
      </trkpt>
      <trkpt lat="48.73133" lon="-3.40785">
        <ele>85</ele>
        <time>2014-10-05T07:42:45Z</time>
      </trkpt>
      <trkpt lat="48.73137" lon="-3.40799">
        <ele>85</ele>
        <time>2014-10-05T07:42:45Z</time>
      </trkpt>
      <trkpt lat="48.7314" lon="-3.40813">
        <ele>85</ele>
        <time>2014-10-05T07:42:47Z</time>
      </trkpt>
      <trkpt lat="48.73143" lon="-3.40827">
        <ele>85</ele>
        <time>2014-10-05T07:42:48Z</time>
      </trkpt>
      <trkpt lat="48.73146" lon="-3.4084">
        <ele>85</ele>
        <time>2014-10-05T07:42:49Z</time>
      </trkpt>
      <trkpt lat="48.73149" lon="-3.40854">
        <ele>85</ele>
        <time>2014-10-05T07:42:49Z</time>
      </trkpt>
      <trkpt lat="48.73152" lon="-3.40867">
        <ele>85</ele>
        <time>2014-10-05T07:42:51Z</time>
      </trkpt>
      <trkpt lat="48.73156" lon="-3.40881">
        <ele>85</ele>
        <time>2014-10-05T07:42:52Z</time>
      </trkpt>
      <trkpt lat="48.73159" lon="-3.40894">
        <ele>85</ele>
        <time>2014-10-05T07:42:53Z</time>
      </trkpt>
      <trkpt lat="48.73162" lon="-3.40907">
        <ele>85</ele>
        <time>2014-10-05T07:42:54Z</time>
      </trkpt>
      <trkpt lat="48.73164" lon="-3.4092">
        <ele>85</ele>
        <time>2014-10-05T07:42:55Z</time>
      </trkpt>
      <trkpt lat="48.73167" lon="-3.40933">
        <ele>85</ele>
        <time>2014-10-05T07:42:56Z</time>
      </trkpt>
      <trkpt lat="48.7317" lon="-3.40946">
        <ele>85</ele>
        <time>2014-10-05T07:42:57Z</time>
      </trkpt>
      <trkpt lat="48.73173" lon="-3.40958">
        <ele>85</ele>
        <time>2014-10-05T07:42:57Z</time>
      </trkpt>
      <trkpt lat="48.73175" lon="-3.40971">
        <ele>85</ele>
        <time>2014-10-05T07:42:59Z</time>
      </trkpt>
      <trkpt lat="48.73177" lon="-3.40983">
        <ele>85</ele>
        <time>2014-10-05T07:43:00Z</time>
      </trkpt>
      <trkpt lat="48.7318" lon="-3.40996">
        <ele>85</ele>
        <time>2014-10-05T07:43:01Z</time>
      </trkpt>
      <trkpt lat="48.73183" lon="-3.41009">
        <ele>85</ele>
        <time>2014-10-05T07:43:02Z</time>
      </trkpt>
      <trkpt lat="48.73185" lon="-3.41021">
        <ele>85</ele>
        <time>2014-10-05T07:43:03Z</time>
      </trkpt>
      <trkpt lat="48.73187" lon="-3.41034">
        <ele>85</ele>
        <time>2014-10-05T07:43:04Z</time>
      </trkpt>
      <trkpt lat="48.73189" lon="-3.41047">
        <ele>85</ele>
        <time>2014-10-05T07:43:05Z</time>
      </trkpt>
      <trkpt lat="48.73191" lon="-3.41059">
        <ele>85</ele>
        <time>2014-10-05T07:43:06Z</time>
      </trkpt>
      <trkpt lat="48.73194" lon="-3.41072">
        <ele>85</ele>
        <time>2014-10-05T07:43:06Z</time>
      </trkpt>
      <trkpt lat="48.73196" lon="-3.41085">
        <ele>85</ele>
        <time>2014-10-05T07:43:08Z</time>
      </trkpt>
      <trkpt lat="48.73198" lon="-3.41098">
        <ele>85</ele>
        <time>2014-10-05T07:43:09Z</time>
      </trkpt>
      <trkpt lat="48.732" lon="-3.41111">
        <ele>85</ele>
        <time>2014-10-05T07:43:09Z</time>
      </trkpt>
      <trkpt lat="48.73202" lon="-3.41125">
        <ele>85</ele>
        <time>2014-10-05T07:43:10Z</time>
      </trkpt>
      <trkpt lat="48.73203" lon="-3.41139">
        <ele>85</ele>
        <time>2014-10-05T07:43:12Z</time>
      </trkpt>
      <trkpt lat="48.73205" lon="-3.41153">
        <ele>85</ele>
        <time>2014-10-05T07:43:13Z</time>
      </trkpt>
      <trkpt lat="48.73206" lon="-3.41166">
        <ele>84</ele>
        <time>2014-10-05T07:43:14Z</time>
      </trkpt>
      <trkpt lat="48.73207" lon="-3.4118">
        <ele>84</ele>
        <time>2014-10-05T07:43:14Z</time>
      </trkpt>
      <trkpt lat="48.73208" lon="-3.41195">
        <ele>84</ele>
        <time>2014-10-05T07:43:16Z</time>
      </trkpt>
      <trkpt lat="48.73209" lon="-3.41209">
        <ele>83</ele>
        <time>2014-10-05T07:43:17Z</time>
      </trkpt>
      <trkpt lat="48.7321" lon="-3.41224">
        <ele>83</ele>
        <time>2014-10-05T07:43:18Z</time>
      </trkpt>
      <trkpt lat="48.73212" lon="-3.41238">
        <ele>82</ele>
        <time>2014-10-05T07:43:19Z</time>
      </trkpt>
      <trkpt lat="48.73213" lon="-3.41253">
        <ele>82</ele>
        <time>2014-10-05T07:43:20Z</time>
      </trkpt>
      <trkpt lat="48.73214" lon="-3.41267">
        <ele>82</ele>
        <time>2014-10-05T07:43:21Z</time>
      </trkpt>
      <trkpt lat="48.73215" lon="-3.41281">
        <ele>82</ele>
        <time>2014-10-05T07:43:22Z</time>
      </trkpt>
      <trkpt lat="48.73216" lon="-3.41295">
        <ele>82</ele>
        <time>2014-10-05T07:43:22Z</time>
      </trkpt>
      <trkpt lat="48.73217" lon="-3.41309">
        <ele>82</ele>
        <time>2014-10-05T07:43:24Z</time>
      </trkpt>
      <trkpt lat="48.73218" lon="-3.41323">
        <ele>82</ele>
        <time>2014-10-05T07:43:25Z</time>
      </trkpt>
      <trkpt lat="48.73219" lon="-3.41337">
        <ele>82</ele>
        <time>2014-10-05T07:43:26Z</time>
      </trkpt>
      <trkpt lat="48.73219" lon="-3.4135">
        <ele>82</ele>
        <time>2014-10-05T07:43:27Z</time>
      </trkpt>
      <trkpt lat="48.73219" lon="-3.41364">
        <ele>82</ele>
        <time>2014-10-05T07:43:28Z</time>
      </trkpt>
      <trkpt lat="48.7322" lon="-3.41377">
        <ele>82</ele>
        <time>2014-10-05T07:43:29Z</time>
      </trkpt>
      <trkpt lat="48.73219" lon="-3.4139">
        <ele>82</ele>
        <time>2014-10-05T07:43:30Z</time>
      </trkpt>
      <trkpt lat="48.73219" lon="-3.41403">
        <ele>82</ele>
        <time>2014-10-05T07:43:31Z</time>
      </trkpt>
      <trkpt lat="48.73219" lon="-3.41416">
        <ele>82</ele>
        <time>2014-10-05T07:43:32Z</time>
      </trkpt>
      <trkpt lat="48.73218" lon="-3.41428">
        <ele>82</ele>
        <time>2014-10-05T07:43:33Z</time>
      </trkpt>
      <trkpt lat="48.73218" lon="-3.41441">
        <ele>82</ele>
        <time>2014-10-05T07:43:34Z</time>
      </trkpt>
      <trkpt lat="48.73217" lon="-3.41453">
        <ele>82</ele>
        <time>2014-10-05T07:43:35Z</time>
      </trkpt>
      <trkpt lat="48.73216" lon="-3.41466">
        <ele>82</ele>
        <time>2014-10-05T07:43:36Z</time>
      </trkpt>
      <trkpt lat="48.73216" lon="-3.41479">
        <ele>81</ele>
        <time>2014-10-05T07:43:37Z</time>
      </trkpt>
      <trkpt lat="48.73215" lon="-3.41492">
        <ele>81</ele>
        <time>2014-10-05T07:43:38Z</time>
      </trkpt>
      <trkpt lat="48.73214" lon="-3.41505">
        <ele>81</ele>
        <time>2014-10-05T07:43:39Z</time>
      </trkpt>
      <trkpt lat="48.73214" lon="-3.41519">
        <ele>80</ele>
        <time>2014-10-05T07:43:40Z</time>
      </trkpt>
      <trkpt lat="48.73213" lon="-3.41533">
        <ele>80</ele>
        <time>2014-10-05T07:43:41Z</time>
      </trkpt>
      <trkpt lat="48.73212" lon="-3.41547">
        <ele>80</ele>
        <time>2014-10-05T07:43:42Z</time>
      </trkpt>
      <trkpt lat="48.73212" lon="-3.41562">
        <ele>79</ele>
        <time>2014-10-05T07:43:43Z</time>
      </trkpt>
      <trkpt lat="48.73211" lon="-3.41577">
        <ele>79</ele>
        <time>2014-10-05T07:43:43Z</time>
      </trkpt>
      <trkpt lat="48.73211" lon="-3.41592">
        <ele>78</ele>
        <time>2014-10-05T07:43:44Z</time>
      </trkpt>
      <trkpt lat="48.73211" lon="-3.41607">
        <ele>78</ele>
        <time>2014-10-05T07:43:45Z</time>
      </trkpt>
      <trkpt lat="48.73212" lon="-3.41623">
        <ele>77</ele>
        <time>2014-10-05T07:43:46Z</time>
      </trkpt>
      <trkpt lat="48.73213" lon="-3.41637">
        <ele>76</ele>
        <time>2014-10-05T07:43:48Z</time>
      </trkpt>
      <trkpt lat="48.73215" lon="-3.41652">
        <ele>76</ele>
        <time>2014-10-05T07:43:49Z</time>
      </trkpt>
      <trkpt lat="48.73217" lon="-3.41667">
        <ele>76</ele>
        <time>2014-10-05T07:43:50Z</time>
      </trkpt>
      <trkpt lat="48.7322" lon="-3.41681">
        <ele>75</ele>
        <time>2014-10-05T07:43:50Z</time>
      </trkpt>
      <trkpt lat="48.73223" lon="-3.41695">
        <ele>75</ele>
        <time>2014-10-05T07:43:52Z</time>
      </trkpt>
      <trkpt lat="48.73225" lon="-3.41709">
        <ele>75</ele>
        <time>2014-10-05T07:43:53Z</time>
      </trkpt>
      <trkpt lat="48.73228" lon="-3.41723">
        <ele>75</ele>
        <time>2014-10-05T07:43:54Z</time>
      </trkpt>
      <trkpt lat="48.73231" lon="-3.41738">
        <ele>74</ele>
        <time>2014-10-05T07:43:55Z</time>
      </trkpt>
      <trkpt lat="48.73233" lon="-3.41752">
        <ele>74</ele>
        <time>2014-10-05T07:43:56Z</time>
      </trkpt>
      <trkpt lat="48.73236" lon="-3.41767">
        <ele>74</ele>
        <time>2014-10-05T07:43:56Z</time>
      </trkpt>
      <trkpt lat="48.73238" lon="-3.41781">
        <ele>73</ele>
        <time>2014-10-05T07:43:58Z</time>
      </trkpt>
      <trkpt lat="48.7324" lon="-3.41796">
        <ele>73</ele>
        <time>2014-10-05T07:43:58Z</time>
      </trkpt>
      <trkpt lat="48.73243" lon="-3.4181">
        <ele>73</ele>
        <time>2014-10-05T07:44:00Z</time>
      </trkpt>
      <trkpt lat="48.73246" lon="-3.41824">
        <ele>73</ele>
        <time>2014-10-05T07:44:01Z</time>
      </trkpt>
      <trkpt lat="48.73249" lon="-3.41838">
        <ele>73</ele>
        <time>2014-10-05T07:44:01Z</time>
      </trkpt>
      <trkpt lat="48.73254" lon="-3.41852">
        <ele>73</ele>
        <time>2014-10-05T07:44:02Z</time>
      </trkpt>
      <trkpt lat="48.73259" lon="-3.41865">
        <ele>72</ele>
        <time>2014-10-05T07:44:03Z</time>
      </trkpt>
      <trkpt lat="48.73264" lon="-3.41879">
        <ele>72</ele>
        <time>2014-10-05T07:44:04Z</time>
      </trkpt>
      <trkpt lat="48.7327" lon="-3.41892">
        <ele>72</ele>
        <time>2014-10-05T07:44:05Z</time>
      </trkpt>
      <trkpt lat="48.73276" lon="-3.41905">
        <ele>72</ele>
        <time>2014-10-05T07:44:06Z</time>
      </trkpt>
      <trkpt lat="48.73283" lon="-3.41918">
        <ele>71</ele>
        <time>2014-10-05T07:44:07Z</time>
      </trkpt>
      <trkpt lat="48.7329" lon="-3.4193">
        <ele>71</ele>
        <time>2014-10-05T07:44:08Z</time>
      </trkpt>
      <trkpt lat="48.73298" lon="-3.41941">
        <ele>70</ele>
        <time>2014-10-05T07:44:09Z</time>
      </trkpt>
      <trkpt lat="48.73307" lon="-3.41952">
        <ele>69</ele>
        <time>2014-10-05T07:44:10Z</time>
      </trkpt>
      <trkpt lat="48.73316" lon="-3.41962">
        <ele>69</ele>
        <time>2014-10-05T07:44:11Z</time>
      </trkpt>
      <trkpt lat="48.73325" lon="-3.41972">
        <ele>68</ele>
        <time>2014-10-05T07:44:12Z</time>
      </trkpt>
      <trkpt lat="48.73335" lon="-3.41982">
        <ele>67</ele>
        <time>2014-10-05T07:44:13Z</time>
      </trkpt>
      <trkpt lat="48.73343" lon="-3.41993">
        <ele>67</ele>
        <time>2014-10-05T07:44:14Z</time>
      </trkpt>
      <trkpt lat="48.73351" lon="-3.42007">
        <ele>66</ele>
        <time>2014-10-05T07:44:15Z</time>
      </trkpt>
      <trkpt lat="48.73357" lon="-3.42022">
        <ele>66</ele>
        <time>2014-10-05T07:44:16Z</time>
      </trkpt>
      <trkpt lat="48.73361" lon="-3.42038">
        <ele>65</ele>
        <time>2014-10-05T07:44:17Z</time>
      </trkpt>
      <trkpt lat="48.73364" lon="-3.42054">
        <ele>64</ele>
        <time>2014-10-05T07:44:18Z</time>
      </trkpt>
      <trkpt lat="48.73366" lon="-3.4207">
        <ele>64</ele>
        <time>2014-10-05T07:44:19Z</time>
      </trkpt>
      <trkpt lat="48.73365" lon="-3.42085">
        <ele>63</ele>
        <time>2014-10-05T07:44:21Z</time>
      </trkpt>
      <trkpt lat="48.73363" lon="-3.42099">
        <ele>62</ele>
        <time>2014-10-05T07:44:22Z</time>
      </trkpt>
      <trkpt lat="48.73361" lon="-3.42112">
        <ele>62</ele>
        <time>2014-10-05T07:44:22Z</time>
      </trkpt>
      <trkpt lat="48.73358" lon="-3.42125">
        <ele>62</ele>
        <time>2014-10-05T07:44:23Z</time>
      </trkpt>
      <trkpt lat="48.73355" lon="-3.42137">
        <ele>62</ele>
        <time>2014-10-05T07:44:25Z</time>
      </trkpt>
      <trkpt lat="48.73352" lon="-3.42149">
        <ele>62</ele>
        <time>2014-10-05T07:44:26Z</time>
      </trkpt>
      <trkpt lat="48.73349" lon="-3.42161">
        <ele>62</ele>
        <time>2014-10-05T07:44:27Z</time>
      </trkpt>
      <trkpt lat="48.73346" lon="-3.42174">
        <ele>62</ele>
        <time>2014-10-05T07:44:27Z</time>
      </trkpt>
      <trkpt lat="48.73344" lon="-3.42186">
        <ele>62</ele>
        <time>2014-10-05T07:44:28Z</time>
      </trkpt>
      <trkpt lat="48.73342" lon="-3.42199">
        <ele>62</ele>
        <time>2014-10-05T07:44:30Z</time>
      </trkpt>
      <trkpt lat="48.73341" lon="-3.42212">
        <ele>62</ele>
        <time>2014-10-05T07:44:30Z</time>
      </trkpt>
      <trkpt lat="48.7334" lon="-3.42225">
        <ele>62</ele>
        <time>2014-10-05T07:44:32Z</time>
      </trkpt>
      <trkpt lat="48.7334" lon="-3.42237">
        <ele>62</ele>
        <time>2014-10-05T07:44:33Z</time>
      </trkpt>
      <trkpt lat="48.7334" lon="-3.4225">
        <ele>62</ele>
        <time>2014-10-05T07:44:34Z</time>
      </trkpt>
      <trkpt lat="48.73341" lon="-3.42263">
        <ele>62</ele>
        <time>2014-10-05T07:44:35Z</time>
      </trkpt>
      <trkpt lat="48.73341" lon="-3.42276">
        <ele>62</ele>
        <time>2014-10-05T07:44:36Z</time>
      </trkpt>
      <trkpt lat="48.73341" lon="-3.42289">
        <ele>62</ele>
        <time>2014-10-05T07:44:37Z</time>
      </trkpt>
      <trkpt lat="48.73341" lon="-3.42302">
        <ele>62</ele>
        <time>2014-10-05T07:44:38Z</time>
      </trkpt>
      <trkpt lat="48.73342" lon="-3.42315">
        <ele>62</ele>
        <time>2014-10-05T07:44:39Z</time>
      </trkpt>
      <trkpt lat="48.73342" lon="-3.42327">
        <ele>62</ele>
        <time>2014-10-05T07:44:40Z</time>
      </trkpt>
      <trkpt lat="48.73342" lon="-3.4234">
        <ele>62</ele>
        <time>2014-10-05T07:44:41Z</time>
      </trkpt>
      <trkpt lat="48.73342" lon="-3.42353">
        <ele>62</ele>
        <time>2014-10-05T07:44:41Z</time>
      </trkpt>
      <trkpt lat="48.73342" lon="-3.42365">
        <ele>62</ele>
        <time>2014-10-05T07:44:43Z</time>
      </trkpt>
      <trkpt lat="48.73342" lon="-3.42377">
        <ele>62</ele>
        <time>2014-10-05T07:44:43Z</time>
      </trkpt>
      <trkpt lat="48.73342" lon="-3.4239">
        <ele>62</ele>
        <time>2014-10-05T07:44:45Z</time>
      </trkpt>
      <trkpt lat="48.73342" lon="-3.42404">
        <ele>62</ele>
        <time>2014-10-05T07:44:46Z</time>
      </trkpt>
      <trkpt lat="48.73342" lon="-3.42418">
        <ele>62</ele>
        <time>2014-10-05T07:44:46Z</time>
      </trkpt>
      <trkpt lat="48.73342" lon="-3.42431">
        <ele>62</ele>
        <time>2014-10-05T07:44:48Z</time>
      </trkpt>
      <trkpt lat="48.73342" lon="-3.42445">
        <ele>62</ele>
        <time>2014-10-05T07:44:49Z</time>
      </trkpt>
      <trkpt lat="48.73341" lon="-3.42459">
        <ele>62</ele>
        <time>2014-10-05T07:44:50Z</time>
      </trkpt>
      <trkpt lat="48.73341" lon="-3.42474">
        <ele>62</ele>
        <time>2014-10-05T07:44:51Z</time>
      </trkpt>
      <trkpt lat="48.73341" lon="-3.42488">
        <ele>62</ele>
        <time>2014-10-05T07:44:52Z</time>
      </trkpt>
      <trkpt lat="48.73341" lon="-3.42502">
        <ele>62</ele>
        <time>2014-10-05T07:44:53Z</time>
      </trkpt>
      <trkpt lat="48.73342" lon="-3.42516">
        <ele>62</ele>
        <time>2014-10-05T07:44:53Z</time>
      </trkpt>
      <trkpt lat="48.73342" lon="-3.42531">
        <ele>62</ele>
        <time>2014-10-05T07:44:54Z</time>
      </trkpt>
      <trkpt lat="48.73343" lon="-3.42546">
        <ele>62</ele>
        <time>2014-10-05T07:44:56Z</time>
      </trkpt>
      <trkpt lat="48.73344" lon="-3.4256">
        <ele>62</ele>
        <time>2014-10-05T07:44:57Z</time>
      </trkpt>
      <trkpt lat="48.73345" lon="-3.42575">
        <ele>62</ele>
        <time>2014-10-05T07:44:57Z</time>
      </trkpt>
      <trkpt lat="48.73347" lon="-3.42589">
        <ele>62</ele>
        <time>2014-10-05T07:44:59Z</time>
      </trkpt>
      <trkpt lat="48.73348" lon="-3.42604">
        <ele>62</ele>
        <time>2014-10-05T07:44:59Z</time>
      </trkpt>
      <trkpt lat="48.7335" lon="-3.42619">
        <ele>62</ele>
        <time>2014-10-05T07:45:00Z</time>
      </trkpt>
      <trkpt lat="48.73352" lon="-3.42633">
        <ele>62</ele>
        <time>2014-10-05T07:45:01Z</time>
      </trkpt>
      <trkpt lat="48.73355" lon="-3.42647">
        <ele>62</ele>
        <time>2014-10-05T07:45:02Z</time>
      </trkpt>
      <trkpt lat="48.73357" lon="-3.42662">
        <ele>62</ele>
        <time>2014-10-05T07:45:04Z</time>
      </trkpt>
      <trkpt lat="48.73358" lon="-3.42676">
        <ele>62</ele>
        <time>2014-10-05T07:45:04Z</time>
      </trkpt>
      <trkpt lat="48.73359" lon="-3.4269">
        <ele>62</ele>
        <time>2014-10-05T07:45:05Z</time>
      </trkpt>
      <trkpt lat="48.7336" lon="-3.42704">
        <ele>62</ele>
        <time>2014-10-05T07:45:06Z</time>
      </trkpt>
      <trkpt lat="48.7336" lon="-3.42718">
        <ele>62</ele>
        <time>2014-10-05T07:45:07Z</time>
      </trkpt>
      <trkpt lat="48.73361" lon="-3.42731">
        <ele>62</ele>
        <time>2014-10-05T07:45:09Z</time>
      </trkpt>
      <trkpt lat="48.73361" lon="-3.42745">
        <ele>62</ele>
        <time>2014-10-05T07:45:09Z</time>
      </trkpt>
      <trkpt lat="48.73362" lon="-3.42758">
        <ele>62</ele>
        <time>2014-10-05T07:45:10Z</time>
      </trkpt>
      <trkpt lat="48.73362" lon="-3.42771">
        <ele>62</ele>
        <time>2014-10-05T07:45:11Z</time>
      </trkpt>
      <trkpt lat="48.73362" lon="-3.42784">
        <ele>62</ele>
        <time>2014-10-05T07:45:13Z</time>
      </trkpt>
      <trkpt lat="48.73363" lon="-3.42796">
        <ele>62</ele>
        <time>2014-10-05T07:45:14Z</time>
      </trkpt>
      <trkpt lat="48.73363" lon="-3.42809">
        <ele>62</ele>
        <time>2014-10-05T07:45:14Z</time>
      </trkpt>
      <trkpt lat="48.73363" lon="-3.42821">
        <ele>62</ele>
        <time>2014-10-05T07:45:16Z</time>
      </trkpt>
      <trkpt lat="48.73364" lon="-3.42833">
        <ele>62</ele>
        <time>2014-10-05T07:45:17Z</time>
      </trkpt>
      <trkpt lat="48.73365" lon="-3.42845">
        <ele>62</ele>
        <time>2014-10-05T07:45:17Z</time>
      </trkpt>
      <trkpt lat="48.73366" lon="-3.42857">
        <ele>62</ele>
        <time>2014-10-05T07:45:19Z</time>
      </trkpt>
      <trkpt lat="48.73368" lon="-3.42868">
        <ele>62</ele>
        <time>2014-10-05T07:45:19Z</time>
      </trkpt>
      <trkpt lat="48.73369" lon="-3.4288">
        <ele>62</ele>
        <time>2014-10-05T07:45:20Z</time>
      </trkpt>
      <trkpt lat="48.73371" lon="-3.42891">
        <ele>62</ele>
        <time>2014-10-05T07:45:22Z</time>
      </trkpt>
      <trkpt lat="48.73373" lon="-3.42902">
        <ele>62</ele>
        <time>2014-10-05T07:45:22Z</time>
      </trkpt>
      <trkpt lat="48.73376" lon="-3.42914">
        <ele>62</ele>
        <time>2014-10-05T07:45:24Z</time>
      </trkpt>
      <trkpt lat="48.73379" lon="-3.42925">
        <ele>62</ele>
        <time>2014-10-05T07:45:24Z</time>
      </trkpt>
      <trkpt lat="48.73381" lon="-3.42937">
        <ele>62</ele>
        <time>2014-10-05T07:45:25Z</time>
      </trkpt>
      <trkpt lat="48.73384" lon="-3.42948">
        <ele>62</ele>
        <time>2014-10-05T07:45:26Z</time>
      </trkpt>
      <trkpt lat="48.73386" lon="-3.4296">
        <ele>62</ele>
        <time>2014-10-05T07:45:27Z</time>
      </trkpt>
      <trkpt lat="48.73388" lon="-3.42972">
        <ele>62</ele>
        <time>2014-10-05T07:45:29Z</time>
      </trkpt>
      <trkpt lat="48.7339" lon="-3.42985">
        <ele>62</ele>
        <time>2014-10-05T07:45:30Z</time>
      </trkpt>
      <trkpt lat="48.73391" lon="-3.42998">
        <ele>62</ele>
        <time>2014-10-05T07:45:30Z</time>
      </trkpt>
      <trkpt lat="48.73392" lon="-3.4301">
        <ele>62</ele>
        <time>2014-10-05T07:45:31Z</time>
      </trkpt>
      <trkpt lat="48.73393" lon="-3.43023">
        <ele>62</ele>
        <time>2014-10-05T07:45:32Z</time>
      </trkpt>
      <trkpt lat="48.73393" lon="-3.43036">
        <ele>62</ele>
        <time>2014-10-05T07:45:33Z</time>
      </trkpt>
      <trkpt lat="48.73393" lon="-3.43049">
        <ele>62</ele>
        <time>2014-10-05T07:45:35Z</time>
      </trkpt>
      <trkpt lat="48.73393" lon="-3.43062">
        <ele>62</ele>
        <time>2014-10-05T07:45:36Z</time>
      </trkpt>
      <trkpt lat="48.73392" lon="-3.43075">
        <ele>62</ele>
        <time>2014-10-05T07:45:37Z</time>
      </trkpt>
      <trkpt lat="48.73391" lon="-3.43088">
        <ele>62</ele>
        <time>2014-10-05T07:45:37Z</time>
      </trkpt>
      <trkpt lat="48.7339" lon="-3.43101">
        <ele>62</ele>
        <time>2014-10-05T07:45:38Z</time>
      </trkpt>
      <trkpt lat="48.73389" lon="-3.43114">
        <ele>62</ele>
        <time>2014-10-05T07:45:40Z</time>
      </trkpt>
      <trkpt lat="48.73388" lon="-3.43127">
        <ele>62</ele>
        <time>2014-10-05T07:45:40Z</time>
      </trkpt>
      <trkpt lat="48.73387" lon="-3.43141">
        <ele>62</ele>
        <time>2014-10-05T07:45:41Z</time>
      </trkpt>
      <trkpt lat="48.73386" lon="-3.43155">
        <ele>62</ele>
        <time>2014-10-05T07:45:42Z</time>
      </trkpt>
      <trkpt lat="48.73386" lon="-3.43168">
        <ele>62</ele>
        <time>2014-10-05T07:45:43Z</time>
      </trkpt>
      <trkpt lat="48.73385" lon="-3.43182">
        <ele>62</ele>
        <time>2014-10-05T07:45:45Z</time>
      </trkpt>
      <trkpt lat="48.73386" lon="-3.43196">
        <ele>62</ele>
        <time>2014-10-05T07:45:46Z</time>
      </trkpt>
      <trkpt lat="48.73386" lon="-3.4321">
        <ele>62</ele>
        <time>2014-10-05T07:45:46Z</time>
      </trkpt>
      <trkpt lat="48.73386" lon="-3.43224">
        <ele>62</ele>
        <time>2014-10-05T07:45:47Z</time>
      </trkpt>
      <trkpt lat="48.73387" lon="-3.43238">
        <ele>62</ele>
        <time>2014-10-05T07:45:49Z</time>
      </trkpt>
      <trkpt lat="48.73388" lon="-3.43251">
        <ele>62</ele>
        <time>2014-10-05T07:45:50Z</time>
      </trkpt>
      <trkpt lat="48.73389" lon="-3.43264">
        <ele>62</ele>
        <time>2014-10-05T07:45:50Z</time>
      </trkpt>
      <trkpt lat="48.7339" lon="-3.43277">
        <ele>62</ele>
        <time>2014-10-05T07:45:51Z</time>
      </trkpt>
      <trkpt lat="48.73392" lon="-3.43289">
        <ele>62</ele>
        <time>2014-10-05T07:45:52Z</time>
      </trkpt>
      <trkpt lat="48.73394" lon="-3.433">
        <ele>62</ele>
        <time>2014-10-05T07:45:53Z</time>
      </trkpt>
      <trkpt lat="48.73397" lon="-3.43312">
        <ele>61</ele>
        <time>2014-10-05T07:45:55Z</time>
      </trkpt>
      <trkpt lat="48.73399" lon="-3.43324">
        <ele>61</ele>
        <time>2014-10-05T07:45:55Z</time>
      </trkpt>
      <trkpt lat="48.73399" lon="-3.43338">
        <ele>60</ele>
        <time>2014-10-05T07:45:56Z</time>
      </trkpt>
      <trkpt lat="48.734" lon="-3.43352">
        <ele>60</ele>
        <time>2014-10-05T07:45:57Z</time>
      </trkpt>
      <trkpt lat="48.73402" lon="-3.43366">
        <ele>59</ele>
        <time>2014-10-05T07:45:58Z</time>
      </trkpt>
      <trkpt lat="48.73404" lon="-3.4338">
        <ele>59</ele>
        <time>2014-10-05T07:46:00Z</time>
      </trkpt>
      <trkpt lat="48.73406" lon="-3.43394">
        <ele>59</ele>
        <time>2014-10-05T07:46:00Z</time>
      </trkpt>
      <trkpt lat="48.73408" lon="-3.43408">
        <ele>59</ele>
        <time>2014-10-05T07:46:01Z</time>
      </trkpt>
      <trkpt lat="48.7341" lon="-3.43422">
        <ele>58</ele>
        <time>2014-10-05T07:46:02Z</time>
      </trkpt>
      <trkpt lat="48.73411" lon="-3.43437">
        <ele>58</ele>
        <time>2014-10-05T07:46:03Z</time>
      </trkpt>
      <trkpt lat="48.73413" lon="-3.43451">
        <ele>58</ele>
        <time>2014-10-05T07:46:05Z</time>
      </trkpt>
      <trkpt lat="48.73415" lon="-3.43465">
        <ele>57</ele>
        <time>2014-10-05T07:46:05Z</time>
      </trkpt>
      <trkpt lat="48.73417" lon="-3.4348">
        <ele>57</ele>
        <time>2014-10-05T07:46:07Z</time>
      </trkpt>
      <trkpt lat="48.73419" lon="-3.43495">
        <ele>57</ele>
        <time>2014-10-05T07:46:07Z</time>
      </trkpt>
      <trkpt lat="48.7342" lon="-3.4351">
        <ele>57</ele>
        <time>2014-10-05T07:46:08Z</time>
      </trkpt>
      <trkpt lat="48.73422" lon="-3.43524">
        <ele>57</ele>
        <time>2014-10-05T07:46:10Z</time>
      </trkpt>
      <trkpt lat="48.73425" lon="-3.43538">
        <ele>56</ele>
        <time>2014-10-05T07:46:10Z</time>
      </trkpt>
      <trkpt lat="48.73428" lon="-3.43551">
        <ele>56</ele>
        <time>2014-10-05T07:46:11Z</time>
      </trkpt>
      <trkpt lat="48.73433" lon="-3.43564">
        <ele>56</ele>
        <time>2014-10-05T07:46:12Z</time>
      </trkpt>
      <trkpt lat="48.73438" lon="-3.43577">
        <ele>56</ele>
        <time>2014-10-05T07:46:13Z</time>
      </trkpt>
      <trkpt lat="48.73444" lon="-3.43588">
        <ele>55</ele>
        <time>2014-10-05T07:46:15Z</time>
      </trkpt>
      <trkpt lat="48.7345" lon="-3.43599">
        <ele>55</ele>
        <time>2014-10-05T07:46:15Z</time>
      </trkpt>
      <trkpt lat="48.73458" lon="-3.43609">
        <ele>55</ele>
        <time>2014-10-05T07:46:16Z</time>
      </trkpt>
      <trkpt lat="48.73465" lon="-3.43618">
        <ele>54</ele>
        <time>2014-10-05T07:46:17Z</time>
      </trkpt>
      <trkpt lat="48.73473" lon="-3.43624">
        <ele>54</ele>
        <time>2014-10-05T07:46:18Z</time>
      </trkpt>
      <trkpt lat="48.73481" lon="-3.43627">
        <ele>54</ele>
        <time>2014-10-05T07:46:20Z</time>
      </trkpt>
      <trkpt lat="48.73489" lon="-3.43628">
        <ele>54</ele>
        <time>2014-10-05T07:46:20Z</time>
      </trkpt>
      <trkpt lat="48.73496" lon="-3.4363">
        <ele>53</ele>
        <time>2014-10-05T07:46:21Z</time>
      </trkpt>
      <trkpt lat="48.73502" lon="-3.43634">
        <ele>53</ele>
        <time>2014-10-05T07:46:22Z</time>
      </trkpt>
      <trkpt lat="48.73508" lon="-3.4364">
        <ele>53</ele>
        <time>2014-10-05T07:46:24Z</time>
      </trkpt>
      <trkpt lat="48.73513" lon="-3.43647">
        <ele>52</ele>
        <time>2014-10-05T07:46:25Z</time>
      </trkpt>
      <trkpt lat="48.7352" lon="-3.43653">
        <ele>52</ele>
        <time>2014-10-05T07:46:25Z</time>
      </trkpt>
      <trkpt lat="48.73527" lon="-3.43658">
        <ele>52</ele>
        <time>2014-10-05T07:46:26Z</time>
      </trkpt>
      <trkpt lat="48.73534" lon="-3.43663">
        <ele>52</ele>
        <time>2014-10-05T07:46:27Z</time>
      </trkpt>
      <trkpt lat="48.7354" lon="-3.4367">
        <ele>51</ele>
        <time>2014-10-05T07:46:28Z</time>
      </trkpt>
      <trkpt lat="48.73545" lon="-3.43678">
        <ele>51</ele>
        <time>2014-10-05T07:46:30Z</time>
      </trkpt>
      <trkpt lat="48.7355" lon="-3.43688">
        <ele>51</ele>
        <time>2014-10-05T07:46:30Z</time>
      </trkpt>
      <trkpt lat="48.73555" lon="-3.43698">
        <ele>50</ele>
        <time>2014-10-05T07:46:31Z</time>
      </trkpt>
      <trkpt lat="48.7356" lon="-3.43708">
        <ele>50</ele>
        <time>2014-10-05T07:46:32Z</time>
      </trkpt>
      <trkpt lat="48.73566" lon="-3.43717">
        <ele>50</ele>
        <time>2014-10-05T07:46:34Z</time>
      </trkpt>
      <trkpt lat="48.73573" lon="-3.43724">
        <ele>50</ele>
        <time>2014-10-05T07:46:35Z</time>
      </trkpt>
      <trkpt lat="48.73581" lon="-3.4373">
        <ele>49</ele>
        <time>2014-10-05T07:46:35Z</time>
      </trkpt>
      <trkpt lat="48.73589" lon="-3.43736">
        <ele>49</ele>
        <time>2014-10-05T07:46:36Z</time>
      </trkpt>
      <trkpt lat="48.73597" lon="-3.43742">
        <ele>49</ele>
        <time>2014-10-05T07:46:37Z</time>
      </trkpt>
      <trkpt lat="48.73605" lon="-3.43748">
        <ele>49</ele>
        <time>2014-10-05T07:46:38Z</time>
      </trkpt>
      <trkpt lat="48.73613" lon="-3.43754">
        <ele>48</ele>
        <time>2014-10-05T07:46:40Z</time>
      </trkpt>
      <trkpt lat="48.73621" lon="-3.4376">
        <ele>48</ele>
        <time>2014-10-05T07:46:40Z</time>
      </trkpt>
      <trkpt lat="48.73629" lon="-3.43766">
        <ele>48</ele>
        <time>2014-10-05T07:46:41Z</time>
      </trkpt>
      <trkpt lat="48.73637" lon="-3.43772">
        <ele>48</ele>
        <time>2014-10-05T07:46:42Z</time>
      </trkpt>
      <trkpt lat="48.73645" lon="-3.43778">
        <ele>47</ele>
        <time>2014-10-05T07:46:43Z</time>
      </trkpt>
      <trkpt lat="48.73654" lon="-3.43784">
        <ele>47</ele>
        <time>2014-10-05T07:46:45Z</time>
      </trkpt>
      <trkpt lat="48.73662" lon="-3.4379">
        <ele>47</ele>
        <time>2014-10-05T07:46:45Z</time>
      </trkpt>
      <trkpt lat="48.7367" lon="-3.43797">
        <ele>46</ele>
        <time>2014-10-05T07:46:46Z</time>
      </trkpt>
      <trkpt lat="48.73679" lon="-3.43803">
        <ele>46</ele>
        <time>2014-10-05T07:46:47Z</time>
      </trkpt>
      <trkpt lat="48.73687" lon="-3.4381">
        <ele>46</ele>
        <time>2014-10-05T07:46:48Z</time>
      </trkpt>
      <trkpt lat="48.73695" lon="-3.43816">
        <ele>46</ele>
        <time>2014-10-05T07:46:50Z</time>
      </trkpt>
      <trkpt lat="48.73703" lon="-3.43822">
        <ele>45</ele>
        <time>2014-10-05T07:46:50Z</time>
      </trkpt>
      <trkpt lat="48.73712" lon="-3.43828">
        <ele>45</ele>
        <time>2014-10-05T07:46:51Z</time>
      </trkpt>
      <trkpt lat="48.7372" lon="-3.43834">
        <ele>45</ele>
        <time>2014-10-05T07:46:52Z</time>
      </trkpt>
      <trkpt lat="48.73728" lon="-3.43841">
        <ele>45</ele>
        <time>2014-10-05T07:46:53Z</time>
      </trkpt>
      <trkpt lat="48.73736" lon="-3.43847">
        <ele>44</ele>
        <time>2014-10-05T07:46:55Z</time>
      </trkpt>
      <trkpt lat="48.73745" lon="-3.43853">
        <ele>44</ele>
        <time>2014-10-05T07:46:55Z</time>
      </trkpt>
      <trkpt lat="48.73753" lon="-3.43858">
        <ele>44</ele>
        <time>2014-10-05T07:46:56Z</time>
      </trkpt>
      <trkpt lat="48.73761" lon="-3.43864">
        <ele>44</ele>
        <time>2014-10-05T07:46:57Z</time>
      </trkpt>
      <trkpt lat="48.7377" lon="-3.43869">
        <ele>44</ele>
        <time>2014-10-05T07:46:58Z</time>
      </trkpt>
      <trkpt lat="48.73779" lon="-3.43875">
        <ele>44</ele>
        <time>2014-10-05T07:47:00Z</time>
      </trkpt>
      <trkpt lat="48.73788" lon="-3.4388">
        <ele>44</ele>
        <time>2014-10-05T07:47:00Z</time>
      </trkpt>
      <trkpt lat="48.73797" lon="-3.43886">
        <ele>44</ele>
        <time>2014-10-05T07:47:01Z</time>
      </trkpt>
      <trkpt lat="48.73806" lon="-3.43892">
        <ele>43</ele>
        <time>2014-10-05T07:47:02Z</time>
      </trkpt>
      <trkpt lat="48.73815" lon="-3.43897">
        <ele>43</ele>
        <time>2014-10-05T07:47:03Z</time>
      </trkpt>
      <trkpt lat="48.73824" lon="-3.43903">
        <ele>43</ele>
        <time>2014-10-05T07:47:05Z</time>
      </trkpt>
      <trkpt lat="48.73832" lon="-3.43909">
        <ele>43</ele>
        <time>2014-10-05T07:47:05Z</time>
      </trkpt>
      <trkpt lat="48.73841" lon="-3.43914">
        <ele>43</ele>
        <time>2014-10-05T07:47:06Z</time>
      </trkpt>
      <trkpt lat="48.73849" lon="-3.4392">
        <ele>43</ele>
        <time>2014-10-05T07:47:07Z</time>
      </trkpt>
      <trkpt lat="48.73858" lon="-3.43925">
        <ele>43</ele>
        <time>2014-10-05T07:47:08Z</time>
      </trkpt>
      <trkpt lat="48.73866" lon="-3.43931">
        <ele>43</ele>
        <time>2014-10-05T07:47:10Z</time>
      </trkpt>
      <trkpt lat="48.73874" lon="-3.43936">
        <ele>43</ele>
        <time>2014-10-05T07:47:10Z</time>
      </trkpt>
      <trkpt lat="48.73883" lon="-3.43941">
        <ele>43</ele>
        <time>2014-10-05T07:47:11Z</time>
      </trkpt>
      <trkpt lat="48.73891" lon="-3.43947">
        <ele>43</ele>
        <time>2014-10-05T07:47:12Z</time>
      </trkpt>
      <trkpt lat="48.73899" lon="-3.43952">
        <ele>43</ele>
        <time>2014-10-05T07:47:13Z</time>
      </trkpt>
      <trkpt lat="48.73908" lon="-3.43958">
        <ele>43</ele>
        <time>2014-10-05T07:47:15Z</time>
      </trkpt>
      <trkpt lat="48.73916" lon="-3.43963">
        <ele>43</ele>
        <time>2014-10-05T07:47:15Z</time>
      </trkpt>
      <trkpt lat="48.73925" lon="-3.43969">
        <ele>43</ele>
        <time>2014-10-05T07:47:16Z</time>
      </trkpt>
      <trkpt lat="48.73933" lon="-3.43974">
        <ele>43</ele>
        <time>2014-10-05T07:47:17Z</time>
      </trkpt>
      <trkpt lat="48.73941" lon="-3.4398">
        <ele>43</ele>
        <time>2014-10-05T07:47:18Z</time>
      </trkpt>
      <trkpt lat="48.73949" lon="-3.43986">
        <ele>43</ele>
        <time>2014-10-05T07:47:20Z</time>
      </trkpt>
      <trkpt lat="48.73957" lon="-3.43991">
        <ele>43</ele>
        <time>2014-10-05T07:47:20Z</time>
      </trkpt>
      <trkpt lat="48.73965" lon="-3.43997">
        <ele>43</ele>
        <time>2014-10-05T07:47:21Z</time>
      </trkpt>
      <trkpt lat="48.73973" lon="-3.44003">
        <ele>43</ele>
        <time>2014-10-05T07:47:22Z</time>
      </trkpt>
      <trkpt lat="48.73981" lon="-3.44009">
        <ele>43</ele>
        <time>2014-10-05T07:47:23Z</time>
      </trkpt>
      <trkpt lat="48.73989" lon="-3.44015">
        <ele>43</ele>
        <time>2014-10-05T07:47:25Z</time>
      </trkpt>
      <trkpt lat="48.73996" lon="-3.44021">
        <ele>43</ele>
        <time>2014-10-05T07:47:25Z</time>
      </trkpt>
      <trkpt lat="48.74004" lon="-3.44027">
        <ele>43</ele>
        <time>2014-10-05T07:47:26Z</time>
      </trkpt>
      <trkpt lat="48.74012" lon="-3.44033">
        <ele>43</ele>
        <time>2014-10-05T07:47:27Z</time>
      </trkpt>
      <trkpt lat="48.74019" lon="-3.4404">
        <ele>43</ele>
        <time>2014-10-05T07:47:28Z</time>
      </trkpt>
      <trkpt lat="48.74026" lon="-3.44046">
        <ele>43</ele>
        <time>2014-10-05T07:47:30Z</time>
      </trkpt>
      <trkpt lat="48.74034" lon="-3.44052">
        <ele>43</ele>
        <time>2014-10-05T07:47:30Z</time>
      </trkpt>
      <trkpt lat="48.74041" lon="-3.44058">
        <ele>43</ele>
        <time>2014-10-05T07:47:31Z</time>
      </trkpt>
      <trkpt lat="48.74048" lon="-3.44065">
        <ele>43</ele>
        <time>2014-10-05T07:47:32Z</time>
      </trkpt>
      <trkpt lat="48.74055" lon="-3.44071">
        <ele>43</ele>
        <time>2014-10-05T07:47:33Z</time>
      </trkpt>
      <trkpt lat="48.74063" lon="-3.44077">
        <ele>43</ele>
        <time>2014-10-05T07:47:35Z</time>
      </trkpt>
      <trkpt lat="48.7407" lon="-3.44084">
        <ele>43</ele>
        <time>2014-10-05T07:47:35Z</time>
      </trkpt>
      <trkpt lat="48.74077" lon="-3.4409">
        <ele>43</ele>
        <time>2014-10-05T07:47:36Z</time>
      </trkpt>
      <trkpt lat="48.74084" lon="-3.44097">
        <ele>43</ele>
        <time>2014-10-05T07:47:37Z</time>
      </trkpt>
      <trkpt lat="48.74091" lon="-3.44103">
        <ele>43</ele>
        <time>2014-10-05T07:47:38Z</time>
      </trkpt>
      <trkpt lat="48.74097" lon="-3.4411">
        <ele>43</ele>
        <time>2014-10-05T07:47:40Z</time>
      </trkpt>
      <trkpt lat="48.74104" lon="-3.44118">
        <ele>43</ele>
        <time>2014-10-05T07:47:40Z</time>
      </trkpt>
      <trkpt lat="48.74111" lon="-3.44126">
        <ele>43</ele>
        <time>2014-10-05T07:47:41Z</time>
      </trkpt>
      <trkpt lat="48.74118" lon="-3.44134">
        <ele>43</ele>
        <time>2014-10-05T07:47:42Z</time>
      </trkpt>
      <trkpt lat="48.74126" lon="-3.44142">
        <ele>43</ele>
        <time>2014-10-05T07:47:43Z</time>
      </trkpt>
      <trkpt lat="48.74133" lon="-3.44149">
        <ele>43</ele>
        <time>2014-10-05T07:47:44Z</time>
      </trkpt>
      <trkpt lat="48.7414" lon="-3.44157">
        <ele>43</ele>
        <time>2014-10-05T07:47:45Z</time>
      </trkpt>
      <trkpt lat="48.74147" lon="-3.44164">
        <ele>43</ele>
        <time>2014-10-05T07:47:46Z</time>
      </trkpt>
      <trkpt lat="48.74154" lon="-3.44172">
        <ele>43</ele>
        <time>2014-10-05T07:47:47Z</time>
      </trkpt>
      <trkpt lat="48.74161" lon="-3.44179">
        <ele>43</ele>
        <time>2014-10-05T07:47:48Z</time>
      </trkpt>
      <trkpt lat="48.74168" lon="-3.44187">
        <ele>43</ele>
        <time>2014-10-05T07:47:49Z</time>
      </trkpt>
      <trkpt lat="48.74175" lon="-3.44195">
        <ele>43</ele>
        <time>2014-10-05T07:47:50Z</time>
      </trkpt>
      <trkpt lat="48.74182" lon="-3.44202">
        <ele>43</ele>
        <time>2014-10-05T07:47:51Z</time>
      </trkpt>
      <trkpt lat="48.74189" lon="-3.4421">
        <ele>43</ele>
        <time>2014-10-05T07:47:52Z</time>
      </trkpt>
      <trkpt lat="48.74196" lon="-3.44217">
        <ele>43</ele>
        <time>2014-10-05T07:47:53Z</time>
      </trkpt>
      <trkpt lat="48.74202" lon="-3.44225">
        <ele>43</ele>
        <time>2014-10-05T07:47:55Z</time>
      </trkpt>
      <trkpt lat="48.74209" lon="-3.44232">
        <ele>43</ele>
        <time>2014-10-05T07:47:55Z</time>
      </trkpt>
      <trkpt lat="48.74216" lon="-3.4424">
        <ele>43</ele>
        <time>2014-10-05T07:47:56Z</time>
      </trkpt>
      <trkpt lat="48.74223" lon="-3.44247">
        <ele>43</ele>
        <time>2014-10-05T07:47:57Z</time>
      </trkpt>
      <trkpt lat="48.74229" lon="-3.44255">
        <ele>43</ele>
        <time>2014-10-05T07:47:58Z</time>
      </trkpt>
      <trkpt lat="48.74236" lon="-3.44262">
        <ele>43</ele>
        <time>2014-10-05T07:48:00Z</time>
      </trkpt>
      <trkpt lat="48.74243" lon="-3.44269">
        <ele>43</ele>
        <time>2014-10-05T07:48:00Z</time>
      </trkpt>
      <trkpt lat="48.7425" lon="-3.44276">
        <ele>43</ele>
        <time>2014-10-05T07:48:01Z</time>
      </trkpt>
      <trkpt lat="48.74256" lon="-3.44283">
        <ele>43</ele>
        <time>2014-10-05T07:48:02Z</time>
      </trkpt>
      <trkpt lat="48.74263" lon="-3.4429">
        <ele>43</ele>
        <time>2014-10-05T07:48:03Z</time>
      </trkpt>
      <trkpt lat="48.74269" lon="-3.44297">
        <ele>43</ele>
        <time>2014-10-05T07:48:05Z</time>
      </trkpt>
      <trkpt lat="48.74275" lon="-3.44304">
        <ele>43</ele>
        <time>2014-10-05T07:48:05Z</time>
      </trkpt>
      <trkpt lat="48.74281" lon="-3.44311">
        <ele>43</ele>
        <time>2014-10-05T07:48:06Z</time>
      </trkpt>
      <trkpt lat="48.74288" lon="-3.44318">
        <ele>44</ele>
        <time>2014-10-05T07:48:07Z</time>
      </trkpt>
      <trkpt lat="48.74294" lon="-3.44325">
        <ele>44</ele>
        <time>2014-10-05T07:48:08Z</time>
      </trkpt>
      <trkpt lat="48.743" lon="-3.44331">
        <ele>44</ele>
        <time>2014-10-05T07:48:10Z</time>
      </trkpt>
      <trkpt lat="48.74306" lon="-3.44338">
        <ele>44</ele>
        <time>2014-10-05T07:48:10Z</time>
      </trkpt>
      <trkpt lat="48.74312" lon="-3.44344">
        <ele>45</ele>
        <time>2014-10-05T07:48:11Z</time>
      </trkpt>
      <trkpt lat="48.74318" lon="-3.44351">
        <ele>45</ele>
        <time>2014-10-05T07:48:12Z</time>
      </trkpt>
      <trkpt lat="48.74324" lon="-3.44357">
        <ele>45</ele>
        <time>2014-10-05T07:48:14Z</time>
      </trkpt>
      <trkpt lat="48.74329" lon="-3.44363">
        <ele>46</ele>
        <time>2014-10-05T07:48:15Z</time>
      </trkpt>
      <trkpt lat="48.74335" lon="-3.4437">
        <ele>46</ele>
        <time>2014-10-05T07:48:15Z</time>
      </trkpt>
      <trkpt lat="48.7434" lon="-3.44376">
        <ele>46</ele>
        <time>2014-10-05T07:48:16Z</time>
      </trkpt>
      <trkpt lat="48.74346" lon="-3.44383">
        <ele>47</ele>
        <time>2014-10-05T07:48:17Z</time>
      </trkpt>
      <trkpt lat="48.74352" lon="-3.44389">
        <ele>47</ele>
        <time>2014-10-05T07:48:18Z</time>
      </trkpt>
      <trkpt lat="48.74357" lon="-3.44395">
        <ele>47</ele>
        <time>2014-10-05T07:48:19Z</time>
      </trkpt>
      <trkpt lat="48.74363" lon="-3.44401">
        <ele>48</ele>
        <time>2014-10-05T07:48:20Z</time>
      </trkpt>
      <trkpt lat="48.74368" lon="-3.44408">
        <ele>48</ele>
        <time>2014-10-05T07:48:22Z</time>
      </trkpt>
      <trkpt lat="48.74374" lon="-3.44414">
        <ele>49</ele>
        <time>2014-10-05T07:48:22Z</time>
      </trkpt>
      <trkpt lat="48.74379" lon="-3.4442">
        <ele>49</ele>
        <time>2014-10-05T07:48:23Z</time>
      </trkpt>
      <trkpt lat="48.74385" lon="-3.44427">
        <ele>49</ele>
        <time>2014-10-05T07:48:25Z</time>
      </trkpt>
      <trkpt lat="48.7439" lon="-3.44433">
        <ele>50</ele>
        <time>2014-10-05T07:48:25Z</time>
      </trkpt>
      <trkpt lat="48.74396" lon="-3.44439">
        <ele>50</ele>
        <time>2014-10-05T07:48:26Z</time>
      </trkpt>
      <trkpt lat="48.74401" lon="-3.44444">
        <ele>50</ele>
        <time>2014-10-05T07:48:27Z</time>
      </trkpt>
      <trkpt lat="48.74406" lon="-3.4445">
        <ele>51</ele>
        <time>2014-10-05T07:48:28Z</time>
      </trkpt>
      <trkpt lat="48.74411" lon="-3.44455">
        <ele>51</ele>
        <time>2014-10-05T07:48:29Z</time>
      </trkpt>
      <trkpt lat="48.74416" lon="-3.4446">
        <ele>51</ele>
        <time>2014-10-05T07:48:30Z</time>
      </trkpt>
      <trkpt lat="48.74421" lon="-3.44465">
        <ele>52</ele>
        <time>2014-10-05T07:48:31Z</time>
      </trkpt>
      <trkpt lat="48.74426" lon="-3.44471">
        <ele>52</ele>
        <time>2014-10-05T07:48:32Z</time>
      </trkpt>
      <trkpt lat="48.74432" lon="-3.44476">
        <ele>52</ele>
        <time>2014-10-05T07:48:33Z</time>
      </trkpt>
      <trkpt lat="48.74437" lon="-3.44481">
        <ele>53</ele>
        <time>2014-10-05T07:48:34Z</time>
      </trkpt>
      <trkpt lat="48.74442" lon="-3.44487">
        <ele>53</ele>
        <time>2014-10-05T07:48:35Z</time>
      </trkpt>
      <trkpt lat="48.74448" lon="-3.44492">
        <ele>53</ele>
        <time>2014-10-05T07:48:36Z</time>
      </trkpt>
      <trkpt lat="48.74453" lon="-3.44497">
        <ele>54</ele>
        <time>2014-10-05T07:48:37Z</time>
      </trkpt>
      <trkpt lat="48.74458" lon="-3.44502">
        <ele>54</ele>
        <time>2014-10-05T07:48:38Z</time>
      </trkpt>
      <trkpt lat="48.74463" lon="-3.44508">
        <ele>54</ele>
        <time>2014-10-05T07:48:40Z</time>
      </trkpt>
      <trkpt lat="48.74468" lon="-3.44513">
        <ele>54</ele>
        <time>2014-10-05T07:48:40Z</time>
      </trkpt>
      <trkpt lat="48.74474" lon="-3.44517">
        <ele>55</ele>
        <time>2014-10-05T07:48:41Z</time>
      </trkpt>
      <trkpt lat="48.74479" lon="-3.44522">
        <ele>55</ele>
        <time>2014-10-05T07:48:42Z</time>
      </trkpt>
      <trkpt lat="48.74484" lon="-3.44527">
        <ele>55</ele>
        <time>2014-10-05T07:48:43Z</time>
      </trkpt>
      <trkpt lat="48.74489" lon="-3.44531">
        <ele>56</ele>
        <time>2014-10-05T07:48:44Z</time>
      </trkpt>
      <trkpt lat="48.74495" lon="-3.44535">
        <ele>56</ele>
        <time>2014-10-05T07:48:45Z</time>
      </trkpt>
      <trkpt lat="48.745" lon="-3.4454">
        <ele>56</ele>
        <time>2014-10-05T07:48:46Z</time>
      </trkpt>
      <trkpt lat="48.74506" lon="-3.44544">
        <ele>57</ele>
        <time>2014-10-05T07:48:47Z</time>
      </trkpt>
      <trkpt lat="48.74511" lon="-3.44548">
        <ele>57</ele>
        <time>2014-10-05T07:48:48Z</time>
      </trkpt>
      <trkpt lat="48.74516" lon="-3.44552">
        <ele>57</ele>
        <time>2014-10-05T07:48:49Z</time>
      </trkpt>
      <trkpt lat="48.74522" lon="-3.44556">
        <ele>58</ele>
        <time>2014-10-05T07:48:50Z</time>
      </trkpt>
      <trkpt lat="48.74527" lon="-3.44561">
        <ele>58</ele>
        <time>2014-10-05T07:48:51Z</time>
      </trkpt>
      <trkpt lat="48.74532" lon="-3.44565">
        <ele>58</ele>
        <time>2014-10-05T07:48:52Z</time>
      </trkpt>
      <trkpt lat="48.74537" lon="-3.44569">
        <ele>58</ele>
        <time>2014-10-05T07:48:53Z</time>
      </trkpt>
      <trkpt lat="48.74542" lon="-3.44573">
        <ele>59</ele>
        <time>2014-10-05T07:48:55Z</time>
      </trkpt>
      <trkpt lat="48.74547" lon="-3.44577">
        <ele>59</ele>
        <time>2014-10-05T07:48:55Z</time>
      </trkpt>
      <trkpt lat="48.74552" lon="-3.44581">
        <ele>59</ele>
        <time>2014-10-05T07:48:56Z</time>
      </trkpt>
      <trkpt lat="48.74557" lon="-3.44585">
        <ele>59</ele>
        <time>2014-10-05T07:48:57Z</time>
      </trkpt>
      <trkpt lat="48.74563" lon="-3.44589">
        <ele>60</ele>
        <time>2014-10-05T07:48:58Z</time>
      </trkpt>
      <trkpt lat="48.74568" lon="-3.44593">
        <ele>60</ele>
        <time>2014-10-05T07:48:59Z</time>
      </trkpt>
      <trkpt lat="48.74573" lon="-3.44597">
        <ele>60</ele>
        <time>2014-10-05T07:49:00Z</time>
      </trkpt>
      <trkpt lat="48.74578" lon="-3.446">
        <ele>61</ele>
        <time>2014-10-05T07:49:01Z</time>
      </trkpt>
      <trkpt lat="48.74584" lon="-3.44604">
        <ele>61</ele>
        <time>2014-10-05T07:49:02Z</time>
      </trkpt>
      <trkpt lat="48.74589" lon="-3.44608">
        <ele>61</ele>
        <time>2014-10-05T07:49:03Z</time>
      </trkpt>
      <trkpt lat="48.74594" lon="-3.44612">
        <ele>61</ele>
        <time>2014-10-05T07:49:04Z</time>
      </trkpt>
      <trkpt lat="48.74599" lon="-3.44616">
        <ele>62</ele>
        <time>2014-10-05T07:49:05Z</time>
      </trkpt>
      <trkpt lat="48.74604" lon="-3.4462">
        <ele>62</ele>
        <time>2014-10-05T07:49:06Z</time>
      </trkpt>
      <trkpt lat="48.74609" lon="-3.44624">
        <ele>62</ele>
        <time>2014-10-05T07:49:07Z</time>
      </trkpt>
      <trkpt lat="48.74614" lon="-3.44628">
        <ele>62</ele>
        <time>2014-10-05T07:49:08Z</time>
      </trkpt>
      <trkpt lat="48.74619" lon="-3.44632">
        <ele>63</ele>
        <time>2014-10-05T07:49:10Z</time>
      </trkpt>
      <trkpt lat="48.74623" lon="-3.44636">
        <ele>63</ele>
        <time>2014-10-05T07:49:10Z</time>
      </trkpt>
      <trkpt lat="48.74628" lon="-3.44639">
        <ele>63</ele>
        <time>2014-10-05T07:49:11Z</time>
      </trkpt>
      <trkpt lat="48.74633" lon="-3.44643">
        <ele>63</ele>
        <time>2014-10-05T07:49:12Z</time>
      </trkpt>
      <trkpt lat="48.74638" lon="-3.44647">
        <ele>64</ele>
        <time>2014-10-05T07:49:13Z</time>
      </trkpt>
      <trkpt lat="48.74642" lon="-3.44651">
        <ele>64</ele>
        <time>2014-10-05T07:49:14Z</time>
      </trkpt>
      <trkpt lat="48.74647" lon="-3.44654">
        <ele>64</ele>
        <time>2014-10-05T07:49:15Z</time>
      </trkpt>
      <trkpt lat="48.74651" lon="-3.44658">
        <ele>65</ele>
        <time>2014-10-05T07:49:16Z</time>
      </trkpt>
      <trkpt lat="48.74656" lon="-3.44661">
        <ele>65</ele>
        <time>2014-10-05T07:49:17Z</time>
      </trkpt>
      <trkpt lat="48.74661" lon="-3.44665">
        <ele>65</ele>
        <time>2014-10-05T07:49:18Z</time>
      </trkpt>
      <trkpt lat="48.74666" lon="-3.44669">
        <ele>65</ele>
        <time>2014-10-05T07:49:20Z</time>
      </trkpt>
      <trkpt lat="48.7467" lon="-3.44672">
        <ele>66</ele>
        <time>2014-10-05T07:49:20Z</time>
      </trkpt>
      <trkpt lat="48.74675" lon="-3.44676">
        <ele>66</ele>
        <time>2014-10-05T07:49:21Z</time>
      </trkpt>
      <trkpt lat="48.7468" lon="-3.4468">
        <ele>66</ele>
        <time>2014-10-05T07:49:22Z</time>
      </trkpt>
      <trkpt lat="48.74685" lon="-3.44684">
        <ele>66</ele>
        <time>2014-10-05T07:49:23Z</time>
      </trkpt>
      <trkpt lat="48.74689" lon="-3.44687">
        <ele>67</ele>
        <time>2014-10-05T07:49:25Z</time>
      </trkpt>
      <trkpt lat="48.74694" lon="-3.44691">
        <ele>67</ele>
        <time>2014-10-05T07:49:25Z</time>
      </trkpt>
      <trkpt lat="48.74699" lon="-3.44695">
        <ele>67</ele>
        <time>2014-10-05T07:49:26Z</time>
      </trkpt>
      <trkpt lat="48.74704" lon="-3.44698">
        <ele>68</ele>
        <time>2014-10-05T07:49:27Z</time>
      </trkpt>
      <trkpt lat="48.74708" lon="-3.44702">
        <ele>68</ele>
        <time>2014-10-05T07:49:28Z</time>
      </trkpt>
      <trkpt lat="48.74713" lon="-3.44706">
        <ele>68</ele>
        <time>2014-10-05T07:49:29Z</time>
      </trkpt>
      <trkpt lat="48.74718" lon="-3.44709">
        <ele>68</ele>
        <time>2014-10-05T07:49:30Z</time>
      </trkpt>
      <trkpt lat="48.74722" lon="-3.44713">
        <ele>69</ele>
        <time>2014-10-05T07:49:31Z</time>
      </trkpt>
      <trkpt lat="48.74727" lon="-3.44717">
        <ele>69</ele>
        <time>2014-10-05T07:49:32Z</time>
      </trkpt>
      <trkpt lat="48.74732" lon="-3.4472">
        <ele>69</ele>
        <time>2014-10-05T07:49:33Z</time>
      </trkpt>
      <trkpt lat="48.74736" lon="-3.44724">
        <ele>69</ele>
        <time>2014-10-05T07:49:34Z</time>
      </trkpt>
      <trkpt lat="48.74741" lon="-3.44727">
        <ele>70</ele>
        <time>2014-10-05T07:49:35Z</time>
      </trkpt>
      <trkpt lat="48.74745" lon="-3.44731">
        <ele>70</ele>
        <time>2014-10-05T07:49:36Z</time>
      </trkpt>
      <trkpt lat="48.7475" lon="-3.44735">
        <ele>70</ele>
        <time>2014-10-05T07:49:37Z</time>
      </trkpt>
      <trkpt lat="48.74754" lon="-3.44739">
        <ele>70</ele>
        <time>2014-10-05T07:49:38Z</time>
      </trkpt>
      <trkpt lat="48.74759" lon="-3.44742">
        <ele>71</ele>
        <time>2014-10-05T07:49:39Z</time>
      </trkpt>
      <trkpt lat="48.74763" lon="-3.44745">
        <ele>71</ele>
        <time>2014-10-05T07:49:40Z</time>
      </trkpt>
      <trkpt lat="48.74768" lon="-3.44749">
        <ele>71</ele>
        <time>2014-10-05T07:49:41Z</time>
      </trkpt>
      <trkpt lat="48.74772" lon="-3.44753">
        <ele>71</ele>
        <time>2014-10-05T07:49:42Z</time>
      </trkpt>
      <trkpt lat="48.74776" lon="-3.44757">
        <ele>72</ele>
        <time>2014-10-05T07:49:43Z</time>
      </trkpt>
      <trkpt lat="48.7478" lon="-3.4476">
        <ele>72</ele>
        <time>2014-10-05T07:49:44Z</time>
      </trkpt>
      <trkpt lat="48.74784" lon="-3.44763">
        <ele>72</ele>
        <time>2014-10-05T07:49:45Z</time>
      </trkpt>
      <trkpt lat="48.74789" lon="-3.44766">
        <ele>72</ele>
        <time>2014-10-05T07:49:46Z</time>
      </trkpt>
      <trkpt lat="48.74793" lon="-3.44769">
        <ele>73</ele>
        <time>2014-10-05T07:49:47Z</time>
      </trkpt>
      <trkpt lat="48.74797" lon="-3.44773">
        <ele>73</ele>
        <time>2014-10-05T07:49:48Z</time>
      </trkpt>
      <trkpt lat="48.74802" lon="-3.44776">
        <ele>73</ele>
        <time>2014-10-05T07:49:49Z</time>
      </trkpt>
      <trkpt lat="48.74806" lon="-3.4478">
        <ele>73</ele>
        <time>2014-10-05T07:49:50Z</time>
      </trkpt>
      <trkpt lat="48.7481" lon="-3.44783">
        <ele>74</ele>
        <time>2014-10-05T07:49:51Z</time>
      </trkpt>
      <trkpt lat="48.74815" lon="-3.44787">
        <ele>74</ele>
        <time>2014-10-05T07:49:52Z</time>
      </trkpt>
      <trkpt lat="48.74819" lon="-3.4479">
        <ele>74</ele>
        <time>2014-10-05T07:49:53Z</time>
      </trkpt>
      <trkpt lat="48.74824" lon="-3.44794">
        <ele>74</ele>
        <time>2014-10-05T07:49:54Z</time>
      </trkpt>
      <trkpt lat="48.74828" lon="-3.44797">
        <ele>75</ele>
        <time>2014-10-05T07:49:55Z</time>
      </trkpt>
      <trkpt lat="48.74833" lon="-3.44801">
        <ele>75</ele>
        <time>2014-10-05T07:49:56Z</time>
      </trkpt>
      <trkpt lat="48.74838" lon="-3.44804">
        <ele>75</ele>
        <time>2014-10-05T07:49:57Z</time>
      </trkpt>
      <trkpt lat="48.74842" lon="-3.44808">
        <ele>76</ele>
        <time>2014-10-05T07:49:58Z</time>
      </trkpt>
      <trkpt lat="48.74847" lon="-3.44811">
        <ele>76</ele>
        <time>2014-10-05T07:49:59Z</time>
      </trkpt>
      <trkpt lat="48.74852" lon="-3.44814">
        <ele>76</ele>
        <time>2014-10-05T07:50:00Z</time>
      </trkpt>
      <trkpt lat="48.74857" lon="-3.44817">
        <ele>76</ele>
        <time>2014-10-05T07:50:01Z</time>
      </trkpt>
      <trkpt lat="48.74861" lon="-3.44822">
        <ele>77</ele>
        <time>2014-10-05T07:50:02Z</time>
      </trkpt>
      <trkpt lat="48.74866" lon="-3.44826">
        <ele>77</ele>
        <time>2014-10-05T07:50:03Z</time>
      </trkpt>
      <trkpt lat="48.7487" lon="-3.44829">
        <ele>77</ele>
        <time>2014-10-05T07:50:04Z</time>
      </trkpt>
      <trkpt lat="48.74875" lon="-3.44832">
        <ele>78</ele>
        <time>2014-10-05T07:50:05Z</time>
      </trkpt>
      <trkpt lat="48.7488" lon="-3.44835">
        <ele>78</ele>
        <time>2014-10-05T07:50:06Z</time>
      </trkpt>
      <trkpt lat="48.74885" lon="-3.44839">
        <ele>78</ele>
        <time>2014-10-05T07:50:07Z</time>
      </trkpt>
      <trkpt lat="48.74889" lon="-3.44843">
        <ele>79</ele>
        <time>2014-10-05T07:50:08Z</time>
      </trkpt>
      <trkpt lat="48.74894" lon="-3.44846">
        <ele>79</ele>
        <time>2014-10-05T07:50:09Z</time>
      </trkpt>
      <trkpt lat="48.74898" lon="-3.44849">
        <ele>79</ele>
        <time>2014-10-05T07:50:10Z</time>
      </trkpt>
      <trkpt lat="48.74903" lon="-3.44852">
        <ele>79</ele>
        <time>2014-10-05T07:50:11Z</time>
      </trkpt>
      <trkpt lat="48.74908" lon="-3.44855">
        <ele>80</ele>
        <time>2014-10-05T07:50:12Z</time>
      </trkpt>
      <trkpt lat="48.74913" lon="-3.44859">
        <ele>80</ele>
        <time>2014-10-05T07:50:13Z</time>
      </trkpt>
      <trkpt lat="48.74917" lon="-3.44862">
        <ele>80</ele>
        <time>2014-10-05T07:50:14Z</time>
      </trkpt>
      <trkpt lat="48.74922" lon="-3.44864">
        <ele>80</ele>
        <time>2014-10-05T07:50:15Z</time>
      </trkpt>
      <trkpt lat="48.74927" lon="-3.44866">
        <ele>81</ele>
        <time>2014-10-05T07:50:16Z</time>
      </trkpt>
      <trkpt lat="48.74932" lon="-3.44869">
        <ele>81</ele>
        <time>2014-10-05T07:50:17Z</time>
      </trkpt>
      <trkpt lat="48.74937" lon="-3.44871">
        <ele>81</ele>
        <time>2014-10-05T07:50:18Z</time>
      </trkpt>
      <trkpt lat="48.74942" lon="-3.44874">
        <ele>81</ele>
        <time>2014-10-05T07:50:20Z</time>
      </trkpt>
      <trkpt lat="48.74947" lon="-3.44876">
        <ele>81</ele>
        <time>2014-10-05T07:50:20Z</time>
      </trkpt>
      <trkpt lat="48.74952" lon="-3.44878">
        <ele>82</ele>
        <time>2014-10-05T07:50:21Z</time>
      </trkpt>
      <trkpt lat="48.74957" lon="-3.44879">
        <ele>82</ele>
        <time>2014-10-05T07:50:22Z</time>
      </trkpt>
      <trkpt lat="48.74962" lon="-3.44881">
        <ele>82</ele>
        <time>2014-10-05T07:50:23Z</time>
      </trkpt>
      <trkpt lat="48.74968" lon="-3.44882">
        <ele>82</ele>
        <time>2014-10-05T07:50:25Z</time>
      </trkpt>
      <trkpt lat="48.74973" lon="-3.44883">
        <ele>83</ele>
        <time>2014-10-05T07:50:25Z</time>
      </trkpt>
      <trkpt lat="48.74978" lon="-3.44884">
        <ele>83</ele>
        <time>2014-10-05T07:50:26Z</time>
      </trkpt>
      <trkpt lat="48.74983" lon="-3.44885">
        <ele>83</ele>
        <time>2014-10-05T07:50:27Z</time>
      </trkpt>
      <trkpt lat="48.74989" lon="-3.44886">
        <ele>83</ele>
        <time>2014-10-05T07:50:28Z</time>
      </trkpt>
      <trkpt lat="48.74994" lon="-3.44887">
        <ele>83</ele>
        <time>2014-10-05T07:50:30Z</time>
      </trkpt>
      <trkpt lat="48.74999" lon="-3.44887">
        <ele>84</ele>
        <time>2014-10-05T07:50:30Z</time>
      </trkpt>
      <trkpt lat="48.75005" lon="-3.44887">
        <ele>84</ele>
        <time>2014-10-05T07:50:31Z</time>
      </trkpt>
      <trkpt lat="48.7501" lon="-3.44888">
        <ele>84</ele>
        <time>2014-10-05T07:50:32Z</time>
      </trkpt>
      <trkpt lat="48.75016" lon="-3.44889">
        <ele>84</ele>
        <time>2014-10-05T07:50:33Z</time>
      </trkpt>
      <trkpt lat="48.75022" lon="-3.44889">
        <ele>84</ele>
        <time>2014-10-05T07:50:34Z</time>
      </trkpt>
      <trkpt lat="48.75027" lon="-3.4489">
        <ele>84</ele>
        <time>2014-10-05T07:50:35Z</time>
      </trkpt>
      <trkpt lat="48.75033" lon="-3.4489">
        <ele>85</ele>
        <time>2014-10-05T07:50:36Z</time>
      </trkpt>
      <trkpt lat="48.75039" lon="-3.44891">
        <ele>85</ele>
        <time>2014-10-05T07:50:37Z</time>
      </trkpt>
      <trkpt lat="48.75044" lon="-3.44892">
        <ele>85</ele>
        <time>2014-10-05T07:50:38Z</time>
      </trkpt>
      <trkpt lat="48.7505" lon="-3.44893">
        <ele>85</ele>
        <time>2014-10-05T07:50:40Z</time>
      </trkpt>
      <trkpt lat="48.75055" lon="-3.44894">
        <ele>85</ele>
        <time>2014-10-05T07:50:40Z</time>
      </trkpt>
      <trkpt lat="48.75061" lon="-3.44894">
        <ele>86</ele>
        <time>2014-10-05T07:50:41Z</time>
      </trkpt>
      <trkpt lat="48.75066" lon="-3.44895">
        <ele>86</ele>
        <time>2014-10-05T07:50:42Z</time>
      </trkpt>
      <trkpt lat="48.75071" lon="-3.44895">
        <ele>86</ele>
        <time>2014-10-05T07:50:43Z</time>
      </trkpt>
      <trkpt lat="48.75076" lon="-3.44895">
        <ele>86</ele>
        <time>2014-10-05T07:50:45Z</time>
      </trkpt>
      <trkpt lat="48.75081" lon="-3.44895">
        <ele>86</ele>
        <time>2014-10-05T07:50:45Z</time>
      </trkpt>
      <trkpt lat="48.75086" lon="-3.44893">
        <ele>86</ele>
        <time>2014-10-05T07:50:46Z</time>
      </trkpt>
      <trkpt lat="48.75091" lon="-3.44891">
        <ele>86</ele>
        <time>2014-10-05T07:50:47Z</time>
      </trkpt>
      <trkpt lat="48.75095" lon="-3.44887">
        <ele>86</ele>
        <time>2014-10-05T07:50:48Z</time>
      </trkpt>
      <trkpt lat="48.751" lon="-3.44884">
        <ele>87</ele>
        <time>2014-10-05T07:50:49Z</time>
      </trkpt>
      <trkpt lat="48.75104" lon="-3.44879">
        <ele>87</ele>
        <time>2014-10-05T07:50:50Z</time>
      </trkpt>
      <trkpt lat="48.75108" lon="-3.44874">
        <ele>87</ele>
        <time>2014-10-05T07:50:51Z</time>
      </trkpt>
      <trkpt lat="48.75111" lon="-3.44868">
        <ele>87</ele>
        <time>2014-10-05T07:50:52Z</time>
      </trkpt>
      <trkpt lat="48.75114" lon="-3.44861">
        <ele>87</ele>
        <time>2014-10-05T07:50:53Z</time>
      </trkpt>
      <trkpt lat="48.75116" lon="-3.44853">
        <ele>87</ele>
        <time>2014-10-05T07:50:54Z</time>
      </trkpt>
      <trkpt lat="48.75117" lon="-3.44845">
        <ele>87</ele>
        <time>2014-10-05T07:50:55Z</time>
      </trkpt>
      <trkpt lat="48.75118" lon="-3.44836">
        <ele>87</ele>
        <time>2014-10-05T07:50:56Z</time>
      </trkpt>
      <trkpt lat="48.75119" lon="-3.44828">
        <ele>87</ele>
        <time>2014-10-05T07:50:57Z</time>
      </trkpt>
      <trkpt lat="48.75119" lon="-3.44819">
        <ele>87</ele>
        <time>2014-10-05T07:50:58Z</time>
      </trkpt>
      <trkpt lat="48.75118" lon="-3.4481">
        <ele>87</ele>
        <time>2014-10-05T07:51:00Z</time>
      </trkpt>
      <trkpt lat="48.75118" lon="-3.44801">
        <ele>87</ele>
        <time>2014-10-05T07:51:00Z</time>
      </trkpt>
      <trkpt lat="48.75117" lon="-3.44792">
        <ele>87</ele>
        <time>2014-10-05T07:51:01Z</time>
      </trkpt>
      <trkpt lat="48.75117" lon="-3.44782">
        <ele>87</ele>
        <time>2014-10-05T07:51:02Z</time>
      </trkpt>
      <trkpt lat="48.75118" lon="-3.44773">
        <ele>87</ele>
        <time>2014-10-05T07:51:03Z</time>
      </trkpt>
      <trkpt lat="48.75118" lon="-3.44764">
        <ele>88</ele>
        <time>2014-10-05T07:51:05Z</time>
      </trkpt>
      <trkpt lat="48.75118" lon="-3.44755">
        <ele>88</ele>
        <time>2014-10-05T07:51:05Z</time>
      </trkpt>
      <trkpt lat="48.75119" lon="-3.44745">
        <ele>88</ele>
        <time>2014-10-05T07:51:06Z</time>
      </trkpt>
      <trkpt lat="48.75119" lon="-3.44736">
        <ele>88</ele>
        <time>2014-10-05T07:51:07Z</time>
      </trkpt>
      <trkpt lat="48.75119" lon="-3.44727">
        <ele>88</ele>
        <time>2014-10-05T07:51:08Z</time>
      </trkpt>
      <trkpt lat="48.7512" lon="-3.44717">
        <ele>88</ele>
        <time>2014-10-05T07:51:10Z</time>
      </trkpt>
      <trkpt lat="48.7512" lon="-3.44708">
        <ele>88</ele>
        <time>2014-10-05T07:51:10Z</time>
      </trkpt>
      <trkpt lat="48.7512" lon="-3.44699">
        <ele>89</ele>
        <time>2014-10-05T07:51:11Z</time>
      </trkpt>
      <trkpt lat="48.75121" lon="-3.44689">
        <ele>89</ele>
        <time>2014-10-05T07:51:12Z</time>
      </trkpt>
      <trkpt lat="48.75121" lon="-3.4468">
        <ele>89</ele>
        <time>2014-10-05T07:51:13Z</time>
      </trkpt>
      <trkpt lat="48.75121" lon="-3.4467">
        <ele>89</ele>
        <time>2014-10-05T07:51:14Z</time>
      </trkpt>
      <trkpt lat="48.75121" lon="-3.44661">
        <ele>89</ele>
        <time>2014-10-05T07:51:15Z</time>
      </trkpt>
      <trkpt lat="48.75121" lon="-3.44651">
        <ele>89</ele>
        <time>2014-10-05T07:51:16Z</time>
      </trkpt>
      <trkpt lat="48.75122" lon="-3.44641">
        <ele>89</ele>
        <time>2014-10-05T07:51:17Z</time>
      </trkpt>
      <trkpt lat="48.75122" lon="-3.44632">
        <ele>89</ele>
        <time>2014-10-05T07:51:18Z</time>
      </trkpt>
      <trkpt lat="48.75121" lon="-3.44621">
        <ele>89</ele>
        <time>2014-10-05T07:51:20Z</time>
      </trkpt>
      <trkpt lat="48.75121" lon="-3.44612">
        <ele>89</ele>
        <time>2014-10-05T07:51:20Z</time>
      </trkpt>
      <trkpt lat="48.75119" lon="-3.44602">
        <ele>89</ele>
        <time>2014-10-05T07:51:21Z</time>
      </trkpt>
      <trkpt lat="48.75117" lon="-3.44593">
        <ele>89</ele>
        <time>2014-10-05T07:51:22Z</time>
      </trkpt>
      <trkpt lat="48.75115" lon="-3.44585">
        <ele>89</ele>
        <time>2014-10-05T07:51:23Z</time>
      </trkpt>
      <trkpt lat="48.75113" lon="-3.44578">
        <ele>89</ele>
        <time>2014-10-05T07:51:24Z</time>
      </trkpt>
      <trkpt lat="48.75109" lon="-3.44571">
        <ele>89</ele>
        <time>2014-10-05T07:51:25Z</time>
      </trkpt>
      <trkpt lat="48.75107" lon="-3.44565">
        <ele>89</ele>
        <time>2014-10-05T07:51:26Z</time>
      </trkpt>
      <trkpt lat="48.75106" lon="-3.44558">
        <ele>89</ele>
        <time>2014-10-05T07:51:27Z</time>
      </trkpt>
      <trkpt lat="48.75108" lon="-3.44551">
        <ele>89</ele>
        <time>2014-10-05T07:51:28Z</time>
      </trkpt>
      <trkpt lat="48.75112" lon="-3.44543">
        <ele>89</ele>
        <time>2014-10-05T07:51:29Z</time>
      </trkpt>
      <trkpt lat="48.75117" lon="-3.44535">
        <ele>89</ele>
        <time>2014-10-05T07:51:30Z</time>
      </trkpt>
      <trkpt lat="48.75121" lon="-3.44527">
        <ele>89</ele>
        <time>2014-10-05T07:51:31Z</time>
      </trkpt>
      <trkpt lat="48.75125" lon="-3.44518">
        <ele>89</ele>
        <time>2014-10-05T07:51:32Z</time>
      </trkpt>
      <trkpt lat="48.75129" lon="-3.44509">
        <ele>89</ele>
        <time>2014-10-05T07:51:33Z</time>
      </trkpt>
      <trkpt lat="48.75132" lon="-3.445">
        <ele>89</ele>
        <time>2014-10-05T07:51:34Z</time>
      </trkpt>
      <trkpt lat="48.75136" lon="-3.4449">
        <ele>89</ele>
        <time>2014-10-05T07:51:35Z</time>
      </trkpt>
      <trkpt lat="48.75141" lon="-3.44481">
        <ele>89</ele>
        <time>2014-10-05T07:51:36Z</time>
      </trkpt>
      <trkpt lat="48.75145" lon="-3.44472">
        <ele>89</ele>
        <time>2014-10-05T07:51:37Z</time>
      </trkpt>
      <trkpt lat="48.7515" lon="-3.44464">
        <ele>89</ele>
        <time>2014-10-05T07:51:38Z</time>
      </trkpt>
      <trkpt lat="48.75155" lon="-3.44456">
        <ele>89</ele>
        <time>2014-10-05T07:51:39Z</time>
      </trkpt>
      <trkpt lat="48.7516" lon="-3.44447">
        <ele>89</ele>
        <time>2014-10-05T07:51:40Z</time>
      </trkpt>
      <trkpt lat="48.75165" lon="-3.44439">
        <ele>89</ele>
        <time>2014-10-05T07:51:41Z</time>
      </trkpt>
      <trkpt lat="48.7517" lon="-3.44431">
        <ele>89</ele>
        <time>2014-10-05T07:51:42Z</time>
      </trkpt>
      <trkpt lat="48.75175" lon="-3.44424">
        <ele>89</ele>
        <time>2014-10-05T07:51:43Z</time>
      </trkpt>
      <trkpt lat="48.75181" lon="-3.44416">
        <ele>89</ele>
        <time>2014-10-05T07:51:44Z</time>
      </trkpt>
      <trkpt lat="48.75186" lon="-3.44408">
        <ele>90</ele>
        <time>2014-10-05T07:51:45Z</time>
      </trkpt>
      <trkpt lat="48.75191" lon="-3.44399">
        <ele>90</ele>
        <time>2014-10-05T07:51:46Z</time>
      </trkpt>
      <trkpt lat="48.75197" lon="-3.44391">
        <ele>90</ele>
        <time>2014-10-05T07:51:47Z</time>
      </trkpt>
      <trkpt lat="48.75202" lon="-3.44383">
        <ele>90</ele>
        <time>2014-10-05T07:51:48Z</time>
      </trkpt>
      <trkpt lat="48.75208" lon="-3.44374">
        <ele>91</ele>
        <time>2014-10-05T07:51:49Z</time>
      </trkpt>
      <trkpt lat="48.75214" lon="-3.44366">
        <ele>91</ele>
        <time>2014-10-05T07:51:50Z</time>
      </trkpt>
      <trkpt lat="48.75219" lon="-3.44358">
        <ele>91</ele>
        <time>2014-10-05T07:51:51Z</time>
      </trkpt>
      <trkpt lat="48.75225" lon="-3.4435">
        <ele>91</ele>
        <time>2014-10-05T07:51:52Z</time>
      </trkpt>
      <trkpt lat="48.75231" lon="-3.44341">
        <ele>91</ele>
        <time>2014-10-05T07:51:53Z</time>
      </trkpt>
      <trkpt lat="48.75237" lon="-3.44333">
        <ele>92</ele>
        <time>2014-10-05T07:51:54Z</time>
      </trkpt>
      <trkpt lat="48.75243" lon="-3.44324">
        <ele>92</ele>
        <time>2014-10-05T07:51:55Z</time>
      </trkpt>
      <trkpt lat="48.75248" lon="-3.44316">
        <ele>92</ele>
        <time>2014-10-05T07:51:56Z</time>
      </trkpt>
      <trkpt lat="48.75254" lon="-3.44308">
        <ele>92</ele>
        <time>2014-10-05T07:51:57Z</time>
      </trkpt>
      <trkpt lat="48.7526" lon="-3.443">
        <ele>92</ele>
        <time>2014-10-05T07:51:58Z</time>
      </trkpt>
      <trkpt lat="48.75266" lon="-3.44291">
        <ele>92</ele>
        <time>2014-10-05T07:51:59Z</time>
      </trkpt>
      <trkpt lat="48.75272" lon="-3.44282">
        <ele>92</ele>
        <time>2014-10-05T07:52:00Z</time>
      </trkpt>
      <trkpt lat="48.75278" lon="-3.44274">
        <ele>92</ele>
        <time>2014-10-05T07:52:01Z</time>
      </trkpt>
      <trkpt lat="48.75284" lon="-3.44266">
        <ele>92</ele>
        <time>2014-10-05T07:52:02Z</time>
      </trkpt>
      <trkpt lat="48.7529" lon="-3.44257">
        <ele>92</ele>
        <time>2014-10-05T07:52:03Z</time>
      </trkpt>
      <trkpt lat="48.75296" lon="-3.44249">
        <ele>92</ele>
        <time>2014-10-05T07:52:04Z</time>
      </trkpt>
      <trkpt lat="48.75301" lon="-3.4424">
        <ele>92</ele>
        <time>2014-10-05T07:52:05Z</time>
      </trkpt>
      <trkpt lat="48.75306" lon="-3.4423">
        <ele>92</ele>
        <time>2014-10-05T07:52:06Z</time>
      </trkpt>
      <trkpt lat="48.75311" lon="-3.4422">
        <ele>92</ele>
        <time>2014-10-05T07:52:07Z</time>
      </trkpt>
      <trkpt lat="48.75315" lon="-3.44209">
        <ele>92</ele>
        <time>2014-10-05T07:52:08Z</time>
      </trkpt>
      <trkpt lat="48.75319" lon="-3.44198">
        <ele>92</ele>
        <time>2014-10-05T07:52:09Z</time>
      </trkpt>
      <trkpt lat="48.75323" lon="-3.44187">
        <ele>92</ele>
        <time>2014-10-05T07:52:10Z</time>
      </trkpt>
      <trkpt lat="48.75327" lon="-3.44175">
        <ele>92</ele>
        <time>2014-10-05T07:52:11Z</time>
      </trkpt>
      <trkpt lat="48.7533" lon="-3.44164">
        <ele>92</ele>
        <time>2014-10-05T07:52:12Z</time>
      </trkpt>
      <trkpt lat="48.75334" lon="-3.44152">
        <ele>92</ele>
        <time>2014-10-05T07:52:13Z</time>
      </trkpt>
      <trkpt lat="48.75338" lon="-3.44141">
        <ele>92</ele>
        <time>2014-10-05T07:52:14Z</time>
      </trkpt>
      <trkpt lat="48.75342" lon="-3.44129">
        <ele>93</ele>
        <time>2014-10-05T07:52:15Z</time>
      </trkpt>
      <trkpt lat="48.75346" lon="-3.44118">
        <ele>93</ele>
        <time>2014-10-05T07:52:16Z</time>
      </trkpt>
      <trkpt lat="48.7535" lon="-3.44107">
        <ele>93</ele>
        <time>2014-10-05T07:52:17Z</time>
      </trkpt>
      <trkpt lat="48.75355" lon="-3.44096">
        <ele>93</ele>
        <time>2014-10-05T07:52:18Z</time>
      </trkpt>
      <trkpt lat="48.75359" lon="-3.44086">
        <ele>93</ele>
        <time>2014-10-05T07:52:19Z</time>
      </trkpt>
      <trkpt lat="48.75364" lon="-3.44076">
        <ele>93</ele>
        <time>2014-10-05T07:52:20Z</time>
      </trkpt>
      <trkpt lat="48.75369" lon="-3.44066">
        <ele>93</ele>
        <time>2014-10-05T07:52:21Z</time>
      </trkpt>
      <trkpt lat="48.75375" lon="-3.44056">
        <ele>93</ele>
        <time>2014-10-05T07:52:22Z</time>
      </trkpt>
      <trkpt lat="48.7538" lon="-3.44046">
        <ele>93</ele>
        <time>2014-10-05T07:52:23Z</time>
      </trkpt>
      <trkpt lat="48.75386" lon="-3.44037">
        <ele>93</ele>
        <time>2014-10-05T07:52:24Z</time>
      </trkpt>
      <trkpt lat="48.75393" lon="-3.44027">
        <ele>93</ele>
        <time>2014-10-05T07:52:25Z</time>
      </trkpt>
      <trkpt lat="48.75399" lon="-3.44019">
        <ele>93</ele>
        <time>2014-10-05T07:52:26Z</time>
      </trkpt>
      <trkpt lat="48.75406" lon="-3.4401">
        <ele>93</ele>
        <time>2014-10-05T07:52:27Z</time>
      </trkpt>
      <trkpt lat="48.75412" lon="-3.44002">
        <ele>93</ele>
        <time>2014-10-05T07:52:28Z</time>
      </trkpt>
      <trkpt lat="48.75419" lon="-3.43994">
        <ele>93</ele>
        <time>2014-10-05T07:52:29Z</time>
      </trkpt>
      <trkpt lat="48.75426" lon="-3.43987">
        <ele>93</ele>
        <time>2014-10-05T07:52:30Z</time>
      </trkpt>
      <trkpt lat="48.75433" lon="-3.43979">
        <ele>93</ele>
        <time>2014-10-05T07:52:31Z</time>
      </trkpt>
      <trkpt lat="48.7544" lon="-3.43972">
        <ele>93</ele>
        <time>2014-10-05T07:52:32Z</time>
      </trkpt>
      <trkpt lat="48.75447" lon="-3.43965">
        <ele>93</ele>
        <time>2014-10-05T07:52:33Z</time>
      </trkpt>
      <trkpt lat="48.75455" lon="-3.43959">
        <ele>93</ele>
        <time>2014-10-05T07:52:34Z</time>
      </trkpt>
      <trkpt lat="48.75463" lon="-3.43954">
        <ele>93</ele>
        <time>2014-10-05T07:52:35Z</time>
      </trkpt>
      <trkpt lat="48.7547" lon="-3.43948">
        <ele>93</ele>
        <time>2014-10-05T07:52:36Z</time>
      </trkpt>
      <trkpt lat="48.75478" lon="-3.43943">
        <ele>93</ele>
        <time>2014-10-05T07:52:37Z</time>
      </trkpt>
      <trkpt lat="48.75487" lon="-3.43939">
        <ele>94</ele>
        <time>2014-10-05T07:52:38Z</time>
      </trkpt>
      <trkpt lat="48.75495" lon="-3.43934">
        <ele>94</ele>
        <time>2014-10-05T07:52:39Z</time>
      </trkpt>
      <trkpt lat="48.75503" lon="-3.4393">
        <ele>94</ele>
        <time>2014-10-05T07:52:40Z</time>
      </trkpt>
      <trkpt lat="48.75511" lon="-3.43925">
        <ele>94</ele>
        <time>2014-10-05T07:52:41Z</time>
      </trkpt>
      <trkpt lat="48.75519" lon="-3.43921">
        <ele>94</ele>
        <time>2014-10-05T07:52:42Z</time>
      </trkpt>
      <trkpt lat="48.75527" lon="-3.43917">
        <ele>94</ele>
        <time>2014-10-05T07:52:43Z</time>
      </trkpt>
      <trkpt lat="48.75535" lon="-3.43913">
        <ele>94</ele>
        <time>2014-10-05T07:52:44Z</time>
      </trkpt>
      <trkpt lat="48.75543" lon="-3.43909">
        <ele>94</ele>
        <time>2014-10-05T07:52:45Z</time>
      </trkpt>
      <trkpt lat="48.75551" lon="-3.43905">
        <ele>95</ele>
        <time>2014-10-05T07:52:46Z</time>
      </trkpt>
      <trkpt lat="48.75558" lon="-3.439">
        <ele>95</ele>
        <time>2014-10-05T07:52:47Z</time>
      </trkpt>
      <trkpt lat="48.75566" lon="-3.43896">
        <ele>95</ele>
        <time>2014-10-05T07:52:48Z</time>
      </trkpt>
      <trkpt lat="48.75573" lon="-3.43892">
        <ele>95</ele>
        <time>2014-10-05T07:52:49Z</time>
      </trkpt>
      <trkpt lat="48.75581" lon="-3.43888">
        <ele>95</ele>
        <time>2014-10-05T07:52:50Z</time>
      </trkpt>
      <trkpt lat="48.75587" lon="-3.43883">
        <ele>95</ele>
        <time>2014-10-05T07:52:51Z</time>
      </trkpt>
      <trkpt lat="48.75594" lon="-3.43877">
        <ele>95</ele>
        <time>2014-10-05T07:52:52Z</time>
      </trkpt>
      <trkpt lat="48.75599" lon="-3.43869">
        <ele>96</ele>
        <time>2014-10-05T07:52:53Z</time>
      </trkpt>
      <trkpt lat="48.75605" lon="-3.43861">
        <ele>96</ele>
        <time>2014-10-05T07:52:54Z</time>
      </trkpt>
      <trkpt lat="48.75611" lon="-3.43855">
        <ele>96</ele>
        <time>2014-10-05T07:52:55Z</time>
      </trkpt>
      <trkpt lat="48.75618" lon="-3.43852">
        <ele>96</ele>
        <time>2014-10-05T07:52:56Z</time>
      </trkpt>
      <trkpt lat="48.75626" lon="-3.43852">
        <ele>96</ele>
        <time>2014-10-05T07:52:57Z</time>
      </trkpt>
      <trkpt lat="48.75635" lon="-3.43852">
        <ele>96</ele>
        <time>2014-10-05T07:52:58Z</time>
      </trkpt>
      <trkpt lat="48.75643" lon="-3.43851">
        <ele>96</ele>
        <time>2014-10-05T07:52:59Z</time>
      </trkpt>
      <trkpt lat="48.75651" lon="-3.43848">
        <ele>96</ele>
        <time>2014-10-05T07:53:00Z</time>
      </trkpt>
      <trkpt lat="48.7566" lon="-3.43844">
        <ele>96</ele>
        <time>2014-10-05T07:53:01Z</time>
      </trkpt>
      <trkpt lat="48.75668" lon="-3.4384">
        <ele>97</ele>
        <time>2014-10-05T07:53:02Z</time>
      </trkpt>
      <trkpt lat="48.75676" lon="-3.43835">
        <ele>97</ele>
        <time>2014-10-05T07:53:03Z</time>
      </trkpt>
      <trkpt lat="48.75684" lon="-3.43831">
        <ele>97</ele>
        <time>2014-10-05T07:53:04Z</time>
      </trkpt>
      <trkpt lat="48.75692" lon="-3.43827">
        <ele>97</ele>
        <time>2014-10-05T07:53:05Z</time>
      </trkpt>
      <trkpt lat="48.757" lon="-3.43823">
        <ele>97</ele>
        <time>2014-10-05T07:53:06Z</time>
      </trkpt>
      <trkpt lat="48.75708" lon="-3.43819">
        <ele>97</ele>
        <time>2014-10-05T07:53:07Z</time>
      </trkpt>
      <trkpt lat="48.75716" lon="-3.43814">
        <ele>97</ele>
        <time>2014-10-05T07:53:08Z</time>
      </trkpt>
      <trkpt lat="48.75723" lon="-3.4381">
        <ele>97</ele>
        <time>2014-10-05T07:53:09Z</time>
      </trkpt>
      <trkpt lat="48.75731" lon="-3.43806">
        <ele>97</ele>
        <time>2014-10-05T07:53:10Z</time>
      </trkpt>
      <trkpt lat="48.75739" lon="-3.43802">
        <ele>97</ele>
        <time>2014-10-05T07:53:11Z</time>
      </trkpt>
      <trkpt lat="48.75747" lon="-3.43798">
        <ele>97</ele>
        <time>2014-10-05T07:53:12Z</time>
      </trkpt>
      <trkpt lat="48.75755" lon="-3.43794">
        <ele>98</ele>
        <time>2014-10-05T07:53:13Z</time>
      </trkpt>
      <trkpt lat="48.75762" lon="-3.4379">
        <ele>98</ele>
        <time>2014-10-05T07:53:14Z</time>
      </trkpt>
      <trkpt lat="48.7577" lon="-3.43785">
        <ele>98</ele>
        <time>2014-10-05T07:53:15Z</time>
      </trkpt>
      <trkpt lat="48.75778" lon="-3.43781">
        <ele>98</ele>
        <time>2014-10-05T07:53:16Z</time>
      </trkpt>
      <trkpt lat="48.75786" lon="-3.43776">
        <ele>98</ele>
        <time>2014-10-05T07:53:17Z</time>
      </trkpt>
      <trkpt lat="48.75794" lon="-3.43772">
        <ele>98</ele>
        <time>2014-10-05T07:53:18Z</time>
      </trkpt>
      <trkpt lat="48.75802" lon="-3.43768">
        <ele>98</ele>
        <time>2014-10-05T07:53:19Z</time>
      </trkpt>
      <trkpt lat="48.7581" lon="-3.43763">
        <ele>98</ele>
        <time>2014-10-05T07:53:20Z</time>
      </trkpt>
      <trkpt lat="48.75818" lon="-3.43759">
        <ele>98</ele>
        <time>2014-10-05T07:53:21Z</time>
      </trkpt>
      <trkpt lat="48.75827" lon="-3.43755">
        <ele>98</ele>
        <time>2014-10-05T07:53:22Z</time>
      </trkpt>
      <trkpt lat="48.75835" lon="-3.4375">
        <ele>98</ele>
        <time>2014-10-05T07:53:23Z</time>
      </trkpt>
      <trkpt lat="48.75843" lon="-3.43745">
        <ele>98</ele>
        <time>2014-10-05T07:53:24Z</time>
      </trkpt>
      <trkpt lat="48.75852" lon="-3.43741">
        <ele>98</ele>
        <time>2014-10-05T07:53:25Z</time>
      </trkpt>
      <trkpt lat="48.7586" lon="-3.43736">
        <ele>98</ele>
        <time>2014-10-05T07:53:26Z</time>
      </trkpt>
      <trkpt lat="48.75869" lon="-3.43731">
        <ele>98</ele>
        <time>2014-10-05T07:53:27Z</time>
      </trkpt>
      <trkpt lat="48.75877" lon="-3.43726">
        <ele>98</ele>
        <time>2014-10-05T07:53:28Z</time>
      </trkpt>
      <trkpt lat="48.75886" lon="-3.43721">
        <ele>98</ele>
        <time>2014-10-05T07:53:29Z</time>
      </trkpt>
      <trkpt lat="48.75894" lon="-3.43716">
        <ele>98</ele>
        <time>2014-10-05T07:53:30Z</time>
      </trkpt>
      <trkpt lat="48.75902" lon="-3.4371">
        <ele>98</ele>
        <time>2014-10-05T07:53:31Z</time>
      </trkpt>
      <trkpt lat="48.7591" lon="-3.43704">
        <ele>98</ele>
        <time>2014-10-05T07:53:32Z</time>
      </trkpt>
      <trkpt lat="48.75918" lon="-3.43699">
        <ele>98</ele>
        <time>2014-10-05T07:53:33Z</time>
      </trkpt>
      <trkpt lat="48.75926" lon="-3.43693">
        <ele>98</ele>
        <time>2014-10-05T07:53:34Z</time>
      </trkpt>
      <trkpt lat="48.75934" lon="-3.43687">
        <ele>98</ele>
        <time>2014-10-05T07:53:35Z</time>
      </trkpt>
      <trkpt lat="48.75942" lon="-3.43681">
        <ele>98</ele>
        <time>2014-10-05T07:53:36Z</time>
      </trkpt>
      <trkpt lat="48.7595" lon="-3.43674">
        <ele>98</ele>
        <time>2014-10-05T07:53:37Z</time>
      </trkpt>
      <trkpt lat="48.75957" lon="-3.43667">
        <ele>98</ele>
        <time>2014-10-05T07:53:38Z</time>
      </trkpt>
      <trkpt lat="48.75965" lon="-3.4366">
        <ele>98</ele>
        <time>2014-10-05T07:53:39Z</time>
      </trkpt>
      <trkpt lat="48.75972" lon="-3.43653">
        <ele>98</ele>
        <time>2014-10-05T07:53:40Z</time>
      </trkpt>
      <trkpt lat="48.7598" lon="-3.43646">
        <ele>98</ele>
        <time>2014-10-05T07:53:41Z</time>
      </trkpt>
      <trkpt lat="48.75987" lon="-3.43638">
        <ele>99</ele>
        <time>2014-10-05T07:53:42Z</time>
      </trkpt>
      <trkpt lat="48.75994" lon="-3.43631">
        <ele>99</ele>
        <time>2014-10-05T07:53:43Z</time>
      </trkpt>
      <trkpt lat="48.76002" lon="-3.43623">
        <ele>99</ele>
        <time>2014-10-05T07:53:44Z</time>
      </trkpt>
      <trkpt lat="48.76009" lon="-3.43615">
        <ele>99</ele>
        <time>2014-10-05T07:53:45Z</time>
      </trkpt>
      <trkpt lat="48.76016" lon="-3.43606">
        <ele>99</ele>
        <time>2014-10-05T07:53:46Z</time>
      </trkpt>
      <trkpt lat="48.76023" lon="-3.43598">
        <ele>99</ele>
        <time>2014-10-05T07:53:47Z</time>
      </trkpt>
      <trkpt lat="48.7603" lon="-3.43589">
        <ele>99</ele>
        <time>2014-10-05T07:53:48Z</time>
      </trkpt>
      <trkpt lat="48.76037" lon="-3.4358">
        <ele>99</ele>
        <time>2014-10-05T07:53:49Z</time>
      </trkpt>
      <trkpt lat="48.76044" lon="-3.43571">
        <ele>99</ele>
        <time>2014-10-05T07:53:50Z</time>
      </trkpt>
      <trkpt lat="48.76051" lon="-3.43561">
        <ele>99</ele>
        <time>2014-10-05T07:53:51Z</time>
      </trkpt>
      <trkpt lat="48.76057" lon="-3.43551">
        <ele>99</ele>
        <time>2014-10-05T07:53:52Z</time>
      </trkpt>
      <trkpt lat="48.76064" lon="-3.43542">
        <ele>99</ele>
        <time>2014-10-05T07:53:53Z</time>
      </trkpt>
      <trkpt lat="48.7607" lon="-3.43531">
        <ele>99</ele>
        <time>2014-10-05T07:53:54Z</time>
      </trkpt>
      <trkpt lat="48.76076" lon="-3.43521">
        <ele>99</ele>
        <time>2014-10-05T07:53:55Z</time>
      </trkpt>
      <trkpt lat="48.76082" lon="-3.43511">
        <ele>99</ele>
        <time>2014-10-05T07:53:56Z</time>
      </trkpt>
      <trkpt lat="48.76088" lon="-3.435">
        <ele>99</ele>
        <time>2014-10-05T07:53:57Z</time>
      </trkpt>
      <trkpt lat="48.76094" lon="-3.4349">
        <ele>99</ele>
        <time>2014-10-05T07:53:58Z</time>
      </trkpt>
      <trkpt lat="48.76099" lon="-3.43479">
        <ele>99</ele>
        <time>2014-10-05T07:53:59Z</time>
      </trkpt>
      <trkpt lat="48.76105" lon="-3.43469">
        <ele>99</ele>
        <time>2014-10-05T07:54:00Z</time>
      </trkpt>
      <trkpt lat="48.76111" lon="-3.43458">
        <ele>99</ele>
        <time>2014-10-05T07:54:01Z</time>
      </trkpt>
      <trkpt lat="48.76117" lon="-3.43447">
        <ele>99</ele>
        <time>2014-10-05T07:54:02Z</time>
      </trkpt>
      <trkpt lat="48.76122" lon="-3.43436">
        <ele>99</ele>
        <time>2014-10-05T07:54:03Z</time>
      </trkpt>
      <trkpt lat="48.76128" lon="-3.43425">
        <ele>99</ele>
        <time>2014-10-05T07:54:04Z</time>
      </trkpt>
      <trkpt lat="48.76133" lon="-3.43414">
        <ele>99</ele>
        <time>2014-10-05T07:54:05Z</time>
      </trkpt>
      <trkpt lat="48.76139" lon="-3.43403">
        <ele>99</ele>
        <time>2014-10-05T07:54:06Z</time>
      </trkpt>
      <trkpt lat="48.76145" lon="-3.43392">
        <ele>99</ele>
        <time>2014-10-05T07:54:07Z</time>
      </trkpt>
      <trkpt lat="48.76151" lon="-3.43381">
        <ele>99</ele>
        <time>2014-10-05T07:54:08Z</time>
      </trkpt>
      <trkpt lat="48.76156" lon="-3.4337">
        <ele>99</ele>
        <time>2014-10-05T07:54:09Z</time>
      </trkpt>
      <trkpt lat="48.76162" lon="-3.43359">
        <ele>99</ele>
        <time>2014-10-05T07:54:10Z</time>
      </trkpt>
      <trkpt lat="48.76168" lon="-3.43348">
        <ele>99</ele>
        <time>2014-10-05T07:54:11Z</time>
      </trkpt>
      <trkpt lat="48.76174" lon="-3.43337">
        <ele>99</ele>
        <time>2014-10-05T07:54:12Z</time>
      </trkpt>
      <trkpt lat="48.7618" lon="-3.43326">
        <ele>99</ele>
        <time>2014-10-05T07:54:13Z</time>
      </trkpt>
      <trkpt lat="48.76186" lon="-3.43316">
        <ele>99</ele>
        <time>2014-10-05T07:54:14Z</time>
      </trkpt>
      <trkpt lat="48.76192" lon="-3.43305">
        <ele>99</ele>
        <time>2014-10-05T07:54:15Z</time>
      </trkpt>
      <trkpt lat="48.76199" lon="-3.43295">
        <ele>99</ele>
        <time>2014-10-05T07:54:16Z</time>
      </trkpt>
      <trkpt lat="48.76206" lon="-3.43285">
        <ele>99</ele>
        <time>2014-10-05T07:54:17Z</time>
      </trkpt>
      <trkpt lat="48.76213" lon="-3.43274">
        <ele>99</ele>
        <time>2014-10-05T07:54:18Z</time>
      </trkpt>
      <trkpt lat="48.7622" lon="-3.43264">
        <ele>99</ele>
        <time>2014-10-05T07:54:19Z</time>
      </trkpt>
      <trkpt lat="48.76228" lon="-3.43254">
        <ele>99</ele>
        <time>2014-10-05T07:54:20Z</time>
      </trkpt>
      <trkpt lat="48.76235" lon="-3.43244">
        <ele>99</ele>
        <time>2014-10-05T07:54:21Z</time>
      </trkpt>
      <trkpt lat="48.76243" lon="-3.43234">
        <ele>99</ele>
        <time>2014-10-05T07:54:22Z</time>
      </trkpt>
      <trkpt lat="48.76251" lon="-3.43224">
        <ele>99</ele>
        <time>2014-10-05T07:54:23Z</time>
      </trkpt>
      <trkpt lat="48.76259" lon="-3.43215">
        <ele>99</ele>
        <time>2014-10-05T07:54:24Z</time>
      </trkpt>
      <trkpt lat="48.76268" lon="-3.43206">
        <ele>99</ele>
        <time>2014-10-05T07:54:25Z</time>
      </trkpt>
      <trkpt lat="48.76276" lon="-3.43197">
        <ele>99</ele>
        <time>2014-10-05T07:54:26Z</time>
      </trkpt>
      <trkpt lat="48.76284" lon="-3.43188">
        <ele>99</ele>
        <time>2014-10-05T07:54:27Z</time>
      </trkpt>
      <trkpt lat="48.76293" lon="-3.43179">
        <ele>99</ele>
        <time>2014-10-05T07:54:28Z</time>
      </trkpt>
      <trkpt lat="48.76302" lon="-3.43171">
        <ele>99</ele>
        <time>2014-10-05T07:54:29Z</time>
      </trkpt>
      <trkpt lat="48.76311" lon="-3.43163">
        <ele>99</ele>
        <time>2014-10-05T07:54:30Z</time>
      </trkpt>
      <trkpt lat="48.7632" lon="-3.43155">
        <ele>99</ele>
        <time>2014-10-05T07:54:31Z</time>
      </trkpt>
      <trkpt lat="48.76329" lon="-3.43148">
        <ele>99</ele>
        <time>2014-10-05T07:54:32Z</time>
      </trkpt>
      <trkpt lat="48.76338" lon="-3.43141">
        <ele>99</ele>
        <time>2014-10-05T07:54:33Z</time>
      </trkpt>
      <trkpt lat="48.76347" lon="-3.43134">
        <ele>99</ele>
        <time>2014-10-05T07:54:34Z</time>
      </trkpt>
      <trkpt lat="48.76356" lon="-3.43127">
        <ele>99</ele>
        <time>2014-10-05T07:54:35Z</time>
      </trkpt>
      <trkpt lat="48.76366" lon="-3.4312">
        <ele>99</ele>
        <time>2014-10-05T07:54:36Z</time>
      </trkpt>
      <trkpt lat="48.76375" lon="-3.43114">
        <ele>99</ele>
        <time>2014-10-05T07:54:37Z</time>
      </trkpt>
      <trkpt lat="48.76385" lon="-3.43108">
        <ele>99</ele>
        <time>2014-10-05T07:54:38Z</time>
      </trkpt>
      <trkpt lat="48.76395" lon="-3.43102">
        <ele>99</ele>
        <time>2014-10-05T07:54:39Z</time>
      </trkpt>
      <trkpt lat="48.76405" lon="-3.43096">
        <ele>99</ele>
        <time>2014-10-05T07:54:40Z</time>
      </trkpt>
      <trkpt lat="48.76414" lon="-3.43091">
        <ele>99</ele>
        <time>2014-10-05T07:54:41Z</time>
      </trkpt>
      <trkpt lat="48.76424" lon="-3.43086">
        <ele>99</ele>
        <time>2014-10-05T07:54:42Z</time>
      </trkpt>
      <trkpt lat="48.76434" lon="-3.43081">
        <ele>99</ele>
        <time>2014-10-05T07:54:43Z</time>
      </trkpt>
      <trkpt lat="48.76445" lon="-3.43076">
        <ele>98</ele>
        <time>2014-10-05T07:54:44Z</time>
      </trkpt>
      <trkpt lat="48.76455" lon="-3.43072">
        <ele>98</ele>
        <time>2014-10-05T07:54:45Z</time>
      </trkpt>
      <trkpt lat="48.76465" lon="-3.43068">
        <ele>98</ele>
        <time>2014-10-05T07:54:46Z</time>
      </trkpt>
      <trkpt lat="48.76476" lon="-3.43064">
        <ele>97</ele>
        <time>2014-10-05T07:54:47Z</time>
      </trkpt>
      <trkpt lat="48.76486" lon="-3.43059">
        <ele>97</ele>
        <time>2014-10-05T07:54:48Z</time>
      </trkpt>
      <trkpt lat="48.76496" lon="-3.43054">
        <ele>97</ele>
        <time>2014-10-05T07:54:49Z</time>
      </trkpt>
      <trkpt lat="48.76506" lon="-3.43049">
        <ele>96</ele>
        <time>2014-10-05T07:54:50Z</time>
      </trkpt>
      <trkpt lat="48.76517" lon="-3.43044">
        <ele>96</ele>
        <time>2014-10-05T07:54:51Z</time>
      </trkpt>
      <trkpt lat="48.76527" lon="-3.43038">
        <ele>96</ele>
        <time>2014-10-05T07:54:52Z</time>
      </trkpt>
      <trkpt lat="48.76537" lon="-3.43032">
        <ele>96</ele>
        <time>2014-10-05T07:54:53Z</time>
      </trkpt>
      <trkpt lat="48.76547" lon="-3.43026">
        <ele>95</ele>
        <time>2014-10-05T07:54:54Z</time>
      </trkpt>
      <trkpt lat="48.76557" lon="-3.43019">
        <ele>95</ele>
        <time>2014-10-05T07:54:55Z</time>
      </trkpt>
      <trkpt lat="48.76566" lon="-3.43011">
        <ele>95</ele>
        <time>2014-10-05T07:54:56Z</time>
      </trkpt>
      <trkpt lat="48.76576" lon="-3.43004">
        <ele>95</ele>
        <time>2014-10-05T07:54:57Z</time>
      </trkpt>
      <trkpt lat="48.76586" lon="-3.42996">
        <ele>95</ele>
        <time>2014-10-05T07:54:58Z</time>
      </trkpt>
      <trkpt lat="48.76596" lon="-3.42987">
        <ele>94</ele>
        <time>2014-10-05T07:54:59Z</time>
      </trkpt>
      <trkpt lat="48.76605" lon="-3.42979">
        <ele>94</ele>
        <time>2014-10-05T07:55:00Z</time>
      </trkpt>
      <trkpt lat="48.76614" lon="-3.42969">
        <ele>94</ele>
        <time>2014-10-05T07:55:01Z</time>
      </trkpt>
      <trkpt lat="48.76623" lon="-3.42959">
        <ele>94</ele>
        <time>2014-10-05T07:55:02Z</time>
      </trkpt>
      <trkpt lat="48.76632" lon="-3.4295">
        <ele>94</ele>
        <time>2014-10-05T07:55:03Z</time>
      </trkpt>
      <trkpt lat="48.76641" lon="-3.4294">
        <ele>93</ele>
        <time>2014-10-05T07:55:04Z</time>
      </trkpt>
      <trkpt lat="48.76649" lon="-3.42929">
        <ele>93</ele>
        <time>2014-10-05T07:55:05Z</time>
      </trkpt>
      <trkpt lat="48.76657" lon="-3.42919">
        <ele>93</ele>
        <time>2014-10-05T07:55:06Z</time>
      </trkpt>
      <trkpt lat="48.76666" lon="-3.42908">
        <ele>93</ele>
        <time>2014-10-05T07:55:07Z</time>
      </trkpt>
      <trkpt lat="48.76674" lon="-3.42898">
        <ele>93</ele>
        <time>2014-10-05T07:55:08Z</time>
      </trkpt>
      <trkpt lat="48.76682" lon="-3.42887">
        <ele>93</ele>
        <time>2014-10-05T07:55:09Z</time>
      </trkpt>
      <trkpt lat="48.7669" lon="-3.42877">
        <ele>92</ele>
        <time>2014-10-05T07:55:10Z</time>
      </trkpt>
      <trkpt lat="48.76698" lon="-3.42867">
        <ele>92</ele>
        <time>2014-10-05T07:55:11Z</time>
      </trkpt>
      <trkpt lat="48.76706" lon="-3.42857">
        <ele>92</ele>
        <time>2014-10-05T07:55:12Z</time>
      </trkpt>
      <trkpt lat="48.76715" lon="-3.42847">
        <ele>92</ele>
        <time>2014-10-05T07:55:13Z</time>
      </trkpt>
      <trkpt lat="48.76723" lon="-3.42838">
        <ele>92</ele>
        <time>2014-10-05T07:55:14Z</time>
      </trkpt>
      <trkpt lat="48.76732" lon="-3.42829">
        <ele>92</ele>
        <time>2014-10-05T07:55:15Z</time>
      </trkpt>
      <trkpt lat="48.76741" lon="-3.4282">
        <ele>92</ele>
        <time>2014-10-05T07:55:16Z</time>
      </trkpt>
      <trkpt lat="48.7675" lon="-3.42812">
        <ele>92</ele>
        <time>2014-10-05T07:55:17Z</time>
      </trkpt>
      <trkpt lat="48.76759" lon="-3.42804">
        <ele>92</ele>
        <time>2014-10-05T07:55:18Z</time>
      </trkpt>
      <trkpt lat="48.76768" lon="-3.42797">
        <ele>92</ele>
        <time>2014-10-05T07:55:19Z</time>
      </trkpt>
      <trkpt lat="48.76777" lon="-3.42789">
        <ele>92</ele>
        <time>2014-10-05T07:55:20Z</time>
      </trkpt>
      <trkpt lat="48.76786" lon="-3.42782">
        <ele>92</ele>
        <time>2014-10-05T07:55:21Z</time>
      </trkpt>
      <trkpt lat="48.76796" lon="-3.42775">
        <ele>92</ele>
        <time>2014-10-05T07:55:22Z</time>
      </trkpt>
      <trkpt lat="48.76805" lon="-3.42768">
        <ele>92</ele>
        <time>2014-10-05T07:55:23Z</time>
      </trkpt>
      <trkpt lat="48.76815" lon="-3.42761">
        <ele>92</ele>
        <time>2014-10-05T07:55:24Z</time>
      </trkpt>
      <trkpt lat="48.76824" lon="-3.42754">
        <ele>92</ele>
        <time>2014-10-05T07:55:25Z</time>
      </trkpt>
      <trkpt lat="48.76833" lon="-3.42747">
        <ele>92</ele>
        <time>2014-10-05T07:55:26Z</time>
      </trkpt>
      <trkpt lat="48.76842" lon="-3.4274">
        <ele>92</ele>
        <time>2014-10-05T07:55:27Z</time>
      </trkpt>
      <trkpt lat="48.76851" lon="-3.42733">
        <ele>92</ele>
        <time>2014-10-05T07:55:28Z</time>
      </trkpt>
      <trkpt lat="48.7686" lon="-3.42726">
        <ele>92</ele>
        <time>2014-10-05T07:55:29Z</time>
      </trkpt>
      <trkpt lat="48.76868" lon="-3.4272">
        <ele>92</ele>
        <time>2014-10-05T07:55:30Z</time>
      </trkpt>
      <trkpt lat="48.76877" lon="-3.42712">
        <ele>92</ele>
        <time>2014-10-05T07:55:31Z</time>
      </trkpt>
      <trkpt lat="48.76885" lon="-3.42705">
        <ele>92</ele>
        <time>2014-10-05T07:55:32Z</time>
      </trkpt>
      <trkpt lat="48.76894" lon="-3.42698">
        <ele>92</ele>
        <time>2014-10-05T07:55:33Z</time>
      </trkpt>
      <trkpt lat="48.76902" lon="-3.4269">
        <ele>92</ele>
        <time>2014-10-05T07:55:34Z</time>
      </trkpt>
      <trkpt lat="48.76911" lon="-3.42683">
        <ele>92</ele>
        <time>2014-10-05T07:55:35Z</time>
      </trkpt>
      <trkpt lat="48.76919" lon="-3.42674">
        <ele>92</ele>
        <time>2014-10-05T07:55:36Z</time>
      </trkpt>
      <trkpt lat="48.76928" lon="-3.42666">
        <ele>92</ele>
        <time>2014-10-05T07:55:37Z</time>
      </trkpt>
      <trkpt lat="48.76936" lon="-3.42657">
        <ele>92</ele>
        <time>2014-10-05T07:55:38Z</time>
      </trkpt>
      <trkpt lat="48.76944" lon="-3.42647">
        <ele>92</ele>
        <time>2014-10-05T07:55:39Z</time>
      </trkpt>
      <trkpt lat="48.76952" lon="-3.42638">
        <ele>92</ele>
        <time>2014-10-05T07:55:40Z</time>
      </trkpt>
      <trkpt lat="48.7696" lon="-3.42628">
        <ele>92</ele>
        <time>2014-10-05T07:55:41Z</time>
      </trkpt>
      <trkpt lat="48.76968" lon="-3.42618">
        <ele>92</ele>
        <time>2014-10-05T07:55:42Z</time>
      </trkpt>
      <trkpt lat="48.76976" lon="-3.42607">
        <ele>92</ele>
        <time>2014-10-05T07:55:43Z</time>
      </trkpt>
      <trkpt lat="48.76983" lon="-3.42596">
        <ele>92</ele>
        <time>2014-10-05T07:55:44Z</time>
      </trkpt>
      <trkpt lat="48.7699" lon="-3.42585">
        <ele>91</ele>
        <time>2014-10-05T07:55:45Z</time>
      </trkpt>
      <trkpt lat="48.76998" lon="-3.42573">
        <ele>91</ele>
        <time>2014-10-05T07:55:46Z</time>
      </trkpt>
      <trkpt lat="48.77005" lon="-3.42562">
        <ele>91</ele>
        <time>2014-10-05T07:55:47Z</time>
      </trkpt>
      <trkpt lat="48.77013" lon="-3.42551">
        <ele>91</ele>
        <time>2014-10-05T07:55:48Z</time>
      </trkpt>
      <trkpt lat="48.77021" lon="-3.4254">
        <ele>91</ele>
        <time>2014-10-05T07:55:49Z</time>
      </trkpt>
      <trkpt lat="48.77028" lon="-3.42528">
        <ele>90</ele>
        <time>2014-10-05T07:55:50Z</time>
      </trkpt>
      <trkpt lat="48.77036" lon="-3.42516">
        <ele>90</ele>
        <time>2014-10-05T07:55:51Z</time>
      </trkpt>
      <trkpt lat="48.77044" lon="-3.42505">
        <ele>90</ele>
        <time>2014-10-05T07:55:52Z</time>
      </trkpt>
      <trkpt lat="48.77052" lon="-3.42493">
        <ele>90</ele>
        <time>2014-10-05T07:55:53Z</time>
      </trkpt>
      <trkpt lat="48.7706" lon="-3.42482">
        <ele>89</ele>
        <time>2014-10-05T07:55:54Z</time>
      </trkpt>
      <trkpt lat="48.77068" lon="-3.4247">
        <ele>89</ele>
        <time>2014-10-05T07:55:55Z</time>
      </trkpt>
      <trkpt lat="48.77076" lon="-3.42459">
        <ele>89</ele>
        <time>2014-10-05T07:55:56Z</time>
      </trkpt>
      <trkpt lat="48.77084" lon="-3.42447">
        <ele>89</ele>
        <time>2014-10-05T07:55:57Z</time>
      </trkpt>
      <trkpt lat="48.77092" lon="-3.42435">
        <ele>88</ele>
        <time>2014-10-05T07:55:58Z</time>
      </trkpt>
      <trkpt lat="48.771" lon="-3.42423">
        <ele>88</ele>
        <time>2014-10-05T07:55:59Z</time>
      </trkpt>
      <trkpt lat="48.77108" lon="-3.42411">
        <ele>88</ele>
        <time>2014-10-05T07:56:00Z</time>
      </trkpt>
      <trkpt lat="48.77117" lon="-3.42398">
        <ele>87</ele>
        <time>2014-10-05T07:56:01Z</time>
      </trkpt>
      <trkpt lat="48.77125" lon="-3.42386">
        <ele>87</ele>
        <time>2014-10-05T07:56:02Z</time>
      </trkpt>
      <trkpt lat="48.77133" lon="-3.42374">
        <ele>87</ele>
        <time>2014-10-05T07:56:03Z</time>
      </trkpt>
      <trkpt lat="48.77141" lon="-3.42361">
        <ele>86</ele>
        <time>2014-10-05T07:56:04Z</time>
      </trkpt>
      <trkpt lat="48.77149" lon="-3.42349">
        <ele>86</ele>
        <time>2014-10-05T07:56:05Z</time>
      </trkpt>
      <trkpt lat="48.77158" lon="-3.42337">
        <ele>86</ele>
        <time>2014-10-05T07:56:06Z</time>
      </trkpt>
      <trkpt lat="48.77166" lon="-3.42325">
        <ele>85</ele>
        <time>2014-10-05T07:56:07Z</time>
      </trkpt>
      <trkpt lat="48.77174" lon="-3.42312">
        <ele>85</ele>
        <time>2014-10-05T07:56:08Z</time>
      </trkpt>
      <trkpt lat="48.77182" lon="-3.423">
        <ele>85</ele>
        <time>2014-10-05T07:56:09Z</time>
      </trkpt>
      <trkpt lat="48.77191" lon="-3.42288">
        <ele>85</ele>
        <time>2014-10-05T07:56:10Z</time>
      </trkpt>
      <trkpt lat="48.77199" lon="-3.42276">
        <ele>85</ele>
        <time>2014-10-05T07:56:11Z</time>
      </trkpt>
      <trkpt lat="48.77207" lon="-3.42264">
        <ele>85</ele>
        <time>2014-10-05T07:56:12Z</time>
      </trkpt>
      <trkpt lat="48.77215" lon="-3.42251">
        <ele>85</ele>
        <time>2014-10-05T07:56:13Z</time>
      </trkpt>
      <trkpt lat="48.77223" lon="-3.42239">
        <ele>84</ele>
        <time>2014-10-05T07:56:14Z</time>
      </trkpt>
      <trkpt lat="48.77231" lon="-3.42227">
        <ele>84</ele>
        <time>2014-10-05T07:56:16Z</time>
      </trkpt>
      <trkpt lat="48.77239" lon="-3.42215">
        <ele>84</ele>
        <time>2014-10-05T07:56:16Z</time>
      </trkpt>
      <trkpt lat="48.77246" lon="-3.42203">
        <ele>84</ele>
        <time>2014-10-05T07:56:17Z</time>
      </trkpt>
      <trkpt lat="48.77254" lon="-3.42191">
        <ele>84</ele>
        <time>2014-10-05T07:56:18Z</time>
      </trkpt>
      <trkpt lat="48.77261" lon="-3.42179">
        <ele>84</ele>
        <time>2014-10-05T07:56:19Z</time>
      </trkpt>
      <trkpt lat="48.77269" lon="-3.42167">
        <ele>83</ele>
        <time>2014-10-05T07:56:20Z</time>
      </trkpt>
      <trkpt lat="48.77277" lon="-3.42155">
        <ele>83</ele>
        <time>2014-10-05T07:56:21Z</time>
      </trkpt>
      <trkpt lat="48.77284" lon="-3.42143">
        <ele>83</ele>
        <time>2014-10-05T07:56:22Z</time>
      </trkpt>
      <trkpt lat="48.77291" lon="-3.42131">
        <ele>83</ele>
        <time>2014-10-05T07:56:23Z</time>
      </trkpt>
      <trkpt lat="48.77298" lon="-3.42119">
        <ele>83</ele>
        <time>2014-10-05T07:56:24Z</time>
      </trkpt>
      <trkpt lat="48.77305" lon="-3.42107">
        <ele>83</ele>
        <time>2014-10-05T07:56:25Z</time>
      </trkpt>
      <trkpt lat="48.77311" lon="-3.42094">
        <ele>83</ele>
        <time>2014-10-05T07:56:26Z</time>
      </trkpt>
      <trkpt lat="48.77318" lon="-3.42082">
        <ele>83</ele>
        <time>2014-10-05T07:56:27Z</time>
      </trkpt>
      <trkpt lat="48.77325" lon="-3.42069">
        <ele>83</ele>
        <time>2014-10-05T07:56:28Z</time>
      </trkpt>
      <trkpt lat="48.7733" lon="-3.42056">
        <ele>83</ele>
        <time>2014-10-05T07:56:29Z</time>
      </trkpt>
      <trkpt lat="48.77336" lon="-3.42042">
        <ele>83</ele>
        <time>2014-10-05T07:56:30Z</time>
      </trkpt>
      <trkpt lat="48.77341" lon="-3.42029">
        <ele>83</ele>
        <time>2014-10-05T07:56:31Z</time>
      </trkpt>
      <trkpt lat="48.77346" lon="-3.42015">
        <ele>83</ele>
        <time>2014-10-05T07:56:32Z</time>
      </trkpt>
      <trkpt lat="48.77351" lon="-3.42002">
        <ele>83</ele>
        <time>2014-10-05T07:56:33Z</time>
      </trkpt>
      <trkpt lat="48.77356" lon="-3.41988">
        <ele>82</ele>
        <time>2014-10-05T07:56:34Z</time>
      </trkpt>
      <trkpt lat="48.77362" lon="-3.41974">
        <ele>82</ele>
        <time>2014-10-05T07:56:35Z</time>
      </trkpt>
      <trkpt lat="48.77367" lon="-3.41961">
        <ele>81</ele>
        <time>2014-10-05T07:56:36Z</time>
      </trkpt>
      <trkpt lat="48.77372" lon="-3.41948">
        <ele>81</ele>
        <time>2014-10-05T07:56:37Z</time>
      </trkpt>
      <trkpt lat="48.77378" lon="-3.41934">
        <ele>81</ele>
        <time>2014-10-05T07:56:38Z</time>
      </trkpt>
      <trkpt lat="48.77383" lon="-3.41921">
        <ele>81</ele>
        <time>2014-10-05T07:56:39Z</time>
      </trkpt>
      <trkpt lat="48.77389" lon="-3.41909">
        <ele>80</ele>
        <time>2014-10-05T07:56:40Z</time>
      </trkpt>
      <trkpt lat="48.77395" lon="-3.41897">
        <ele>80</ele>
        <time>2014-10-05T07:56:41Z</time>
      </trkpt>
      <trkpt lat="48.77401" lon="-3.41885">
        <ele>80</ele>
        <time>2014-10-05T07:56:42Z</time>
      </trkpt>
      <trkpt lat="48.77408" lon="-3.41873">
        <ele>80</ele>
        <time>2014-10-05T07:56:43Z</time>
      </trkpt>
      <trkpt lat="48.77414" lon="-3.41862">
        <ele>80</ele>
        <time>2014-10-05T07:56:44Z</time>
      </trkpt>
      <trkpt lat="48.77421" lon="-3.41851">
        <ele>80</ele>
        <time>2014-10-05T07:56:45Z</time>
      </trkpt>
      <trkpt lat="48.77428" lon="-3.4184">
        <ele>80</ele>
        <time>2014-10-05T07:56:46Z</time>
      </trkpt>
      <trkpt lat="48.77435" lon="-3.41829">
        <ele>79</ele>
        <time>2014-10-05T07:56:47Z</time>
      </trkpt>
      <trkpt lat="48.77442" lon="-3.41818">
        <ele>79</ele>
        <time>2014-10-05T07:56:48Z</time>
      </trkpt>
      <trkpt lat="48.7745" lon="-3.41807">
        <ele>79</ele>
        <time>2014-10-05T07:56:49Z</time>
      </trkpt>
      <trkpt lat="48.77458" lon="-3.41796">
        <ele>79</ele>
        <time>2014-10-05T07:56:50Z</time>
      </trkpt>
      <trkpt lat="48.77466" lon="-3.41786">
        <ele>79</ele>
        <time>2014-10-05T07:56:51Z</time>
      </trkpt>
      <trkpt lat="48.77474" lon="-3.41775">
        <ele>79</ele>
        <time>2014-10-05T07:56:52Z</time>
      </trkpt>
      <trkpt lat="48.77482" lon="-3.41765">
        <ele>79</ele>
        <time>2014-10-05T07:56:53Z</time>
      </trkpt>
      <trkpt lat="48.7749" lon="-3.41755">
        <ele>79</ele>
        <time>2014-10-05T07:56:54Z</time>
      </trkpt>
      <trkpt lat="48.77498" lon="-3.41745">
        <ele>79</ele>
        <time>2014-10-05T07:56:55Z</time>
      </trkpt>
      <trkpt lat="48.77507" lon="-3.41735">
        <ele>79</ele>
        <time>2014-10-05T07:56:56Z</time>
      </trkpt>
      <trkpt lat="48.77514" lon="-3.41725">
        <ele>79</ele>
        <time>2014-10-05T07:56:57Z</time>
      </trkpt>
      <trkpt lat="48.77522" lon="-3.41716">
        <ele>79</ele>
        <time>2014-10-05T07:56:58Z</time>
      </trkpt>
      <trkpt lat="48.7753" lon="-3.41706">
        <ele>79</ele>
        <time>2014-10-05T07:56:59Z</time>
      </trkpt>
      <trkpt lat="48.77537" lon="-3.41697">
        <ele>79</ele>
        <time>2014-10-05T07:57:00Z</time>
      </trkpt>
      <trkpt lat="48.77544" lon="-3.41688">
        <ele>79</ele>
        <time>2014-10-05T07:57:01Z</time>
      </trkpt>
      <trkpt lat="48.77552" lon="-3.41679">
        <ele>79</ele>
        <time>2014-10-05T07:57:02Z</time>
      </trkpt>
      <trkpt lat="48.77558" lon="-3.4167">
        <ele>79</ele>
        <time>2014-10-05T07:57:03Z</time>
      </trkpt>
      <trkpt lat="48.77565" lon="-3.41661">
        <ele>79</ele>
        <time>2014-10-05T07:57:04Z</time>
      </trkpt>
      <trkpt lat="48.77572" lon="-3.41652">
        <ele>79</ele>
        <time>2014-10-05T07:57:05Z</time>
      </trkpt>
      <trkpt lat="48.77579" lon="-3.41643">
        <ele>79</ele>
        <time>2014-10-05T07:57:06Z</time>
      </trkpt>
      <trkpt lat="48.77586" lon="-3.41634">
        <ele>79</ele>
        <time>2014-10-05T07:57:07Z</time>
      </trkpt>
      <trkpt lat="48.77593" lon="-3.41625">
        <ele>79</ele>
        <time>2014-10-05T07:57:08Z</time>
      </trkpt>
      <trkpt lat="48.776" lon="-3.41616">
        <ele>79</ele>
        <time>2014-10-05T07:57:09Z</time>
      </trkpt>
      <trkpt lat="48.77607" lon="-3.41607">
        <ele>79</ele>
        <time>2014-10-05T07:57:10Z</time>
      </trkpt>
      <trkpt lat="48.77613" lon="-3.41599">
        <ele>79</ele>
        <time>2014-10-05T07:57:11Z</time>
      </trkpt>
      <trkpt lat="48.7762" lon="-3.41591">
        <ele>79</ele>
        <time>2014-10-05T07:57:12Z</time>
      </trkpt>
      <trkpt lat="48.77626" lon="-3.41583">
        <ele>79</ele>
        <time>2014-10-05T07:57:13Z</time>
      </trkpt>
      <trkpt lat="48.77633" lon="-3.41575">
        <ele>79</ele>
        <time>2014-10-05T07:57:14Z</time>
      </trkpt>
      <trkpt lat="48.77639" lon="-3.41567">
        <ele>79</ele>
        <time>2014-10-05T07:57:15Z</time>
      </trkpt>
      <trkpt lat="48.77645" lon="-3.41559">
        <ele>79</ele>
        <time>2014-10-05T07:57:16Z</time>
      </trkpt>
      <trkpt lat="48.77651" lon="-3.41551">
        <ele>79</ele>
        <time>2014-10-05T07:57:17Z</time>
      </trkpt>
      <trkpt lat="48.77657" lon="-3.41543">
        <ele>79</ele>
        <time>2014-10-05T07:57:18Z</time>
      </trkpt>
      <trkpt lat="48.77663" lon="-3.41535">
        <ele>79</ele>
        <time>2014-10-05T07:57:19Z</time>
      </trkpt>
      <trkpt lat="48.77669" lon="-3.41526">
        <ele>79</ele>
        <time>2014-10-05T07:57:20Z</time>
      </trkpt>
      <trkpt lat="48.77675" lon="-3.41518">
        <ele>79</ele>
        <time>2014-10-05T07:57:21Z</time>
      </trkpt>
      <trkpt lat="48.77682" lon="-3.4151">
        <ele>79</ele>
        <time>2014-10-05T07:57:22Z</time>
      </trkpt>
      <trkpt lat="48.77688" lon="-3.41501">
        <ele>79</ele>
        <time>2014-10-05T07:57:23Z</time>
      </trkpt>
      <trkpt lat="48.77694" lon="-3.41493">
        <ele>79</ele>
        <time>2014-10-05T07:57:24Z</time>
      </trkpt>
      <trkpt lat="48.777" lon="-3.41484">
        <ele>79</ele>
        <time>2014-10-05T07:57:25Z</time>
      </trkpt>
      <trkpt lat="48.77705" lon="-3.41475">
        <ele>79</ele>
        <time>2014-10-05T07:57:26Z</time>
      </trkpt>
      <trkpt lat="48.7771" lon="-3.41466">
        <ele>79</ele>
        <time>2014-10-05T07:57:27Z</time>
      </trkpt>
      <trkpt lat="48.77716" lon="-3.41457">
        <ele>79</ele>
        <time>2014-10-05T07:57:28Z</time>
      </trkpt>
      <trkpt lat="48.77721" lon="-3.41447">
        <ele>79</ele>
        <time>2014-10-05T07:57:29Z</time>
      </trkpt>
      <trkpt lat="48.77725" lon="-3.41438">
        <ele>80</ele>
        <time>2014-10-05T07:57:30Z</time>
      </trkpt>
      <trkpt lat="48.7773" lon="-3.41427">
        <ele>80</ele>
        <time>2014-10-05T07:57:31Z</time>
      </trkpt>
      <trkpt lat="48.77734" lon="-3.41417">
        <ele>81</ele>
        <time>2014-10-05T07:57:32Z</time>
      </trkpt>
      <trkpt lat="48.77739" lon="-3.41407">
        <ele>81</ele>
        <time>2014-10-05T07:57:33Z</time>
      </trkpt>
      <trkpt lat="48.77743" lon="-3.41397">
        <ele>82</ele>
        <time>2014-10-05T07:57:34Z</time>
      </trkpt>
      <trkpt lat="48.77747" lon="-3.41387">
        <ele>83</ele>
        <time>2014-10-05T07:57:35Z</time>
      </trkpt>
      <trkpt lat="48.77751" lon="-3.41376">
        <ele>83</ele>
        <time>2014-10-05T07:57:36Z</time>
      </trkpt>
      <trkpt lat="48.77755" lon="-3.41365">
        <ele>84</ele>
        <time>2014-10-05T07:57:37Z</time>
      </trkpt>
      <trkpt lat="48.77759" lon="-3.41355">
        <ele>84</ele>
        <time>2014-10-05T07:57:38Z</time>
      </trkpt>
      <trkpt lat="48.77762" lon="-3.41344">
        <ele>84</ele>
        <time>2014-10-05T07:57:39Z</time>
      </trkpt>
      <trkpt lat="48.77766" lon="-3.41334">
        <ele>85</ele>
        <time>2014-10-05T07:57:40Z</time>
      </trkpt>
      <trkpt lat="48.7777" lon="-3.41323">
        <ele>85</ele>
        <time>2014-10-05T07:57:41Z</time>
      </trkpt>
      <trkpt lat="48.77774" lon="-3.41313">
        <ele>85</ele>
        <time>2014-10-05T07:57:42Z</time>
      </trkpt>
      <trkpt lat="48.77777" lon="-3.41302">
        <ele>85</ele>
        <time>2014-10-05T07:57:43Z</time>
      </trkpt>
      <trkpt lat="48.7778" lon="-3.4129">
        <ele>85</ele>
        <time>2014-10-05T07:57:44Z</time>
      </trkpt>
      <trkpt lat="48.77783" lon="-3.41279">
        <ele>85</ele>
        <time>2014-10-05T07:57:45Z</time>
      </trkpt>
      <trkpt lat="48.77786" lon="-3.41267">
        <ele>85</ele>
        <time>2014-10-05T07:57:46Z</time>
      </trkpt>
      <trkpt lat="48.77789" lon="-3.41255">
        <ele>85</ele>
        <time>2014-10-05T07:57:47Z</time>
      </trkpt>
      <trkpt lat="48.77792" lon="-3.41244">
        <ele>85</ele>
        <time>2014-10-05T07:57:48Z</time>
      </trkpt>
      <trkpt lat="48.77795" lon="-3.41232">
        <ele>85</ele>
        <time>2014-10-05T07:57:49Z</time>
      </trkpt>
      <trkpt lat="48.77798" lon="-3.41221">
        <ele>85</ele>
        <time>2014-10-05T07:57:50Z</time>
      </trkpt>
      <trkpt lat="48.778" lon="-3.41209">
        <ele>85</ele>
        <time>2014-10-05T07:57:51Z</time>
      </trkpt>
      <trkpt lat="48.77804" lon="-3.41197">
        <ele>85</ele>
        <time>2014-10-05T07:57:52Z</time>
      </trkpt>
      <trkpt lat="48.77807" lon="-3.41185">
        <ele>85</ele>
        <time>2014-10-05T07:57:53Z</time>
      </trkpt>
      <trkpt lat="48.7781" lon="-3.41173">
        <ele>85</ele>
        <time>2014-10-05T07:57:54Z</time>
      </trkpt>
      <trkpt lat="48.77813" lon="-3.41161">
        <ele>85</ele>
        <time>2014-10-05T07:57:55Z</time>
      </trkpt>
      <trkpt lat="48.77816" lon="-3.41149">
        <ele>85</ele>
        <time>2014-10-05T07:57:56Z</time>
      </trkpt>
      <trkpt lat="48.77819" lon="-3.41137">
        <ele>85</ele>
        <time>2014-10-05T07:57:57Z</time>
      </trkpt>
      <trkpt lat="48.77822" lon="-3.41124">
        <ele>85</ele>
        <time>2014-10-05T07:57:58Z</time>
      </trkpt>
      <trkpt lat="48.77825" lon="-3.41112">
        <ele>85</ele>
        <time>2014-10-05T07:57:59Z</time>
      </trkpt>
      <trkpt lat="48.77828" lon="-3.41099">
        <ele>85</ele>
        <time>2014-10-05T07:58:00Z</time>
      </trkpt>
      <trkpt lat="48.77832" lon="-3.41087">
        <ele>85</ele>
        <time>2014-10-05T07:58:01Z</time>
      </trkpt>
      <trkpt lat="48.77835" lon="-3.41075">
        <ele>85</ele>
        <time>2014-10-05T07:58:02Z</time>
      </trkpt>
      <trkpt lat="48.77838" lon="-3.41062">
        <ele>85</ele>
        <time>2014-10-05T07:58:03Z</time>
      </trkpt>
      <trkpt lat="48.77841" lon="-3.4105">
        <ele>85</ele>
        <time>2014-10-05T07:58:04Z</time>
      </trkpt>
      <trkpt lat="48.77844" lon="-3.41038">
        <ele>85</ele>
        <time>2014-10-05T07:58:05Z</time>
      </trkpt>
      <trkpt lat="48.77847" lon="-3.41025">
        <ele>85</ele>
        <time>2014-10-05T07:58:06Z</time>
      </trkpt>
      <trkpt lat="48.7785" lon="-3.41013">
        <ele>85</ele>
        <time>2014-10-05T07:58:07Z</time>
      </trkpt>
      <trkpt lat="48.77854" lon="-3.41001">
        <ele>85</ele>
        <time>2014-10-05T07:58:08Z</time>
      </trkpt>
      <trkpt lat="48.77857" lon="-3.40988">
        <ele>85</ele>
        <time>2014-10-05T07:58:09Z</time>
      </trkpt>
      <trkpt lat="48.7786" lon="-3.40976">
        <ele>85</ele>
        <time>2014-10-05T07:58:10Z</time>
      </trkpt>
      <trkpt lat="48.77863" lon="-3.40963">
        <ele>85</ele>
        <time>2014-10-05T07:58:11Z</time>
      </trkpt>
      <trkpt lat="48.77866" lon="-3.40951">
        <ele>85</ele>
        <time>2014-10-05T07:58:12Z</time>
      </trkpt>
      <trkpt lat="48.77869" lon="-3.40938">
        <ele>85</ele>
        <time>2014-10-05T07:58:13Z</time>
      </trkpt>
      <trkpt lat="48.77872" lon="-3.40926">
        <ele>85</ele>
        <time>2014-10-05T07:58:14Z</time>
      </trkpt>
      <trkpt lat="48.77876" lon="-3.40913">
        <ele>85</ele>
        <time>2014-10-05T07:58:15Z</time>
      </trkpt>
      <trkpt lat="48.77879" lon="-3.40901">
        <ele>85</ele>
        <time>2014-10-05T07:58:16Z</time>
      </trkpt>
      <trkpt lat="48.77882" lon="-3.40888">
        <ele>85</ele>
        <time>2014-10-05T07:58:17Z</time>
      </trkpt>
      <trkpt lat="48.77885" lon="-3.40875">
        <ele>85</ele>
        <time>2014-10-05T07:58:18Z</time>
      </trkpt>
      <trkpt lat="48.77888" lon="-3.40863">
        <ele>85</ele>
        <time>2014-10-05T07:58:19Z</time>
      </trkpt>
      <trkpt lat="48.77891" lon="-3.4085">
        <ele>85</ele>
        <time>2014-10-05T07:58:20Z</time>
      </trkpt>
      <trkpt lat="48.77895" lon="-3.40838">
        <ele>85</ele>
        <time>2014-10-05T07:58:21Z</time>
      </trkpt>
      <trkpt lat="48.77898" lon="-3.40825">
        <ele>85</ele>
        <time>2014-10-05T07:58:22Z</time>
      </trkpt>
      <trkpt lat="48.77901" lon="-3.40813">
        <ele>85</ele>
        <time>2014-10-05T07:58:23Z</time>
      </trkpt>
      <trkpt lat="48.77905" lon="-3.40801">
        <ele>85</ele>
        <time>2014-10-05T07:58:24Z</time>
      </trkpt>
      <trkpt lat="48.77908" lon="-3.40789">
        <ele>85</ele>
        <time>2014-10-05T07:58:25Z</time>
      </trkpt>
      <trkpt lat="48.77911" lon="-3.40777">
        <ele>85</ele>
        <time>2014-10-05T07:58:26Z</time>
      </trkpt>
      <trkpt lat="48.77915" lon="-3.40764">
        <ele>85</ele>
        <time>2014-10-05T07:58:27Z</time>
      </trkpt>
      <trkpt lat="48.77919" lon="-3.40752">
        <ele>85</ele>
        <time>2014-10-05T07:58:28Z</time>
      </trkpt>
      <trkpt lat="48.77922" lon="-3.4074">
        <ele>85</ele>
        <time>2014-10-05T07:58:29Z</time>
      </trkpt>
      <trkpt lat="48.77926" lon="-3.40727">
        <ele>85</ele>
        <time>2014-10-05T07:58:30Z</time>
      </trkpt>
      <trkpt lat="48.7793" lon="-3.40715">
        <ele>85</ele>
        <time>2014-10-05T07:58:31Z</time>
      </trkpt>
      <trkpt lat="48.77934" lon="-3.40702">
        <ele>85</ele>
        <time>2014-10-05T07:58:32Z</time>
      </trkpt>
      <trkpt lat="48.77938" lon="-3.4069">
        <ele>85</ele>
        <time>2014-10-05T07:58:33Z</time>
      </trkpt>
      <trkpt lat="48.77942" lon="-3.40677">
        <ele>86</ele>
        <time>2014-10-05T07:58:34Z</time>
      </trkpt>
      <trkpt lat="48.77945" lon="-3.40665">
        <ele>86</ele>
        <time>2014-10-05T07:58:35Z</time>
      </trkpt>
      <trkpt lat="48.7795" lon="-3.40653">
        <ele>86</ele>
        <time>2014-10-05T07:58:36Z</time>
      </trkpt>
      <trkpt lat="48.77953" lon="-3.40641">
        <ele>86</ele>
        <time>2014-10-05T07:58:37Z</time>
      </trkpt>
      <trkpt lat="48.77958" lon="-3.40629">
        <ele>86</ele>
        <time>2014-10-05T07:58:38Z</time>
      </trkpt>
      <trkpt lat="48.77962" lon="-3.40617">
        <ele>86</ele>
        <time>2014-10-05T07:58:39Z</time>
      </trkpt>
      <trkpt lat="48.77966" lon="-3.40606">
        <ele>86</ele>
        <time>2014-10-05T07:58:40Z</time>
      </trkpt>
      <trkpt lat="48.77971" lon="-3.40595">
        <ele>86</ele>
        <time>2014-10-05T07:58:41Z</time>
      </trkpt>
      <trkpt lat="48.77975" lon="-3.40583">
        <ele>86</ele>
        <time>2014-10-05T07:58:42Z</time>
      </trkpt>
      <trkpt lat="48.77979" lon="-3.40572">
        <ele>86</ele>
        <time>2014-10-05T07:58:43Z</time>
      </trkpt>
      <trkpt lat="48.77983" lon="-3.40561">
        <ele>87</ele>
        <time>2014-10-05T07:58:44Z</time>
      </trkpt>
      <trkpt lat="48.77988" lon="-3.4055">
        <ele>87</ele>
        <time>2014-10-05T07:58:45Z</time>
      </trkpt>
      <trkpt lat="48.77992" lon="-3.40539">
        <ele>87</ele>
        <time>2014-10-05T07:58:46Z</time>
      </trkpt>
      <trkpt lat="48.77996" lon="-3.40527">
        <ele>87</ele>
        <time>2014-10-05T07:58:47Z</time>
      </trkpt>
      <trkpt lat="48.78001" lon="-3.40516">
        <ele>87</ele>
        <time>2014-10-05T07:58:48Z</time>
      </trkpt>
      <trkpt lat="48.78006" lon="-3.40504">
        <ele>87</ele>
        <time>2014-10-05T07:58:49Z</time>
      </trkpt>
      <trkpt lat="48.7801" lon="-3.40493">
        <ele>88</ele>
        <time>2014-10-05T07:58:50Z</time>
      </trkpt>
      <trkpt lat="48.78015" lon="-3.40482">
        <ele>88</ele>
        <time>2014-10-05T07:58:51Z</time>
      </trkpt>
      <trkpt lat="48.78019" lon="-3.40471">
        <ele>88</ele>
        <time>2014-10-05T07:58:52Z</time>
      </trkpt>
      <trkpt lat="48.78024" lon="-3.40459">
        <ele>88</ele>
        <time>2014-10-05T07:58:53Z</time>
      </trkpt>
      <trkpt lat="48.78029" lon="-3.40448">
        <ele>88</ele>
        <time>2014-10-05T07:58:54Z</time>
      </trkpt>
      <trkpt lat="48.78033" lon="-3.40436">
        <ele>89</ele>
        <time>2014-10-05T07:58:55Z</time>
      </trkpt>
      <trkpt lat="48.78038" lon="-3.40425">
        <ele>89</ele>
        <time>2014-10-05T07:58:56Z</time>
      </trkpt>
      <trkpt lat="48.78043" lon="-3.40414">
        <ele>89</ele>
        <time>2014-10-05T07:58:57Z</time>
      </trkpt>
      <trkpt lat="48.78047" lon="-3.40403">
        <ele>89</ele>
        <time>2014-10-05T07:58:58Z</time>
      </trkpt>
      <trkpt lat="48.78052" lon="-3.40392">
        <ele>89</ele>
        <time>2014-10-05T07:58:59Z</time>
      </trkpt>
      <trkpt lat="48.78057" lon="-3.40381">
        <ele>89</ele>
        <time>2014-10-05T07:59:00Z</time>
      </trkpt>
      <trkpt lat="48.78061" lon="-3.4037">
        <ele>89</ele>
        <time>2014-10-05T07:59:01Z</time>
      </trkpt>
      <trkpt lat="48.78066" lon="-3.40358">
        <ele>90</ele>
        <time>2014-10-05T07:59:02Z</time>
      </trkpt>
      <trkpt lat="48.78071" lon="-3.40347">
        <ele>90</ele>
        <time>2014-10-05T07:59:03Z</time>
      </trkpt>
      <trkpt lat="48.78076" lon="-3.40335">
        <ele>90</ele>
        <time>2014-10-05T07:59:04Z</time>
      </trkpt>
      <trkpt lat="48.7808" lon="-3.40323">
        <ele>90</ele>
        <time>2014-10-05T07:59:05Z</time>
      </trkpt>
      <trkpt lat="48.78085" lon="-3.40311">
        <ele>90</ele>
        <time>2014-10-05T07:59:06Z</time>
      </trkpt>
      <trkpt lat="48.78091" lon="-3.40299">
        <ele>90</ele>
        <time>2014-10-05T07:59:07Z</time>
      </trkpt>
      <trkpt lat="48.78096" lon="-3.40287">
        <ele>90</ele>
        <time>2014-10-05T07:59:08Z</time>
      </trkpt>
      <trkpt lat="48.78101" lon="-3.40275">
        <ele>90</ele>
        <time>2014-10-05T07:59:09Z</time>
      </trkpt>
      <trkpt lat="48.78106" lon="-3.40263">
        <ele>90</ele>
        <time>2014-10-05T07:59:10Z</time>
      </trkpt>
      <trkpt lat="48.78111" lon="-3.4025">
        <ele>90</ele>
        <time>2014-10-05T07:59:11Z</time>
      </trkpt>
      <trkpt lat="48.78116" lon="-3.40238">
        <ele>90</ele>
        <time>2014-10-05T07:59:12Z</time>
      </trkpt>
      <trkpt lat="48.78121" lon="-3.40226">
        <ele>90</ele>
        <time>2014-10-05T07:59:13Z</time>
      </trkpt>
      <trkpt lat="48.78127" lon="-3.40213">
        <ele>90</ele>
        <time>2014-10-05T07:59:14Z</time>
      </trkpt>
      <trkpt lat="48.78132" lon="-3.402">
        <ele>90</ele>
        <time>2014-10-05T07:59:15Z</time>
      </trkpt>
      <trkpt lat="48.78137" lon="-3.40188">
        <ele>90</ele>
        <time>2014-10-05T07:59:16Z</time>
      </trkpt>
      <trkpt lat="48.78142" lon="-3.40176">
        <ele>90</ele>
        <time>2014-10-05T07:59:17Z</time>
      </trkpt>
      <trkpt lat="48.78147" lon="-3.40163">
        <ele>90</ele>
        <time>2014-10-05T07:59:18Z</time>
      </trkpt>
      <trkpt lat="48.78152" lon="-3.40151">
        <ele>90</ele>
        <time>2014-10-05T07:59:19Z</time>
      </trkpt>
      <trkpt lat="48.78157" lon="-3.40139">
        <ele>90</ele>
        <time>2014-10-05T07:59:20Z</time>
      </trkpt>
      <trkpt lat="48.78162" lon="-3.40127">
        <ele>90</ele>
        <time>2014-10-05T07:59:21Z</time>
      </trkpt>
      <trkpt lat="48.78167" lon="-3.40114">
        <ele>90</ele>
        <time>2014-10-05T07:59:22Z</time>
      </trkpt>
      <trkpt lat="48.78172" lon="-3.40102">
        <ele>90</ele>
        <time>2014-10-05T07:59:23Z</time>
      </trkpt>
      <trkpt lat="48.78177" lon="-3.4009">
        <ele>90</ele>
        <time>2014-10-05T07:59:24Z</time>
      </trkpt>
      <trkpt lat="48.78183" lon="-3.40077">
        <ele>90</ele>
        <time>2014-10-05T07:59:25Z</time>
      </trkpt>
      <trkpt lat="48.78188" lon="-3.40065">
        <ele>90</ele>
        <time>2014-10-05T07:59:26Z</time>
      </trkpt>
      <trkpt lat="48.78193" lon="-3.40052">
        <ele>90</ele>
        <time>2014-10-05T07:59:27Z</time>
      </trkpt>
      <trkpt lat="48.78198" lon="-3.40039">
        <ele>90</ele>
        <time>2014-10-05T07:59:28Z</time>
      </trkpt>
      <trkpt lat="48.78204" lon="-3.40027">
        <ele>90</ele>
        <time>2014-10-05T07:59:29Z</time>
      </trkpt>
      <trkpt lat="48.78209" lon="-3.40014">
        <ele>90</ele>
        <time>2014-10-05T07:59:30Z</time>
      </trkpt>
      <trkpt lat="48.78214" lon="-3.40001">
        <ele>90</ele>
        <time>2014-10-05T07:59:31Z</time>
      </trkpt>
      <trkpt lat="48.78219" lon="-3.39989">
        <ele>90</ele>
        <time>2014-10-05T07:59:32Z</time>
      </trkpt>
      <trkpt lat="48.78225" lon="-3.39976">
        <ele>90</ele>
        <time>2014-10-05T07:59:33Z</time>
      </trkpt>
      <trkpt lat="48.7823" lon="-3.39964">
        <ele>90</ele>
        <time>2014-10-05T07:59:34Z</time>
      </trkpt>
      <trkpt lat="48.78235" lon="-3.39952">
        <ele>90</ele>
        <time>2014-10-05T07:59:35Z</time>
      </trkpt>
      <trkpt lat="48.7824" lon="-3.3994">
        <ele>90</ele>
        <time>2014-10-05T07:59:36Z</time>
      </trkpt>
      <trkpt lat="48.78245" lon="-3.39928">
        <ele>90</ele>
        <time>2014-10-05T07:59:37Z</time>
      </trkpt>
      <trkpt lat="48.7825" lon="-3.39915">
        <ele>90</ele>
        <time>2014-10-05T07:59:38Z</time>
      </trkpt>
      <trkpt lat="48.78255" lon="-3.39903">
        <ele>90</ele>
        <time>2014-10-05T07:59:39Z</time>
      </trkpt>
      <trkpt lat="48.7826" lon="-3.39891">
        <ele>90</ele>
        <time>2014-10-05T07:59:40Z</time>
      </trkpt>
      <trkpt lat="48.78265" lon="-3.39878">
        <ele>90</ele>
        <time>2014-10-05T07:59:41Z</time>
      </trkpt>
      <trkpt lat="48.7827" lon="-3.39866">
        <ele>90</ele>
        <time>2014-10-05T07:59:42Z</time>
      </trkpt>
      <trkpt lat="48.78276" lon="-3.39853">
        <ele>90</ele>
        <time>2014-10-05T07:59:43Z</time>
      </trkpt>
      <trkpt lat="48.78281" lon="-3.39841">
        <ele>90</ele>
        <time>2014-10-05T07:59:44Z</time>
      </trkpt>
      <trkpt lat="48.78287" lon="-3.39829">
        <ele>90</ele>
        <time>2014-10-05T07:59:45Z</time>
      </trkpt>
      <trkpt lat="48.78293" lon="-3.39818">
        <ele>90</ele>
        <time>2014-10-05T07:59:46Z</time>
      </trkpt>
      <trkpt lat="48.78299" lon="-3.39807">
        <ele>90</ele>
        <time>2014-10-05T07:59:47Z</time>
      </trkpt>
      <trkpt lat="48.78305" lon="-3.39796">
        <ele>90</ele>
        <time>2014-10-05T07:59:48Z</time>
      </trkpt>
      <trkpt lat="48.78312" lon="-3.39786">
        <ele>90</ele>
        <time>2014-10-05T07:59:49Z</time>
      </trkpt>
      <trkpt lat="48.78318" lon="-3.39775">
        <ele>90</ele>
        <time>2014-10-05T07:59:50Z</time>
      </trkpt>
      <trkpt lat="48.78325" lon="-3.39766">
        <ele>90</ele>
        <time>2014-10-05T07:59:51Z</time>
      </trkpt>
      <trkpt lat="48.78332" lon="-3.39756">
        <ele>90</ele>
        <time>2014-10-05T07:59:52Z</time>
      </trkpt>
      <trkpt lat="48.78339" lon="-3.39747">
        <ele>90</ele>
        <time>2014-10-05T07:59:53Z</time>
      </trkpt>
      <trkpt lat="48.78346" lon="-3.39739">
        <ele>90</ele>
        <time>2014-10-05T07:59:54Z</time>
      </trkpt>
      <trkpt lat="48.78354" lon="-3.39731">
        <ele>90</ele>
        <time>2014-10-05T07:59:55Z</time>
      </trkpt>
      <trkpt lat="48.78361" lon="-3.39723">
        <ele>90</ele>
        <time>2014-10-05T07:59:56Z</time>
      </trkpt>
      <trkpt lat="48.78368" lon="-3.39716">
        <ele>90</ele>
        <time>2014-10-05T07:59:57Z</time>
      </trkpt>
      <trkpt lat="48.78376" lon="-3.39708">
        <ele>90</ele>
        <time>2014-10-05T07:59:58Z</time>
      </trkpt>
      <trkpt lat="48.78383" lon="-3.39702">
        <ele>90</ele>
        <time>2014-10-05T07:59:59Z</time>
      </trkpt>
      <trkpt lat="48.78391" lon="-3.39695">
        <ele>91</ele>
        <time>2014-10-05T08:00:00Z</time>
      </trkpt>
      <trkpt lat="48.78399" lon="-3.39688">
        <ele>91</ele>
        <time>2014-10-05T08:00:01Z</time>
      </trkpt>
      <trkpt lat="48.78407" lon="-3.39682">
        <ele>91</ele>
        <time>2014-10-05T08:00:02Z</time>
      </trkpt>
      <trkpt lat="48.78415" lon="-3.39676">
        <ele>91</ele>
        <time>2014-10-05T08:00:03Z</time>
      </trkpt>
      <trkpt lat="48.78423" lon="-3.39671">
        <ele>91</ele>
        <time>2014-10-05T08:00:04Z</time>
      </trkpt>
      <trkpt lat="48.78432" lon="-3.39668">
        <ele>91</ele>
        <time>2014-10-05T08:00:05Z</time>
      </trkpt>
      <trkpt lat="48.7844" lon="-3.39664">
        <ele>91</ele>
        <time>2014-10-05T08:00:06Z</time>
      </trkpt>
      <trkpt lat="48.78449" lon="-3.39661">
        <ele>91</ele>
        <time>2014-10-05T08:00:07Z</time>
      </trkpt>
      <trkpt lat="48.78457" lon="-3.39657">
        <ele>91</ele>
        <time>2014-10-05T08:00:08Z</time>
      </trkpt>
      <trkpt lat="48.78465" lon="-3.39654">
        <ele>91</ele>
        <time>2014-10-05T08:00:09Z</time>
      </trkpt>
      <trkpt lat="48.78473" lon="-3.39651">
        <ele>91</ele>
        <time>2014-10-05T08:00:10Z</time>
      </trkpt>
      <trkpt lat="48.78479" lon="-3.39647">
        <ele>91</ele>
        <time>2014-10-05T08:00:11Z</time>
      </trkpt>
      <trkpt lat="48.78484" lon="-3.39641">
        <ele>91</ele>
        <time>2014-10-05T08:00:12Z</time>
      </trkpt>
      <trkpt lat="48.78487" lon="-3.39632">
        <ele>91</ele>
        <time>2014-10-05T08:00:13Z</time>
      </trkpt>
      <trkpt lat="48.78487" lon="-3.39622">
        <ele>91</ele>
        <time>2014-10-05T08:00:14Z</time>
      </trkpt>
      <trkpt lat="48.78484" lon="-3.39613">
        <ele>91</ele>
        <time>2014-10-05T08:00:15Z</time>
      </trkpt>
      <trkpt lat="48.78479" lon="-3.39605">
        <ele>91</ele>
        <time>2014-10-05T08:00:16Z</time>
      </trkpt>
      <trkpt lat="48.78472" lon="-3.39599">
        <ele>91</ele>
        <time>2014-10-05T08:00:17Z</time>
      </trkpt>
      <trkpt lat="48.78465" lon="-3.39593">
        <ele>91</ele>
        <time>2014-10-05T08:00:18Z</time>
      </trkpt>
      <trkpt lat="48.78458" lon="-3.39587">
        <ele>91</ele>
        <time>2014-10-05T08:00:19Z</time>
      </trkpt>
      <trkpt lat="48.7845" lon="-3.39581">
        <ele>91</ele>
        <time>2014-10-05T08:00:20Z</time>
      </trkpt>
      <trkpt lat="48.78443" lon="-3.39575">
        <ele>91</ele>
        <time>2014-10-05T08:00:21Z</time>
      </trkpt>
      <trkpt lat="48.78436" lon="-3.39569">
        <ele>91</ele>
        <time>2014-10-05T08:00:22Z</time>
      </trkpt>
      <trkpt lat="48.78429" lon="-3.39563">
        <ele>91</ele>
        <time>2014-10-05T08:00:23Z</time>
      </trkpt>
      <trkpt lat="48.78423" lon="-3.39558">
        <ele>91</ele>
        <time>2014-10-05T08:00:24Z</time>
      </trkpt>
      <trkpt lat="48.78416" lon="-3.39552">
        <ele>91</ele>
        <time>2014-10-05T08:00:25Z</time>
      </trkpt>
      <trkpt lat="48.78408" lon="-3.39546">
        <ele>91</ele>
        <time>2014-10-05T08:00:26Z</time>
      </trkpt>
      <trkpt lat="48.78401" lon="-3.3954">
        <ele>91</ele>
        <time>2014-10-05T08:00:27Z</time>
      </trkpt>
      <trkpt lat="48.78394" lon="-3.39533">
        <ele>91</ele>
        <time>2014-10-05T08:00:28Z</time>
      </trkpt>
      <trkpt lat="48.78388" lon="-3.39526">
        <ele>91</ele>
        <time>2014-10-05T08:00:29Z</time>
      </trkpt>
      <trkpt lat="48.78381" lon="-3.39519">
        <ele>91</ele>
        <time>2014-10-05T08:00:30Z</time>
      </trkpt>
      <trkpt lat="48.78374" lon="-3.39512">
        <ele>91</ele>
        <time>2014-10-05T08:00:31Z</time>
      </trkpt>
      <trkpt lat="48.78367" lon="-3.39504">
        <ele>91</ele>
        <time>2014-10-05T08:00:32Z</time>
      </trkpt>
      <trkpt lat="48.78361" lon="-3.39496">
        <ele>91</ele>
        <time>2014-10-05T08:00:33Z</time>
      </trkpt>
      <trkpt lat="48.78354" lon="-3.39488">
        <ele>91</ele>
        <time>2014-10-05T08:00:34Z</time>
      </trkpt>
      <trkpt lat="48.78348" lon="-3.3948">
        <ele>91</ele>
        <time>2014-10-05T08:00:35Z</time>
      </trkpt>
      <trkpt lat="48.78342" lon="-3.39471">
        <ele>91</ele>
        <time>2014-10-05T08:00:36Z</time>
      </trkpt>
      <trkpt lat="48.78336" lon="-3.39461">
        <ele>91</ele>
        <time>2014-10-05T08:00:37Z</time>
      </trkpt>
      <trkpt lat="48.7833" lon="-3.39452">
        <ele>91</ele>
        <time>2014-10-05T08:00:38Z</time>
      </trkpt>
      <trkpt lat="48.78324" lon="-3.39441">
        <ele>91</ele>
        <time>2014-10-05T08:00:39Z</time>
      </trkpt>
      <trkpt lat="48.78318" lon="-3.39432">
        <ele>91</ele>
        <time>2014-10-05T08:00:40Z</time>
      </trkpt>
      <trkpt lat="48.78313" lon="-3.39421">
        <ele>91</ele>
        <time>2014-10-05T08:00:41Z</time>
      </trkpt>
      <trkpt lat="48.78307" lon="-3.39411">
        <ele>91</ele>
        <time>2014-10-05T08:00:42Z</time>
      </trkpt>
      <trkpt lat="48.78301" lon="-3.39402">
        <ele>91</ele>
        <time>2014-10-05T08:00:43Z</time>
      </trkpt>
      <trkpt lat="48.78296" lon="-3.39392">
        <ele>91</ele>
        <time>2014-10-05T08:00:44Z</time>
      </trkpt>
      <trkpt lat="48.78291" lon="-3.39382">
        <ele>91</ele>
        <time>2014-10-05T08:00:45Z</time>
      </trkpt>
      <trkpt lat="48.78285" lon="-3.39372">
        <ele>91</ele>
        <time>2014-10-05T08:00:46Z</time>
      </trkpt>
      <trkpt lat="48.7828" lon="-3.39362">
        <ele>91</ele>
        <time>2014-10-05T08:00:47Z</time>
      </trkpt>
      <trkpt lat="48.78275" lon="-3.39352">
        <ele>91</ele>
        <time>2014-10-05T08:00:48Z</time>
      </trkpt>
      <trkpt lat="48.7827" lon="-3.39342">
        <ele>91</ele>
        <time>2014-10-05T08:00:49Z</time>
      </trkpt>
      <trkpt lat="48.78266" lon="-3.39331">
        <ele>91</ele>
        <time>2014-10-05T08:00:50Z</time>
      </trkpt>
      <trkpt lat="48.78262" lon="-3.3932">
        <ele>91</ele>
        <time>2014-10-05T08:00:51Z</time>
      </trkpt>
      <trkpt lat="48.78259" lon="-3.39308">
        <ele>91</ele>
        <time>2014-10-05T08:00:52Z</time>
      </trkpt>
      <trkpt lat="48.78255" lon="-3.39296">
        <ele>91</ele>
        <time>2014-10-05T08:00:53Z</time>
      </trkpt>
      <trkpt lat="48.78251" lon="-3.39283">
        <ele>91</ele>
        <time>2014-10-05T08:00:54Z</time>
      </trkpt>
      <trkpt lat="48.78248" lon="-3.39271">
        <ele>91</ele>
        <time>2014-10-05T08:00:55Z</time>
      </trkpt>
      <trkpt lat="48.78244" lon="-3.39258">
        <ele>91</ele>
        <time>2014-10-05T08:00:56Z</time>
      </trkpt>
      <trkpt lat="48.78241" lon="-3.39245">
        <ele>91</ele>
        <time>2014-10-05T08:00:57Z</time>
      </trkpt>
      <trkpt lat="48.78238" lon="-3.39231">
        <ele>91</ele>
        <time>2014-10-05T08:00:58Z</time>
      </trkpt>
      <trkpt lat="48.78234" lon="-3.39218">
        <ele>91</ele>
        <time>2014-10-05T08:00:59Z</time>
      </trkpt>
      <trkpt lat="48.78231" lon="-3.39204">
        <ele>91</ele>
        <time>2014-10-05T08:01:00Z</time>
      </trkpt>
      <trkpt lat="48.78228" lon="-3.3919">
        <ele>91</ele>
        <time>2014-10-05T08:01:01Z</time>
      </trkpt>
      <trkpt lat="48.78225" lon="-3.39176">
        <ele>91</ele>
        <time>2014-10-05T08:01:02Z</time>
      </trkpt>
      <trkpt lat="48.78222" lon="-3.39161">
        <ele>91</ele>
        <time>2014-10-05T08:01:03Z</time>
      </trkpt>
      <trkpt lat="48.78218" lon="-3.39147">
        <ele>91</ele>
        <time>2014-10-05T08:01:04Z</time>
      </trkpt>
      <trkpt lat="48.78215" lon="-3.39132">
        <ele>91</ele>
        <time>2014-10-05T08:01:05Z</time>
      </trkpt>
      <trkpt lat="48.78211" lon="-3.39117">
        <ele>91</ele>
        <time>2014-10-05T08:01:06Z</time>
      </trkpt>
      <trkpt lat="48.78207" lon="-3.39102">
        <ele>91</ele>
        <time>2014-10-05T08:01:07Z</time>
      </trkpt>
      <trkpt lat="48.78204" lon="-3.39087">
        <ele>91</ele>
        <time>2014-10-05T08:01:08Z</time>
      </trkpt>
      <trkpt lat="48.78201" lon="-3.39071">
        <ele>91</ele>
        <time>2014-10-05T08:01:09Z</time>
      </trkpt>
      <trkpt lat="48.78197" lon="-3.39056">
        <ele>91</ele>
        <time>2014-10-05T08:01:10Z</time>
      </trkpt>
      <trkpt lat="48.78194" lon="-3.39041">
        <ele>91</ele>
        <time>2014-10-05T08:01:11Z</time>
      </trkpt>
      <trkpt lat="48.7819" lon="-3.39027">
        <ele>91</ele>
        <time>2014-10-05T08:01:12Z</time>
      </trkpt>
      <trkpt lat="48.78186" lon="-3.39012">
        <ele>91</ele>
        <time>2014-10-05T08:01:13Z</time>
      </trkpt>
      <trkpt lat="48.78183" lon="-3.38998">
        <ele>91</ele>
        <time>2014-10-05T08:01:14Z</time>
      </trkpt>
      <trkpt lat="48.7818" lon="-3.38983">
        <ele>91</ele>
        <time>2014-10-05T08:01:15Z</time>
      </trkpt>
      <trkpt lat="48.78177" lon="-3.38969">
        <ele>91</ele>
        <time>2014-10-05T08:01:16Z</time>
      </trkpt>
      <trkpt lat="48.78173" lon="-3.38954">
        <ele>90</ele>
        <time>2014-10-05T08:01:17Z</time>
      </trkpt>
      <trkpt lat="48.7817" lon="-3.3894">
        <ele>90</ele>
        <time>2014-10-05T08:01:18Z</time>
      </trkpt>
      <trkpt lat="48.78167" lon="-3.38926">
        <ele>90</ele>
        <time>2014-10-05T08:01:19Z</time>
      </trkpt>
      <trkpt lat="48.78163" lon="-3.38911">
        <ele>90</ele>
        <time>2014-10-05T08:01:20Z</time>
      </trkpt>
      <trkpt lat="48.7816" lon="-3.38897">
        <ele>90</ele>
        <time>2014-10-05T08:01:21Z</time>
      </trkpt>
      <trkpt lat="48.78157" lon="-3.38883">
        <ele>90</ele>
        <time>2014-10-05T08:01:22Z</time>
      </trkpt>
      <trkpt lat="48.78153" lon="-3.38868">
        <ele>90</ele>
        <time>2014-10-05T08:01:23Z</time>
      </trkpt>
      <trkpt lat="48.7815" lon="-3.38855">
        <ele>90</ele>
        <time>2014-10-05T08:01:24Z</time>
      </trkpt>
      <trkpt lat="48.78146" lon="-3.38841">
        <ele>90</ele>
        <time>2014-10-05T08:01:25Z</time>
      </trkpt>
      <trkpt lat="48.78142" lon="-3.38827">
        <ele>89</ele>
        <time>2014-10-05T08:01:26Z</time>
      </trkpt>
      <trkpt lat="48.78138" lon="-3.38814">
        <ele>89</ele>
        <time>2014-10-05T08:01:27Z</time>
      </trkpt>
      <trkpt lat="48.78133" lon="-3.388">
        <ele>89</ele>
        <time>2014-10-05T08:01:28Z</time>
      </trkpt>
      <trkpt lat="48.78128" lon="-3.38787">
        <ele>89</ele>
        <time>2014-10-05T08:01:29Z</time>
      </trkpt>
      <trkpt lat="48.78124" lon="-3.38774">
        <ele>89</ele>
        <time>2014-10-05T08:01:30Z</time>
      </trkpt>
      <trkpt lat="48.78119" lon="-3.38761">
        <ele>89</ele>
        <time>2014-10-05T08:01:31Z</time>
      </trkpt>
      <trkpt lat="48.78114" lon="-3.38749">
        <ele>89</ele>
        <time>2014-10-05T08:01:32Z</time>
      </trkpt>
      <trkpt lat="48.7811" lon="-3.38736">
        <ele>89</ele>
        <time>2014-10-05T08:01:33Z</time>
      </trkpt>
      <trkpt lat="48.78105" lon="-3.38724">
        <ele>89</ele>
        <time>2014-10-05T08:01:34Z</time>
      </trkpt>
      <trkpt lat="48.781" lon="-3.38712">
        <ele>89</ele>
        <time>2014-10-05T08:01:35Z</time>
      </trkpt>
      <trkpt lat="48.78095" lon="-3.387">
        <ele>89</ele>
        <time>2014-10-05T08:01:36Z</time>
      </trkpt>
      <trkpt lat="48.7809" lon="-3.38688">
        <ele>89</ele>
        <time>2014-10-05T08:01:37Z</time>
      </trkpt>
      <trkpt lat="48.78086" lon="-3.38676">
        <ele>89</ele>
        <time>2014-10-05T08:01:38Z</time>
      </trkpt>
      <trkpt lat="48.78081" lon="-3.38664">
        <ele>89</ele>
        <time>2014-10-05T08:01:39Z</time>
      </trkpt>
      <trkpt lat="48.78077" lon="-3.38652">
        <ele>89</ele>
        <time>2014-10-05T08:01:40Z</time>
      </trkpt>
      <trkpt lat="48.78072" lon="-3.38641">
        <ele>89</ele>
        <time>2014-10-05T08:01:41Z</time>
      </trkpt>
      <trkpt lat="48.78068" lon="-3.38629">
        <ele>89</ele>
        <time>2014-10-05T08:01:42Z</time>
      </trkpt>
      <trkpt lat="48.78063" lon="-3.38618">
        <ele>89</ele>
        <time>2014-10-05T08:01:43Z</time>
      </trkpt>
      <trkpt lat="48.78059" lon="-3.38607">
        <ele>89</ele>
        <time>2014-10-05T08:01:44Z</time>
      </trkpt>
      <trkpt lat="48.78054" lon="-3.38595">
        <ele>89</ele>
        <time>2014-10-05T08:01:45Z</time>
      </trkpt>
      <trkpt lat="48.7805" lon="-3.38583">
        <ele>89</ele>
        <time>2014-10-05T08:01:46Z</time>
      </trkpt>
      <trkpt lat="48.78045" lon="-3.38572">
        <ele>89</ele>
        <time>2014-10-05T08:01:47Z</time>
      </trkpt>
      <trkpt lat="48.78041" lon="-3.38561">
        <ele>89</ele>
        <time>2014-10-05T08:01:48Z</time>
      </trkpt>
      <trkpt lat="48.78036" lon="-3.38549">
        <ele>89</ele>
        <time>2014-10-05T08:01:49Z</time>
      </trkpt>
      <trkpt lat="48.78032" lon="-3.38538">
        <ele>89</ele>
        <time>2014-10-05T08:01:50Z</time>
      </trkpt>
      <trkpt lat="48.78028" lon="-3.38527">
        <ele>89</ele>
        <time>2014-10-05T08:01:51Z</time>
      </trkpt>
      <trkpt lat="48.78023" lon="-3.38516">
        <ele>89</ele>
        <time>2014-10-05T08:01:52Z</time>
      </trkpt>
      <trkpt lat="48.78019" lon="-3.38505">
        <ele>89</ele>
        <time>2014-10-05T08:01:53Z</time>
      </trkpt>
      <trkpt lat="48.78015" lon="-3.38494">
        <ele>89</ele>
        <time>2014-10-05T08:01:54Z</time>
      </trkpt>
      <trkpt lat="48.7801" lon="-3.38483">
        <ele>89</ele>
        <time>2014-10-05T08:01:55Z</time>
      </trkpt>
      <trkpt lat="48.78006" lon="-3.38472">
        <ele>89</ele>
        <time>2014-10-05T08:01:56Z</time>
      </trkpt>
      <trkpt lat="48.78002" lon="-3.38461">
        <ele>89</ele>
        <time>2014-10-05T08:01:57Z</time>
      </trkpt>
      <trkpt lat="48.77997" lon="-3.3845">
        <ele>89</ele>
        <time>2014-10-05T08:01:58Z</time>
      </trkpt>
      <trkpt lat="48.77993" lon="-3.38438">
        <ele>89</ele>
        <time>2014-10-05T08:01:59Z</time>
      </trkpt>
      <trkpt lat="48.77988" lon="-3.38427">
        <ele>89</ele>
        <time>2014-10-05T08:02:00Z</time>
      </trkpt>
      <trkpt lat="48.77984" lon="-3.38416">
        <ele>89</ele>
        <time>2014-10-05T08:02:01Z</time>
      </trkpt>
      <trkpt lat="48.7798" lon="-3.38404">
        <ele>89</ele>
        <time>2014-10-05T08:02:02Z</time>
      </trkpt>
      <trkpt lat="48.77975" lon="-3.38393">
        <ele>89</ele>
        <time>2014-10-05T08:02:03Z</time>
      </trkpt>
      <trkpt lat="48.77972" lon="-3.38383">
        <ele>89</ele>
        <time>2014-10-05T08:02:04Z</time>
      </trkpt>
      <trkpt lat="48.77968" lon="-3.38372">
        <ele>89</ele>
        <time>2014-10-05T08:02:05Z</time>
      </trkpt>
      <trkpt lat="48.77964" lon="-3.38362">
        <ele>89</ele>
        <time>2014-10-05T08:02:06Z</time>
      </trkpt>
      <trkpt lat="48.77959" lon="-3.38351">
        <ele>89</ele>
        <time>2014-10-05T08:02:07Z</time>
      </trkpt>
      <trkpt lat="48.77955" lon="-3.38341">
        <ele>89</ele>
        <time>2014-10-05T08:02:08Z</time>
      </trkpt>
      <trkpt lat="48.77951" lon="-3.3833">
        <ele>89</ele>
        <time>2014-10-05T08:02:09Z</time>
      </trkpt>
      <trkpt lat="48.77946" lon="-3.3832">
        <ele>89</ele>
        <time>2014-10-05T08:02:10Z</time>
      </trkpt>
      <trkpt lat="48.77942" lon="-3.38309">
        <ele>89</ele>
        <time>2014-10-05T08:02:11Z</time>
      </trkpt>
      <trkpt lat="48.77937" lon="-3.38298">
        <ele>89</ele>
        <time>2014-10-05T08:02:12Z</time>
      </trkpt>
      <trkpt lat="48.77933" lon="-3.38286">
        <ele>89</ele>
        <time>2014-10-05T08:02:13Z</time>
      </trkpt>
      <trkpt lat="48.77928" lon="-3.38275">
        <ele>89</ele>
        <time>2014-10-05T08:02:14Z</time>
      </trkpt>
      <trkpt lat="48.77924" lon="-3.38263">
        <ele>89</ele>
        <time>2014-10-05T08:02:15Z</time>
      </trkpt>
      <trkpt lat="48.77919" lon="-3.38252">
        <ele>89</ele>
        <time>2014-10-05T08:02:16Z</time>
      </trkpt>
      <trkpt lat="48.77914" lon="-3.3824">
        <ele>89</ele>
        <time>2014-10-05T08:02:17Z</time>
      </trkpt>
      <trkpt lat="48.7791" lon="-3.38228">
        <ele>89</ele>
        <time>2014-10-05T08:02:18Z</time>
      </trkpt>
      <trkpt lat="48.77905" lon="-3.38216">
        <ele>89</ele>
        <time>2014-10-05T08:02:19Z</time>
      </trkpt>
      <trkpt lat="48.779" lon="-3.38205">
        <ele>89</ele>
        <time>2014-10-05T08:02:20Z</time>
      </trkpt>
      <trkpt lat="48.77896" lon="-3.38193">
        <ele>89</ele>
        <time>2014-10-05T08:02:21Z</time>
      </trkpt>
      <trkpt lat="48.77891" lon="-3.38182">
        <ele>89</ele>
        <time>2014-10-05T08:02:22Z</time>
      </trkpt>
      <trkpt lat="48.77887" lon="-3.38171">
        <ele>89</ele>
        <time>2014-10-05T08:02:23Z</time>
      </trkpt>
      <trkpt lat="48.77882" lon="-3.38159">
        <ele>89</ele>
        <time>2014-10-05T08:02:24Z</time>
      </trkpt>
      <trkpt lat="48.77878" lon="-3.38147">
        <ele>89</ele>
        <time>2014-10-05T08:02:25Z</time>
      </trkpt>
      <trkpt lat="48.77873" lon="-3.38136">
        <ele>89</ele>
        <time>2014-10-05T08:02:26Z</time>
      </trkpt>
      <trkpt lat="48.77869" lon="-3.38124">
        <ele>89</ele>
        <time>2014-10-05T08:02:27Z</time>
      </trkpt>
      <trkpt lat="48.77864" lon="-3.38112">
        <ele>89</ele>
        <time>2014-10-05T08:02:28Z</time>
      </trkpt>
      <trkpt lat="48.77859" lon="-3.381">
        <ele>89</ele>
        <time>2014-10-05T08:02:29Z</time>
      </trkpt>
      <trkpt lat="48.77855" lon="-3.38088">
        <ele>89</ele>
        <time>2014-10-05T08:02:30Z</time>
      </trkpt>
      <trkpt lat="48.7785" lon="-3.38075">
        <ele>89</ele>
        <time>2014-10-05T08:02:31Z</time>
      </trkpt>
      <trkpt lat="48.77845" lon="-3.38063">
        <ele>89</ele>
        <time>2014-10-05T08:02:32Z</time>
      </trkpt>
      <trkpt lat="48.7784" lon="-3.38051">
        <ele>89</ele>
        <time>2014-10-05T08:02:33Z</time>
      </trkpt>
      <trkpt lat="48.77835" lon="-3.38038">
        <ele>89</ele>
        <time>2014-10-05T08:02:34Z</time>
      </trkpt>
      <trkpt lat="48.77831" lon="-3.38026">
        <ele>89</ele>
        <time>2014-10-05T08:02:35Z</time>
      </trkpt>
      <trkpt lat="48.77826" lon="-3.38013">
        <ele>89</ele>
        <time>2014-10-05T08:02:36Z</time>
      </trkpt>
      <trkpt lat="48.77821" lon="-3.38001">
        <ele>89</ele>
        <time>2014-10-05T08:02:37Z</time>
      </trkpt>
      <trkpt lat="48.77816" lon="-3.37988">
        <ele>89</ele>
        <time>2014-10-05T08:02:38Z</time>
      </trkpt>
      <trkpt lat="48.77811" lon="-3.37976">
        <ele>89</ele>
        <time>2014-10-05T08:02:39Z</time>
      </trkpt>
      <trkpt lat="48.77806" lon="-3.37963">
        <ele>89</ele>
        <time>2014-10-05T08:02:40Z</time>
      </trkpt>
      <trkpt lat="48.77801" lon="-3.3795">
        <ele>89</ele>
        <time>2014-10-05T08:02:41Z</time>
      </trkpt>
      <trkpt lat="48.77796" lon="-3.37937">
        <ele>89</ele>
        <time>2014-10-05T08:02:42Z</time>
      </trkpt>
      <trkpt lat="48.77791" lon="-3.37924">
        <ele>89</ele>
        <time>2014-10-05T08:02:43Z</time>
      </trkpt>
      <trkpt lat="48.77786" lon="-3.37911">
        <ele>89</ele>
        <time>2014-10-05T08:02:44Z</time>
      </trkpt>
      <trkpt lat="48.77781" lon="-3.37898">
        <ele>89</ele>
        <time>2014-10-05T08:02:45Z</time>
      </trkpt>
      <trkpt lat="48.77775" lon="-3.37885">
        <ele>89</ele>
        <time>2014-10-05T08:02:46Z</time>
      </trkpt>
      <trkpt lat="48.7777" lon="-3.37872">
        <ele>89</ele>
        <time>2014-10-05T08:02:47Z</time>
      </trkpt>
      <trkpt lat="48.77765" lon="-3.37858">
        <ele>89</ele>
        <time>2014-10-05T08:02:48Z</time>
      </trkpt>
      <trkpt lat="48.7776" lon="-3.37844">
        <ele>89</ele>
        <time>2014-10-05T08:02:49Z</time>
      </trkpt>
      <trkpt lat="48.77754" lon="-3.37831">
        <ele>88</ele>
        <time>2014-10-05T08:02:50Z</time>
      </trkpt>
      <trkpt lat="48.77749" lon="-3.37817">
        <ele>88</ele>
        <time>2014-10-05T08:02:51Z</time>
      </trkpt>
      <trkpt lat="48.77744" lon="-3.37804">
        <ele>88</ele>
        <time>2014-10-05T08:02:52Z</time>
      </trkpt>
      <trkpt lat="48.77738" lon="-3.3779">
        <ele>88</ele>
        <time>2014-10-05T08:02:53Z</time>
      </trkpt>
      <trkpt lat="48.77733" lon="-3.37776">
        <ele>87</ele>
        <time>2014-10-05T08:02:54Z</time>
      </trkpt>
      <trkpt lat="48.77728" lon="-3.37763">
        <ele>87</ele>
        <time>2014-10-05T08:02:55Z</time>
      </trkpt>
      <trkpt lat="48.77722" lon="-3.37749">
        <ele>87</ele>
        <time>2014-10-05T08:02:56Z</time>
      </trkpt>
      <trkpt lat="48.77717" lon="-3.37736">
        <ele>87</ele>
        <time>2014-10-05T08:02:57Z</time>
      </trkpt>
      <trkpt lat="48.77712" lon="-3.37722">
        <ele>87</ele>
        <time>2014-10-05T08:02:58Z</time>
      </trkpt>
      <trkpt lat="48.77707" lon="-3.37709">
        <ele>87</ele>
        <time>2014-10-05T08:02:59Z</time>
      </trkpt>
      <trkpt lat="48.77703" lon="-3.37696">
        <ele>87</ele>
        <time>2014-10-05T08:03:00Z</time>
      </trkpt>
      <trkpt lat="48.77698" lon="-3.37684">
        <ele>87</ele>
        <time>2014-10-05T08:03:01Z</time>
      </trkpt>
      <trkpt lat="48.77693" lon="-3.37671">
        <ele>87</ele>
        <time>2014-10-05T08:03:02Z</time>
      </trkpt>
      <trkpt lat="48.77688" lon="-3.3766">
        <ele>87</ele>
        <time>2014-10-05T08:03:03Z</time>
      </trkpt>
      <trkpt lat="48.77684" lon="-3.37648">
        <ele>87</ele>
        <time>2014-10-05T08:03:04Z</time>
      </trkpt>
      <trkpt lat="48.77679" lon="-3.37636">
        <ele>87</ele>
        <time>2014-10-05T08:03:05Z</time>
      </trkpt>
      <trkpt lat="48.77674" lon="-3.37625">
        <ele>87</ele>
        <time>2014-10-05T08:03:06Z</time>
      </trkpt>
      <trkpt lat="48.7767" lon="-3.37613">
        <ele>87</ele>
        <time>2014-10-05T08:03:07Z</time>
      </trkpt>
      <trkpt lat="48.77665" lon="-3.37602">
        <ele>87</ele>
        <time>2014-10-05T08:03:08Z</time>
      </trkpt>
      <trkpt lat="48.7766" lon="-3.37591">
        <ele>87</ele>
        <time>2014-10-05T08:03:09Z</time>
      </trkpt>
      <trkpt lat="48.77656" lon="-3.3758">
        <ele>87</ele>
        <time>2014-10-05T08:03:10Z</time>
      </trkpt>
      <trkpt lat="48.77652" lon="-3.37569">
        <ele>87</ele>
        <time>2014-10-05T08:03:11Z</time>
      </trkpt>
      <trkpt lat="48.77647" lon="-3.37558">
        <ele>87</ele>
        <time>2014-10-05T08:03:12Z</time>
      </trkpt>
      <trkpt lat="48.77643" lon="-3.37546">
        <ele>87</ele>
        <time>2014-10-05T08:03:13Z</time>
      </trkpt>
      <trkpt lat="48.77639" lon="-3.37535">
        <ele>87</ele>
        <time>2014-10-05T08:03:14Z</time>
      </trkpt>
      <trkpt lat="48.77634" lon="-3.37524">
        <ele>87</ele>
        <time>2014-10-05T08:03:15Z</time>
      </trkpt>
      <trkpt lat="48.7763" lon="-3.37513">
        <ele>87</ele>
        <time>2014-10-05T08:03:16Z</time>
      </trkpt>
      <trkpt lat="48.77626" lon="-3.37503">
        <ele>87</ele>
        <time>2014-10-05T08:03:17Z</time>
      </trkpt>
      <trkpt lat="48.77622" lon="-3.37493">
        <ele>87</ele>
        <time>2014-10-05T08:03:18Z</time>
      </trkpt>
      <trkpt lat="48.77619" lon="-3.37483">
        <ele>87</ele>
        <time>2014-10-05T08:03:19Z</time>
      </trkpt>
      <trkpt lat="48.77615" lon="-3.37474">
        <ele>87</ele>
        <time>2014-10-05T08:03:20Z</time>
      </trkpt>
      <trkpt lat="48.77612" lon="-3.37465">
        <ele>87</ele>
        <time>2014-10-05T08:03:21Z</time>
      </trkpt>
      <trkpt lat="48.77608" lon="-3.37456">
        <ele>87</ele>
        <time>2014-10-05T08:03:22Z</time>
      </trkpt>
      <trkpt lat="48.77605" lon="-3.37448">
        <ele>87</ele>
        <time>2014-10-05T08:03:23Z</time>
      </trkpt>
      <trkpt lat="48.77602" lon="-3.37439">
        <ele>87</ele>
        <time>2014-10-05T08:03:24Z</time>
      </trkpt>
      <trkpt lat="48.77598" lon="-3.37431">
        <ele>87</ele>
        <time>2014-10-05T08:03:25Z</time>
      </trkpt>
      <trkpt lat="48.77595" lon="-3.37423">
        <ele>87</ele>
        <time>2014-10-05T08:03:26Z</time>
      </trkpt>
      <trkpt lat="48.77591" lon="-3.37414">
        <ele>87</ele>
        <time>2014-10-05T08:03:27Z</time>
      </trkpt>
      <trkpt lat="48.77588" lon="-3.37406">
        <ele>87</ele>
        <time>2014-10-05T08:03:28Z</time>
      </trkpt>
      <trkpt lat="48.77584" lon="-3.37397">
        <ele>87</ele>
        <time>2014-10-05T08:03:29Z</time>
      </trkpt>
      <trkpt lat="48.77581" lon="-3.37388">
        <ele>88</ele>
        <time>2014-10-05T08:03:30Z</time>
      </trkpt>
      <trkpt lat="48.77578" lon="-3.3738">
        <ele>88</ele>
        <time>2014-10-05T08:03:31Z</time>
      </trkpt>
      <trkpt lat="48.77574" lon="-3.37371">
        <ele>88</ele>
        <time>2014-10-05T08:03:32Z</time>
      </trkpt>
      <trkpt lat="48.77571" lon="-3.37363">
        <ele>89</ele>
        <time>2014-10-05T08:03:33Z</time>
      </trkpt>
      <trkpt lat="48.77567" lon="-3.37354">
        <ele>89</ele>
        <time>2014-10-05T08:03:34Z</time>
      </trkpt>
      <trkpt lat="48.77564" lon="-3.37346">
        <ele>90</ele>
        <time>2014-10-05T08:03:35Z</time>
      </trkpt>
      <trkpt lat="48.7756" lon="-3.37337">
        <ele>90</ele>
        <time>2014-10-05T08:03:36Z</time>
      </trkpt>
      <trkpt lat="48.77557" lon="-3.37329">
        <ele>90</ele>
        <time>2014-10-05T08:03:37Z</time>
      </trkpt>
      <trkpt lat="48.77553" lon="-3.3732">
        <ele>91</ele>
        <time>2014-10-05T08:03:38Z</time>
      </trkpt>
      <trkpt lat="48.7755" lon="-3.37311">
        <ele>91</ele>
        <time>2014-10-05T08:03:39Z</time>
      </trkpt>
      <trkpt lat="48.77547" lon="-3.37302">
        <ele>91</ele>
        <time>2014-10-05T08:03:40Z</time>
      </trkpt>
      <trkpt lat="48.77543" lon="-3.37293">
        <ele>92</ele>
        <time>2014-10-05T08:03:41Z</time>
      </trkpt>
      <trkpt lat="48.7754" lon="-3.37284">
        <ele>92</ele>
        <time>2014-10-05T08:03:42Z</time>
      </trkpt>
      <trkpt lat="48.77536" lon="-3.37275">
        <ele>92</ele>
        <time>2014-10-05T08:03:43Z</time>
      </trkpt>
      <trkpt lat="48.77533" lon="-3.37266">
        <ele>93</ele>
        <time>2014-10-05T08:03:44Z</time>
      </trkpt>
      <trkpt lat="48.77529" lon="-3.37257">
        <ele>93</ele>
        <time>2014-10-05T08:03:45Z</time>
      </trkpt>
      <trkpt lat="48.77525" lon="-3.37247">
        <ele>93</ele>
        <time>2014-10-05T08:03:46Z</time>
      </trkpt>
      <trkpt lat="48.77522" lon="-3.37238">
        <ele>93</ele>
        <time>2014-10-05T08:03:47Z</time>
      </trkpt>
      <trkpt lat="48.77518" lon="-3.37229">
        <ele>94</ele>
        <time>2014-10-05T08:03:48Z</time>
      </trkpt>
      <trkpt lat="48.77515" lon="-3.3722">
        <ele>94</ele>
        <time>2014-10-05T08:03:49Z</time>
      </trkpt>
      <trkpt lat="48.77511" lon="-3.37211">
        <ele>94</ele>
        <time>2014-10-05T08:03:50Z</time>
      </trkpt>
      <trkpt lat="48.77507" lon="-3.37202">
        <ele>94</ele>
        <time>2014-10-05T08:03:51Z</time>
      </trkpt>
      <trkpt lat="48.77503" lon="-3.37193">
        <ele>95</ele>
        <time>2014-10-05T08:03:52Z</time>
      </trkpt>
      <trkpt lat="48.775" lon="-3.37183">
        <ele>95</ele>
        <time>2014-10-05T08:03:53Z</time>
      </trkpt>
      <trkpt lat="48.77496" lon="-3.37174">
        <ele>95</ele>
        <time>2014-10-05T08:03:54Z</time>
      </trkpt>
      <trkpt lat="48.77492" lon="-3.37165">
        <ele>95</ele>
        <time>2014-10-05T08:03:55Z</time>
      </trkpt>
      <trkpt lat="48.77489" lon="-3.37155">
        <ele>95</ele>
        <time>2014-10-05T08:03:56Z</time>
      </trkpt>
      <trkpt lat="48.77485" lon="-3.37145">
        <ele>95</ele>
        <time>2014-10-05T08:03:57Z</time>
      </trkpt>
      <trkpt lat="48.77481" lon="-3.37135">
        <ele>95</ele>
        <time>2014-10-05T08:03:58Z</time>
      </trkpt>
      <trkpt lat="48.77477" lon="-3.37125">
        <ele>95</ele>
        <time>2014-10-05T08:03:59Z</time>
      </trkpt>
      <trkpt lat="48.77473" lon="-3.37116">
        <ele>95</ele>
        <time>2014-10-05T08:04:00Z</time>
      </trkpt>
      <trkpt lat="48.77469" lon="-3.37105">
        <ele>95</ele>
        <time>2014-10-05T08:04:01Z</time>
      </trkpt>
      <trkpt lat="48.77465" lon="-3.37095">
        <ele>95</ele>
        <time>2014-10-05T08:04:02Z</time>
      </trkpt>
      <trkpt lat="48.77461" lon="-3.37085">
        <ele>95</ele>
        <time>2014-10-05T08:04:03Z</time>
      </trkpt>
      <trkpt lat="48.77457" lon="-3.37075">
        <ele>95</ele>
        <time>2014-10-05T08:04:04Z</time>
      </trkpt>
      <trkpt lat="48.77453" lon="-3.37064">
        <ele>95</ele>
        <time>2014-10-05T08:04:05Z</time>
      </trkpt>
      <trkpt lat="48.77449" lon="-3.37054">
        <ele>95</ele>
        <time>2014-10-05T08:04:06Z</time>
      </trkpt>
      <trkpt lat="48.77445" lon="-3.37044">
        <ele>95</ele>
        <time>2014-10-05T08:04:07Z</time>
      </trkpt>
      <trkpt lat="48.7744" lon="-3.37035">
        <ele>95</ele>
        <time>2014-10-05T08:04:08Z</time>
      </trkpt>
      <trkpt lat="48.77436" lon="-3.37025">
        <ele>95</ele>
        <time>2014-10-05T08:04:09Z</time>
      </trkpt>
      <trkpt lat="48.77432" lon="-3.37016">
        <ele>95</ele>
        <time>2014-10-05T08:04:10Z</time>
      </trkpt>
      <trkpt lat="48.77428" lon="-3.37006">
        <ele>95</ele>
        <time>2014-10-05T08:04:11Z</time>
      </trkpt>
      <trkpt lat="48.77423" lon="-3.36997">
        <ele>95</ele>
        <time>2014-10-05T08:04:12Z</time>
      </trkpt>
      <trkpt lat="48.77419" lon="-3.36987">
        <ele>95</ele>
        <time>2014-10-05T08:04:13Z</time>
      </trkpt>
      <trkpt lat="48.77415" lon="-3.36978">
        <ele>95</ele>
        <time>2014-10-05T08:04:14Z</time>
      </trkpt>
      <trkpt lat="48.77411" lon="-3.36968">
        <ele>95</ele>
        <time>2014-10-05T08:04:15Z</time>
      </trkpt>
      <trkpt lat="48.77406" lon="-3.36959">
        <ele>95</ele>
        <time>2014-10-05T08:04:16Z</time>
      </trkpt>
      <trkpt lat="48.77402" lon="-3.36949">
        <ele>95</ele>
        <time>2014-10-05T08:04:17Z</time>
      </trkpt>
      <trkpt lat="48.77397" lon="-3.3694">
        <ele>95</ele>
        <time>2014-10-05T08:04:18Z</time>
      </trkpt>
      <trkpt lat="48.77393" lon="-3.3693">
        <ele>95</ele>
        <time>2014-10-05T08:04:19Z</time>
      </trkpt>
      <trkpt lat="48.77388" lon="-3.36921">
        <ele>95</ele>
        <time>2014-10-05T08:04:20Z</time>
      </trkpt>
      <trkpt lat="48.77383" lon="-3.36911">
        <ele>95</ele>
        <time>2014-10-05T08:04:21Z</time>
      </trkpt>
      <trkpt lat="48.77378" lon="-3.36902">
        <ele>95</ele>
        <time>2014-10-05T08:04:22Z</time>
      </trkpt>
      <trkpt lat="48.77372" lon="-3.36893">
        <ele>95</ele>
        <time>2014-10-05T08:04:23Z</time>
      </trkpt>
      <trkpt lat="48.77367" lon="-3.36883">
        <ele>95</ele>
        <time>2014-10-05T08:04:24Z</time>
      </trkpt>
      <trkpt lat="48.77362" lon="-3.36874">
        <ele>95</ele>
        <time>2014-10-05T08:04:25Z</time>
      </trkpt>
      <trkpt lat="48.77356" lon="-3.36864">
        <ele>95</ele>
        <time>2014-10-05T08:04:26Z</time>
      </trkpt>
      <trkpt lat="48.77351" lon="-3.36855">
        <ele>95</ele>
        <time>2014-10-05T08:04:27Z</time>
      </trkpt>
      <trkpt lat="48.77346" lon="-3.36845">
        <ele>95</ele>
        <time>2014-10-05T08:04:28Z</time>
      </trkpt>
      <trkpt lat="48.7734" lon="-3.36835">
        <ele>95</ele>
        <time>2014-10-05T08:04:29Z</time>
      </trkpt>
      <trkpt lat="48.77335" lon="-3.36826">
        <ele>95</ele>
        <time>2014-10-05T08:04:30Z</time>
      </trkpt>
      <trkpt lat="48.7733" lon="-3.36817">
        <ele>95</ele>
        <time>2014-10-05T08:04:31Z</time>
      </trkpt>
      <trkpt lat="48.77324" lon="-3.36807">
        <ele>95</ele>
        <time>2014-10-05T08:04:32Z</time>
      </trkpt>
      <trkpt lat="48.77319" lon="-3.36797">
        <ele>95</ele>
        <time>2014-10-05T08:04:33Z</time>
      </trkpt>
      <trkpt lat="48.77313" lon="-3.36788">
        <ele>95</ele>
        <time>2014-10-05T08:04:34Z</time>
      </trkpt>
      <trkpt lat="48.77308" lon="-3.36778">
        <ele>95</ele>
        <time>2014-10-05T08:04:35Z</time>
      </trkpt>
      <trkpt lat="48.77303" lon="-3.36769">
        <ele>95</ele>
        <time>2014-10-05T08:04:36Z</time>
      </trkpt>
      <trkpt lat="48.77297" lon="-3.36759">
        <ele>95</ele>
        <time>2014-10-05T08:04:37Z</time>
      </trkpt>
      <trkpt lat="48.77292" lon="-3.36751">
        <ele>95</ele>
        <time>2014-10-05T08:04:38Z</time>
      </trkpt>
      <trkpt lat="48.77287" lon="-3.36742">
        <ele>95</ele>
        <time>2014-10-05T08:04:39Z</time>
      </trkpt>
      <trkpt lat="48.77282" lon="-3.36733">
        <ele>95</ele>
        <time>2014-10-05T08:04:40Z</time>
      </trkpt>
      <trkpt lat="48.77277" lon="-3.36725">
        <ele>95</ele>
        <time>2014-10-05T08:04:41Z</time>
      </trkpt>
      <trkpt lat="48.77273" lon="-3.36716">
        <ele>95</ele>
        <time>2014-10-05T08:04:42Z</time>
      </trkpt>
      <trkpt lat="48.77268" lon="-3.36708">
        <ele>95</ele>
        <time>2014-10-05T08:04:43Z</time>
      </trkpt>
      <trkpt lat="48.77264" lon="-3.367">
        <ele>95</ele>
        <time>2014-10-05T08:04:44Z</time>
      </trkpt>
      <trkpt lat="48.77259" lon="-3.36692">
        <ele>95</ele>
        <time>2014-10-05T08:04:45Z</time>
      </trkpt>
      <trkpt lat="48.77254" lon="-3.36684">
        <ele>95</ele>
        <time>2014-10-05T08:04:46Z</time>
      </trkpt>
      <trkpt lat="48.7725" lon="-3.36675">
        <ele>95</ele>
        <time>2014-10-05T08:04:47Z</time>
      </trkpt>
      <trkpt lat="48.77245" lon="-3.36667">
        <ele>95</ele>
        <time>2014-10-05T08:04:48Z</time>
      </trkpt>
      <trkpt lat="48.7724" lon="-3.36659">
        <ele>95</ele>
        <time>2014-10-05T08:04:49Z</time>
      </trkpt>
      <trkpt lat="48.77235" lon="-3.3665">
        <ele>95</ele>
        <time>2014-10-05T08:04:50Z</time>
      </trkpt>
      <trkpt lat="48.7723" lon="-3.36642">
        <ele>95</ele>
        <time>2014-10-05T08:04:51Z</time>
      </trkpt>
      <trkpt lat="48.77225" lon="-3.36634">
        <ele>95</ele>
        <time>2014-10-05T08:04:52Z</time>
      </trkpt>
      <trkpt lat="48.7722" lon="-3.36627">
        <ele>95</ele>
        <time>2014-10-05T08:04:53Z</time>
      </trkpt>
      <trkpt lat="48.77215" lon="-3.3662">
        <ele>95</ele>
        <time>2014-10-05T08:04:54Z</time>
      </trkpt>
      <trkpt lat="48.77209" lon="-3.36615">
        <ele>95</ele>
        <time>2014-10-05T08:04:55Z</time>
      </trkpt>
      <trkpt lat="48.77203" lon="-3.36609">
        <ele>96</ele>
        <time>2014-10-05T08:04:56Z</time>
      </trkpt>
      <trkpt lat="48.77197" lon="-3.36603">
        <ele>96</ele>
        <time>2014-10-05T08:04:57Z</time>
      </trkpt>
      <trkpt lat="48.77193" lon="-3.36595">
        <ele>97</ele>
        <time>2014-10-05T08:04:58Z</time>
      </trkpt>
      <trkpt lat="48.7719" lon="-3.36585">
        <ele>97</ele>
        <time>2014-10-05T08:04:59Z</time>
      </trkpt>
      <trkpt lat="48.77187" lon="-3.36576">
        <ele>97</ele>
        <time>2014-10-05T08:05:00Z</time>
      </trkpt>
      <trkpt lat="48.77184" lon="-3.36566">
        <ele>97</ele>
        <time>2014-10-05T08:05:01Z</time>
      </trkpt>
      <trkpt lat="48.7718" lon="-3.36556">
        <ele>98</ele>
        <time>2014-10-05T08:05:02Z</time>
      </trkpt>
      <trkpt lat="48.77176" lon="-3.36547">
        <ele>98</ele>
        <time>2014-10-05T08:05:03Z</time>
      </trkpt>
      <trkpt lat="48.77171" lon="-3.36538">
        <ele>98</ele>
        <time>2014-10-05T08:05:04Z</time>
      </trkpt>
      <trkpt lat="48.77166" lon="-3.3653">
        <ele>98</ele>
        <time>2014-10-05T08:05:05Z</time>
      </trkpt>
      <trkpt lat="48.77161" lon="-3.36521">
        <ele>98</ele>
        <time>2014-10-05T08:05:06Z</time>
      </trkpt>
      <trkpt lat="48.77156" lon="-3.36513">
        <ele>98</ele>
        <time>2014-10-05T08:05:07Z</time>
      </trkpt>
      <trkpt lat="48.77152" lon="-3.36505">
        <ele>99</ele>
        <time>2014-10-05T08:05:08Z</time>
      </trkpt>
      <trkpt lat="48.77147" lon="-3.36497">
        <ele>99</ele>
        <time>2014-10-05T08:05:09Z</time>
      </trkpt>
      <trkpt lat="48.77142" lon="-3.36489">
        <ele>99</ele>
        <time>2014-10-05T08:05:10Z</time>
      </trkpt>
      <trkpt lat="48.77137" lon="-3.36481">
        <ele>99</ele>
        <time>2014-10-05T08:05:11Z</time>
      </trkpt>
      <trkpt lat="48.77133" lon="-3.36473">
        <ele>100</ele>
        <time>2014-10-05T08:05:12Z</time>
      </trkpt>
      <trkpt lat="48.77128" lon="-3.36464">
        <ele>100</ele>
        <time>2014-10-05T08:05:13Z</time>
      </trkpt>
      <trkpt lat="48.77123" lon="-3.36456">
        <ele>100</ele>
        <time>2014-10-05T08:05:14Z</time>
      </trkpt>
      <trkpt lat="48.77119" lon="-3.36447">
        <ele>100</ele>
        <time>2014-10-05T08:05:15Z</time>
      </trkpt>
      <trkpt lat="48.77114" lon="-3.36439">
        <ele>100</ele>
        <time>2014-10-05T08:05:16Z</time>
      </trkpt>
      <trkpt lat="48.77109" lon="-3.3643">
        <ele>100</ele>
        <time>2014-10-05T08:05:17Z</time>
      </trkpt>
      <trkpt lat="48.77104" lon="-3.36422">
        <ele>100</ele>
        <time>2014-10-05T08:05:18Z</time>
      </trkpt>
      <trkpt lat="48.77099" lon="-3.36413">
        <ele>100</ele>
        <time>2014-10-05T08:05:19Z</time>
      </trkpt>
      <trkpt lat="48.77094" lon="-3.36404">
        <ele>100</ele>
        <time>2014-10-05T08:05:20Z</time>
      </trkpt>
      <trkpt lat="48.77089" lon="-3.36396">
        <ele>100</ele>
        <time>2014-10-05T08:05:21Z</time>
      </trkpt>
      <trkpt lat="48.77084" lon="-3.36387">
        <ele>101</ele>
        <time>2014-10-05T08:05:22Z</time>
      </trkpt>
      <trkpt lat="48.77079" lon="-3.36378">
        <ele>101</ele>
        <time>2014-10-05T08:05:23Z</time>
      </trkpt>
      <trkpt lat="48.77074" lon="-3.36369">
        <ele>101</ele>
        <time>2014-10-05T08:05:24Z</time>
      </trkpt>
      <trkpt lat="48.77069" lon="-3.3636">
        <ele>101</ele>
        <time>2014-10-05T08:05:25Z</time>
      </trkpt>
      <trkpt lat="48.77064" lon="-3.36351">
        <ele>101</ele>
        <time>2014-10-05T08:05:26Z</time>
      </trkpt>
      <trkpt lat="48.77059" lon="-3.36342">
        <ele>101</ele>
        <time>2014-10-05T08:05:27Z</time>
      </trkpt>
      <trkpt lat="48.77054" lon="-3.36333">
        <ele>101</ele>
        <time>2014-10-05T08:05:28Z</time>
      </trkpt>
      <trkpt lat="48.77049" lon="-3.36324">
        <ele>101</ele>
        <time>2014-10-05T08:05:29Z</time>
      </trkpt>
      <trkpt lat="48.77044" lon="-3.36315">
        <ele>101</ele>
        <time>2014-10-05T08:05:30Z</time>
      </trkpt>
      <trkpt lat="48.77039" lon="-3.36306">
        <ele>101</ele>
        <time>2014-10-05T08:05:31Z</time>
      </trkpt>
      <trkpt lat="48.77034" lon="-3.36297">
        <ele>101</ele>
        <time>2014-10-05T08:05:32Z</time>
      </trkpt>
      <trkpt lat="48.77029" lon="-3.36288">
        <ele>101</ele>
        <time>2014-10-05T08:05:33Z</time>
      </trkpt>
      <trkpt lat="48.77023" lon="-3.36279">
        <ele>101</ele>
        <time>2014-10-05T08:05:34Z</time>
      </trkpt>
      <trkpt lat="48.77018" lon="-3.3627">
        <ele>102</ele>
        <time>2014-10-05T08:05:35Z</time>
      </trkpt>
      <trkpt lat="48.77013" lon="-3.36261">
        <ele>102</ele>
        <time>2014-10-05T08:05:36Z</time>
      </trkpt>
      <trkpt lat="48.77008" lon="-3.36252">
        <ele>102</ele>
        <time>2014-10-05T08:05:37Z</time>
      </trkpt>
      <trkpt lat="48.77002" lon="-3.36243">
        <ele>102</ele>
        <time>2014-10-05T08:05:38Z</time>
      </trkpt>
      <trkpt lat="48.76997" lon="-3.36234">
        <ele>102</ele>
        <time>2014-10-05T08:05:39Z</time>
      </trkpt>
      <trkpt lat="48.76992" lon="-3.36225">
        <ele>102</ele>
        <time>2014-10-05T08:05:40Z</time>
      </trkpt>
      <trkpt lat="48.76988" lon="-3.36216">
        <ele>102</ele>
        <time>2014-10-05T08:05:41Z</time>
      </trkpt>
      <trkpt lat="48.76983" lon="-3.36206">
        <ele>102</ele>
        <time>2014-10-05T08:05:42Z</time>
      </trkpt>
      <trkpt lat="48.76978" lon="-3.36197">
        <ele>102</ele>
        <time>2014-10-05T08:05:43Z</time>
      </trkpt>
      <trkpt lat="48.76973" lon="-3.36188">
        <ele>102</ele>
        <time>2014-10-05T08:05:44Z</time>
      </trkpt>
      <trkpt lat="48.76969" lon="-3.36178">
        <ele>102</ele>
        <time>2014-10-05T08:05:45Z</time>
      </trkpt>
      <trkpt lat="48.76965" lon="-3.36168">
        <ele>102</ele>
        <time>2014-10-05T08:05:46Z</time>
      </trkpt>
      <trkpt lat="48.7696" lon="-3.36157">
        <ele>102</ele>
        <time>2014-10-05T08:05:47Z</time>
      </trkpt>
      <trkpt lat="48.76956" lon="-3.36147">
        <ele>102</ele>
        <time>2014-10-05T08:05:48Z</time>
      </trkpt>
      <trkpt lat="48.76952" lon="-3.36137">
        <ele>102</ele>
        <time>2014-10-05T08:05:49Z</time>
      </trkpt>
      <trkpt lat="48.76948" lon="-3.36126">
        <ele>102</ele>
        <time>2014-10-05T08:05:50Z</time>
      </trkpt>
      <trkpt lat="48.76945" lon="-3.36115">
        <ele>102</ele>
        <time>2014-10-05T08:05:51Z</time>
      </trkpt>
      <trkpt lat="48.76942" lon="-3.36104">
        <ele>102</ele>
        <time>2014-10-05T08:05:52Z</time>
      </trkpt>
      <trkpt lat="48.76939" lon="-3.36092">
        <ele>102</ele>
        <time>2014-10-05T08:05:53Z</time>
      </trkpt>
      <trkpt lat="48.76936" lon="-3.36082">
        <ele>102</ele>
        <time>2014-10-05T08:05:54Z</time>
      </trkpt>
      <trkpt lat="48.76933" lon="-3.3607">
        <ele>102</ele>
        <time>2014-10-05T08:05:55Z</time>
      </trkpt>
      <trkpt lat="48.7693" lon="-3.36059">
        <ele>102</ele>
        <time>2014-10-05T08:05:56Z</time>
      </trkpt>
      <trkpt lat="48.76927" lon="-3.36048">
        <ele>102</ele>
        <time>2014-10-05T08:05:57Z</time>
      </trkpt>
      <trkpt lat="48.76924" lon="-3.36037">
        <ele>102</ele>
        <time>2014-10-05T08:05:58Z</time>
      </trkpt>
      <trkpt lat="48.76921" lon="-3.36025">
        <ele>102</ele>
        <time>2014-10-05T08:05:59Z</time>
      </trkpt>
      <trkpt lat="48.76918" lon="-3.36013">
        <ele>102</ele>
        <time>2014-10-05T08:06:00Z</time>
      </trkpt>
      <trkpt lat="48.76915" lon="-3.36001">
        <ele>102</ele>
        <time>2014-10-05T08:06:01Z</time>
      </trkpt>
      <trkpt lat="48.76912" lon="-3.35989">
        <ele>102</ele>
        <time>2014-10-05T08:06:02Z</time>
      </trkpt>
      <trkpt lat="48.76909" lon="-3.35977">
        <ele>102</ele>
        <time>2014-10-05T08:06:03Z</time>
      </trkpt>
      <trkpt lat="48.76906" lon="-3.35965">
        <ele>102</ele>
        <time>2014-10-05T08:06:04Z</time>
      </trkpt>
      <trkpt lat="48.76903" lon="-3.35953">
        <ele>102</ele>
        <time>2014-10-05T08:06:05Z</time>
      </trkpt>
      <trkpt lat="48.769" lon="-3.35941">
        <ele>102</ele>
        <time>2014-10-05T08:06:06Z</time>
      </trkpt>
      <trkpt lat="48.76897" lon="-3.35928">
        <ele>102</ele>
        <time>2014-10-05T08:06:07Z</time>
      </trkpt>
      <trkpt lat="48.76894" lon="-3.35916">
        <ele>102</ele>
        <time>2014-10-05T08:06:08Z</time>
      </trkpt>
      <trkpt lat="48.76891" lon="-3.35903">
        <ele>102</ele>
        <time>2014-10-05T08:06:09Z</time>
      </trkpt>
      <trkpt lat="48.76887" lon="-3.35889">
        <ele>102</ele>
        <time>2014-10-05T08:06:10Z</time>
      </trkpt>
      <trkpt lat="48.76884" lon="-3.35876">
        <ele>102</ele>
        <time>2014-10-05T08:06:11Z</time>
      </trkpt>
      <trkpt lat="48.76881" lon="-3.35862">
        <ele>102</ele>
        <time>2014-10-05T08:06:12Z</time>
      </trkpt>
      <trkpt lat="48.76877" lon="-3.35848">
        <ele>102</ele>
        <time>2014-10-05T08:06:13Z</time>
      </trkpt>
      <trkpt lat="48.76874" lon="-3.35834">
        <ele>102</ele>
        <time>2014-10-05T08:06:14Z</time>
      </trkpt>
      <trkpt lat="48.7687" lon="-3.3582">
        <ele>102</ele>
        <time>2014-10-05T08:06:15Z</time>
      </trkpt>
      <trkpt lat="48.76867" lon="-3.35806">
        <ele>102</ele>
        <time>2014-10-05T08:06:16Z</time>
      </trkpt>
      <trkpt lat="48.76864" lon="-3.35792">
        <ele>102</ele>
        <time>2014-10-05T08:06:17Z</time>
      </trkpt>
      <trkpt lat="48.76861" lon="-3.35778">
        <ele>102</ele>
        <time>2014-10-05T08:06:18Z</time>
      </trkpt>
      <trkpt lat="48.76857" lon="-3.35764">
        <ele>102</ele>
        <time>2014-10-05T08:06:19Z</time>
      </trkpt>
      <trkpt lat="48.76854" lon="-3.35749">
        <ele>102</ele>
        <time>2014-10-05T08:06:20Z</time>
      </trkpt>
      <trkpt lat="48.76852" lon="-3.35734">
        <ele>102</ele>
        <time>2014-10-05T08:06:21Z</time>
      </trkpt>
      <trkpt lat="48.76849" lon="-3.3572">
        <ele>102</ele>
        <time>2014-10-05T08:06:22Z</time>
      </trkpt>
      <trkpt lat="48.76847" lon="-3.35705">
        <ele>102</ele>
        <time>2014-10-05T08:06:23Z</time>
      </trkpt>
      <trkpt lat="48.76846" lon="-3.3569">
        <ele>102</ele>
        <time>2014-10-05T08:06:24Z</time>
      </trkpt>
      <trkpt lat="48.76844" lon="-3.35675">
        <ele>102</ele>
        <time>2014-10-05T08:06:25Z</time>
      </trkpt>
      <trkpt lat="48.76844" lon="-3.3566">
        <ele>102</ele>
        <time>2014-10-05T08:06:26Z</time>
      </trkpt>
      <trkpt lat="48.76843" lon="-3.35644">
        <ele>102</ele>
        <time>2014-10-05T08:06:27Z</time>
      </trkpt>
      <trkpt lat="48.76843" lon="-3.35629">
        <ele>102</ele>
        <time>2014-10-05T08:06:28Z</time>
      </trkpt>
      <trkpt lat="48.76843" lon="-3.35613">
        <ele>102</ele>
        <time>2014-10-05T08:06:29Z</time>
      </trkpt>
      <trkpt lat="48.76843" lon="-3.35598">
        <ele>102</ele>
        <time>2014-10-05T08:06:30Z</time>
      </trkpt>
      <trkpt lat="48.76844" lon="-3.35583">
        <ele>102</ele>
        <time>2014-10-05T08:06:31Z</time>
      </trkpt>
      <trkpt lat="48.76845" lon="-3.35568">
        <ele>102</ele>
        <time>2014-10-05T08:06:32Z</time>
      </trkpt>
      <trkpt lat="48.76846" lon="-3.35554">
        <ele>102</ele>
        <time>2014-10-05T08:06:33Z</time>
      </trkpt>
      <trkpt lat="48.76847" lon="-3.3554">
        <ele>102</ele>
        <time>2014-10-05T08:06:34Z</time>
      </trkpt>
      <trkpt lat="48.76849" lon="-3.35526">
        <ele>102</ele>
        <time>2014-10-05T08:06:35Z</time>
      </trkpt>
      <trkpt lat="48.76851" lon="-3.35511">
        <ele>102</ele>
        <time>2014-10-05T08:06:36Z</time>
      </trkpt>
      <trkpt lat="48.76853" lon="-3.35497">
        <ele>102</ele>
        <time>2014-10-05T08:06:37Z</time>
      </trkpt>
      <trkpt lat="48.76855" lon="-3.35483">
        <ele>102</ele>
        <time>2014-10-05T08:06:38Z</time>
      </trkpt>
      <trkpt lat="48.76857" lon="-3.35468">
        <ele>102</ele>
        <time>2014-10-05T08:06:39Z</time>
      </trkpt>
      <trkpt lat="48.76859" lon="-3.35454">
        <ele>102</ele>
        <time>2014-10-05T08:06:40Z</time>
      </trkpt>
      <trkpt lat="48.76861" lon="-3.35439">
        <ele>102</ele>
        <time>2014-10-05T08:06:41Z</time>
      </trkpt>
      <trkpt lat="48.76863" lon="-3.35425">
        <ele>102</ele>
        <time>2014-10-05T08:06:42Z</time>
      </trkpt>
      <trkpt lat="48.76864" lon="-3.35411">
        <ele>102</ele>
        <time>2014-10-05T08:06:43Z</time>
      </trkpt>
      <trkpt lat="48.76866" lon="-3.35397">
        <ele>102</ele>
        <time>2014-10-05T08:06:44Z</time>
      </trkpt>
      <trkpt lat="48.76868" lon="-3.35383">
        <ele>102</ele>
        <time>2014-10-05T08:06:45Z</time>
      </trkpt>
      <trkpt lat="48.7687" lon="-3.35369">
        <ele>102</ele>
        <time>2014-10-05T08:06:46Z</time>
      </trkpt>
      <trkpt lat="48.76872" lon="-3.35356">
        <ele>102</ele>
        <time>2014-10-05T08:06:47Z</time>
      </trkpt>
      <trkpt lat="48.76873" lon="-3.35342">
        <ele>102</ele>
        <time>2014-10-05T08:06:48Z</time>
      </trkpt>
      <trkpt lat="48.76875" lon="-3.35328">
        <ele>102</ele>
        <time>2014-10-05T08:06:49Z</time>
      </trkpt>
      <trkpt lat="48.76877" lon="-3.35314">
        <ele>102</ele>
        <time>2014-10-05T08:06:50Z</time>
      </trkpt>
      <trkpt lat="48.76879" lon="-3.353">
        <ele>102</ele>
        <time>2014-10-05T08:06:51Z</time>
      </trkpt>
      <trkpt lat="48.76881" lon="-3.35286">
        <ele>102</ele>
        <time>2014-10-05T08:06:52Z</time>
      </trkpt>
      <trkpt lat="48.76883" lon="-3.35272">
        <ele>102</ele>
        <time>2014-10-05T08:06:53Z</time>
      </trkpt>
      <trkpt lat="48.76884" lon="-3.35258">
        <ele>102</ele>
        <time>2014-10-05T08:06:54Z</time>
      </trkpt>
      <trkpt lat="48.76886" lon="-3.35244">
        <ele>102</ele>
        <time>2014-10-05T08:06:55Z</time>
      </trkpt>
      <trkpt lat="48.76888" lon="-3.3523">
        <ele>102</ele>
        <time>2014-10-05T08:06:56Z</time>
      </trkpt>
      <trkpt lat="48.7689" lon="-3.35216">
        <ele>102</ele>
        <time>2014-10-05T08:06:57Z</time>
      </trkpt>
      <trkpt lat="48.76892" lon="-3.35203">
        <ele>102</ele>
        <time>2014-10-05T08:06:58Z</time>
      </trkpt>
      <trkpt lat="48.76894" lon="-3.35188">
        <ele>102</ele>
        <time>2014-10-05T08:06:59Z</time>
      </trkpt>
      <trkpt lat="48.76896" lon="-3.35174">
        <ele>102</ele>
        <time>2014-10-05T08:07:00Z</time>
      </trkpt>
      <trkpt lat="48.76897" lon="-3.3516">
        <ele>102</ele>
        <time>2014-10-05T08:07:01Z</time>
      </trkpt>
      <trkpt lat="48.76899" lon="-3.35146">
        <ele>102</ele>
        <time>2014-10-05T08:07:02Z</time>
      </trkpt>
      <trkpt lat="48.76901" lon="-3.35131">
        <ele>102</ele>
        <time>2014-10-05T08:07:03Z</time>
      </trkpt>
      <trkpt lat="48.76903" lon="-3.35117">
        <ele>102</ele>
        <time>2014-10-05T08:07:04Z</time>
      </trkpt>
      <trkpt lat="48.76905" lon="-3.35102">
        <ele>102</ele>
        <time>2014-10-05T08:07:05Z</time>
      </trkpt>
      <trkpt lat="48.76907" lon="-3.35088">
        <ele>102</ele>
        <time>2014-10-05T08:07:06Z</time>
      </trkpt>
      <trkpt lat="48.76909" lon="-3.35073">
        <ele>102</ele>
        <time>2014-10-05T08:07:07Z</time>
      </trkpt>
      <trkpt lat="48.76911" lon="-3.35059">
        <ele>102</ele>
        <time>2014-10-05T08:07:08Z</time>
      </trkpt>
      <trkpt lat="48.76913" lon="-3.35045">
        <ele>102</ele>
        <time>2014-10-05T08:07:09Z</time>
      </trkpt>
      <trkpt lat="48.76915" lon="-3.35031">
        <ele>102</ele>
        <time>2014-10-05T08:07:10Z</time>
      </trkpt>
      <trkpt lat="48.76917" lon="-3.35017">
        <ele>102</ele>
        <time>2014-10-05T08:07:11Z</time>
      </trkpt>
      <trkpt lat="48.76918" lon="-3.35003">
        <ele>102</ele>
        <time>2014-10-05T08:07:12Z</time>
      </trkpt>
      <trkpt lat="48.7692" lon="-3.34988">
        <ele>102</ele>
        <time>2014-10-05T08:07:13Z</time>
      </trkpt>
      <trkpt lat="48.76923" lon="-3.34974">
        <ele>102</ele>
        <time>2014-10-05T08:07:14Z</time>
      </trkpt>
      <trkpt lat="48.76925" lon="-3.34959">
        <ele>102</ele>
        <time>2014-10-05T08:07:15Z</time>
      </trkpt>
      <trkpt lat="48.76927" lon="-3.34945">
        <ele>102</ele>
        <time>2014-10-05T08:07:16Z</time>
      </trkpt>
      <trkpt lat="48.76928" lon="-3.3493">
        <ele>102</ele>
        <time>2014-10-05T08:07:17Z</time>
      </trkpt>
      <trkpt lat="48.76931" lon="-3.34916">
        <ele>102</ele>
        <time>2014-10-05T08:07:18Z</time>
      </trkpt>
      <trkpt lat="48.76933" lon="-3.34901">
        <ele>102</ele>
        <time>2014-10-05T08:07:19Z</time>
      </trkpt>
      <trkpt lat="48.76935" lon="-3.34887">
        <ele>102</ele>
        <time>2014-10-05T08:07:20Z</time>
      </trkpt>
      <trkpt lat="48.76937" lon="-3.34872">
        <ele>102</ele>
        <time>2014-10-05T08:07:21Z</time>
      </trkpt>
      <trkpt lat="48.76939" lon="-3.34857">
        <ele>102</ele>
        <time>2014-10-05T08:07:22Z</time>
      </trkpt>
      <trkpt lat="48.76941" lon="-3.34842">
        <ele>102</ele>
        <time>2014-10-05T08:07:23Z</time>
      </trkpt>
      <trkpt lat="48.76943" lon="-3.34828">
        <ele>102</ele>
        <time>2014-10-05T08:07:24Z</time>
      </trkpt>
      <trkpt lat="48.76945" lon="-3.34813">
        <ele>102</ele>
        <time>2014-10-05T08:07:25Z</time>
      </trkpt>
      <trkpt lat="48.76947" lon="-3.34799">
        <ele>102</ele>
        <time>2014-10-05T08:07:26Z</time>
      </trkpt>
      <trkpt lat="48.76948" lon="-3.34785">
        <ele>102</ele>
        <time>2014-10-05T08:07:27Z</time>
      </trkpt>
      <trkpt lat="48.76949" lon="-3.3477">
        <ele>102</ele>
        <time>2014-10-05T08:07:28Z</time>
      </trkpt>
      <trkpt lat="48.76951" lon="-3.34756">
        <ele>102</ele>
        <time>2014-10-05T08:07:29Z</time>
      </trkpt>
      <trkpt lat="48.76953" lon="-3.34742">
        <ele>102</ele>
        <time>2014-10-05T08:07:30Z</time>
      </trkpt>
      <trkpt lat="48.76955" lon="-3.34728">
        <ele>102</ele>
        <time>2014-10-05T08:07:31Z</time>
      </trkpt>
      <trkpt lat="48.76957" lon="-3.34713">
        <ele>102</ele>
        <time>2014-10-05T08:07:32Z</time>
      </trkpt>
      <trkpt lat="48.76958" lon="-3.34698">
        <ele>102</ele>
        <time>2014-10-05T08:07:33Z</time>
      </trkpt>
      <trkpt lat="48.7696" lon="-3.34683">
        <ele>102</ele>
        <time>2014-10-05T08:07:34Z</time>
      </trkpt>
      <trkpt lat="48.76963" lon="-3.34668">
        <ele>102</ele>
        <time>2014-10-05T08:07:35Z</time>
      </trkpt>
      <trkpt lat="48.76965" lon="-3.34654">
        <ele>102</ele>
        <time>2014-10-05T08:07:36Z</time>
      </trkpt>
      <trkpt lat="48.76966" lon="-3.34639">
        <ele>102</ele>
        <time>2014-10-05T08:07:37Z</time>
      </trkpt>
      <trkpt lat="48.76968" lon="-3.34624">
        <ele>102</ele>
        <time>2014-10-05T08:07:38Z</time>
      </trkpt>
      <trkpt lat="48.7697" lon="-3.34609">
        <ele>102</ele>
        <time>2014-10-05T08:07:39Z</time>
      </trkpt>
      <trkpt lat="48.76972" lon="-3.34594">
        <ele>102</ele>
        <time>2014-10-05T08:07:40Z</time>
      </trkpt>
      <trkpt lat="48.76974" lon="-3.34579">
        <ele>102</ele>
        <time>2014-10-05T08:07:41Z</time>
      </trkpt>
      <trkpt lat="48.76976" lon="-3.34565">
        <ele>102</ele>
        <time>2014-10-05T08:07:42Z</time>
      </trkpt>
      <trkpt lat="48.76978" lon="-3.3455">
        <ele>102</ele>
        <time>2014-10-05T08:07:43Z</time>
      </trkpt>
      <trkpt lat="48.76979" lon="-3.34536">
        <ele>102</ele>
        <time>2014-10-05T08:07:44Z</time>
      </trkpt>
      <trkpt lat="48.76981" lon="-3.34521">
        <ele>102</ele>
        <time>2014-10-05T08:07:45Z</time>
      </trkpt>
      <trkpt lat="48.76983" lon="-3.34507">
        <ele>102</ele>
        <time>2014-10-05T08:07:46Z</time>
      </trkpt>
      <trkpt lat="48.76984" lon="-3.34492">
        <ele>102</ele>
        <time>2014-10-05T08:07:47Z</time>
      </trkpt>
      <trkpt lat="48.76986" lon="-3.34478">
        <ele>102</ele>
        <time>2014-10-05T08:07:48Z</time>
      </trkpt>
      <trkpt lat="48.76987" lon="-3.34464">
        <ele>102</ele>
        <time>2014-10-05T08:07:49Z</time>
      </trkpt>
      <trkpt lat="48.76987" lon="-3.34449">
        <ele>102</ele>
        <time>2014-10-05T08:07:50Z</time>
      </trkpt>
      <trkpt lat="48.76988" lon="-3.34434">
        <ele>102</ele>
        <time>2014-10-05T08:07:51Z</time>
      </trkpt>
      <trkpt lat="48.76989" lon="-3.34419">
        <ele>102</ele>
        <time>2014-10-05T08:07:52Z</time>
      </trkpt>
      <trkpt lat="48.76989" lon="-3.34404">
        <ele>102</ele>
        <time>2014-10-05T08:07:53Z</time>
      </trkpt>
      <trkpt lat="48.76989" lon="-3.34389">
        <ele>102</ele>
        <time>2014-10-05T08:07:54Z</time>
      </trkpt>
      <trkpt lat="48.7699" lon="-3.34374">
        <ele>102</ele>
        <time>2014-10-05T08:07:55Z</time>
      </trkpt>
      <trkpt lat="48.7699" lon="-3.3436">
        <ele>102</ele>
        <time>2014-10-05T08:07:56Z</time>
      </trkpt>
      <trkpt lat="48.7699" lon="-3.34345">
        <ele>102</ele>
        <time>2014-10-05T08:07:57Z</time>
      </trkpt>
      <trkpt lat="48.76991" lon="-3.3433">
        <ele>102</ele>
        <time>2014-10-05T08:07:58Z</time>
      </trkpt>
      <trkpt lat="48.76991" lon="-3.34315">
        <ele>102</ele>
        <time>2014-10-05T08:07:59Z</time>
      </trkpt>
      <trkpt lat="48.76991" lon="-3.343">
        <ele>102</ele>
        <time>2014-10-05T08:08:00Z</time>
      </trkpt>
      <trkpt lat="48.76991" lon="-3.34285">
        <ele>102</ele>
        <time>2014-10-05T08:08:01Z</time>
      </trkpt>
      <trkpt lat="48.76991" lon="-3.3427">
        <ele>102</ele>
        <time>2014-10-05T08:08:02Z</time>
      </trkpt>
      <trkpt lat="48.76991" lon="-3.34255">
        <ele>102</ele>
        <time>2014-10-05T08:08:03Z</time>
      </trkpt>
      <trkpt lat="48.76991" lon="-3.3424">
        <ele>102</ele>
        <time>2014-10-05T08:08:04Z</time>
      </trkpt>
      <trkpt lat="48.76992" lon="-3.34224">
        <ele>102</ele>
        <time>2014-10-05T08:08:05Z</time>
      </trkpt>
      <trkpt lat="48.76992" lon="-3.34209">
        <ele>102</ele>
        <time>2014-10-05T08:08:06Z</time>
      </trkpt>
      <trkpt lat="48.76992" lon="-3.34194">
        <ele>102</ele>
        <time>2014-10-05T08:08:07Z</time>
      </trkpt>
      <trkpt lat="48.76992" lon="-3.34178">
        <ele>102</ele>
        <time>2014-10-05T08:08:08Z</time>
      </trkpt>
      <trkpt lat="48.76992" lon="-3.34163">
        <ele>102</ele>
        <time>2014-10-05T08:08:09Z</time>
      </trkpt>
      <trkpt lat="48.76992" lon="-3.34147">
        <ele>102</ele>
        <time>2014-10-05T08:08:10Z</time>
      </trkpt>
      <trkpt lat="48.76992" lon="-3.34131">
        <ele>102</ele>
        <time>2014-10-05T08:08:11Z</time>
      </trkpt>
      <trkpt lat="48.76992" lon="-3.34115">
        <ele>102</ele>
        <time>2014-10-05T08:08:12Z</time>
      </trkpt>
      <trkpt lat="48.76992" lon="-3.34099">
        <ele>102</ele>
        <time>2014-10-05T08:08:13Z</time>
      </trkpt>
      <trkpt lat="48.76993" lon="-3.34082">
        <ele>101</ele>
        <time>2014-10-05T08:08:14Z</time>
      </trkpt>
      <trkpt lat="48.76993" lon="-3.34066">
        <ele>101</ele>
        <time>2014-10-05T08:08:15Z</time>
      </trkpt>
      <trkpt lat="48.76993" lon="-3.3405">
        <ele>101</ele>
        <time>2014-10-05T08:08:16Z</time>
      </trkpt>
      <trkpt lat="48.76993" lon="-3.34033">
        <ele>101</ele>
        <time>2014-10-05T08:08:17Z</time>
      </trkpt>
      <trkpt lat="48.76994" lon="-3.34017">
        <ele>101</ele>
        <time>2014-10-05T08:08:18Z</time>
      </trkpt>
      <trkpt lat="48.76994" lon="-3.34001">
        <ele>100</ele>
        <time>2014-10-05T08:08:19Z</time>
      </trkpt>
      <trkpt lat="48.76994" lon="-3.33984">
        <ele>100</ele>
        <time>2014-10-05T08:08:20Z</time>
      </trkpt>
      <trkpt lat="48.76994" lon="-3.33968">
        <ele>100</ele>
        <time>2014-10-05T08:08:21Z</time>
      </trkpt>
      <trkpt lat="48.76994" lon="-3.33952">
        <ele>100</ele>
        <time>2014-10-05T08:08:22Z</time>
      </trkpt>
      <trkpt lat="48.76994" lon="-3.33935">
        <ele>99</ele>
        <time>2014-10-05T08:08:23Z</time>
      </trkpt>
      <trkpt lat="48.76995" lon="-3.33919">
        <ele>99</ele>
        <time>2014-10-05T08:08:24Z</time>
      </trkpt>
      <trkpt lat="48.76994" lon="-3.33903">
        <ele>99</ele>
        <time>2014-10-05T08:08:25Z</time>
      </trkpt>
      <trkpt lat="48.76995" lon="-3.33886">
        <ele>99</ele>
        <time>2014-10-05T08:08:26Z</time>
      </trkpt>
      <trkpt lat="48.76995" lon="-3.33869">
        <ele>99</ele>
        <time>2014-10-05T08:08:27Z</time>
      </trkpt>
      <trkpt lat="48.76995" lon="-3.33853">
        <ele>98</ele>
        <time>2014-10-05T08:08:28Z</time>
      </trkpt>
      <trkpt lat="48.76996" lon="-3.33836">
        <ele>98</ele>
        <time>2014-10-05T08:08:29Z</time>
      </trkpt>
      <trkpt lat="48.76996" lon="-3.3382">
        <ele>98</ele>
        <time>2014-10-05T08:08:30Z</time>
      </trkpt>
      <trkpt lat="48.76995" lon="-3.33804">
        <ele>98</ele>
        <time>2014-10-05T08:08:31Z</time>
      </trkpt>
      <trkpt lat="48.76996" lon="-3.33787">
        <ele>98</ele>
        <time>2014-10-05T08:08:32Z</time>
      </trkpt>
      <trkpt lat="48.76996" lon="-3.3377">
        <ele>97</ele>
        <time>2014-10-05T08:08:33Z</time>
      </trkpt>
      <trkpt lat="48.76996" lon="-3.33753">
        <ele>97</ele>
        <time>2014-10-05T08:08:34Z</time>
      </trkpt>
      <trkpt lat="48.76996" lon="-3.33736">
        <ele>97</ele>
        <time>2014-10-05T08:08:35Z</time>
      </trkpt>
      <trkpt lat="48.76997" lon="-3.33719">
        <ele>97</ele>
        <time>2014-10-05T08:08:36Z</time>
      </trkpt>
      <trkpt lat="48.76997" lon="-3.33702">
        <ele>97</ele>
        <time>2014-10-05T08:08:37Z</time>
      </trkpt>
      <trkpt lat="48.76997" lon="-3.33686">
        <ele>96</ele>
        <time>2014-10-05T08:08:38Z</time>
      </trkpt>
      <trkpt lat="48.76997" lon="-3.33669">
        <ele>96</ele>
        <time>2014-10-05T08:08:39Z</time>
      </trkpt>
      <trkpt lat="48.76997" lon="-3.33653">
        <ele>96</ele>
        <time>2014-10-05T08:08:40Z</time>
      </trkpt>
      <trkpt lat="48.76997" lon="-3.33636">
        <ele>96</ele>
        <time>2014-10-05T08:08:41Z</time>
      </trkpt>
      <trkpt lat="48.76998" lon="-3.3362">
        <ele>96</ele>
        <time>2014-10-05T08:08:42Z</time>
      </trkpt>
      <trkpt lat="48.76998" lon="-3.33605">
        <ele>96</ele>
        <time>2014-10-05T08:08:43Z</time>
      </trkpt>
      <trkpt lat="48.76998" lon="-3.33589">
        <ele>95</ele>
        <time>2014-10-05T08:08:44Z</time>
      </trkpt>
      <trkpt lat="48.76999" lon="-3.33573">
        <ele>95</ele>
        <time>2014-10-05T08:08:45Z</time>
      </trkpt>
      <trkpt lat="48.76999" lon="-3.33558">
        <ele>95</ele>
        <time>2014-10-05T08:08:46Z</time>
      </trkpt>
      <trkpt lat="48.76999" lon="-3.33542">
        <ele>95</ele>
        <time>2014-10-05T08:08:47Z</time>
      </trkpt>
      <trkpt lat="48.76999" lon="-3.33526">
        <ele>95</ele>
        <time>2014-10-05T08:08:48Z</time>
      </trkpt>
      <trkpt lat="48.76999" lon="-3.3351">
        <ele>95</ele>
        <time>2014-10-05T08:08:49Z</time>
      </trkpt>
      <trkpt lat="48.76999" lon="-3.33494">
        <ele>95</ele>
        <time>2014-10-05T08:08:50Z</time>
      </trkpt>
      <trkpt lat="48.76999" lon="-3.33478">
        <ele>95</ele>
        <time>2014-10-05T08:08:51Z</time>
      </trkpt>
      <trkpt lat="48.76999" lon="-3.33462">
        <ele>95</ele>
        <time>2014-10-05T08:08:52Z</time>
      </trkpt>
      <trkpt lat="48.76999" lon="-3.33446">
        <ele>94</ele>
        <time>2014-10-05T08:08:53Z</time>
      </trkpt>
      <trkpt lat="48.76999" lon="-3.3343">
        <ele>94</ele>
        <time>2014-10-05T08:08:54Z</time>
      </trkpt>
      <trkpt lat="48.76999" lon="-3.33414">
        <ele>94</ele>
        <time>2014-10-05T08:08:55Z</time>
      </trkpt>
      <trkpt lat="48.76999" lon="-3.33398">
        <ele>94</ele>
        <time>2014-10-05T08:08:56Z</time>
      </trkpt>
      <trkpt lat="48.76999" lon="-3.33382">
        <ele>94</ele>
        <time>2014-10-05T08:08:57Z</time>
      </trkpt>
      <trkpt lat="48.76999" lon="-3.33366">
        <ele>94</ele>
        <time>2014-10-05T08:08:58Z</time>
      </trkpt>
      <trkpt lat="48.76998" lon="-3.33351">
        <ele>94</ele>
        <time>2014-10-05T08:08:59Z</time>
      </trkpt>
      <trkpt lat="48.76997" lon="-3.33335">
        <ele>94</ele>
        <time>2014-10-05T08:09:00Z</time>
      </trkpt>
      <trkpt lat="48.76995" lon="-3.33319">
        <ele>93</ele>
        <time>2014-10-05T08:09:01Z</time>
      </trkpt>
      <trkpt lat="48.76994" lon="-3.33304">
        <ele>93</ele>
        <time>2014-10-05T08:09:02Z</time>
      </trkpt>
      <trkpt lat="48.76992" lon="-3.33289">
        <ele>93</ele>
        <time>2014-10-05T08:09:03Z</time>
      </trkpt>
      <trkpt lat="48.7699" lon="-3.33273">
        <ele>93</ele>
        <time>2014-10-05T08:09:04Z</time>
      </trkpt>
      <trkpt lat="48.76988" lon="-3.33258">
        <ele>93</ele>
        <time>2014-10-05T08:09:05Z</time>
      </trkpt>
      <trkpt lat="48.76986" lon="-3.33242">
        <ele>93</ele>
        <time>2014-10-05T08:09:06Z</time>
      </trkpt>
      <trkpt lat="48.76984" lon="-3.33226">
        <ele>93</ele>
        <time>2014-10-05T08:09:07Z</time>
      </trkpt>
      <trkpt lat="48.76981" lon="-3.3321">
        <ele>93</ele>
        <time>2014-10-05T08:09:08Z</time>
      </trkpt>
      <trkpt lat="48.76979" lon="-3.33194">
        <ele>92</ele>
        <time>2014-10-05T08:09:09Z</time>
      </trkpt>
      <trkpt lat="48.76977" lon="-3.33178">
        <ele>92</ele>
        <time>2014-10-05T08:09:10Z</time>
      </trkpt>
      <trkpt lat="48.76975" lon="-3.33163">
        <ele>92</ele>
        <time>2014-10-05T08:09:11Z</time>
      </trkpt>
      <trkpt lat="48.76973" lon="-3.33147">
        <ele>92</ele>
        <time>2014-10-05T08:09:12Z</time>
      </trkpt>
      <trkpt lat="48.76971" lon="-3.33132">
        <ele>92</ele>
        <time>2014-10-05T08:09:13Z</time>
      </trkpt>
      <trkpt lat="48.76968" lon="-3.33116">
        <ele>92</ele>
        <time>2014-10-05T08:09:14Z</time>
      </trkpt>
      <trkpt lat="48.76966" lon="-3.33101">
        <ele>92</ele>
        <time>2014-10-05T08:09:15Z</time>
      </trkpt>
      <trkpt lat="48.76964" lon="-3.33085">
        <ele>92</ele>
        <time>2014-10-05T08:09:16Z</time>
      </trkpt>
      <trkpt lat="48.76962" lon="-3.3307">
        <ele>92</ele>
        <time>2014-10-05T08:09:17Z</time>
      </trkpt>
      <trkpt lat="48.76959" lon="-3.33054">
        <ele>92</ele>
        <time>2014-10-05T08:09:18Z</time>
      </trkpt>
      <trkpt lat="48.76957" lon="-3.33039">
        <ele>91</ele>
        <time>2014-10-05T08:09:19Z</time>
      </trkpt>
      <trkpt lat="48.76955" lon="-3.33023">
        <ele>91</ele>
        <time>2014-10-05T08:09:20Z</time>
      </trkpt>
      <trkpt lat="48.76952" lon="-3.33008">
        <ele>91</ele>
        <time>2014-10-05T08:09:21Z</time>
      </trkpt>
      <trkpt lat="48.7695" lon="-3.32992">
        <ele>91</ele>
        <time>2014-10-05T08:09:22Z</time>
      </trkpt>
      <trkpt lat="48.76948" lon="-3.32976">
        <ele>91</ele>
        <time>2014-10-05T08:09:23Z</time>
      </trkpt>
      <trkpt lat="48.76946" lon="-3.3296">
        <ele>91</ele>
        <time>2014-10-05T08:09:24Z</time>
      </trkpt>
      <trkpt lat="48.76944" lon="-3.32944">
        <ele>91</ele>
        <time>2014-10-05T08:09:25Z</time>
      </trkpt>
      <trkpt lat="48.76942" lon="-3.32929">
        <ele>91</ele>
        <time>2014-10-05T08:09:26Z</time>
      </trkpt>
      <trkpt lat="48.76939" lon="-3.32914">
        <ele>91</ele>
        <time>2014-10-05T08:09:27Z</time>
      </trkpt>
      <trkpt lat="48.76937" lon="-3.32899">
        <ele>91</ele>
        <time>2014-10-05T08:09:28Z</time>
      </trkpt>
      <trkpt lat="48.76935" lon="-3.32884">
        <ele>91</ele>
        <time>2014-10-05T08:09:29Z</time>
      </trkpt>
      <trkpt lat="48.76933" lon="-3.32869">
        <ele>91</ele>
        <time>2014-10-05T08:09:30Z</time>
      </trkpt>
      <trkpt lat="48.76931" lon="-3.32854">
        <ele>91</ele>
        <time>2014-10-05T08:09:31Z</time>
      </trkpt>
      <trkpt lat="48.76928" lon="-3.32839">
        <ele>90</ele>
        <time>2014-10-05T08:09:32Z</time>
      </trkpt>
      <trkpt lat="48.76926" lon="-3.32823">
        <ele>90</ele>
        <time>2014-10-05T08:09:33Z</time>
      </trkpt>
      <trkpt lat="48.76924" lon="-3.32808">
        <ele>90</ele>
        <time>2014-10-05T08:09:34Z</time>
      </trkpt>
      <trkpt lat="48.76922" lon="-3.32793">
        <ele>90</ele>
        <time>2014-10-05T08:09:35Z</time>
      </trkpt>
      <trkpt lat="48.7692" lon="-3.32777">
        <ele>90</ele>
        <time>2014-10-05T08:09:36Z</time>
      </trkpt>
      <trkpt lat="48.76918" lon="-3.32762">
        <ele>90</ele>
        <time>2014-10-05T08:09:37Z</time>
      </trkpt>
      <trkpt lat="48.76915" lon="-3.32747">
        <ele>90</ele>
        <time>2014-10-05T08:09:38Z</time>
      </trkpt>
      <trkpt lat="48.76913" lon="-3.32731">
        <ele>89</ele>
        <time>2014-10-05T08:09:39Z</time>
      </trkpt>
      <trkpt lat="48.76911" lon="-3.32716">
        <ele>89</ele>
        <time>2014-10-05T08:09:40Z</time>
      </trkpt>
      <trkpt lat="48.76909" lon="-3.327">
        <ele>89</ele>
        <time>2014-10-05T08:09:41Z</time>
      </trkpt>
      <trkpt lat="48.76907" lon="-3.32685">
        <ele>89</ele>
        <time>2014-10-05T08:09:43Z</time>
      </trkpt>
      <trkpt lat="48.76904" lon="-3.32669">
        <ele>88</ele>
        <time>2014-10-05T08:09:43Z</time>
      </trkpt>
      <trkpt lat="48.76902" lon="-3.32653">
        <ele>88</ele>
        <time>2014-10-05T08:09:44Z</time>
      </trkpt>
      <trkpt lat="48.769" lon="-3.32637">
        <ele>88</ele>
        <time>2014-10-05T08:09:45Z</time>
      </trkpt>
      <trkpt lat="48.76898" lon="-3.32621">
        <ele>88</ele>
        <time>2014-10-05T08:09:46Z</time>
      </trkpt>
      <trkpt lat="48.76896" lon="-3.32605">
        <ele>87</ele>
        <time>2014-10-05T08:09:47Z</time>
      </trkpt>
      <trkpt lat="48.76894" lon="-3.32589">
        <ele>87</ele>
        <time>2014-10-05T08:09:48Z</time>
      </trkpt>
      <trkpt lat="48.76891" lon="-3.32573">
        <ele>87</ele>
        <time>2014-10-05T08:09:49Z</time>
      </trkpt>
      <trkpt lat="48.76889" lon="-3.32557">
        <ele>86</ele>
        <time>2014-10-05T08:09:50Z</time>
      </trkpt>
      <trkpt lat="48.76886" lon="-3.32541">
        <ele>86</ele>
        <time>2014-10-05T08:09:51Z</time>
      </trkpt>
      <trkpt lat="48.76884" lon="-3.32524">
        <ele>86</ele>
        <time>2014-10-05T08:09:52Z</time>
      </trkpt>
      <trkpt lat="48.76882" lon="-3.32508">
        <ele>85</ele>
        <time>2014-10-05T08:09:53Z</time>
      </trkpt>
      <trkpt lat="48.7688" lon="-3.32491">
        <ele>85</ele>
        <time>2014-10-05T08:09:54Z</time>
      </trkpt>
      <trkpt lat="48.76877" lon="-3.32475">
        <ele>84</ele>
        <time>2014-10-05T08:09:55Z</time>
      </trkpt>
      <trkpt lat="48.76875" lon="-3.32458">
        <ele>84</ele>
        <time>2014-10-05T08:09:56Z</time>
      </trkpt>
      <trkpt lat="48.76872" lon="-3.32441">
        <ele>83</ele>
        <time>2014-10-05T08:09:57Z</time>
      </trkpt>
      <trkpt lat="48.7687" lon="-3.32425">
        <ele>83</ele>
        <time>2014-10-05T08:09:58Z</time>
      </trkpt>
      <trkpt lat="48.76868" lon="-3.32408">
        <ele>83</ele>
        <time>2014-10-05T08:09:59Z</time>
      </trkpt>
      <trkpt lat="48.76865" lon="-3.32392">
        <ele>82</ele>
        <time>2014-10-05T08:10:00Z</time>
      </trkpt>
      <trkpt lat="48.76862" lon="-3.32376">
        <ele>82</ele>
        <time>2014-10-05T08:10:01Z</time>
      </trkpt>
      <trkpt lat="48.7686" lon="-3.32359">
        <ele>82</ele>
        <time>2014-10-05T08:10:02Z</time>
      </trkpt>
      <trkpt lat="48.76859" lon="-3.32343">
        <ele>81</ele>
        <time>2014-10-05T08:10:03Z</time>
      </trkpt>
      <trkpt lat="48.76857" lon="-3.32326">
        <ele>81</ele>
        <time>2014-10-05T08:10:04Z</time>
      </trkpt>
      <trkpt lat="48.76856" lon="-3.32309">
        <ele>80</ele>
        <time>2014-10-05T08:10:05Z</time>
      </trkpt>
      <trkpt lat="48.76855" lon="-3.32292">
        <ele>80</ele>
        <time>2014-10-05T08:10:06Z</time>
      </trkpt>
      <trkpt lat="48.76854" lon="-3.32275">
        <ele>80</ele>
        <time>2014-10-05T08:10:07Z</time>
      </trkpt>
      <trkpt lat="48.76854" lon="-3.32257">
        <ele>79</ele>
        <time>2014-10-05T08:10:08Z</time>
      </trkpt>
      <trkpt lat="48.76853" lon="-3.3224">
        <ele>79</ele>
        <time>2014-10-05T08:10:09Z</time>
      </trkpt>
      <trkpt lat="48.76853" lon="-3.32223">
        <ele>79</ele>
        <time>2014-10-05T08:10:10Z</time>
      </trkpt>
      <trkpt lat="48.76854" lon="-3.32205">
        <ele>78</ele>
        <time>2014-10-05T08:10:11Z</time>
      </trkpt>
      <trkpt lat="48.76854" lon="-3.32188">
        <ele>78</ele>
        <time>2014-10-05T08:10:12Z</time>
      </trkpt>
      <trkpt lat="48.76855" lon="-3.32171">
        <ele>78</ele>
        <time>2014-10-05T08:10:13Z</time>
      </trkpt>
      <trkpt lat="48.76856" lon="-3.32154">
        <ele>77</ele>
        <time>2014-10-05T08:10:14Z</time>
      </trkpt>
      <trkpt lat="48.76857" lon="-3.32136">
        <ele>77</ele>
        <time>2014-10-05T08:10:15Z</time>
      </trkpt>
      <trkpt lat="48.76857" lon="-3.32119">
        <ele>77</ele>
        <time>2014-10-05T08:10:16Z</time>
      </trkpt>
      <trkpt lat="48.76858" lon="-3.32102">
        <ele>77</ele>
        <time>2014-10-05T08:10:17Z</time>
      </trkpt>
      <trkpt lat="48.76859" lon="-3.32084">
        <ele>77</ele>
        <time>2014-10-05T08:10:18Z</time>
      </trkpt>
      <trkpt lat="48.76859" lon="-3.32067">
        <ele>77</ele>
        <time>2014-10-05T08:10:19Z</time>
      </trkpt>
      <trkpt lat="48.7686" lon="-3.3205">
        <ele>76</ele>
        <time>2014-10-05T08:10:20Z</time>
      </trkpt>
      <trkpt lat="48.7686" lon="-3.32034">
        <ele>76</ele>
        <time>2014-10-05T08:10:21Z</time>
      </trkpt>
      <trkpt lat="48.76861" lon="-3.32017">
        <ele>76</ele>
        <time>2014-10-05T08:10:22Z</time>
      </trkpt>
      <trkpt lat="48.76862" lon="-3.32001">
        <ele>76</ele>
        <time>2014-10-05T08:10:23Z</time>
      </trkpt>
      <trkpt lat="48.76862" lon="-3.31984">
        <ele>76</ele>
        <time>2014-10-05T08:10:24Z</time>
      </trkpt>
      <trkpt lat="48.76863" lon="-3.31967">
        <ele>76</ele>
        <time>2014-10-05T08:10:25Z</time>
      </trkpt>
      <trkpt lat="48.76864" lon="-3.3195">
        <ele>76</ele>
        <time>2014-10-05T08:10:26Z</time>
      </trkpt>
      <trkpt lat="48.76864" lon="-3.31934">
        <ele>76</ele>
        <time>2014-10-05T08:10:27Z</time>
      </trkpt>
      <trkpt lat="48.76865" lon="-3.31917">
        <ele>75</ele>
        <time>2014-10-05T08:10:28Z</time>
      </trkpt>
      <trkpt lat="48.76866" lon="-3.31901">
        <ele>75</ele>
        <time>2014-10-05T08:10:29Z</time>
      </trkpt>
      <trkpt lat="48.76866" lon="-3.31884">
        <ele>75</ele>
        <time>2014-10-05T08:10:30Z</time>
      </trkpt>
      <trkpt lat="48.76867" lon="-3.31867">
        <ele>75</ele>
        <time>2014-10-05T08:10:31Z</time>
      </trkpt>
      <trkpt lat="48.76868" lon="-3.3185">
        <ele>75</ele>
        <time>2014-10-05T08:10:32Z</time>
      </trkpt>
      <trkpt lat="48.76868" lon="-3.31833">
        <ele>75</ele>
        <time>2014-10-05T08:10:33Z</time>
      </trkpt>
      <trkpt lat="48.76869" lon="-3.31817">
        <ele>75</ele>
        <time>2014-10-05T08:10:34Z</time>
      </trkpt>
      <trkpt lat="48.7687" lon="-3.318">
        <ele>74</ele>
        <time>2014-10-05T08:10:35Z</time>
      </trkpt>
      <trkpt lat="48.7687" lon="-3.31783">
        <ele>74</ele>
        <time>2014-10-05T08:10:36Z</time>
      </trkpt>
      <trkpt lat="48.76871" lon="-3.31767">
        <ele>74</ele>
        <time>2014-10-05T08:10:37Z</time>
      </trkpt>
      <trkpt lat="48.76872" lon="-3.3175">
        <ele>74</ele>
        <time>2014-10-05T08:10:38Z</time>
      </trkpt>
      <trkpt lat="48.76872" lon="-3.31734">
        <ele>74</ele>
        <time>2014-10-05T08:10:39Z</time>
      </trkpt>
      <trkpt lat="48.76873" lon="-3.31717">
        <ele>74</ele>
        <time>2014-10-05T08:10:40Z</time>
      </trkpt>
      <trkpt lat="48.76873" lon="-3.317">
        <ele>74</ele>
        <time>2014-10-05T08:10:41Z</time>
      </trkpt>
      <trkpt lat="48.76873" lon="-3.31684">
        <ele>73</ele>
        <time>2014-10-05T08:10:42Z</time>
      </trkpt>
      <trkpt lat="48.76873" lon="-3.31667">
        <ele>73</ele>
        <time>2014-10-05T08:10:43Z</time>
      </trkpt>
      <trkpt lat="48.76873" lon="-3.3165">
        <ele>73</ele>
        <time>2014-10-05T08:10:44Z</time>
      </trkpt>
      <trkpt lat="48.76873" lon="-3.31633">
        <ele>73</ele>
        <time>2014-10-05T08:10:45Z</time>
      </trkpt>
      <trkpt lat="48.76872" lon="-3.31617">
        <ele>73</ele>
        <time>2014-10-05T08:10:46Z</time>
      </trkpt>
      <trkpt lat="48.76871" lon="-3.316">
        <ele>73</ele>
        <time>2014-10-05T08:10:47Z</time>
      </trkpt>
      <trkpt lat="48.7687" lon="-3.31584">
        <ele>72</ele>
        <time>2014-10-05T08:10:48Z</time>
      </trkpt>
      <trkpt lat="48.76868" lon="-3.31567">
        <ele>72</ele>
        <time>2014-10-05T08:10:49Z</time>
      </trkpt>
      <trkpt lat="48.76866" lon="-3.31551">
        <ele>72</ele>
        <time>2014-10-05T08:10:50Z</time>
      </trkpt>
      <trkpt lat="48.76864" lon="-3.31535">
        <ele>72</ele>
        <time>2014-10-05T08:10:51Z</time>
      </trkpt>
      <trkpt lat="48.76862" lon="-3.3152">
        <ele>72</ele>
        <time>2014-10-05T08:10:52Z</time>
      </trkpt>
      <trkpt lat="48.7686" lon="-3.31504">
        <ele>72</ele>
        <time>2014-10-05T08:10:53Z</time>
      </trkpt>
      <trkpt lat="48.76857" lon="-3.31488">
        <ele>72</ele>
        <time>2014-10-05T08:10:54Z</time>
      </trkpt>
      <trkpt lat="48.76854" lon="-3.31471">
        <ele>71</ele>
        <time>2014-10-05T08:10:55Z</time>
      </trkpt>
      <trkpt lat="48.76851" lon="-3.31456">
        <ele>71</ele>
        <time>2014-10-05T08:10:56Z</time>
      </trkpt>
      <trkpt lat="48.76847" lon="-3.3144">
        <ele>71</ele>
        <time>2014-10-05T08:10:57Z</time>
      </trkpt>
      <trkpt lat="48.76844" lon="-3.31425">
        <ele>71</ele>
        <time>2014-10-05T08:10:58Z</time>
      </trkpt>
      <trkpt lat="48.7684" lon="-3.31411">
        <ele>71</ele>
        <time>2014-10-05T08:10:59Z</time>
      </trkpt>
      <trkpt lat="48.76835" lon="-3.31396">
        <ele>71</ele>
        <time>2014-10-05T08:11:00Z</time>
      </trkpt>
      <trkpt lat="48.76831" lon="-3.31381">
        <ele>70</ele>
        <time>2014-10-05T08:11:01Z</time>
      </trkpt>
      <trkpt lat="48.76826" lon="-3.31366">
        <ele>70</ele>
        <time>2014-10-05T08:11:02Z</time>
      </trkpt>
      <trkpt lat="48.76822" lon="-3.31351">
        <ele>70</ele>
        <time>2014-10-05T08:11:03Z</time>
      </trkpt>
      <trkpt lat="48.76818" lon="-3.31336">
        <ele>70</ele>
        <time>2014-10-05T08:11:04Z</time>
      </trkpt>
      <trkpt lat="48.76814" lon="-3.31322">
        <ele>70</ele>
        <time>2014-10-05T08:11:05Z</time>
      </trkpt>
      <trkpt lat="48.76809" lon="-3.31307">
        <ele>70</ele>
        <time>2014-10-05T08:11:06Z</time>
      </trkpt>
      <trkpt lat="48.76805" lon="-3.31292">
        <ele>70</ele>
        <time>2014-10-05T08:11:07Z</time>
      </trkpt>
      <trkpt lat="48.768" lon="-3.31277">
        <ele>69</ele>
        <time>2014-10-05T08:11:08Z</time>
      </trkpt>
      <trkpt lat="48.76796" lon="-3.31262">
        <ele>69</ele>
        <time>2014-10-05T08:11:09Z</time>
      </trkpt>
      <trkpt lat="48.76791" lon="-3.31247">
        <ele>69</ele>
        <time>2014-10-05T08:11:10Z</time>
      </trkpt>
      <trkpt lat="48.76787" lon="-3.31232">
        <ele>69</ele>
        <time>2014-10-05T08:11:11Z</time>
      </trkpt>
      <trkpt lat="48.76783" lon="-3.31217">
        <ele>69</ele>
        <time>2014-10-05T08:11:12Z</time>
      </trkpt>
      <trkpt lat="48.76778" lon="-3.31201">
        <ele>69</ele>
        <time>2014-10-05T08:11:13Z</time>
      </trkpt>
      <trkpt lat="48.76774" lon="-3.31186">
        <ele>69</ele>
        <time>2014-10-05T08:11:14Z</time>
      </trkpt>
      <trkpt lat="48.76769" lon="-3.3117">
        <ele>69</ele>
        <time>2014-10-05T08:11:15Z</time>
      </trkpt>
      <trkpt lat="48.76765" lon="-3.31154">
        <ele>68</ele>
        <time>2014-10-05T08:11:16Z</time>
      </trkpt>
      <trkpt lat="48.7676" lon="-3.31139">
        <ele>68</ele>
        <time>2014-10-05T08:11:17Z</time>
      </trkpt>
      <trkpt lat="48.76756" lon="-3.31124">
        <ele>68</ele>
        <time>2014-10-05T08:11:18Z</time>
      </trkpt>
      <trkpt lat="48.76752" lon="-3.31109">
        <ele>68</ele>
        <time>2014-10-05T08:11:19Z</time>
      </trkpt>
      <trkpt lat="48.76748" lon="-3.31094">
        <ele>68</ele>
        <time>2014-10-05T08:11:20Z</time>
      </trkpt>
      <trkpt lat="48.76743" lon="-3.31079">
        <ele>68</ele>
        <time>2014-10-05T08:11:21Z</time>
      </trkpt>
      <trkpt lat="48.76739" lon="-3.31064">
        <ele>68</ele>
        <time>2014-10-05T08:11:22Z</time>
      </trkpt>
      <trkpt lat="48.76735" lon="-3.31049">
        <ele>68</ele>
        <time>2014-10-05T08:11:23Z</time>
      </trkpt>
      <trkpt lat="48.76731" lon="-3.31034">
        <ele>68</ele>
        <time>2014-10-05T08:11:24Z</time>
      </trkpt>
      <trkpt lat="48.76727" lon="-3.31019">
        <ele>67</ele>
        <time>2014-10-05T08:11:25Z</time>
      </trkpt>
      <trkpt lat="48.76723" lon="-3.31004">
        <ele>67</ele>
        <time>2014-10-05T08:11:26Z</time>
      </trkpt>
      <trkpt lat="48.76719" lon="-3.30989">
        <ele>67</ele>
        <time>2014-10-05T08:11:27Z</time>
      </trkpt>
      <trkpt lat="48.76714" lon="-3.30973">
        <ele>67</ele>
        <time>2014-10-05T08:11:28Z</time>
      </trkpt>
      <trkpt lat="48.7671" lon="-3.30958">
        <ele>67</ele>
        <time>2014-10-05T08:11:29Z</time>
      </trkpt>
      <trkpt lat="48.76706" lon="-3.30942">
        <ele>67</ele>
        <time>2014-10-05T08:11:30Z</time>
      </trkpt>
      <trkpt lat="48.76701" lon="-3.30927">
        <ele>67</ele>
        <time>2014-10-05T08:11:31Z</time>
      </trkpt>
      <trkpt lat="48.76697" lon="-3.30911">
        <ele>67</ele>
        <time>2014-10-05T08:11:32Z</time>
      </trkpt>
      <trkpt lat="48.76692" lon="-3.30896">
        <ele>66</ele>
        <time>2014-10-05T08:11:33Z</time>
      </trkpt>
      <trkpt lat="48.76688" lon="-3.3088">
        <ele>66</ele>
        <time>2014-10-05T08:11:34Z</time>
      </trkpt>
      <trkpt lat="48.76683" lon="-3.30864">
        <ele>66</ele>
        <time>2014-10-05T08:11:35Z</time>
      </trkpt>
      <trkpt lat="48.76679" lon="-3.30848">
        <ele>66</ele>
        <time>2014-10-05T08:11:36Z</time>
      </trkpt>
      <trkpt lat="48.76674" lon="-3.30832">
        <ele>65</ele>
        <time>2014-10-05T08:11:37Z</time>
      </trkpt>
      <trkpt lat="48.76669" lon="-3.30816">
        <ele>65</ele>
        <time>2014-10-05T08:11:38Z</time>
      </trkpt>
      <trkpt lat="48.76664" lon="-3.308">
        <ele>64</ele>
        <time>2014-10-05T08:11:39Z</time>
      </trkpt>
      <trkpt lat="48.76659" lon="-3.30784">
        <ele>64</ele>
        <time>2014-10-05T08:11:40Z</time>
      </trkpt>
      <trkpt lat="48.76652" lon="-3.30769">
        <ele>63</ele>
        <time>2014-10-05T08:11:41Z</time>
      </trkpt>
      <trkpt lat="48.76646" lon="-3.30753">
        <ele>63</ele>
        <time>2014-10-05T08:11:42Z</time>
      </trkpt>
      <trkpt lat="48.76639" lon="-3.30738">
        <ele>62</ele>
        <time>2014-10-05T08:11:43Z</time>
      </trkpt>
      <trkpt lat="48.76632" lon="-3.30723">
        <ele>62</ele>
        <time>2014-10-05T08:11:44Z</time>
      </trkpt>
      <trkpt lat="48.76625" lon="-3.30707">
        <ele>61</ele>
        <time>2014-10-05T08:11:45Z</time>
      </trkpt>
      <trkpt lat="48.76617" lon="-3.30692">
        <ele>60</ele>
        <time>2014-10-05T08:11:46Z</time>
      </trkpt>
      <trkpt lat="48.7661" lon="-3.30676">
        <ele>59</ele>
        <time>2014-10-05T08:11:47Z</time>
      </trkpt>
      <trkpt lat="48.76602" lon="-3.30661">
        <ele>59</ele>
        <time>2014-10-05T08:11:48Z</time>
      </trkpt>
      <trkpt lat="48.76595" lon="-3.30645">
        <ele>58</ele>
        <time>2014-10-05T08:11:49Z</time>
      </trkpt>
      <trkpt lat="48.76588" lon="-3.3063">
        <ele>57</ele>
        <time>2014-10-05T08:11:50Z</time>
      </trkpt>
      <trkpt lat="48.7658" lon="-3.30614">
        <ele>57</ele>
        <time>2014-10-05T08:11:51Z</time>
      </trkpt>
      <trkpt lat="48.76573" lon="-3.30598">
        <ele>56</ele>
        <time>2014-10-05T08:11:52Z</time>
      </trkpt>
      <trkpt lat="48.76565" lon="-3.30582">
        <ele>55</ele>
        <time>2014-10-05T08:11:53Z</time>
      </trkpt>
      <trkpt lat="48.76558" lon="-3.30567">
        <ele>55</ele>
        <time>2014-10-05T08:11:54Z</time>
      </trkpt>
      <trkpt lat="48.76551" lon="-3.30551">
        <ele>54</ele>
        <time>2014-10-05T08:11:55Z</time>
      </trkpt>
      <trkpt lat="48.76543" lon="-3.30535">
        <ele>53</ele>
        <time>2014-10-05T08:11:56Z</time>
      </trkpt>
      <trkpt lat="48.76536" lon="-3.30519">
        <ele>53</ele>
        <time>2014-10-05T08:11:57Z</time>
      </trkpt>
      <trkpt lat="48.76529" lon="-3.30503">
        <ele>53</ele>
        <time>2014-10-05T08:11:58Z</time>
      </trkpt>
      <trkpt lat="48.76522" lon="-3.30488">
        <ele>52</ele>
        <time>2014-10-05T08:11:59Z</time>
      </trkpt>
      <trkpt lat="48.76514" lon="-3.30472">
        <ele>52</ele>
        <time>2014-10-05T08:12:00Z</time>
      </trkpt>
      <trkpt lat="48.76507" lon="-3.30456">
        <ele>51</ele>
        <time>2014-10-05T08:12:01Z</time>
      </trkpt>
      <trkpt lat="48.765" lon="-3.30441">
        <ele>51</ele>
        <time>2014-10-05T08:12:02Z</time>
      </trkpt>
      <trkpt lat="48.76495" lon="-3.30424">
        <ele>50</ele>
        <time>2014-10-05T08:12:03Z</time>
      </trkpt>
      <trkpt lat="48.76489" lon="-3.30407">
        <ele>50</ele>
        <time>2014-10-05T08:12:04Z</time>
      </trkpt>
      <trkpt lat="48.76484" lon="-3.3039">
        <ele>49</ele>
        <time>2014-10-05T08:12:05Z</time>
      </trkpt>
      <trkpt lat="48.76479" lon="-3.30372">
        <ele>49</ele>
        <time>2014-10-05T08:12:06Z</time>
      </trkpt>
      <trkpt lat="48.76476" lon="-3.30353">
        <ele>48</ele>
        <time>2014-10-05T08:12:07Z</time>
      </trkpt>
      <trkpt lat="48.76472" lon="-3.30335">
        <ele>48</ele>
        <time>2014-10-05T08:12:08Z</time>
      </trkpt>
      <trkpt lat="48.76469" lon="-3.30317">
        <ele>47</ele>
        <time>2014-10-05T08:12:09Z</time>
      </trkpt>
      <trkpt lat="48.76467" lon="-3.30298">
        <ele>47</ele>
        <time>2014-10-05T08:12:10Z</time>
      </trkpt>
      <trkpt lat="48.76465" lon="-3.3028">
        <ele>47</ele>
        <time>2014-10-05T08:12:11Z</time>
      </trkpt>
      <trkpt lat="48.76463" lon="-3.30262">
        <ele>46</ele>
        <time>2014-10-05T08:12:12Z</time>
      </trkpt>
      <trkpt lat="48.76462" lon="-3.30243">
        <ele>46</ele>
        <time>2014-10-05T08:12:13Z</time>
      </trkpt>
      <trkpt lat="48.76461" lon="-3.30225">
        <ele>46</ele>
        <time>2014-10-05T08:12:14Z</time>
      </trkpt>
      <trkpt lat="48.7646" lon="-3.30207">
        <ele>46</ele>
        <time>2014-10-05T08:12:15Z</time>
      </trkpt>
      <trkpt lat="48.76458" lon="-3.30189">
        <ele>46</ele>
        <time>2014-10-05T08:12:16Z</time>
      </trkpt>
      <trkpt lat="48.76457" lon="-3.3017">
        <ele>46</ele>
        <time>2014-10-05T08:12:17Z</time>
      </trkpt>
      <trkpt lat="48.76456" lon="-3.30152">
        <ele>46</ele>
        <time>2014-10-05T08:12:18Z</time>
      </trkpt>
      <trkpt lat="48.76455" lon="-3.30134">
        <ele>46</ele>
        <time>2014-10-05T08:12:19Z</time>
      </trkpt>
      <trkpt lat="48.76454" lon="-3.30116">
        <ele>46</ele>
        <time>2014-10-05T08:12:20Z</time>
      </trkpt>
      <trkpt lat="48.76453" lon="-3.30098">
        <ele>46</ele>
        <time>2014-10-05T08:12:21Z</time>
      </trkpt>
      <trkpt lat="48.76452" lon="-3.3008">
        <ele>46</ele>
        <time>2014-10-05T08:12:22Z</time>
      </trkpt>
      <trkpt lat="48.76451" lon="-3.30063">
        <ele>46</ele>
        <time>2014-10-05T08:12:23Z</time>
      </trkpt>
      <trkpt lat="48.7645" lon="-3.30045">
        <ele>46</ele>
        <time>2014-10-05T08:12:24Z</time>
      </trkpt>
      <trkpt lat="48.76449" lon="-3.30028">
        <ele>46</ele>
        <time>2014-10-05T08:12:25Z</time>
      </trkpt>
      <trkpt lat="48.76448" lon="-3.3001">
        <ele>46</ele>
        <time>2014-10-05T08:12:26Z</time>
      </trkpt>
      <trkpt lat="48.76447" lon="-3.29993">
        <ele>46</ele>
        <time>2014-10-05T08:12:27Z</time>
      </trkpt>
      <trkpt lat="48.76446" lon="-3.29976">
        <ele>45</ele>
        <time>2014-10-05T08:12:28Z</time>
      </trkpt>
      <trkpt lat="48.76445" lon="-3.29959">
        <ele>45</ele>
        <time>2014-10-05T08:12:29Z</time>
      </trkpt>
      <trkpt lat="48.76444" lon="-3.29941">
        <ele>45</ele>
        <time>2014-10-05T08:12:30Z</time>
      </trkpt>
      <trkpt lat="48.76443" lon="-3.29924">
        <ele>45</ele>
        <time>2014-10-05T08:12:31Z</time>
      </trkpt>
      <trkpt lat="48.76442" lon="-3.29907">
        <ele>44</ele>
        <time>2014-10-05T08:12:32Z</time>
      </trkpt>
      <trkpt lat="48.7644" lon="-3.29889">
        <ele>44</ele>
        <time>2014-10-05T08:12:33Z</time>
      </trkpt>
      <trkpt lat="48.76437" lon="-3.29872">
        <ele>44</ele>
        <time>2014-10-05T08:12:34Z</time>
      </trkpt>
      <trkpt lat="48.76434" lon="-3.29854">
        <ele>43</ele>
        <time>2014-10-05T08:12:35Z</time>
      </trkpt>
      <trkpt lat="48.76429" lon="-3.29837">
        <ele>43</ele>
        <time>2014-10-05T08:12:36Z</time>
      </trkpt>
      <trkpt lat="48.76424" lon="-3.2982">
        <ele>42</ele>
        <time>2014-10-05T08:12:37Z</time>
      </trkpt>
      <trkpt lat="48.76419" lon="-3.29803">
        <ele>41</ele>
        <time>2014-10-05T08:12:38Z</time>
      </trkpt>
      <trkpt lat="48.76412" lon="-3.29787">
        <ele>41</ele>
        <time>2014-10-05T08:12:39Z</time>
      </trkpt>
      <trkpt lat="48.76405" lon="-3.29772">
        <ele>40</ele>
        <time>2014-10-05T08:12:40Z</time>
      </trkpt>
      <trkpt lat="48.76397" lon="-3.29758">
        <ele>39</ele>
        <time>2014-10-05T08:12:41Z</time>
      </trkpt>
      <trkpt lat="48.76388" lon="-3.29744">
        <ele>38</ele>
        <time>2014-10-05T08:12:42Z</time>
      </trkpt>
      <trkpt lat="48.76379" lon="-3.29731">
        <ele>38</ele>
        <time>2014-10-05T08:12:43Z</time>
      </trkpt>
      <trkpt lat="48.76369" lon="-3.29719">
        <ele>37</ele>
        <time>2014-10-05T08:12:44Z</time>
      </trkpt>
      <trkpt lat="48.76358" lon="-3.29709">
        <ele>36</ele>
        <time>2014-10-05T08:12:45Z</time>
      </trkpt>
      <trkpt lat="48.76347" lon="-3.29699">
        <ele>36</ele>
        <time>2014-10-05T08:12:46Z</time>
      </trkpt>
      <trkpt lat="48.76336" lon="-3.2969">
        <ele>35</ele>
        <time>2014-10-05T08:12:47Z</time>
      </trkpt>
      <trkpt lat="48.76324" lon="-3.29683">
        <ele>34</ele>
        <time>2014-10-05T08:12:48Z</time>
      </trkpt>
      <trkpt lat="48.76312" lon="-3.29676">
        <ele>33</ele>
        <time>2014-10-05T08:12:49Z</time>
      </trkpt>
      <trkpt lat="48.763" lon="-3.29669">
        <ele>33</ele>
        <time>2014-10-05T08:12:50Z</time>
      </trkpt>
      <trkpt lat="48.76287" lon="-3.29662">
        <ele>32</ele>
        <time>2014-10-05T08:12:51Z</time>
      </trkpt>
      <trkpt lat="48.76275" lon="-3.29655">
        <ele>31</ele>
        <time>2014-10-05T08:12:52Z</time>
      </trkpt>
      <trkpt lat="48.76263" lon="-3.29647">
        <ele>30</ele>
        <time>2014-10-05T08:12:53Z</time>
      </trkpt>
      <trkpt lat="48.76251" lon="-3.2964">
        <ele>30</ele>
        <time>2014-10-05T08:12:54Z</time>
      </trkpt>
      <trkpt lat="48.76239" lon="-3.29632">
        <ele>29</ele>
        <time>2014-10-05T08:12:55Z</time>
      </trkpt>
      <trkpt lat="48.76228" lon="-3.29623">
        <ele>28</ele>
        <time>2014-10-05T08:12:56Z</time>
      </trkpt>
      <trkpt lat="48.76217" lon="-3.29613">
        <ele>28</ele>
        <time>2014-10-05T08:12:57Z</time>
      </trkpt>
      <trkpt lat="48.76207" lon="-3.29602">
        <ele>27</ele>
        <time>2014-10-05T08:12:58Z</time>
      </trkpt>
      <trkpt lat="48.76197" lon="-3.2959">
        <ele>27</ele>
        <time>2014-10-05T08:12:59Z</time>
      </trkpt>
      <trkpt lat="48.76188" lon="-3.29579">
        <ele>27</ele>
        <time>2014-10-05T08:13:00Z</time>
      </trkpt>
      <trkpt lat="48.76179" lon="-3.29568">
        <ele>26</ele>
        <time>2014-10-05T08:13:01Z</time>
      </trkpt>
      <trkpt lat="48.7617" lon="-3.29557">
        <ele>26</ele>
        <time>2014-10-05T08:13:02Z</time>
      </trkpt>
      <trkpt lat="48.76161" lon="-3.29546">
        <ele>26</ele>
        <time>2014-10-05T08:13:03Z</time>
      </trkpt>
      <trkpt lat="48.76152" lon="-3.29536">
        <ele>26</ele>
        <time>2014-10-05T08:13:04Z</time>
      </trkpt>
      <trkpt lat="48.76144" lon="-3.29525">
        <ele>26</ele>
        <time>2014-10-05T08:13:05Z</time>
      </trkpt>
      <trkpt lat="48.76136" lon="-3.29515">
        <ele>26</ele>
        <time>2014-10-05T08:13:06Z</time>
      </trkpt>
      <trkpt lat="48.76128" lon="-3.29506">
        <ele>26</ele>
        <time>2014-10-05T08:13:07Z</time>
      </trkpt>
      <trkpt lat="48.7612" lon="-3.29496">
        <ele>26</ele>
        <time>2014-10-05T08:13:08Z</time>
      </trkpt>
      <trkpt lat="48.76112" lon="-3.29486">
        <ele>26</ele>
        <time>2014-10-05T08:13:09Z</time>
      </trkpt>
      <trkpt lat="48.76105" lon="-3.29477">
        <ele>26</ele>
        <time>2014-10-05T08:13:10Z</time>
      </trkpt>
      <trkpt lat="48.76099" lon="-3.29468">
        <ele>26</ele>
        <time>2014-10-05T08:13:11Z</time>
      </trkpt>
      <trkpt lat="48.76092" lon="-3.2946">
        <ele>26</ele>
        <time>2014-10-05T08:13:12Z</time>
      </trkpt>
      <trkpt lat="48.76086" lon="-3.29451">
        <ele>26</ele>
        <time>2014-10-05T08:13:13Z</time>
      </trkpt>
      <trkpt lat="48.7608" lon="-3.29443">
        <ele>26</ele>
        <time>2014-10-05T08:13:14Z</time>
      </trkpt>
      <trkpt lat="48.76075" lon="-3.29435">
        <ele>26</ele>
        <time>2014-10-05T08:13:15Z</time>
      </trkpt>
      <trkpt lat="48.76068" lon="-3.29428">
        <ele>26</ele>
        <time>2014-10-05T08:13:16Z</time>
      </trkpt>
      <trkpt lat="48.76062" lon="-3.29422">
        <ele>26</ele>
        <time>2014-10-05T08:13:17Z</time>
      </trkpt>
      <trkpt lat="48.76056" lon="-3.29417">
        <ele>26</ele>
        <time>2014-10-05T08:13:18Z</time>
      </trkpt>
      <trkpt lat="48.76049" lon="-3.29415">
        <ele>26</ele>
        <time>2014-10-05T08:13:19Z</time>
      </trkpt>
      <trkpt lat="48.76042" lon="-3.29414">
        <ele>26</ele>
        <time>2014-10-05T08:13:20Z</time>
      </trkpt>
      <trkpt lat="48.76035" lon="-3.29414">
        <ele>26</ele>
        <time>2014-10-05T08:13:21Z</time>
      </trkpt>
      <trkpt lat="48.76028" lon="-3.29413">
        <ele>26</ele>
        <time>2014-10-05T08:13:22Z</time>
      </trkpt>
      <trkpt lat="48.76022" lon="-3.29411">
        <ele>26</ele>
        <time>2014-10-05T08:13:23Z</time>
      </trkpt>
      <trkpt lat="48.76015" lon="-3.29405">
        <ele>26</ele>
        <time>2014-10-05T08:13:24Z</time>
      </trkpt>
      <trkpt lat="48.7601" lon="-3.29398">
        <ele>26</ele>
        <time>2014-10-05T08:13:25Z</time>
      </trkpt>
      <trkpt lat="48.76006" lon="-3.2939">
        <ele>26</ele>
        <time>2014-10-05T08:13:26Z</time>
      </trkpt>
      <trkpt lat="48.76003" lon="-3.2938">
        <ele>26</ele>
        <time>2014-10-05T08:13:27Z</time>
      </trkpt>
      <trkpt lat="48.76002" lon="-3.2937">
        <ele>26</ele>
        <time>2014-10-05T08:13:28Z</time>
      </trkpt>
      <trkpt lat="48.76002" lon="-3.2936">
        <ele>26</ele>
        <time>2014-10-05T08:13:29Z</time>
      </trkpt>
      <trkpt lat="48.76003" lon="-3.29351">
        <ele>26</ele>
        <time>2014-10-05T08:13:30Z</time>
      </trkpt>
      <trkpt lat="48.76006" lon="-3.29342">
        <ele>26</ele>
        <time>2014-10-05T08:13:31Z</time>
      </trkpt>
      <trkpt lat="48.76009" lon="-3.29333">
        <ele>26</ele>
        <time>2014-10-05T08:13:32Z</time>
      </trkpt>
      <trkpt lat="48.76014" lon="-3.29326">
        <ele>26</ele>
        <time>2014-10-05T08:13:33Z</time>
      </trkpt>
      <trkpt lat="48.76019" lon="-3.2932">
        <ele>26</ele>
        <time>2014-10-05T08:13:34Z</time>
      </trkpt>
      <trkpt lat="48.76025" lon="-3.29316">
        <ele>26</ele>
        <time>2014-10-05T08:13:35Z</time>
      </trkpt>
      <trkpt lat="48.7603" lon="-3.29314">
        <ele>26</ele>
        <time>2014-10-05T08:13:36Z</time>
      </trkpt>
      <trkpt lat="48.76037" lon="-3.29313">
        <ele>26</ele>
        <time>2014-10-05T08:13:37Z</time>
      </trkpt>
      <trkpt lat="48.76045" lon="-3.29314">
        <ele>26</ele>
        <time>2014-10-05T08:13:38Z</time>
      </trkpt>
      <trkpt lat="48.76052" lon="-3.29313">
        <ele>26</ele>
        <time>2014-10-05T08:13:39Z</time>
      </trkpt>
      <trkpt lat="48.76059" lon="-3.2931">
        <ele>26</ele>
        <time>2014-10-05T08:13:40Z</time>
      </trkpt>
      <trkpt lat="48.76066" lon="-3.29305">
        <ele>26</ele>
        <time>2014-10-05T08:13:41Z</time>
      </trkpt>
      <trkpt lat="48.76071" lon="-3.29299">
        <ele>26</ele>
        <time>2014-10-05T08:13:42Z</time>
      </trkpt>
      <trkpt lat="48.76076" lon="-3.29292">
        <ele>26</ele>
        <time>2014-10-05T08:13:43Z</time>
      </trkpt>
      <trkpt lat="48.76079" lon="-3.29284">
        <ele>26</ele>
        <time>2014-10-05T08:13:44Z</time>
      </trkpt>
      <trkpt lat="48.76081" lon="-3.29276">
        <ele>27</ele>
        <time>2014-10-05T08:13:45Z</time>
      </trkpt>
      <trkpt lat="48.76084" lon="-3.29269">
        <ele>27</ele>
        <time>2014-10-05T08:13:46Z</time>
      </trkpt>
      <trkpt lat="48.76086" lon="-3.29261">
        <ele>28</ele>
        <time>2014-10-05T08:13:47Z</time>
      </trkpt>
      <trkpt lat="48.76088" lon="-3.29254">
        <ele>28</ele>
        <time>2014-10-05T08:13:48Z</time>
      </trkpt>
      <trkpt lat="48.76091" lon="-3.29247">
        <ele>29</ele>
        <time>2014-10-05T08:13:49Z</time>
      </trkpt>
      <trkpt lat="48.76093" lon="-3.29239">
        <ele>29</ele>
        <time>2014-10-05T08:13:50Z</time>
      </trkpt>
      <trkpt lat="48.76095" lon="-3.29231">
        <ele>30</ele>
        <time>2014-10-05T08:13:51Z</time>
      </trkpt>
      <trkpt lat="48.76098" lon="-3.29223">
        <ele>30</ele>
        <time>2014-10-05T08:13:52Z</time>
      </trkpt>
      <trkpt lat="48.761" lon="-3.29215">
        <ele>30</ele>
        <time>2014-10-05T08:13:53Z</time>
      </trkpt>
      <trkpt lat="48.76103" lon="-3.29206">
        <ele>31</ele>
        <time>2014-10-05T08:13:54Z</time>
      </trkpt>
      <trkpt lat="48.76106" lon="-3.29198">
        <ele>31</ele>
        <time>2014-10-05T08:13:55Z</time>
      </trkpt>
      <trkpt lat="48.76109" lon="-3.29189">
        <ele>31</ele>
        <time>2014-10-05T08:13:56Z</time>
      </trkpt>
      <trkpt lat="48.76112" lon="-3.2918">
        <ele>31</ele>
        <time>2014-10-05T08:13:57Z</time>
      </trkpt>
      <trkpt lat="48.76116" lon="-3.29171">
        <ele>32</ele>
        <time>2014-10-05T08:13:58Z</time>
      </trkpt>
      <trkpt lat="48.7612" lon="-3.29163">
        <ele>32</ele>
        <time>2014-10-05T08:13:59Z</time>
      </trkpt>
      <trkpt lat="48.76123" lon="-3.29154">
        <ele>32</ele>
        <time>2014-10-05T08:14:00Z</time>
      </trkpt>
      <trkpt lat="48.76127" lon="-3.29145">
        <ele>32</ele>
        <time>2014-10-05T08:14:01Z</time>
      </trkpt>
      <trkpt lat="48.76131" lon="-3.29137">
        <ele>33</ele>
        <time>2014-10-05T08:14:02Z</time>
      </trkpt>
      <trkpt lat="48.76135" lon="-3.29129">
        <ele>33</ele>
        <time>2014-10-05T08:14:03Z</time>
      </trkpt>
      <trkpt lat="48.76139" lon="-3.29121">
        <ele>33</ele>
        <time>2014-10-05T08:14:04Z</time>
      </trkpt>
      <trkpt lat="48.76143" lon="-3.29113">
        <ele>34</ele>
        <time>2014-10-05T08:14:05Z</time>
      </trkpt>
      <trkpt lat="48.76147" lon="-3.29105">
        <ele>34</ele>
        <time>2014-10-05T08:14:06Z</time>
      </trkpt>
      <trkpt lat="48.76152" lon="-3.29098">
        <ele>34</ele>
        <time>2014-10-05T08:14:07Z</time>
      </trkpt>
      <trkpt lat="48.76156" lon="-3.2909">
        <ele>34</ele>
        <time>2014-10-05T08:14:08Z</time>
      </trkpt>
      <trkpt lat="48.76161" lon="-3.29082">
        <ele>35</ele>
        <time>2014-10-05T08:14:09Z</time>
      </trkpt>
      <trkpt lat="48.76166" lon="-3.29075">
        <ele>35</ele>
        <time>2014-10-05T08:14:10Z</time>
      </trkpt>
      <trkpt lat="48.76171" lon="-3.29067">
        <ele>35</ele>
        <time>2014-10-05T08:14:11Z</time>
      </trkpt>
      <trkpt lat="48.76176" lon="-3.2906">
        <ele>35</ele>
        <time>2014-10-05T08:14:12Z</time>
      </trkpt>
      <trkpt lat="48.76181" lon="-3.29052">
        <ele>35</ele>
        <time>2014-10-05T08:14:13Z</time>
      </trkpt>
      <trkpt lat="48.76186" lon="-3.29045">
        <ele>36</ele>
        <time>2014-10-05T08:14:14Z</time>
      </trkpt>
      <trkpt lat="48.76191" lon="-3.29038">
        <ele>36</ele>
        <time>2014-10-05T08:14:15Z</time>
      </trkpt>
      <trkpt lat="48.76196" lon="-3.2903">
        <ele>36</ele>
        <time>2014-10-05T08:14:16Z</time>
      </trkpt>
      <trkpt lat="48.76201" lon="-3.29023">
        <ele>36</ele>
        <time>2014-10-05T08:14:17Z</time>
      </trkpt>
      <trkpt lat="48.76206" lon="-3.29015">
        <ele>37</ele>
        <time>2014-10-05T08:14:18Z</time>
      </trkpt>
      <trkpt lat="48.76211" lon="-3.29008">
        <ele>37</ele>
        <time>2014-10-05T08:14:19Z</time>
      </trkpt>
      <trkpt lat="48.76216" lon="-3.29">
        <ele>37</ele>
        <time>2014-10-05T08:14:20Z</time>
      </trkpt>
      <trkpt lat="48.76221" lon="-3.28993">
        <ele>37</ele>
        <time>2014-10-05T08:14:21Z</time>
      </trkpt>
      <trkpt lat="48.76226" lon="-3.28986">
        <ele>37</ele>
        <time>2014-10-05T08:14:22Z</time>
      </trkpt>
      <trkpt lat="48.76231" lon="-3.28978">
        <ele>37</ele>
        <time>2014-10-05T08:14:23Z</time>
      </trkpt>
      <trkpt lat="48.76236" lon="-3.28971">
        <ele>38</ele>
        <time>2014-10-05T08:14:24Z</time>
      </trkpt>
      <trkpt lat="48.76241" lon="-3.28962">
        <ele>38</ele>
        <time>2014-10-05T08:14:25Z</time>
      </trkpt>
      <trkpt lat="48.76246" lon="-3.28954">
        <ele>38</ele>
        <time>2014-10-05T08:14:26Z</time>
      </trkpt>
      <trkpt lat="48.76251" lon="-3.28946">
        <ele>38</ele>
        <time>2014-10-05T08:14:27Z</time>
      </trkpt>
      <trkpt lat="48.76256" lon="-3.28938">
        <ele>39</ele>
        <time>2014-10-05T08:14:28Z</time>
      </trkpt>
      <trkpt lat="48.7626" lon="-3.28929">
        <ele>39</ele>
        <time>2014-10-05T08:14:29Z</time>
      </trkpt>
      <trkpt lat="48.76265" lon="-3.2892">
        <ele>39</ele>
        <time>2014-10-05T08:14:30Z</time>
      </trkpt>
      <trkpt lat="48.76269" lon="-3.2891">
        <ele>39</ele>
        <time>2014-10-05T08:14:31Z</time>
      </trkpt>
      <trkpt lat="48.76273" lon="-3.28901">
        <ele>39</ele>
        <time>2014-10-05T08:14:32Z</time>
      </trkpt>
      <trkpt lat="48.76277" lon="-3.28891">
        <ele>39</ele>
        <time>2014-10-05T08:14:33Z</time>
      </trkpt>
      <trkpt lat="48.7628" lon="-3.28881">
        <ele>39</ele>
        <time>2014-10-05T08:14:34Z</time>
      </trkpt>
      <trkpt lat="48.76284" lon="-3.28871">
        <ele>39</ele>
        <time>2014-10-05T08:14:35Z</time>
      </trkpt>
      <trkpt lat="48.76287" lon="-3.2886">
        <ele>39</ele>
        <time>2014-10-05T08:14:36Z</time>
      </trkpt>
      <trkpt lat="48.7629" lon="-3.2885">
        <ele>39</ele>
        <time>2014-10-05T08:14:37Z</time>
      </trkpt>
      <trkpt lat="48.76293" lon="-3.28839">
        <ele>39</ele>
        <time>2014-10-05T08:14:38Z</time>
      </trkpt>
      <trkpt lat="48.76296" lon="-3.28828">
        <ele>39</ele>
        <time>2014-10-05T08:14:39Z</time>
      </trkpt>
      <trkpt lat="48.763" lon="-3.28818">
        <ele>39</ele>
        <time>2014-10-05T08:14:40Z</time>
      </trkpt>
      <trkpt lat="48.76303" lon="-3.28807">
        <ele>39</ele>
        <time>2014-10-05T08:14:41Z</time>
      </trkpt>
      <trkpt lat="48.76306" lon="-3.28796">
        <ele>39</ele>
        <time>2014-10-05T08:14:42Z</time>
      </trkpt>
      <trkpt lat="48.76309" lon="-3.28785">
        <ele>39</ele>
        <time>2014-10-05T08:14:43Z</time>
      </trkpt>
      <trkpt lat="48.76312" lon="-3.28774">
        <ele>39</ele>
        <time>2014-10-05T08:14:44Z</time>
      </trkpt>
      <trkpt lat="48.76315" lon="-3.28763">
        <ele>39</ele>
        <time>2014-10-05T08:14:45Z</time>
      </trkpt>
      <trkpt lat="48.76318" lon="-3.28752">
        <ele>39</ele>
        <time>2014-10-05T08:14:46Z</time>
      </trkpt>
      <trkpt lat="48.76321" lon="-3.28741">
        <ele>39</ele>
        <time>2014-10-05T08:14:47Z</time>
      </trkpt>
      <trkpt lat="48.76324" lon="-3.28729">
        <ele>39</ele>
        <time>2014-10-05T08:14:48Z</time>
      </trkpt>
      <trkpt lat="48.76328" lon="-3.28718">
        <ele>39</ele>
        <time>2014-10-05T08:14:49Z</time>
      </trkpt>
      <trkpt lat="48.76331" lon="-3.28707">
        <ele>39</ele>
        <time>2014-10-05T08:14:50Z</time>
      </trkpt>
      <trkpt lat="48.76334" lon="-3.28696">
        <ele>39</ele>
        <time>2014-10-05T08:14:51Z</time>
      </trkpt>
      <trkpt lat="48.76337" lon="-3.28686">
        <ele>39</ele>
        <time>2014-10-05T08:14:52Z</time>
      </trkpt>
      <trkpt lat="48.76339" lon="-3.28675">
        <ele>39</ele>
        <time>2014-10-05T08:14:53Z</time>
      </trkpt>
      <trkpt lat="48.76342" lon="-3.28665">
        <ele>39</ele>
        <time>2014-10-05T08:14:54Z</time>
      </trkpt>
      <trkpt lat="48.76345" lon="-3.28655">
        <ele>39</ele>
        <time>2014-10-05T08:14:55Z</time>
      </trkpt>
      <trkpt lat="48.76348" lon="-3.28644">
        <ele>39</ele>
        <time>2014-10-05T08:14:56Z</time>
      </trkpt>
      <trkpt lat="48.76351" lon="-3.28634">
        <ele>39</ele>
        <time>2014-10-05T08:14:57Z</time>
      </trkpt>
      <trkpt lat="48.76354" lon="-3.28623">
        <ele>39</ele>
        <time>2014-10-05T08:14:58Z</time>
      </trkpt>
      <trkpt lat="48.76357" lon="-3.28613">
        <ele>39</ele>
        <time>2014-10-05T08:14:59Z</time>
      </trkpt>
      <trkpt lat="48.7636" lon="-3.28603">
        <ele>40</ele>
        <time>2014-10-05T08:15:00Z</time>
      </trkpt>
      <trkpt lat="48.76363" lon="-3.28592">
        <ele>40</ele>
        <time>2014-10-05T08:15:01Z</time>
      </trkpt>
      <trkpt lat="48.76366" lon="-3.28581">
        <ele>40</ele>
        <time>2014-10-05T08:15:02Z</time>
      </trkpt>
      <trkpt lat="48.76369" lon="-3.2857">
        <ele>40</ele>
        <time>2014-10-05T08:15:03Z</time>
      </trkpt>
      <trkpt lat="48.76372" lon="-3.2856">
        <ele>40</ele>
        <time>2014-10-05T08:15:04Z</time>
      </trkpt>
      <trkpt lat="48.76375" lon="-3.28549">
        <ele>40</ele>
        <time>2014-10-05T08:15:05Z</time>
      </trkpt>
      <trkpt lat="48.76377" lon="-3.28539">
        <ele>41</ele>
        <time>2014-10-05T08:15:06Z</time>
      </trkpt>
      <trkpt lat="48.7638" lon="-3.28529">
        <ele>41</ele>
        <time>2014-10-05T08:15:07Z</time>
      </trkpt>
      <trkpt lat="48.76383" lon="-3.28519">
        <ele>41</ele>
        <time>2014-10-05T08:15:08Z</time>
      </trkpt>
      <trkpt lat="48.76385" lon="-3.2851">
        <ele>41</ele>
        <time>2014-10-05T08:15:09Z</time>
      </trkpt>
      <trkpt lat="48.76388" lon="-3.28501">
        <ele>41</ele>
        <time>2014-10-05T08:15:10Z</time>
      </trkpt>
      <trkpt lat="48.7639" lon="-3.28492">
        <ele>42</ele>
        <time>2014-10-05T08:15:11Z</time>
      </trkpt>
      <trkpt lat="48.76393" lon="-3.28483">
        <ele>42</ele>
        <time>2014-10-05T08:15:12Z</time>
      </trkpt>
      <trkpt lat="48.76396" lon="-3.28473">
        <ele>42</ele>
        <time>2014-10-05T08:15:13Z</time>
      </trkpt>
      <trkpt lat="48.76398" lon="-3.28464">
        <ele>42</ele>
        <time>2014-10-05T08:15:14Z</time>
      </trkpt>
      <trkpt lat="48.76401" lon="-3.28455">
        <ele>42</ele>
        <time>2014-10-05T08:15:15Z</time>
      </trkpt>
      <trkpt lat="48.76404" lon="-3.28446">
        <ele>43</ele>
        <time>2014-10-05T08:15:16Z</time>
      </trkpt>
      <trkpt lat="48.76407" lon="-3.28436">
        <ele>43</ele>
        <time>2014-10-05T08:15:17Z</time>
      </trkpt>
      <trkpt lat="48.76411" lon="-3.28427">
        <ele>43</ele>
        <time>2014-10-05T08:15:18Z</time>
      </trkpt>
      <trkpt lat="48.76414" lon="-3.28418">
        <ele>44</ele>
        <time>2014-10-05T08:15:19Z</time>
      </trkpt>
      <trkpt lat="48.76417" lon="-3.28408">
        <ele>44</ele>
        <time>2014-10-05T08:15:20Z</time>
      </trkpt>
      <trkpt lat="48.7642" lon="-3.28398">
        <ele>45</ele>
        <time>2014-10-05T08:15:21Z</time>
      </trkpt>
      <trkpt lat="48.76423" lon="-3.28388">
        <ele>45</ele>
        <time>2014-10-05T08:15:22Z</time>
      </trkpt>
      <trkpt lat="48.76426" lon="-3.28378">
        <ele>45</ele>
        <time>2014-10-05T08:15:23Z</time>
      </trkpt>
      <trkpt lat="48.76429" lon="-3.28368">
        <ele>46</ele>
        <time>2014-10-05T08:15:24Z</time>
      </trkpt>
      <trkpt lat="48.76432" lon="-3.28359">
        <ele>46</ele>
        <time>2014-10-05T08:15:25Z</time>
      </trkpt>
      <trkpt lat="48.76435" lon="-3.28349">
        <ele>46</ele>
        <time>2014-10-05T08:15:26Z</time>
      </trkpt>
      <trkpt lat="48.76438" lon="-3.28339">
        <ele>46</ele>
        <time>2014-10-05T08:15:27Z</time>
      </trkpt>
      <trkpt lat="48.76441" lon="-3.2833">
        <ele>47</ele>
        <time>2014-10-05T08:15:28Z</time>
      </trkpt>
      <trkpt lat="48.76444" lon="-3.2832">
        <ele>47</ele>
        <time>2014-10-05T08:15:29Z</time>
      </trkpt>
      <trkpt lat="48.76447" lon="-3.28311">
        <ele>47</ele>
        <time>2014-10-05T08:15:30Z</time>
      </trkpt>
      <trkpt lat="48.7645" lon="-3.28302">
        <ele>48</ele>
        <time>2014-10-05T08:15:31Z</time>
      </trkpt>
      <trkpt lat="48.76454" lon="-3.28292">
        <ele>48</ele>
        <time>2014-10-05T08:15:32Z</time>
      </trkpt>
      <trkpt lat="48.76457" lon="-3.28283">
        <ele>48</ele>
        <time>2014-10-05T08:15:33Z</time>
      </trkpt>
      <trkpt lat="48.7646" lon="-3.28274">
        <ele>48</ele>
        <time>2014-10-05T08:15:34Z</time>
      </trkpt>
      <trkpt lat="48.76463" lon="-3.28265">
        <ele>49</ele>
        <time>2014-10-05T08:15:35Z</time>
      </trkpt>
      <trkpt lat="48.76467" lon="-3.28256">
        <ele>49</ele>
        <time>2014-10-05T08:15:36Z</time>
      </trkpt>
      <trkpt lat="48.7647" lon="-3.28246">
        <ele>49</ele>
        <time>2014-10-05T08:15:37Z</time>
      </trkpt>
      <trkpt lat="48.76473" lon="-3.28237">
        <ele>49</ele>
        <time>2014-10-05T08:15:38Z</time>
      </trkpt>
      <trkpt lat="48.76477" lon="-3.28228">
        <ele>50</ele>
        <time>2014-10-05T08:15:39Z</time>
      </trkpt>
      <trkpt lat="48.7648" lon="-3.28219">
        <ele>50</ele>
        <time>2014-10-05T08:15:40Z</time>
      </trkpt>
      <trkpt lat="48.76484" lon="-3.2821">
        <ele>50</ele>
        <time>2014-10-05T08:15:41Z</time>
      </trkpt>
      <trkpt lat="48.76487" lon="-3.28201">
        <ele>50</ele>
        <time>2014-10-05T08:15:42Z</time>
      </trkpt>
      <trkpt lat="48.76491" lon="-3.28191">
        <ele>51</ele>
        <time>2014-10-05T08:15:43Z</time>
      </trkpt>
      <trkpt lat="48.76494" lon="-3.28183">
        <ele>51</ele>
        <time>2014-10-05T08:15:44Z</time>
      </trkpt>
      <trkpt lat="48.76498" lon="-3.28174">
        <ele>51</ele>
        <time>2014-10-05T08:15:45Z</time>
      </trkpt>
      <trkpt lat="48.76502" lon="-3.28166">
        <ele>51</ele>
        <time>2014-10-05T08:15:46Z</time>
      </trkpt>
      <trkpt lat="48.76506" lon="-3.28157">
        <ele>52</ele>
        <time>2014-10-05T08:15:47Z</time>
      </trkpt>
      <trkpt lat="48.7651" lon="-3.28149">
        <ele>52</ele>
        <time>2014-10-05T08:15:48Z</time>
      </trkpt>
      <trkpt lat="48.76514" lon="-3.28141">
        <ele>52</ele>
        <time>2014-10-05T08:15:49Z</time>
      </trkpt>
      <trkpt lat="48.76519" lon="-3.28132">
        <ele>52</ele>
        <time>2014-10-05T08:15:50Z</time>
      </trkpt>
      <trkpt lat="48.76523" lon="-3.28124">
        <ele>52</ele>
        <time>2014-10-05T08:15:51Z</time>
      </trkpt>
      <trkpt lat="48.76527" lon="-3.28115">
        <ele>53</ele>
        <time>2014-10-05T08:15:52Z</time>
      </trkpt>
      <trkpt lat="48.76532" lon="-3.28106">
        <ele>53</ele>
        <time>2014-10-05T08:15:53Z</time>
      </trkpt>
      <trkpt lat="48.76536" lon="-3.28098">
        <ele>53</ele>
        <time>2014-10-05T08:15:54Z</time>
      </trkpt>
      <trkpt lat="48.76541" lon="-3.28089">
        <ele>53</ele>
        <time>2014-10-05T08:15:55Z</time>
      </trkpt>
      <trkpt lat="48.76545" lon="-3.2808">
        <ele>53</ele>
        <time>2014-10-05T08:15:56Z</time>
      </trkpt>
      <trkpt lat="48.7655" lon="-3.28071">
        <ele>53</ele>
        <time>2014-10-05T08:15:57Z</time>
      </trkpt>
      <trkpt lat="48.76554" lon="-3.28062">
        <ele>53</ele>
        <time>2014-10-05T08:15:58Z</time>
      </trkpt>
      <trkpt lat="48.76559" lon="-3.28052">
        <ele>53</ele>
        <time>2014-10-05T08:15:59Z</time>
      </trkpt>
      <trkpt lat="48.76563" lon="-3.28043">
        <ele>54</ele>
        <time>2014-10-05T08:16:00Z</time>
      </trkpt>
      <trkpt lat="48.76568" lon="-3.28034">
        <ele>54</ele>
        <time>2014-10-05T08:16:01Z</time>
      </trkpt>
      <trkpt lat="48.76572" lon="-3.28024">
        <ele>54</ele>
        <time>2014-10-05T08:16:02Z</time>
      </trkpt>
      <trkpt lat="48.76577" lon="-3.28014">
        <ele>54</ele>
        <time>2014-10-05T08:16:03Z</time>
      </trkpt>
      <trkpt lat="48.76582" lon="-3.28004">
        <ele>54</ele>
        <time>2014-10-05T08:16:04Z</time>
      </trkpt>
      <trkpt lat="48.76586" lon="-3.27994">
        <ele>54</ele>
        <time>2014-10-05T08:16:05Z</time>
      </trkpt>
      <trkpt lat="48.76591" lon="-3.27983">
        <ele>54</ele>
        <time>2014-10-05T08:16:06Z</time>
      </trkpt>
      <trkpt lat="48.76596" lon="-3.27973">
        <ele>54</ele>
        <time>2014-10-05T08:16:07Z</time>
      </trkpt>
      <trkpt lat="48.766" lon="-3.27962">
        <ele>54</ele>
        <time>2014-10-05T08:16:08Z</time>
      </trkpt>
      <trkpt lat="48.76604" lon="-3.27951">
        <ele>54</ele>
        <time>2014-10-05T08:16:09Z</time>
      </trkpt>
      <trkpt lat="48.76609" lon="-3.2794">
        <ele>54</ele>
        <time>2014-10-05T08:16:10Z</time>
      </trkpt>
      <trkpt lat="48.76614" lon="-3.2793">
        <ele>54</ele>
        <time>2014-10-05T08:16:11Z</time>
      </trkpt>
      <trkpt lat="48.76619" lon="-3.27919">
        <ele>54</ele>
        <time>2014-10-05T08:16:12Z</time>
      </trkpt>
      <trkpt lat="48.76624" lon="-3.27908">
        <ele>54</ele>
        <time>2014-10-05T08:16:13Z</time>
      </trkpt>
      <trkpt lat="48.76628" lon="-3.27897">
        <ele>54</ele>
        <time>2014-10-05T08:16:14Z</time>
      </trkpt>
      <trkpt lat="48.76633" lon="-3.27886">
        <ele>54</ele>
        <time>2014-10-05T08:16:15Z</time>
      </trkpt>
      <trkpt lat="48.76637" lon="-3.27875">
        <ele>54</ele>
        <time>2014-10-05T08:16:16Z</time>
      </trkpt>
      <trkpt lat="48.76641" lon="-3.27864">
        <ele>54</ele>
        <time>2014-10-05T08:16:17Z</time>
      </trkpt>
      <trkpt lat="48.76646" lon="-3.27854">
        <ele>54</ele>
        <time>2014-10-05T08:16:18Z</time>
      </trkpt>
      <trkpt lat="48.7665" lon="-3.27843">
        <ele>54</ele>
        <time>2014-10-05T08:16:19Z</time>
      </trkpt>
      <trkpt lat="48.76654" lon="-3.27833">
        <ele>54</ele>
        <time>2014-10-05T08:16:20Z</time>
      </trkpt>
      <trkpt lat="48.76658" lon="-3.27823">
        <ele>54</ele>
        <time>2014-10-05T08:16:21Z</time>
      </trkpt>
      <trkpt lat="48.76662" lon="-3.27813">
        <ele>54</ele>
        <time>2014-10-05T08:16:22Z</time>
      </trkpt>
      <trkpt lat="48.76666" lon="-3.27803">
        <ele>54</ele>
        <time>2014-10-05T08:16:23Z</time>
      </trkpt>
      <trkpt lat="48.7667" lon="-3.27793">
        <ele>54</ele>
        <time>2014-10-05T08:16:24Z</time>
      </trkpt>
      <trkpt lat="48.76674" lon="-3.27783">
        <ele>54</ele>
        <time>2014-10-05T08:16:25Z</time>
      </trkpt>
      <trkpt lat="48.76677" lon="-3.27773">
        <ele>54</ele>
        <time>2014-10-05T08:16:26Z</time>
      </trkpt>
      <trkpt lat="48.76681" lon="-3.27763">
        <ele>54</ele>
        <time>2014-10-05T08:16:27Z</time>
      </trkpt>
      <trkpt lat="48.76685" lon="-3.27753">
        <ele>54</ele>
        <time>2014-10-05T08:16:28Z</time>
      </trkpt>
      <trkpt lat="48.76688" lon="-3.27743">
        <ele>54</ele>
        <time>2014-10-05T08:16:29Z</time>
      </trkpt>
      <trkpt lat="48.76692" lon="-3.27733">
        <ele>54</ele>
        <time>2014-10-05T08:16:30Z</time>
      </trkpt>
      <trkpt lat="48.76696" lon="-3.27724">
        <ele>54</ele>
        <time>2014-10-05T08:16:31Z</time>
      </trkpt>
      <trkpt lat="48.767" lon="-3.27714">
        <ele>54</ele>
        <time>2014-10-05T08:16:32Z</time>
      </trkpt>
      <trkpt lat="48.76704" lon="-3.27704">
        <ele>54</ele>
        <time>2014-10-05T08:16:33Z</time>
      </trkpt>
      <trkpt lat="48.76707" lon="-3.27694">
        <ele>54</ele>
        <time>2014-10-05T08:16:34Z</time>
      </trkpt>
      <trkpt lat="48.76711" lon="-3.27683">
        <ele>54</ele>
        <time>2014-10-05T08:16:35Z</time>
      </trkpt>
      <trkpt lat="48.76715" lon="-3.27672">
        <ele>54</ele>
        <time>2014-10-05T08:16:36Z</time>
      </trkpt>
      <trkpt lat="48.76719" lon="-3.27661">
        <ele>54</ele>
        <time>2014-10-05T08:16:37Z</time>
      </trkpt>
      <trkpt lat="48.76723" lon="-3.2765">
        <ele>54</ele>
        <time>2014-10-05T08:16:38Z</time>
      </trkpt>
      <trkpt lat="48.76727" lon="-3.27639">
        <ele>54</ele>
        <time>2014-10-05T08:16:39Z</time>
      </trkpt>
      <trkpt lat="48.76731" lon="-3.27627">
        <ele>54</ele>
        <time>2014-10-05T08:16:40Z</time>
      </trkpt>
      <trkpt lat="48.76735" lon="-3.27617">
        <ele>54</ele>
        <time>2014-10-05T08:16:41Z</time>
      </trkpt>
      <trkpt lat="48.76739" lon="-3.27606">
        <ele>54</ele>
        <time>2014-10-05T08:16:42Z</time>
      </trkpt>
      <trkpt lat="48.76743" lon="-3.27595">
        <ele>54</ele>
        <time>2014-10-05T08:16:43Z</time>
      </trkpt>
      <trkpt lat="48.76746" lon="-3.27584">
        <ele>54</ele>
        <time>2014-10-05T08:16:44Z</time>
      </trkpt>
      <trkpt lat="48.7675" lon="-3.27573">
        <ele>55</ele>
        <time>2014-10-05T08:16:45Z</time>
      </trkpt>
      <trkpt lat="48.76754" lon="-3.27563">
        <ele>55</ele>
        <time>2014-10-05T08:16:46Z</time>
      </trkpt>
      <trkpt lat="48.76758" lon="-3.27552">
        <ele>55</ele>
        <time>2014-10-05T08:16:47Z</time>
      </trkpt>
      <trkpt lat="48.76762" lon="-3.27541">
        <ele>55</ele>
        <time>2014-10-05T08:16:48Z</time>
      </trkpt>
      <trkpt lat="48.76765" lon="-3.27531">
        <ele>55</ele>
        <time>2014-10-05T08:16:49Z</time>
      </trkpt>
      <trkpt lat="48.76769" lon="-3.27521">
        <ele>55</ele>
        <time>2014-10-05T08:16:50Z</time>
      </trkpt>
      <trkpt lat="48.76773" lon="-3.2751">
        <ele>55</ele>
        <time>2014-10-05T08:16:51Z</time>
      </trkpt>
      <trkpt lat="48.76777" lon="-3.27499">
        <ele>55</ele>
        <time>2014-10-05T08:16:52Z</time>
      </trkpt>
      <trkpt lat="48.76781" lon="-3.27488">
        <ele>56</ele>
        <time>2014-10-05T08:16:53Z</time>
      </trkpt>
      <trkpt lat="48.76785" lon="-3.27478">
        <ele>56</ele>
        <time>2014-10-05T08:16:54Z</time>
      </trkpt>
      <trkpt lat="48.76789" lon="-3.27466">
        <ele>56</ele>
        <time>2014-10-05T08:16:55Z</time>
      </trkpt>
      <trkpt lat="48.76793" lon="-3.27455">
        <ele>56</ele>
        <time>2014-10-05T08:16:56Z</time>
      </trkpt>
      <trkpt lat="48.76797" lon="-3.27444">
        <ele>56</ele>
        <time>2014-10-05T08:16:57Z</time>
      </trkpt>
      <trkpt lat="48.76801" lon="-3.27433">
        <ele>56</ele>
        <time>2014-10-05T08:16:58Z</time>
      </trkpt>
      <trkpt lat="48.76805" lon="-3.27422">
        <ele>57</ele>
        <time>2014-10-05T08:16:59Z</time>
      </trkpt>
      <trkpt lat="48.76809" lon="-3.27411">
        <ele>57</ele>
        <time>2014-10-05T08:17:00Z</time>
      </trkpt>
      <trkpt lat="48.76812" lon="-3.274">
        <ele>57</ele>
        <time>2014-10-05T08:17:01Z</time>
      </trkpt>
      <trkpt lat="48.76816" lon="-3.27389">
        <ele>57</ele>
        <time>2014-10-05T08:17:02Z</time>
      </trkpt>
      <trkpt lat="48.7682" lon="-3.27378">
        <ele>57</ele>
        <time>2014-10-05T08:17:03Z</time>
      </trkpt>
      <trkpt lat="48.76824" lon="-3.27367">
        <ele>58</ele>
        <time>2014-10-05T08:17:04Z</time>
      </trkpt>
      <trkpt lat="48.76828" lon="-3.27356">
        <ele>58</ele>
        <time>2014-10-05T08:17:05Z</time>
      </trkpt>
      <trkpt lat="48.76832" lon="-3.27345">
        <ele>58</ele>
        <time>2014-10-05T08:17:06Z</time>
      </trkpt>
      <trkpt lat="48.76836" lon="-3.27334">
        <ele>58</ele>
        <time>2014-10-05T08:17:07Z</time>
      </trkpt>
      <trkpt lat="48.76841" lon="-3.27322">
        <ele>59</ele>
        <time>2014-10-05T08:17:08Z</time>
      </trkpt>
      <trkpt lat="48.76846" lon="-3.27311">
        <ele>59</ele>
        <time>2014-10-05T08:17:09Z</time>
      </trkpt>
      <trkpt lat="48.7685" lon="-3.273">
        <ele>59</ele>
        <time>2014-10-05T08:17:10Z</time>
      </trkpt>
      <trkpt lat="48.76855" lon="-3.27289">
        <ele>59</ele>
        <time>2014-10-05T08:17:11Z</time>
      </trkpt>
      <trkpt lat="48.7686" lon="-3.27277">
        <ele>59</ele>
        <time>2014-10-05T08:17:12Z</time>
      </trkpt>
      <trkpt lat="48.76865" lon="-3.27266">
        <ele>59</ele>
        <time>2014-10-05T08:17:13Z</time>
      </trkpt>
      <trkpt lat="48.7687" lon="-3.27256">
        <ele>60</ele>
        <time>2014-10-05T08:17:14Z</time>
      </trkpt>
      <trkpt lat="48.76876" lon="-3.27245">
        <ele>60</ele>
        <time>2014-10-05T08:17:15Z</time>
      </trkpt>
      <trkpt lat="48.7688" lon="-3.27234">
        <ele>60</ele>
        <time>2014-10-05T08:17:16Z</time>
      </trkpt>
      <trkpt lat="48.76885" lon="-3.27223">
        <ele>60</ele>
        <time>2014-10-05T08:17:17Z</time>
      </trkpt>
      <trkpt lat="48.7689" lon="-3.27213">
        <ele>60</ele>
        <time>2014-10-05T08:17:18Z</time>
      </trkpt>
      <trkpt lat="48.76895" lon="-3.27202">
        <ele>60</ele>
        <time>2014-10-05T08:17:19Z</time>
      </trkpt>
      <trkpt lat="48.769" lon="-3.27192">
        <ele>60</ele>
        <time>2014-10-05T08:17:20Z</time>
      </trkpt>
      <trkpt lat="48.76905" lon="-3.27181">
        <ele>60</ele>
        <time>2014-10-05T08:17:21Z</time>
      </trkpt>
      <trkpt lat="48.7691" lon="-3.2717">
        <ele>60</ele>
        <time>2014-10-05T08:17:22Z</time>
      </trkpt>
      <trkpt lat="48.76915" lon="-3.27159">
        <ele>60</ele>
        <time>2014-10-05T08:17:23Z</time>
      </trkpt>
      <trkpt lat="48.7692" lon="-3.27149">
        <ele>60</ele>
        <time>2014-10-05T08:17:24Z</time>
      </trkpt>
      <trkpt lat="48.76925" lon="-3.27138">
        <ele>61</ele>
        <time>2014-10-05T08:17:25Z</time>
      </trkpt>
      <trkpt lat="48.7693" lon="-3.27127">
        <ele>61</ele>
        <time>2014-10-05T08:17:26Z</time>
      </trkpt>
      <trkpt lat="48.76935" lon="-3.27116">
        <ele>61</ele>
        <time>2014-10-05T08:17:27Z</time>
      </trkpt>
      <trkpt lat="48.76939" lon="-3.27105">
        <ele>61</ele>
        <time>2014-10-05T08:17:28Z</time>
      </trkpt>
      <trkpt lat="48.76944" lon="-3.27094">
        <ele>61</ele>
        <time>2014-10-05T08:17:29Z</time>
      </trkpt>
      <trkpt lat="48.76948" lon="-3.27082">
        <ele>61</ele>
        <time>2014-10-05T08:17:30Z</time>
      </trkpt>
      <trkpt lat="48.76952" lon="-3.2707">
        <ele>61</ele>
        <time>2014-10-05T08:17:31Z</time>
      </trkpt>
      <trkpt lat="48.76956" lon="-3.27058">
        <ele>61</ele>
        <time>2014-10-05T08:17:32Z</time>
      </trkpt>
      <trkpt lat="48.7696" lon="-3.27046">
        <ele>61</ele>
        <time>2014-10-05T08:17:33Z</time>
      </trkpt>
      <trkpt lat="48.76964" lon="-3.27033">
        <ele>61</ele>
        <time>2014-10-05T08:17:34Z</time>
      </trkpt>
      <trkpt lat="48.76968" lon="-3.27021">
        <ele>61</ele>
        <time>2014-10-05T08:17:35Z</time>
      </trkpt>
      <trkpt lat="48.76972" lon="-3.27008">
        <ele>61</ele>
        <time>2014-10-05T08:17:36Z</time>
      </trkpt>
      <trkpt lat="48.76976" lon="-3.26995">
        <ele>62</ele>
        <time>2014-10-05T08:17:37Z</time>
      </trkpt>
      <trkpt lat="48.7698" lon="-3.26983">
        <ele>62</ele>
        <time>2014-10-05T08:17:38Z</time>
      </trkpt>
      <trkpt lat="48.76984" lon="-3.2697">
        <ele>62</ele>
        <time>2014-10-05T08:17:39Z</time>
      </trkpt>
      <trkpt lat="48.76987" lon="-3.26958">
        <ele>62</ele>
        <time>2014-10-05T08:17:40Z</time>
      </trkpt>
      <trkpt lat="48.76991" lon="-3.26945">
        <ele>62</ele>
        <time>2014-10-05T08:17:41Z</time>
      </trkpt>
      <trkpt lat="48.76995" lon="-3.26932">
        <ele>62</ele>
        <time>2014-10-05T08:17:42Z</time>
      </trkpt>
      <trkpt lat="48.76999" lon="-3.26919">
        <ele>62</ele>
        <time>2014-10-05T08:17:43Z</time>
      </trkpt>
      <trkpt lat="48.77003" lon="-3.26906">
        <ele>62</ele>
        <time>2014-10-05T08:17:44Z</time>
      </trkpt>
      <trkpt lat="48.77007" lon="-3.26893">
        <ele>62</ele>
        <time>2014-10-05T08:17:45Z</time>
      </trkpt>
      <trkpt lat="48.77011" lon="-3.26879">
        <ele>62</ele>
        <time>2014-10-05T08:17:46Z</time>
      </trkpt>
      <trkpt lat="48.77015" lon="-3.26866">
        <ele>62</ele>
        <time>2014-10-05T08:17:47Z</time>
      </trkpt>
      <trkpt lat="48.77019" lon="-3.26852">
        <ele>62</ele>
        <time>2014-10-05T08:17:48Z</time>
      </trkpt>
      <trkpt lat="48.77023" lon="-3.26839">
        <ele>62</ele>
        <time>2014-10-05T08:17:49Z</time>
      </trkpt>
      <trkpt lat="48.77028" lon="-3.26825">
        <ele>62</ele>
        <time>2014-10-05T08:17:50Z</time>
      </trkpt>
      <trkpt lat="48.77032" lon="-3.26812">
        <ele>62</ele>
        <time>2014-10-05T08:17:51Z</time>
      </trkpt>
      <trkpt lat="48.77035" lon="-3.26798">
        <ele>62</ele>
        <time>2014-10-05T08:17:52Z</time>
      </trkpt>
      <trkpt lat="48.77039" lon="-3.26783">
        <ele>62</ele>
        <time>2014-10-05T08:17:53Z</time>
      </trkpt>
      <trkpt lat="48.77043" lon="-3.26769">
        <ele>62</ele>
        <time>2014-10-05T08:17:54Z</time>
      </trkpt>
      <trkpt lat="48.77047" lon="-3.26754">
        <ele>62</ele>
        <time>2014-10-05T08:17:55Z</time>
      </trkpt>
      <trkpt lat="48.7705" lon="-3.26739">
        <ele>62</ele>
        <time>2014-10-05T08:17:56Z</time>
      </trkpt>
      <trkpt lat="48.77054" lon="-3.26724">
        <ele>62</ele>
        <time>2014-10-05T08:17:57Z</time>
      </trkpt>
      <trkpt lat="48.77058" lon="-3.26708">
        <ele>62</ele>
        <time>2014-10-05T08:17:58Z</time>
      </trkpt>
      <trkpt lat="48.77062" lon="-3.26692">
        <ele>62</ele>
        <time>2014-10-05T08:17:59Z</time>
      </trkpt>
      <trkpt lat="48.77066" lon="-3.26676">
        <ele>62</ele>
        <time>2014-10-05T08:18:00Z</time>
      </trkpt>
      <trkpt lat="48.77069" lon="-3.2666">
        <ele>62</ele>
        <time>2014-10-05T08:18:01Z</time>
      </trkpt>
      <trkpt lat="48.77072" lon="-3.26643">
        <ele>62</ele>
        <time>2014-10-05T08:18:02Z</time>
      </trkpt>
      <trkpt lat="48.77076" lon="-3.26626">
        <ele>62</ele>
        <time>2014-10-05T08:18:03Z</time>
      </trkpt>
      <trkpt lat="48.77079" lon="-3.26609">
        <ele>62</ele>
        <time>2014-10-05T08:18:04Z</time>
      </trkpt>
      <trkpt lat="48.77082" lon="-3.26592">
        <ele>62</ele>
        <time>2014-10-05T08:18:05Z</time>
      </trkpt>
      <trkpt lat="48.77084" lon="-3.26574">
        <ele>62</ele>
        <time>2014-10-05T08:18:06Z</time>
      </trkpt>
      <trkpt lat="48.77087" lon="-3.26557">
        <ele>62</ele>
        <time>2014-10-05T08:18:07Z</time>
      </trkpt>
      <trkpt lat="48.7709" lon="-3.2654">
        <ele>62</ele>
        <time>2014-10-05T08:18:08Z</time>
      </trkpt>
      <trkpt lat="48.77093" lon="-3.26522">
        <ele>62</ele>
        <time>2014-10-05T08:18:09Z</time>
      </trkpt>
      <trkpt lat="48.77096" lon="-3.26505">
        <ele>62</ele>
        <time>2014-10-05T08:18:10Z</time>
      </trkpt>
      <trkpt lat="48.77099" lon="-3.26488">
        <ele>62</ele>
        <time>2014-10-05T08:18:11Z</time>
      </trkpt>
      <trkpt lat="48.77102" lon="-3.26471">
        <ele>62</ele>
        <time>2014-10-05T08:18:12Z</time>
      </trkpt>
      <trkpt lat="48.77104" lon="-3.26454">
        <ele>61</ele>
        <time>2014-10-05T08:18:13Z</time>
      </trkpt>
      <trkpt lat="48.77107" lon="-3.26438">
        <ele>61</ele>
        <time>2014-10-05T08:18:14Z</time>
      </trkpt>
      <trkpt lat="48.7711" lon="-3.26421">
        <ele>61</ele>
        <time>2014-10-05T08:18:15Z</time>
      </trkpt>
      <trkpt lat="48.77112" lon="-3.26405">
        <ele>61</ele>
        <time>2014-10-05T08:18:16Z</time>
      </trkpt>
      <trkpt lat="48.77115" lon="-3.26388">
        <ele>60</ele>
        <time>2014-10-05T08:18:17Z</time>
      </trkpt>
      <trkpt lat="48.77118" lon="-3.26371">
        <ele>60</ele>
        <time>2014-10-05T08:18:18Z</time>
      </trkpt>
      <trkpt lat="48.77121" lon="-3.26354">
        <ele>60</ele>
        <time>2014-10-05T08:18:19Z</time>
      </trkpt>
      <trkpt lat="48.77123" lon="-3.26337">
        <ele>60</ele>
        <time>2014-10-05T08:18:20Z</time>
      </trkpt>
      <trkpt lat="48.77126" lon="-3.2632">
        <ele>59</ele>
        <time>2014-10-05T08:18:21Z</time>
      </trkpt>
      <trkpt lat="48.77129" lon="-3.26304">
        <ele>59</ele>
        <time>2014-10-05T08:18:22Z</time>
      </trkpt>
      <trkpt lat="48.77132" lon="-3.26287">
        <ele>59</ele>
        <time>2014-10-05T08:18:23Z</time>
      </trkpt>
      <trkpt lat="48.77134" lon="-3.26271">
        <ele>59</ele>
        <time>2014-10-05T08:18:24Z</time>
      </trkpt>
      <trkpt lat="48.77137" lon="-3.26255">
        <ele>58</ele>
        <time>2014-10-05T08:18:25Z</time>
      </trkpt>
      <trkpt lat="48.7714" lon="-3.26238">
        <ele>58</ele>
        <time>2014-10-05T08:18:26Z</time>
      </trkpt>
      <trkpt lat="48.77143" lon="-3.26222">
        <ele>58</ele>
        <time>2014-10-05T08:18:27Z</time>
      </trkpt>
      <trkpt lat="48.77146" lon="-3.26205">
        <ele>58</ele>
        <time>2014-10-05T08:18:28Z</time>
      </trkpt>
      <trkpt lat="48.77149" lon="-3.26189">
        <ele>58</ele>
        <time>2014-10-05T08:18:29Z</time>
      </trkpt>
      <trkpt lat="48.77152" lon="-3.26173">
        <ele>58</ele>
        <time>2014-10-05T08:18:30Z</time>
      </trkpt>
      <trkpt lat="48.77156" lon="-3.26156">
        <ele>57</ele>
        <time>2014-10-05T08:18:31Z</time>
      </trkpt>
      <trkpt lat="48.7716" lon="-3.26141">
        <ele>57</ele>
        <time>2014-10-05T08:18:32Z</time>
      </trkpt>
      <trkpt lat="48.77165" lon="-3.26125">
        <ele>57</ele>
        <time>2014-10-05T08:18:33Z</time>
      </trkpt>
      <trkpt lat="48.7717" lon="-3.26109">
        <ele>57</ele>
        <time>2014-10-05T08:18:34Z</time>
      </trkpt>
      <trkpt lat="48.77175" lon="-3.26094">
        <ele>57</ele>
        <time>2014-10-05T08:18:35Z</time>
      </trkpt>
      <trkpt lat="48.7718" lon="-3.26078">
        <ele>57</ele>
        <time>2014-10-05T08:18:36Z</time>
      </trkpt>
      <trkpt lat="48.77185" lon="-3.26063">
        <ele>57</ele>
        <time>2014-10-05T08:18:37Z</time>
      </trkpt>
      <trkpt lat="48.7719" lon="-3.26047">
        <ele>57</ele>
        <time>2014-10-05T08:18:38Z</time>
      </trkpt>
      <trkpt lat="48.77195" lon="-3.26032">
        <ele>56</ele>
        <time>2014-10-05T08:18:39Z</time>
      </trkpt>
      <trkpt lat="48.772" lon="-3.26016">
        <ele>56</ele>
        <time>2014-10-05T08:18:40Z</time>
      </trkpt>
      <trkpt lat="48.77206" lon="-3.26001">
        <ele>56</ele>
        <time>2014-10-05T08:18:41Z</time>
      </trkpt>
      <trkpt lat="48.77211" lon="-3.25985">
        <ele>56</ele>
        <time>2014-10-05T08:18:42Z</time>
      </trkpt>
      <trkpt lat="48.77216" lon="-3.2597">
        <ele>56</ele>
        <time>2014-10-05T08:18:43Z</time>
      </trkpt>
      <trkpt lat="48.77221" lon="-3.25954">
        <ele>56</ele>
        <time>2014-10-05T08:18:44Z</time>
      </trkpt>
      <trkpt lat="48.77226" lon="-3.25939">
        <ele>56</ele>
        <time>2014-10-05T08:18:45Z</time>
      </trkpt>
      <trkpt lat="48.7723" lon="-3.25923">
        <ele>55</ele>
        <time>2014-10-05T08:18:46Z</time>
      </trkpt>
      <trkpt lat="48.77235" lon="-3.25907">
        <ele>55</ele>
        <time>2014-10-05T08:18:47Z</time>
      </trkpt>
      <trkpt lat="48.7724" lon="-3.25891">
        <ele>55</ele>
        <time>2014-10-05T08:18:48Z</time>
      </trkpt>
      <trkpt lat="48.77244" lon="-3.25874">
        <ele>55</ele>
        <time>2014-10-05T08:18:49Z</time>
      </trkpt>
      <trkpt lat="48.77249" lon="-3.25858">
        <ele>55</ele>
        <time>2014-10-05T08:18:50Z</time>
      </trkpt>
      <trkpt lat="48.77253" lon="-3.25841">
        <ele>54</ele>
        <time>2014-10-05T08:18:51Z</time>
      </trkpt>
      <trkpt lat="48.77258" lon="-3.25824">
        <ele>54</ele>
        <time>2014-10-05T08:18:52Z</time>
      </trkpt>
      <trkpt lat="48.77264" lon="-3.25807">
        <ele>54</ele>
        <time>2014-10-05T08:18:53Z</time>
      </trkpt>
      <trkpt lat="48.77268" lon="-3.2579">
        <ele>54</ele>
        <time>2014-10-05T08:18:54Z</time>
      </trkpt>
      <trkpt lat="48.77273" lon="-3.25773">
        <ele>53</ele>
        <time>2014-10-05T08:18:55Z</time>
      </trkpt>
      <trkpt lat="48.77278" lon="-3.25755">
        <ele>53</ele>
        <time>2014-10-05T08:18:56Z</time>
      </trkpt>
      <trkpt lat="48.77283" lon="-3.25737">
        <ele>52</ele>
        <time>2014-10-05T08:18:57Z</time>
      </trkpt>
      <trkpt lat="48.77287" lon="-3.25719">
        <ele>52</ele>
        <time>2014-10-05T08:18:58Z</time>
      </trkpt>
      <trkpt lat="48.77292" lon="-3.25702">
        <ele>52</ele>
        <time>2014-10-05T08:18:59Z</time>
      </trkpt>
      <trkpt lat="48.77297" lon="-3.25684">
        <ele>51</ele>
        <time>2014-10-05T08:19:00Z</time>
      </trkpt>
      <trkpt lat="48.77302" lon="-3.25666">
        <ele>51</ele>
        <time>2014-10-05T08:19:01Z</time>
      </trkpt>
      <trkpt lat="48.77307" lon="-3.25648">
        <ele>51</ele>
        <time>2014-10-05T08:19:02Z</time>
      </trkpt>
      <trkpt lat="48.77312" lon="-3.2563">
        <ele>51</ele>
        <time>2014-10-05T08:19:03Z</time>
      </trkpt>
      <trkpt lat="48.77316" lon="-3.25612">
        <ele>51</ele>
        <time>2014-10-05T08:19:04Z</time>
      </trkpt>
      <trkpt lat="48.77321" lon="-3.25594">
        <ele>50</ele>
        <time>2014-10-05T08:19:05Z</time>
      </trkpt>
      <trkpt lat="48.77325" lon="-3.25577">
        <ele>50</ele>
        <time>2014-10-05T08:19:06Z</time>
      </trkpt>
      <trkpt lat="48.77329" lon="-3.2556">
        <ele>50</ele>
        <time>2014-10-05T08:19:07Z</time>
      </trkpt>
      <trkpt lat="48.77333" lon="-3.25543">
        <ele>50</ele>
        <time>2014-10-05T08:19:08Z</time>
      </trkpt>
      <trkpt lat="48.77338" lon="-3.25526">
        <ele>50</ele>
        <time>2014-10-05T08:19:09Z</time>
      </trkpt>
      <trkpt lat="48.77341" lon="-3.2551">
        <ele>50</ele>
        <time>2014-10-05T08:19:10Z</time>
      </trkpt>
      <trkpt lat="48.77346" lon="-3.25494">
        <ele>50</ele>
        <time>2014-10-05T08:19:11Z</time>
      </trkpt>
      <trkpt lat="48.77349" lon="-3.25477">
        <ele>49</ele>
        <time>2014-10-05T08:19:12Z</time>
      </trkpt>
      <trkpt lat="48.77353" lon="-3.25461">
        <ele>49</ele>
        <time>2014-10-05T08:19:13Z</time>
      </trkpt>
      <trkpt lat="48.77357" lon="-3.25444">
        <ele>49</ele>
        <time>2014-10-05T08:19:14Z</time>
      </trkpt>
      <trkpt lat="48.77361" lon="-3.25428">
        <ele>49</ele>
        <time>2014-10-05T08:19:15Z</time>
      </trkpt>
      <trkpt lat="48.77365" lon="-3.25411">
        <ele>49</ele>
        <time>2014-10-05T08:19:16Z</time>
      </trkpt>
      <trkpt lat="48.77369" lon="-3.25394">
        <ele>49</ele>
        <time>2014-10-05T08:19:17Z</time>
      </trkpt>
      <trkpt lat="48.77372" lon="-3.25378">
        <ele>49</ele>
        <time>2014-10-05T08:19:18Z</time>
      </trkpt>
      <trkpt lat="48.77376" lon="-3.25362">
        <ele>48</ele>
        <time>2014-10-05T08:19:19Z</time>
      </trkpt>
      <trkpt lat="48.7738" lon="-3.25346">
        <ele>48</ele>
        <time>2014-10-05T08:19:20Z</time>
      </trkpt>
      <trkpt lat="48.77384" lon="-3.25332">
        <ele>48</ele>
        <time>2014-10-05T08:19:21Z</time>
      </trkpt>
      <trkpt lat="48.77387" lon="-3.25317">
        <ele>48</ele>
        <time>2014-10-05T08:19:22Z</time>
      </trkpt>
      <trkpt lat="48.77391" lon="-3.25303">
        <ele>48</ele>
        <time>2014-10-05T08:19:23Z</time>
      </trkpt>
      <trkpt lat="48.77395" lon="-3.2529">
        <ele>48</ele>
        <time>2014-10-05T08:19:24Z</time>
      </trkpt>
      <trkpt lat="48.77399" lon="-3.25277">
        <ele>48</ele>
        <time>2014-10-05T08:19:25Z</time>
      </trkpt>
      <trkpt lat="48.77402" lon="-3.25264">
        <ele>48</ele>
        <time>2014-10-05T08:19:26Z</time>
      </trkpt>
      <trkpt lat="48.77406" lon="-3.2525">
        <ele>48</ele>
        <time>2014-10-05T08:19:27Z</time>
      </trkpt>
      <trkpt lat="48.7741" lon="-3.25237">
        <ele>48</ele>
        <time>2014-10-05T08:19:28Z</time>
      </trkpt>
      <trkpt lat="48.77415" lon="-3.25223">
        <ele>48</ele>
        <time>2014-10-05T08:19:29Z</time>
      </trkpt>
      <trkpt lat="48.7742" lon="-3.2521">
        <ele>48</ele>
        <time>2014-10-05T08:19:30Z</time>
      </trkpt>
      <trkpt lat="48.77424" lon="-3.25196">
        <ele>48</ele>
        <time>2014-10-05T08:19:31Z</time>
      </trkpt>
      <trkpt lat="48.77429" lon="-3.25183">
        <ele>48</ele>
        <time>2014-10-05T08:19:32Z</time>
      </trkpt>
      <trkpt lat="48.77434" lon="-3.2517">
        <ele>48</ele>
        <time>2014-10-05T08:19:33Z</time>
      </trkpt>
      <trkpt lat="48.77439" lon="-3.25157">
        <ele>48</ele>
        <time>2014-10-05T08:19:34Z</time>
      </trkpt>
      <trkpt lat="48.77444" lon="-3.25144">
        <ele>48</ele>
        <time>2014-10-05T08:19:35Z</time>
      </trkpt>
      <trkpt lat="48.77449" lon="-3.25132">
        <ele>48</ele>
        <time>2014-10-05T08:19:36Z</time>
      </trkpt>
      <trkpt lat="48.77454" lon="-3.25119">
        <ele>48</ele>
        <time>2014-10-05T08:19:37Z</time>
      </trkpt>
      <trkpt lat="48.77459" lon="-3.25107">
        <ele>48</ele>
        <time>2014-10-05T08:19:38Z</time>
      </trkpt>
      <trkpt lat="48.77465" lon="-3.25095">
        <ele>48</ele>
        <time>2014-10-05T08:19:39Z</time>
      </trkpt>
      <trkpt lat="48.7747" lon="-3.25083">
        <ele>48</ele>
        <time>2014-10-05T08:19:40Z</time>
      </trkpt>
      <trkpt lat="48.77476" lon="-3.25072">
        <ele>48</ele>
        <time>2014-10-05T08:19:41Z</time>
      </trkpt>
      <trkpt lat="48.77482" lon="-3.25061">
        <ele>48</ele>
        <time>2014-10-05T08:19:42Z</time>
      </trkpt>
      <trkpt lat="48.77488" lon="-3.25049">
        <ele>48</ele>
        <time>2014-10-05T08:19:43Z</time>
      </trkpt>
      <trkpt lat="48.77494" lon="-3.25038">
        <ele>48</ele>
        <time>2014-10-05T08:19:44Z</time>
      </trkpt>
      <trkpt lat="48.77499" lon="-3.25026">
        <ele>48</ele>
        <time>2014-10-05T08:19:45Z</time>
      </trkpt>
      <trkpt lat="48.77505" lon="-3.25015">
        <ele>48</ele>
        <time>2014-10-05T08:19:46Z</time>
      </trkpt>
      <trkpt lat="48.7751" lon="-3.25003">
        <ele>48</ele>
        <time>2014-10-05T08:19:47Z</time>
      </trkpt>
      <trkpt lat="48.77515" lon="-3.24991">
        <ele>48</ele>
        <time>2014-10-05T08:19:48Z</time>
      </trkpt>
      <trkpt lat="48.77521" lon="-3.2498">
        <ele>48</ele>
        <time>2014-10-05T08:19:49Z</time>
      </trkpt>
      <trkpt lat="48.77527" lon="-3.24968">
        <ele>48</ele>
        <time>2014-10-05T08:19:50Z</time>
      </trkpt>
      <trkpt lat="48.77532" lon="-3.24955">
        <ele>48</ele>
        <time>2014-10-05T08:19:51Z</time>
      </trkpt>
      <trkpt lat="48.77538" lon="-3.24943">
        <ele>48</ele>
        <time>2014-10-05T08:19:52Z</time>
      </trkpt>
      <trkpt lat="48.77544" lon="-3.24931">
        <ele>48</ele>
        <time>2014-10-05T08:19:53Z</time>
      </trkpt>
      <trkpt lat="48.77549" lon="-3.24918">
        <ele>48</ele>
        <time>2014-10-05T08:19:54Z</time>
      </trkpt>
      <trkpt lat="48.77555" lon="-3.24906">
        <ele>48</ele>
        <time>2014-10-05T08:19:55Z</time>
      </trkpt>
      <trkpt lat="48.77561" lon="-3.24894">
        <ele>48</ele>
        <time>2014-10-05T08:19:56Z</time>
      </trkpt>
      <trkpt lat="48.77567" lon="-3.24882">
        <ele>48</ele>
        <time>2014-10-05T08:19:57Z</time>
      </trkpt>
      <trkpt lat="48.77573" lon="-3.24871">
        <ele>48</ele>
        <time>2014-10-05T08:19:58Z</time>
      </trkpt>
      <trkpt lat="48.77578" lon="-3.24859">
        <ele>48</ele>
        <time>2014-10-05T08:19:59Z</time>
      </trkpt>
      <trkpt lat="48.77584" lon="-3.24848">
        <ele>48</ele>
        <time>2014-10-05T08:20:00Z</time>
      </trkpt>
      <trkpt lat="48.77589" lon="-3.24837">
        <ele>48</ele>
        <time>2014-10-05T08:20:01Z</time>
      </trkpt>
      <trkpt lat="48.77595" lon="-3.24827">
        <ele>48</ele>
        <time>2014-10-05T08:20:02Z</time>
      </trkpt>
      <trkpt lat="48.776" lon="-3.24816">
        <ele>48</ele>
        <time>2014-10-05T08:20:03Z</time>
      </trkpt>
      <trkpt lat="48.77604" lon="-3.24807">
        <ele>48</ele>
        <time>2014-10-05T08:20:04Z</time>
      </trkpt>
      <trkpt lat="48.77608" lon="-3.24797">
        <ele>48</ele>
        <time>2014-10-05T08:20:05Z</time>
      </trkpt>
      <trkpt lat="48.7761" lon="-3.24787">
        <ele>48</ele>
        <time>2014-10-05T08:20:06Z</time>
      </trkpt>
      <trkpt lat="48.7761" lon="-3.24776">
        <ele>48</ele>
        <time>2014-10-05T08:20:07Z</time>
      </trkpt>
      <trkpt lat="48.77608" lon="-3.24765">
        <ele>48</ele>
        <time>2014-10-05T08:20:08Z</time>
      </trkpt>
      <trkpt lat="48.77607" lon="-3.24754">
        <ele>48</ele>
        <time>2014-10-05T08:20:09Z</time>
      </trkpt>
      <trkpt lat="48.77609" lon="-3.24743">
        <ele>48</ele>
        <time>2014-10-05T08:20:10Z</time>
      </trkpt>
      <trkpt lat="48.77613" lon="-3.24734">
        <ele>48</ele>
        <time>2014-10-05T08:20:11Z</time>
      </trkpt>
      <trkpt lat="48.77619" lon="-3.24727">
        <ele>48</ele>
        <time>2014-10-05T08:20:12Z</time>
      </trkpt>
      <trkpt lat="48.77626" lon="-3.24723">
        <ele>48</ele>
        <time>2014-10-05T08:20:13Z</time>
      </trkpt>
      <trkpt lat="48.77633" lon="-3.24719">
        <ele>48</ele>
        <time>2014-10-05T08:20:14Z</time>
      </trkpt>
      <trkpt lat="48.7764" lon="-3.24715">
        <ele>48</ele>
        <time>2014-10-05T08:20:15Z</time>
      </trkpt>
      <trkpt lat="48.77647" lon="-3.24708">
        <ele>48</ele>
        <time>2014-10-05T08:20:16Z</time>
      </trkpt>
      <trkpt lat="48.77653" lon="-3.24699">
        <ele>48</ele>
        <time>2014-10-05T08:20:17Z</time>
      </trkpt>
      <trkpt lat="48.77658" lon="-3.24689">
        <ele>48</ele>
        <time>2014-10-05T08:20:18Z</time>
      </trkpt>
      <trkpt lat="48.77664" lon="-3.24679">
        <ele>48</ele>
        <time>2014-10-05T08:20:19Z</time>
      </trkpt>
      <trkpt lat="48.77669" lon="-3.24669">
        <ele>48</ele>
        <time>2014-10-05T08:20:20Z</time>
      </trkpt>
      <trkpt lat="48.77675" lon="-3.24658">
        <ele>48</ele>
        <time>2014-10-05T08:20:21Z</time>
      </trkpt>
      <trkpt lat="48.7768" lon="-3.24647">
        <ele>48</ele>
        <time>2014-10-05T08:20:22Z</time>
      </trkpt>
      <trkpt lat="48.77685" lon="-3.24637">
        <ele>48</ele>
        <time>2014-10-05T08:20:23Z</time>
      </trkpt>
      <trkpt lat="48.7769" lon="-3.24625">
        <ele>48</ele>
        <time>2014-10-05T08:20:24Z</time>
      </trkpt>
      <trkpt lat="48.77696" lon="-3.24615">
        <ele>48</ele>
        <time>2014-10-05T08:20:25Z</time>
      </trkpt>
      <trkpt lat="48.77701" lon="-3.24604">
        <ele>48</ele>
        <time>2014-10-05T08:20:26Z</time>
      </trkpt>
      <trkpt lat="48.77706" lon="-3.24593">
        <ele>48</ele>
        <time>2014-10-05T08:20:27Z</time>
      </trkpt>
      <trkpt lat="48.77711" lon="-3.24583">
        <ele>48</ele>
        <time>2014-10-05T08:20:28Z</time>
      </trkpt>
      <trkpt lat="48.77716" lon="-3.24572">
        <ele>48</ele>
        <time>2014-10-05T08:20:29Z</time>
      </trkpt>
      <trkpt lat="48.77721" lon="-3.24562">
        <ele>48</ele>
        <time>2014-10-05T08:20:30Z</time>
      </trkpt>
      <trkpt lat="48.77726" lon="-3.24551">
        <ele>48</ele>
        <time>2014-10-05T08:20:31Z</time>
      </trkpt>
      <trkpt lat="48.77731" lon="-3.2454">
        <ele>48</ele>
        <time>2014-10-05T08:20:32Z</time>
      </trkpt>
      <trkpt lat="48.77736" lon="-3.24529">
        <ele>48</ele>
        <time>2014-10-05T08:20:33Z</time>
      </trkpt>
      <trkpt lat="48.77741" lon="-3.24517">
        <ele>48</ele>
        <time>2014-10-05T08:20:34Z</time>
      </trkpt>
      <trkpt lat="48.77747" lon="-3.24506">
        <ele>48</ele>
        <time>2014-10-05T08:20:35Z</time>
      </trkpt>
      <trkpt lat="48.77753" lon="-3.24495">
        <ele>48</ele>
        <time>2014-10-05T08:20:36Z</time>
      </trkpt>
      <trkpt lat="48.77759" lon="-3.24484">
        <ele>48</ele>
        <time>2014-10-05T08:20:37Z</time>
      </trkpt>
      <trkpt lat="48.77766" lon="-3.24474">
        <ele>48</ele>
        <time>2014-10-05T08:20:38Z</time>
      </trkpt>
      <trkpt lat="48.77773" lon="-3.24464">
        <ele>48</ele>
        <time>2014-10-05T08:20:39Z</time>
      </trkpt>
      <trkpt lat="48.7778" lon="-3.24454">
        <ele>48</ele>
        <time>2014-10-05T08:20:40Z</time>
      </trkpt>
      <trkpt lat="48.77787" lon="-3.24445">
        <ele>48</ele>
        <time>2014-10-05T08:20:41Z</time>
      </trkpt>
      <trkpt lat="48.77795" lon="-3.24436">
        <ele>48</ele>
        <time>2014-10-05T08:20:42Z</time>
      </trkpt>
      <trkpt lat="48.77803" lon="-3.24428">
        <ele>48</ele>
        <time>2014-10-05T08:20:43Z</time>
      </trkpt>
      <trkpt lat="48.77811" lon="-3.2442">
        <ele>48</ele>
        <time>2014-10-05T08:20:44Z</time>
      </trkpt>
      <trkpt lat="48.77818" lon="-3.24411">
        <ele>48</ele>
        <time>2014-10-05T08:20:45Z</time>
      </trkpt>
      <trkpt lat="48.77825" lon="-3.24403">
        <ele>48</ele>
        <time>2014-10-05T08:20:46Z</time>
      </trkpt>
      <trkpt lat="48.77832" lon="-3.24395">
        <ele>48</ele>
        <time>2014-10-05T08:20:47Z</time>
      </trkpt>
      <trkpt lat="48.77839" lon="-3.24387">
        <ele>48</ele>
        <time>2014-10-05T08:20:48Z</time>
      </trkpt>
      <trkpt lat="48.77846" lon="-3.2438">
        <ele>48</ele>
        <time>2014-10-05T08:20:49Z</time>
      </trkpt>
      <trkpt lat="48.77854" lon="-3.24373">
        <ele>48</ele>
        <time>2014-10-05T08:20:50Z</time>
      </trkpt>
      <trkpt lat="48.77861" lon="-3.24366">
        <ele>48</ele>
        <time>2014-10-05T08:20:51Z</time>
      </trkpt>
      <trkpt lat="48.77869" lon="-3.24359">
        <ele>48</ele>
        <time>2014-10-05T08:20:52Z</time>
      </trkpt>
      <trkpt lat="48.77877" lon="-3.24351">
        <ele>48</ele>
        <time>2014-10-05T08:20:53Z</time>
      </trkpt>
      <trkpt lat="48.77884" lon="-3.24343">
        <ele>48</ele>
        <time>2014-10-05T08:20:54Z</time>
      </trkpt>
      <trkpt lat="48.77892" lon="-3.24336">
        <ele>48</ele>
        <time>2014-10-05T08:20:55Z</time>
      </trkpt>
      <trkpt lat="48.77898" lon="-3.24327">
        <ele>48</ele>
        <time>2014-10-05T08:20:56Z</time>
      </trkpt>
      <trkpt lat="48.77905" lon="-3.24319">
        <ele>48</ele>
        <time>2014-10-05T08:20:57Z</time>
      </trkpt>
      <trkpt lat="48.77912" lon="-3.24311">
        <ele>48</ele>
        <time>2014-10-05T08:20:58Z</time>
      </trkpt>
      <trkpt lat="48.77918" lon="-3.24303">
        <ele>48</ele>
        <time>2014-10-05T08:20:59Z</time>
      </trkpt>
      <trkpt lat="48.77925" lon="-3.24295">
        <ele>48</ele>
        <time>2014-10-05T08:21:00Z</time>
      </trkpt>
      <trkpt lat="48.77931" lon="-3.24286">
        <ele>48</ele>
        <time>2014-10-05T08:21:01Z</time>
      </trkpt>
      <trkpt lat="48.77937" lon="-3.24277">
        <ele>48</ele>
        <time>2014-10-05T08:21:02Z</time>
      </trkpt>
      <trkpt lat="48.77943" lon="-3.24269">
        <ele>48</ele>
        <time>2014-10-05T08:21:03Z</time>
      </trkpt>
      <trkpt lat="48.7795" lon="-3.2426">
        <ele>48</ele>
        <time>2014-10-05T08:21:04Z</time>
      </trkpt>
      <trkpt lat="48.77955" lon="-3.24251">
        <ele>48</ele>
        <time>2014-10-05T08:21:05Z</time>
      </trkpt>
      <trkpt lat="48.77961" lon="-3.24241">
        <ele>48</ele>
        <time>2014-10-05T08:21:06Z</time>
      </trkpt>
      <trkpt lat="48.77967" lon="-3.24232">
        <ele>48</ele>
        <time>2014-10-05T08:21:07Z</time>
      </trkpt>
      <trkpt lat="48.77973" lon="-3.24223">
        <ele>48</ele>
        <time>2014-10-05T08:21:08Z</time>
      </trkpt>
      <trkpt lat="48.77979" lon="-3.24213">
        <ele>48</ele>
        <time>2014-10-05T08:21:09Z</time>
      </trkpt>
      <trkpt lat="48.77985" lon="-3.24204">
        <ele>48</ele>
        <time>2014-10-05T08:21:10Z</time>
      </trkpt>
      <trkpt lat="48.77992" lon="-3.24195">
        <ele>48</ele>
        <time>2014-10-05T08:21:11Z</time>
      </trkpt>
      <trkpt lat="48.77998" lon="-3.24187">
        <ele>48</ele>
        <time>2014-10-05T08:21:12Z</time>
      </trkpt>
      <trkpt lat="48.78005" lon="-3.24179">
        <ele>48</ele>
        <time>2014-10-05T08:21:13Z</time>
      </trkpt>
      <trkpt lat="48.78012" lon="-3.24171">
        <ele>48</ele>
        <time>2014-10-05T08:21:14Z</time>
      </trkpt>
      <trkpt lat="48.78019" lon="-3.24165">
        <ele>48</ele>
        <time>2014-10-05T08:21:15Z</time>
      </trkpt>
      <trkpt lat="48.78025" lon="-3.24159">
        <ele>48</ele>
        <time>2014-10-05T08:21:16Z</time>
      </trkpt>
      <trkpt lat="48.78032" lon="-3.24152">
        <ele>48</ele>
        <time>2014-10-05T08:21:17Z</time>
      </trkpt>
      <trkpt lat="48.78036" lon="-3.24146">
        <ele>48</ele>
        <time>2014-10-05T08:21:18Z</time>
      </trkpt>
      <trkpt lat="48.7804" lon="-3.24137">
        <ele>48</ele>
        <time>2014-10-05T08:21:19Z</time>
      </trkpt>
      <trkpt lat="48.78041" lon="-3.24127">
        <ele>48</ele>
        <time>2014-10-05T08:21:20Z</time>
      </trkpt>
      <trkpt lat="48.78041" lon="-3.24117">
        <ele>48</ele>
        <time>2014-10-05T08:21:21Z</time>
      </trkpt>
      <trkpt lat="48.7804" lon="-3.24106">
        <ele>48</ele>
        <time>2014-10-05T08:21:22Z</time>
      </trkpt>
      <trkpt lat="48.78038" lon="-3.24096">
        <ele>48</ele>
        <time>2014-10-05T08:21:23Z</time>
      </trkpt>
      <trkpt lat="48.78035" lon="-3.24086">
        <ele>48</ele>
        <time>2014-10-05T08:21:24Z</time>
      </trkpt>
      <trkpt lat="48.78033" lon="-3.24076">
        <ele>48</ele>
        <time>2014-10-05T08:21:25Z</time>
      </trkpt>
      <trkpt lat="48.78031" lon="-3.24066">
        <ele>48</ele>
        <time>2014-10-05T08:21:26Z</time>
      </trkpt>
      <trkpt lat="48.78029" lon="-3.24057">
        <ele>48</ele>
        <time>2014-10-05T08:21:27Z</time>
      </trkpt>
      <trkpt lat="48.78027" lon="-3.24048">
        <ele>48</ele>
        <time>2014-10-05T08:21:28Z</time>
      </trkpt>
      <trkpt lat="48.78025" lon="-3.24039">
        <ele>48</ele>
        <time>2014-10-05T08:21:29Z</time>
      </trkpt>
      <trkpt lat="48.78023" lon="-3.2403">
        <ele>48</ele>
        <time>2014-10-05T08:21:30Z</time>
      </trkpt>
      <trkpt lat="48.78022" lon="-3.24022">
        <ele>48</ele>
        <time>2014-10-05T08:21:31Z</time>
      </trkpt>
      <trkpt lat="48.7802" lon="-3.24014">
        <ele>49</ele>
        <time>2014-10-05T08:21:32Z</time>
      </trkpt>
      <trkpt lat="48.78018" lon="-3.24006">
        <ele>49</ele>
        <time>2014-10-05T08:21:33Z</time>
      </trkpt>
      <trkpt lat="48.78016" lon="-3.23998">
        <ele>50</ele>
        <time>2014-10-05T08:21:34Z</time>
      </trkpt>
      <trkpt lat="48.78014" lon="-3.2399">
        <ele>50</ele>
        <time>2014-10-05T08:21:35Z</time>
      </trkpt>
      <trkpt lat="48.78012" lon="-3.23982">
        <ele>51</ele>
        <time>2014-10-05T08:21:36Z</time>
      </trkpt>
      <trkpt lat="48.78011" lon="-3.23974">
        <ele>51</ele>
        <time>2014-10-05T08:21:37Z</time>
      </trkpt>
      <trkpt lat="48.78009" lon="-3.23966">
        <ele>52</ele>
        <time>2014-10-05T08:21:38Z</time>
      </trkpt>
      <trkpt lat="48.78007" lon="-3.23958">
        <ele>52</ele>
        <time>2014-10-05T08:21:39Z</time>
      </trkpt>
      <trkpt lat="48.78005" lon="-3.2395">
        <ele>53</ele>
        <time>2014-10-05T08:21:40Z</time>
      </trkpt>
      <trkpt lat="48.78003" lon="-3.23942">
        <ele>53</ele>
        <time>2014-10-05T08:21:41Z</time>
      </trkpt>
      <trkpt lat="48.78002" lon="-3.23934">
        <ele>54</ele>
        <time>2014-10-05T08:21:42Z</time>
      </trkpt>
      <trkpt lat="48.78" lon="-3.23926">
        <ele>54</ele>
        <time>2014-10-05T08:21:43Z</time>
      </trkpt>
      <trkpt lat="48.77998" lon="-3.23918">
        <ele>55</ele>
        <time>2014-10-05T08:21:44Z</time>
      </trkpt>
      <trkpt lat="48.77996" lon="-3.2391">
        <ele>55</ele>
        <time>2014-10-05T08:21:45Z</time>
      </trkpt>
      <trkpt lat="48.77995" lon="-3.23902">
        <ele>56</ele>
        <time>2014-10-05T08:21:46Z</time>
      </trkpt>
      <trkpt lat="48.77994" lon="-3.23894">
        <ele>56</ele>
        <time>2014-10-05T08:21:47Z</time>
      </trkpt>
      <trkpt lat="48.77993" lon="-3.23886">
        <ele>57</ele>
        <time>2014-10-05T08:21:48Z</time>
      </trkpt>
      <trkpt lat="48.77991" lon="-3.23878">
        <ele>57</ele>
        <time>2014-10-05T08:21:49Z</time>
      </trkpt>
      <trkpt lat="48.77989" lon="-3.2387">
        <ele>57</ele>
        <time>2014-10-05T08:21:50Z</time>
      </trkpt>
      <trkpt lat="48.77987" lon="-3.23861">
        <ele>58</ele>
        <time>2014-10-05T08:21:51Z</time>
      </trkpt>
      <trkpt lat="48.77985" lon="-3.23853">
        <ele>58</ele>
        <time>2014-10-05T08:21:52Z</time>
      </trkpt>
      <trkpt lat="48.77983" lon="-3.23844">
        <ele>59</ele>
        <time>2014-10-05T08:21:53Z</time>
      </trkpt>
      <trkpt lat="48.77982" lon="-3.23836">
        <ele>59</ele>
        <time>2014-10-05T08:21:54Z</time>
      </trkpt>
      <trkpt lat="48.7798" lon="-3.23827">
        <ele>60</ele>
        <time>2014-10-05T08:21:55Z</time>
      </trkpt>
      <trkpt lat="48.77978" lon="-3.23818">
        <ele>60</ele>
        <time>2014-10-05T08:21:56Z</time>
      </trkpt>
      <trkpt lat="48.77976" lon="-3.2381">
        <ele>60</ele>
        <time>2014-10-05T08:21:57Z</time>
      </trkpt>
      <trkpt lat="48.77974" lon="-3.23801">
        <ele>61</ele>
        <time>2014-10-05T08:21:58Z</time>
      </trkpt>
      <trkpt lat="48.77972" lon="-3.23793">
        <ele>61</ele>
        <time>2014-10-05T08:21:59Z</time>
      </trkpt>
      <trkpt lat="48.77971" lon="-3.23784">
        <ele>61</ele>
        <time>2014-10-05T08:22:00Z</time>
      </trkpt>
      <trkpt lat="48.77969" lon="-3.23776">
        <ele>62</ele>
        <time>2014-10-05T08:22:01Z</time>
      </trkpt>
      <trkpt lat="48.77967" lon="-3.23767">
        <ele>62</ele>
        <time>2014-10-05T08:22:02Z</time>
      </trkpt>
      <trkpt lat="48.77965" lon="-3.23759">
        <ele>62</ele>
        <time>2014-10-05T08:22:03Z</time>
      </trkpt>
      <trkpt lat="48.77963" lon="-3.2375">
        <ele>62</ele>
        <time>2014-10-05T08:22:04Z</time>
      </trkpt>
      <trkpt lat="48.77961" lon="-3.23742">
        <ele>63</ele>
        <time>2014-10-05T08:22:05Z</time>
      </trkpt>
      <trkpt lat="48.77959" lon="-3.23733">
        <ele>63</ele>
        <time>2014-10-05T08:22:06Z</time>
      </trkpt>
      <trkpt lat="48.77956" lon="-3.23725">
        <ele>63</ele>
        <time>2014-10-05T08:22:07Z</time>
      </trkpt>
      <trkpt lat="48.77954" lon="-3.23716">
        <ele>63</ele>
        <time>2014-10-05T08:22:08Z</time>
      </trkpt>
      <trkpt lat="48.77953" lon="-3.23708">
        <ele>64</ele>
        <time>2014-10-05T08:22:09Z</time>
      </trkpt>
      <trkpt lat="48.77951" lon="-3.23699">
        <ele>64</ele>
        <time>2014-10-05T08:22:10Z</time>
      </trkpt>
      <trkpt lat="48.77949" lon="-3.23691">
        <ele>64</ele>
        <time>2014-10-05T08:22:11Z</time>
      </trkpt>
      <trkpt lat="48.77947" lon="-3.23682">
        <ele>64</ele>
        <time>2014-10-05T08:22:12Z</time>
      </trkpt>
      <trkpt lat="48.77945" lon="-3.23674">
        <ele>65</ele>
        <time>2014-10-05T08:22:13Z</time>
      </trkpt>
      <trkpt lat="48.77943" lon="-3.23665">
        <ele>65</ele>
        <time>2014-10-05T08:22:14Z</time>
      </trkpt>
      <trkpt lat="48.77942" lon="-3.23656">
        <ele>65</ele>
        <time>2014-10-05T08:22:15Z</time>
      </trkpt>
      <trkpt lat="48.7794" lon="-3.23647">
        <ele>65</ele>
        <time>2014-10-05T08:22:16Z</time>
      </trkpt>
      <trkpt lat="48.77938" lon="-3.23639">
        <ele>66</ele>
        <time>2014-10-05T08:22:17Z</time>
      </trkpt>
      <trkpt lat="48.77936" lon="-3.2363">
        <ele>66</ele>
        <time>2014-10-05T08:22:18Z</time>
      </trkpt>
      <trkpt lat="48.77934" lon="-3.23622">
        <ele>66</ele>
        <time>2014-10-05T08:22:19Z</time>
      </trkpt>
      <trkpt lat="48.77933" lon="-3.23613">
        <ele>66</ele>
        <time>2014-10-05T08:22:20Z</time>
      </trkpt>
      <trkpt lat="48.77931" lon="-3.23605">
        <ele>66</ele>
        <time>2014-10-05T08:22:21Z</time>
      </trkpt>
      <trkpt lat="48.77929" lon="-3.23597">
        <ele>67</ele>
        <time>2014-10-05T08:22:22Z</time>
      </trkpt>
      <trkpt lat="48.77927" lon="-3.23588">
        <ele>67</ele>
        <time>2014-10-05T08:22:23Z</time>
      </trkpt>
      <trkpt lat="48.77925" lon="-3.2358">
        <ele>67</ele>
        <time>2014-10-05T08:22:24Z</time>
      </trkpt>
      <trkpt lat="48.77923" lon="-3.23571">
        <ele>67</ele>
        <time>2014-10-05T08:22:25Z</time>
      </trkpt>
      <trkpt lat="48.77921" lon="-3.23563">
        <ele>68</ele>
        <time>2014-10-05T08:22:26Z</time>
      </trkpt>
      <trkpt lat="48.77919" lon="-3.23554">
        <ele>68</ele>
        <time>2014-10-05T08:22:27Z</time>
      </trkpt>
      <trkpt lat="48.77917" lon="-3.23546">
        <ele>68</ele>
        <time>2014-10-05T08:22:28Z</time>
      </trkpt>
      <trkpt lat="48.77916" lon="-3.23537">
        <ele>68</ele>
        <time>2014-10-05T08:22:29Z</time>
      </trkpt>
      <trkpt lat="48.77914" lon="-3.23529">
        <ele>68</ele>
        <time>2014-10-05T08:22:30Z</time>
      </trkpt>
      <trkpt lat="48.77912" lon="-3.2352">
        <ele>68</ele>
        <time>2014-10-05T08:22:31Z</time>
      </trkpt>
      <trkpt lat="48.7791" lon="-3.23511">
        <ele>68</ele>
        <time>2014-10-05T08:22:32Z</time>
      </trkpt>
      <trkpt lat="48.77909" lon="-3.23502">
        <ele>68</ele>
        <time>2014-10-05T08:22:33Z</time>
      </trkpt>
      <trkpt lat="48.77907" lon="-3.23492">
        <ele>68</ele>
        <time>2014-10-05T08:22:34Z</time>
      </trkpt>
      <trkpt lat="48.77905" lon="-3.23482">
        <ele>68</ele>
        <time>2014-10-05T08:22:35Z</time>
      </trkpt>
      <trkpt lat="48.77904" lon="-3.23472">
        <ele>68</ele>
        <time>2014-10-05T08:22:36Z</time>
      </trkpt>
      <trkpt lat="48.77903" lon="-3.23462">
        <ele>68</ele>
        <time>2014-10-05T08:22:37Z</time>
      </trkpt>
      <trkpt lat="48.77901" lon="-3.23451">
        <ele>68</ele>
        <time>2014-10-05T08:22:38Z</time>
      </trkpt>
      <trkpt lat="48.779" lon="-3.2344">
        <ele>68</ele>
        <time>2014-10-05T08:22:39Z</time>
      </trkpt>
      <trkpt lat="48.77899" lon="-3.23427">
        <ele>68</ele>
        <time>2014-10-05T08:22:40Z</time>
      </trkpt>
      <trkpt lat="48.77898" lon="-3.23414">
        <ele>68</ele>
        <time>2014-10-05T08:22:41Z</time>
      </trkpt>
      <trkpt lat="48.77897" lon="-3.23402">
        <ele>68</ele>
        <time>2014-10-05T08:22:42Z</time>
      </trkpt>
      <trkpt lat="48.77894" lon="-3.23392">
        <ele>68</ele>
        <time>2014-10-05T08:22:43Z</time>
      </trkpt>
      <trkpt lat="48.77888" lon="-3.23386">
        <ele>68</ele>
        <time>2014-10-05T08:22:44Z</time>
      </trkpt>
      <trkpt lat="48.77882" lon="-3.23383">
        <ele>68</ele>
        <time>2014-10-05T08:22:45Z</time>
      </trkpt>
      <trkpt lat="48.77875" lon="-3.23386">
        <ele>68</ele>
        <time>2014-10-05T08:22:46Z</time>
      </trkpt>
      <trkpt lat="48.77869" lon="-3.23391">
        <ele>68</ele>
        <time>2014-10-05T08:22:47Z</time>
      </trkpt>
      <trkpt lat="48.77862" lon="-3.23397">
        <ele>68</ele>
        <time>2014-10-05T08:22:48Z</time>
      </trkpt>
      <trkpt lat="48.77855" lon="-3.23403">
        <ele>68</ele>
        <time>2014-10-05T08:22:49Z</time>
      </trkpt>
      <trkpt lat="48.77849" lon="-3.23408">
        <ele>68</ele>
        <time>2014-10-05T08:22:50Z</time>
      </trkpt>
      <trkpt lat="48.77842" lon="-3.23414">
        <ele>68</ele>
        <time>2014-10-05T08:22:51Z</time>
      </trkpt>
      <trkpt lat="48.77835" lon="-3.2342">
        <ele>68</ele>
        <time>2014-10-05T08:22:52Z</time>
      </trkpt>
      <trkpt lat="48.77828" lon="-3.23426">
        <ele>68</ele>
        <time>2014-10-05T08:22:53Z</time>
      </trkpt>
      <trkpt lat="48.77821" lon="-3.23431">
        <ele>68</ele>
        <time>2014-10-05T08:22:54Z</time>
      </trkpt>
      <trkpt lat="48.77813" lon="-3.23437">
        <ele>68</ele>
        <time>2014-10-05T08:22:55Z</time>
      </trkpt>
      <trkpt lat="48.77805" lon="-3.23443">
        <ele>68</ele>
        <time>2014-10-05T08:22:56Z</time>
      </trkpt>
      <trkpt lat="48.77796" lon="-3.23448">
        <ele>67</ele>
        <time>2014-10-05T08:22:57Z</time>
      </trkpt>
      <trkpt lat="48.77788" lon="-3.23454">
        <ele>66</ele>
        <time>2014-10-05T08:22:58Z</time>
      </trkpt>
      <trkpt lat="48.77779" lon="-3.2346">
        <ele>66</ele>
        <time>2014-10-05T08:22:59Z</time>
      </trkpt>
      <trkpt lat="48.7777" lon="-3.23466">
        <ele>65</ele>
        <time>2014-10-05T08:23:00Z</time>
      </trkpt>
      <trkpt lat="48.77761" lon="-3.23472">
        <ele>65</ele>
        <time>2014-10-05T08:23:01Z</time>
      </trkpt>
      <trkpt lat="48.77752" lon="-3.23479">
        <ele>64</ele>
        <time>2014-10-05T08:23:02Z</time>
      </trkpt>
      <trkpt lat="48.77742" lon="-3.23485">
        <ele>64</ele>
        <time>2014-10-05T08:23:03Z</time>
      </trkpt>
      <trkpt lat="48.77733" lon="-3.23492">
        <ele>63</ele>
        <time>2014-10-05T08:23:04Z</time>
      </trkpt>
      <trkpt lat="48.77723" lon="-3.23499">
        <ele>62</ele>
        <time>2014-10-05T08:23:05Z</time>
      </trkpt>
      <trkpt lat="48.77713" lon="-3.23506">
        <ele>62</ele>
        <time>2014-10-05T08:23:06Z</time>
      </trkpt>
      <trkpt lat="48.77703" lon="-3.23513">
        <ele>61</ele>
        <time>2014-10-05T08:23:07Z</time>
      </trkpt>
      <trkpt lat="48.77692" lon="-3.2352">
        <ele>60</ele>
        <time>2014-10-05T08:23:08Z</time>
      </trkpt>
      <trkpt lat="48.77682" lon="-3.23527">
        <ele>60</ele>
        <time>2014-10-05T08:23:09Z</time>
      </trkpt>
      <trkpt lat="48.77672" lon="-3.23534">
        <ele>59</ele>
        <time>2014-10-05T08:23:10Z</time>
      </trkpt>
      <trkpt lat="48.77662" lon="-3.23541">
        <ele>58</ele>
        <time>2014-10-05T08:23:11Z</time>
      </trkpt>
      <trkpt lat="48.77651" lon="-3.23548">
        <ele>57</ele>
        <time>2014-10-05T08:23:12Z</time>
      </trkpt>
      <trkpt lat="48.77641" lon="-3.23554">
        <ele>57</ele>
        <time>2014-10-05T08:23:13Z</time>
      </trkpt>
      <trkpt lat="48.7763" lon="-3.23561">
        <ele>56</ele>
        <time>2014-10-05T08:23:14Z</time>
      </trkpt>
      <trkpt lat="48.7762" lon="-3.23568">
        <ele>56</ele>
        <time>2014-10-05T08:23:15Z</time>
      </trkpt>
      <trkpt lat="48.7761" lon="-3.23575">
        <ele>55</ele>
        <time>2014-10-05T08:23:16Z</time>
      </trkpt>
      <trkpt lat="48.776" lon="-3.23582">
        <ele>55</ele>
        <time>2014-10-05T08:23:17Z</time>
      </trkpt>
      <trkpt lat="48.7759" lon="-3.23588">
        <ele>55</ele>
        <time>2014-10-05T08:23:18Z</time>
      </trkpt>
      <trkpt lat="48.77581" lon="-3.23594">
        <ele>55</ele>
        <time>2014-10-05T08:23:19Z</time>
      </trkpt>
      <trkpt lat="48.77571" lon="-3.23601">
        <ele>54</ele>
        <time>2014-10-05T08:23:20Z</time>
      </trkpt>
      <trkpt lat="48.77562" lon="-3.23607">
        <ele>54</ele>
        <time>2014-10-05T08:23:21Z</time>
      </trkpt>
      <trkpt lat="48.77552" lon="-3.23614">
        <ele>53</ele>
        <time>2014-10-05T08:23:22Z</time>
      </trkpt>
      <trkpt lat="48.77541" lon="-3.23621">
        <ele>53</ele>
        <time>2014-10-05T08:23:23Z</time>
      </trkpt>
      <trkpt lat="48.77531" lon="-3.23628">
        <ele>52</ele>
        <time>2014-10-05T08:23:24Z</time>
      </trkpt>
      <trkpt lat="48.77521" lon="-3.23635">
        <ele>52</ele>
        <time>2014-10-05T08:23:25Z</time>
      </trkpt>
      <trkpt lat="48.77511" lon="-3.23642">
        <ele>52</ele>
        <time>2014-10-05T08:23:26Z</time>
      </trkpt>
      <trkpt lat="48.77501" lon="-3.23649">
        <ele>52</ele>
        <time>2014-10-05T08:23:27Z</time>
      </trkpt>
      <trkpt lat="48.77491" lon="-3.23656">
        <ele>51</ele>
        <time>2014-10-05T08:23:28Z</time>
      </trkpt>
      <trkpt lat="48.77481" lon="-3.23662">
        <ele>51</ele>
        <time>2014-10-05T08:23:29Z</time>
      </trkpt>
      <trkpt lat="48.77471" lon="-3.23669">
        <ele>50</ele>
        <time>2014-10-05T08:23:30Z</time>
      </trkpt>
      <trkpt lat="48.77461" lon="-3.23675">
        <ele>50</ele>
        <time>2014-10-05T08:23:31Z</time>
      </trkpt>
      <trkpt lat="48.77452" lon="-3.23682">
        <ele>50</ele>
        <time>2014-10-05T08:23:32Z</time>
      </trkpt>
      <trkpt lat="48.77442" lon="-3.23688">
        <ele>49</ele>
        <time>2014-10-05T08:23:33Z</time>
      </trkpt>
      <trkpt lat="48.77432" lon="-3.23695">
        <ele>49</ele>
        <time>2014-10-05T08:23:34Z</time>
      </trkpt>
      <trkpt lat="48.77422" lon="-3.23702">
        <ele>49</ele>
        <time>2014-10-05T08:23:35Z</time>
      </trkpt>
      <trkpt lat="48.77412" lon="-3.23708">
        <ele>48</ele>
        <time>2014-10-05T08:23:36Z</time>
      </trkpt>
      <trkpt lat="48.77402" lon="-3.23715">
        <ele>48</ele>
        <time>2014-10-05T08:23:37Z</time>
      </trkpt>
      <trkpt lat="48.77393" lon="-3.23721">
        <ele>48</ele>
        <time>2014-10-05T08:23:38Z</time>
      </trkpt>
      <trkpt lat="48.77383" lon="-3.23728">
        <ele>47</ele>
        <time>2014-10-05T08:23:39Z</time>
      </trkpt>
      <trkpt lat="48.77373" lon="-3.23734">
        <ele>47</ele>
        <time>2014-10-05T08:23:40Z</time>
      </trkpt>
      <trkpt lat="48.77364" lon="-3.23741">
        <ele>46</ele>
        <time>2014-10-05T08:23:41Z</time>
      </trkpt>
      <trkpt lat="48.77354" lon="-3.23747">
        <ele>46</ele>
        <time>2014-10-05T08:23:42Z</time>
      </trkpt>
      <trkpt lat="48.77345" lon="-3.23753">
        <ele>46</ele>
        <time>2014-10-05T08:23:43Z</time>
      </trkpt>
      <trkpt lat="48.77336" lon="-3.23759">
        <ele>45</ele>
        <time>2014-10-05T08:23:44Z</time>
      </trkpt>
      <trkpt lat="48.77327" lon="-3.23764">
        <ele>45</ele>
        <time>2014-10-05T08:23:45Z</time>
      </trkpt>
      <trkpt lat="48.77319" lon="-3.2377">
        <ele>45</ele>
        <time>2014-10-05T08:23:46Z</time>
      </trkpt>
      <trkpt lat="48.7731" lon="-3.23777">
        <ele>45</ele>
        <time>2014-10-05T08:23:47Z</time>
      </trkpt>
      <trkpt lat="48.77303" lon="-3.23785">
        <ele>45</ele>
        <time>2014-10-05T08:23:48Z</time>
      </trkpt>
      <trkpt lat="48.77297" lon="-3.23795">
        <ele>44</ele>
        <time>2014-10-05T08:23:49Z</time>
      </trkpt>
      <trkpt lat="48.77291" lon="-3.23804">
        <ele>44</ele>
        <time>2014-10-05T08:23:50Z</time>
      </trkpt>
      <trkpt lat="48.77285" lon="-3.23813">
        <ele>44</ele>
        <time>2014-10-05T08:23:51Z</time>
      </trkpt>
      <trkpt lat="48.77278" lon="-3.23817">
        <ele>44</ele>
        <time>2014-10-05T08:23:52Z</time>
      </trkpt>
      <trkpt lat="48.7727" lon="-3.23819">
        <ele>44</ele>
        <time>2014-10-05T08:23:53Z</time>
      </trkpt>
      <trkpt lat="48.77261" lon="-3.23819">
        <ele>43</ele>
        <time>2014-10-05T08:23:54Z</time>
      </trkpt>
      <trkpt lat="48.77253" lon="-3.23818">
        <ele>43</ele>
        <time>2014-10-05T08:23:55Z</time>
      </trkpt>
      <trkpt lat="48.77244" lon="-3.23821">
        <ele>43</ele>
        <time>2014-10-05T08:23:56Z</time>
      </trkpt>
      <trkpt lat="48.77235" lon="-3.23825">
        <ele>43</ele>
        <time>2014-10-05T08:23:57Z</time>
      </trkpt>
      <trkpt lat="48.77225" lon="-3.23831">
        <ele>42</ele>
        <time>2014-10-05T08:23:58Z</time>
      </trkpt>
      <trkpt lat="48.77216" lon="-3.23837">
        <ele>42</ele>
        <time>2014-10-05T08:23:59Z</time>
      </trkpt>
      <trkpt lat="48.77207" lon="-3.23843">
        <ele>41</ele>
        <time>2014-10-05T08:24:00Z</time>
      </trkpt>
      <trkpt lat="48.77198" lon="-3.2385">
        <ele>41</ele>
        <time>2014-10-05T08:24:01Z</time>
      </trkpt>
      <trkpt lat="48.77188" lon="-3.23856">
        <ele>40</ele>
        <time>2014-10-05T08:24:02Z</time>
      </trkpt>
      <trkpt lat="48.77179" lon="-3.23862">
        <ele>40</ele>
        <time>2014-10-05T08:24:03Z</time>
      </trkpt>
      <trkpt lat="48.77169" lon="-3.23868">
        <ele>40</ele>
        <time>2014-10-05T08:24:04Z</time>
      </trkpt>
      <trkpt lat="48.7716" lon="-3.23874">
        <ele>39</ele>
        <time>2014-10-05T08:24:05Z</time>
      </trkpt>
      <trkpt lat="48.77151" lon="-3.2388">
        <ele>39</ele>
        <time>2014-10-05T08:24:06Z</time>
      </trkpt>
      <trkpt lat="48.77142" lon="-3.23886">
        <ele>39</ele>
        <time>2014-10-05T08:24:07Z</time>
      </trkpt>
      <trkpt lat="48.77133" lon="-3.23893">
        <ele>38</ele>
        <time>2014-10-05T08:24:08Z</time>
      </trkpt>
      <trkpt lat="48.77124" lon="-3.23899">
        <ele>38</ele>
        <time>2014-10-05T08:24:09Z</time>
      </trkpt>
      <trkpt lat="48.77115" lon="-3.23905">
        <ele>38</ele>
        <time>2014-10-05T08:24:10Z</time>
      </trkpt>
      <trkpt lat="48.77106" lon="-3.23911">
        <ele>37</ele>
        <time>2014-10-05T08:24:11Z</time>
      </trkpt>
      <trkpt lat="48.77097" lon="-3.23917">
        <ele>37</ele>
        <time>2014-10-05T08:24:12Z</time>
      </trkpt>
      <trkpt lat="48.77088" lon="-3.23923">
        <ele>37</ele>
        <time>2014-10-05T08:24:13Z</time>
      </trkpt>
      <trkpt lat="48.77079" lon="-3.2393">
        <ele>36</ele>
        <time>2014-10-05T08:24:14Z</time>
      </trkpt>
      <trkpt lat="48.77069" lon="-3.23936">
        <ele>36</ele>
        <time>2014-10-05T08:24:15Z</time>
      </trkpt>
      <trkpt lat="48.7706" lon="-3.23942">
        <ele>36</ele>
        <time>2014-10-05T08:24:16Z</time>
      </trkpt>
      <trkpt lat="48.77051" lon="-3.23949">
        <ele>36</ele>
        <time>2014-10-05T08:24:17Z</time>
      </trkpt>
      <trkpt lat="48.77041" lon="-3.23956">
        <ele>36</ele>
        <time>2014-10-05T08:24:18Z</time>
      </trkpt>
      <trkpt lat="48.77032" lon="-3.23963">
        <ele>36</ele>
        <time>2014-10-05T08:24:19Z</time>
      </trkpt>
      <trkpt lat="48.77022" lon="-3.2397">
        <ele>35</ele>
        <time>2014-10-05T08:24:20Z</time>
      </trkpt>
      <trkpt lat="48.77013" lon="-3.23977">
        <ele>35</ele>
        <time>2014-10-05T08:24:21Z</time>
      </trkpt>
      <trkpt lat="48.77003" lon="-3.23985">
        <ele>35</ele>
        <time>2014-10-05T08:24:22Z</time>
      </trkpt>
      <trkpt lat="48.76994" lon="-3.23992">
        <ele>35</ele>
        <time>2014-10-05T08:24:23Z</time>
      </trkpt>
      <trkpt lat="48.76985" lon="-3.23999">
        <ele>35</ele>
        <time>2014-10-05T08:24:24Z</time>
      </trkpt>
      <trkpt lat="48.76976" lon="-3.24007">
        <ele>35</ele>
        <time>2014-10-05T08:24:25Z</time>
      </trkpt>
      <trkpt lat="48.76967" lon="-3.24015">
        <ele>35</ele>
        <time>2014-10-05T08:24:26Z</time>
      </trkpt>
      <trkpt lat="48.76958" lon="-3.24023">
        <ele>35</ele>
        <time>2014-10-05T08:24:27Z</time>
      </trkpt>
      <trkpt lat="48.76949" lon="-3.24031">
        <ele>35</ele>
        <time>2014-10-05T08:24:28Z</time>
      </trkpt>
      <trkpt lat="48.76941" lon="-3.2404">
        <ele>35</ele>
        <time>2014-10-05T08:24:29Z</time>
      </trkpt>
      <trkpt lat="48.76932" lon="-3.24048">
        <ele>34</ele>
        <time>2014-10-05T08:24:30Z</time>
      </trkpt>
      <trkpt lat="48.76923" lon="-3.24057">
        <ele>34</ele>
        <time>2014-10-05T08:24:31Z</time>
      </trkpt>
      <trkpt lat="48.76914" lon="-3.24065">
        <ele>34</ele>
        <time>2014-10-05T08:24:32Z</time>
      </trkpt>
      <trkpt lat="48.76905" lon="-3.24074">
        <ele>34</ele>
        <time>2014-10-05T08:24:33Z</time>
      </trkpt>
      <trkpt lat="48.76897" lon="-3.24083">
        <ele>34</ele>
        <time>2014-10-05T08:24:34Z</time>
      </trkpt>
      <trkpt lat="48.76888" lon="-3.24092">
        <ele>34</ele>
        <time>2014-10-05T08:24:35Z</time>
      </trkpt>
      <trkpt lat="48.7688" lon="-3.24101">
        <ele>34</ele>
        <time>2014-10-05T08:24:36Z</time>
      </trkpt>
      <trkpt lat="48.76871" lon="-3.2411">
        <ele>34</ele>
        <time>2014-10-05T08:24:37Z</time>
      </trkpt>
      <trkpt lat="48.76863" lon="-3.24119">
        <ele>34</ele>
        <time>2014-10-05T08:24:38Z</time>
      </trkpt>
      <trkpt lat="48.76855" lon="-3.24128">
        <ele>34</ele>
        <time>2014-10-05T08:24:39Z</time>
      </trkpt>
      <trkpt lat="48.76847" lon="-3.24137">
        <ele>34</ele>
        <time>2014-10-05T08:24:40Z</time>
      </trkpt>
      <trkpt lat="48.7684" lon="-3.24147">
        <ele>34</ele>
        <time>2014-10-05T08:24:41Z</time>
      </trkpt>
      <trkpt lat="48.76832" lon="-3.24155">
        <ele>34</ele>
        <time>2014-10-05T08:24:42Z</time>
      </trkpt>
      <trkpt lat="48.76824" lon="-3.24165">
        <ele>34</ele>
        <time>2014-10-05T08:24:43Z</time>
      </trkpt>
      <trkpt lat="48.76817" lon="-3.24174">
        <ele>34</ele>
        <time>2014-10-05T08:24:44Z</time>
      </trkpt>
      <trkpt lat="48.76809" lon="-3.24183">
        <ele>34</ele>
        <time>2014-10-05T08:24:45Z</time>
      </trkpt>
      <trkpt lat="48.76802" lon="-3.24193">
        <ele>34</ele>
        <time>2014-10-05T08:24:46Z</time>
      </trkpt>
      <trkpt lat="48.76795" lon="-3.24202">
        <ele>34</ele>
        <time>2014-10-05T08:24:47Z</time>
      </trkpt>
      <trkpt lat="48.76788" lon="-3.24212">
        <ele>34</ele>
        <time>2014-10-05T08:24:48Z</time>
      </trkpt>
      <trkpt lat="48.7678" lon="-3.24221">
        <ele>34</ele>
        <time>2014-10-05T08:24:49Z</time>
      </trkpt>
      <trkpt lat="48.76773" lon="-3.24231">
        <ele>34</ele>
        <time>2014-10-05T08:24:50Z</time>
      </trkpt>
      <trkpt lat="48.76766" lon="-3.24241">
        <ele>34</ele>
        <time>2014-10-05T08:24:51Z</time>
      </trkpt>
      <trkpt lat="48.76759" lon="-3.2425">
        <ele>34</ele>
        <time>2014-10-05T08:24:52Z</time>
      </trkpt>
      <trkpt lat="48.76751" lon="-3.24259">
        <ele>34</ele>
        <time>2014-10-05T08:24:53Z</time>
      </trkpt>
      <trkpt lat="48.76744" lon="-3.24268">
        <ele>34</ele>
        <time>2014-10-05T08:24:54Z</time>
      </trkpt>
      <trkpt lat="48.76737" lon="-3.24277">
        <ele>34</ele>
        <time>2014-10-05T08:24:55Z</time>
      </trkpt>
      <trkpt lat="48.7673" lon="-3.24286">
        <ele>34</ele>
        <time>2014-10-05T08:24:56Z</time>
      </trkpt>
      <trkpt lat="48.76722" lon="-3.24295">
        <ele>34</ele>
        <time>2014-10-05T08:24:57Z</time>
      </trkpt>
      <trkpt lat="48.76715" lon="-3.24305">
        <ele>34</ele>
        <time>2014-10-05T08:24:58Z</time>
      </trkpt>
      <trkpt lat="48.76708" lon="-3.24314">
        <ele>34</ele>
        <time>2014-10-05T08:24:59Z</time>
      </trkpt>
      <trkpt lat="48.76701" lon="-3.24324">
        <ele>34</ele>
        <time>2014-10-05T08:25:00Z</time>
      </trkpt>
      <trkpt lat="48.76693" lon="-3.24334">
        <ele>34</ele>
        <time>2014-10-05T08:25:01Z</time>
      </trkpt>
      <trkpt lat="48.76686" lon="-3.24343">
        <ele>34</ele>
        <time>2014-10-05T08:25:02Z</time>
      </trkpt>
      <trkpt lat="48.76678" lon="-3.24353">
        <ele>34</ele>
        <time>2014-10-05T08:25:03Z</time>
      </trkpt>
      <trkpt lat="48.76671" lon="-3.24362">
        <ele>34</ele>
        <time>2014-10-05T08:25:04Z</time>
      </trkpt>
      <trkpt lat="48.76664" lon="-3.24371">
        <ele>34</ele>
        <time>2014-10-05T08:25:05Z</time>
      </trkpt>
      <trkpt lat="48.76656" lon="-3.24381">
        <ele>34</ele>
        <time>2014-10-05T08:25:06Z</time>
      </trkpt>
      <trkpt lat="48.76649" lon="-3.2439">
        <ele>34</ele>
        <time>2014-10-05T08:25:07Z</time>
      </trkpt>
      <trkpt lat="48.76641" lon="-3.244">
        <ele>34</ele>
        <time>2014-10-05T08:25:08Z</time>
      </trkpt>
      <trkpt lat="48.76634" lon="-3.2441">
        <ele>33</ele>
        <time>2014-10-05T08:25:09Z</time>
      </trkpt>
      <trkpt lat="48.76626" lon="-3.24419">
        <ele>33</ele>
        <time>2014-10-05T08:25:10Z</time>
      </trkpt>
      <trkpt lat="48.76619" lon="-3.24429">
        <ele>33</ele>
        <time>2014-10-05T08:25:11Z</time>
      </trkpt>
      <trkpt lat="48.76611" lon="-3.24438">
        <ele>33</ele>
        <time>2014-10-05T08:25:12Z</time>
      </trkpt>
      <trkpt lat="48.76604" lon="-3.24447">
        <ele>33</ele>
        <time>2014-10-05T08:25:13Z</time>
      </trkpt>
      <trkpt lat="48.76596" lon="-3.24456">
        <ele>33</ele>
        <time>2014-10-05T08:25:14Z</time>
      </trkpt>
      <trkpt lat="48.7659" lon="-3.24465">
        <ele>33</ele>
        <time>2014-10-05T08:25:15Z</time>
      </trkpt>
      <trkpt lat="48.76583" lon="-3.24475">
        <ele>33</ele>
        <time>2014-10-05T08:25:16Z</time>
      </trkpt>
      <trkpt lat="48.76575" lon="-3.24484">
        <ele>33</ele>
        <time>2014-10-05T08:25:17Z</time>
      </trkpt>
      <trkpt lat="48.76568" lon="-3.24493">
        <ele>33</ele>
        <time>2014-10-05T08:25:18Z</time>
      </trkpt>
      <trkpt lat="48.76561" lon="-3.24501">
        <ele>33</ele>
        <time>2014-10-05T08:25:19Z</time>
      </trkpt>
      <trkpt lat="48.76554" lon="-3.2451">
        <ele>33</ele>
        <time>2014-10-05T08:25:20Z</time>
      </trkpt>
      <trkpt lat="48.76548" lon="-3.24518">
        <ele>33</ele>
        <time>2014-10-05T08:25:21Z</time>
      </trkpt>
      <trkpt lat="48.76541" lon="-3.24527">
        <ele>33</ele>
        <time>2014-10-05T08:25:22Z</time>
      </trkpt>
      <trkpt lat="48.76534" lon="-3.24535">
        <ele>33</ele>
        <time>2014-10-05T08:25:23Z</time>
      </trkpt>
      <trkpt lat="48.76528" lon="-3.24544">
        <ele>33</ele>
        <time>2014-10-05T08:25:24Z</time>
      </trkpt>
      <trkpt lat="48.76521" lon="-3.24553">
        <ele>33</ele>
        <time>2014-10-05T08:25:25Z</time>
      </trkpt>
      <trkpt lat="48.76515" lon="-3.24562">
        <ele>33</ele>
        <time>2014-10-05T08:25:26Z</time>
      </trkpt>
      <trkpt lat="48.76508" lon="-3.2457">
        <ele>33</ele>
        <time>2014-10-05T08:25:27Z</time>
      </trkpt>
      <trkpt lat="48.76501" lon="-3.2458">
        <ele>33</ele>
        <time>2014-10-05T08:25:28Z</time>
      </trkpt>
      <trkpt lat="48.76494" lon="-3.24588">
        <ele>32</ele>
        <time>2014-10-05T08:25:29Z</time>
      </trkpt>
      <trkpt lat="48.76487" lon="-3.24597">
        <ele>32</ele>
        <time>2014-10-05T08:25:30Z</time>
      </trkpt>
      <trkpt lat="48.7648" lon="-3.24606">
        <ele>32</ele>
        <time>2014-10-05T08:25:31Z</time>
      </trkpt>
      <trkpt lat="48.76473" lon="-3.24616">
        <ele>32</ele>
        <time>2014-10-05T08:25:32Z</time>
      </trkpt>
      <trkpt lat="48.76465" lon="-3.24625">
        <ele>32</ele>
        <time>2014-10-05T08:25:33Z</time>
      </trkpt>
      <trkpt lat="48.76458" lon="-3.24634">
        <ele>32</ele>
        <time>2014-10-05T08:25:34Z</time>
      </trkpt>
      <trkpt lat="48.76451" lon="-3.24643">
        <ele>32</ele>
        <time>2014-10-05T08:25:35Z</time>
      </trkpt>
      <trkpt lat="48.76443" lon="-3.24653">
        <ele>32</ele>
        <time>2014-10-05T08:25:36Z</time>
      </trkpt>
      <trkpt lat="48.76436" lon="-3.24662">
        <ele>32</ele>
        <time>2014-10-05T08:25:37Z</time>
      </trkpt>
      <trkpt lat="48.76429" lon="-3.24672">
        <ele>32</ele>
        <time>2014-10-05T08:25:38Z</time>
      </trkpt>
      <trkpt lat="48.76421" lon="-3.24681">
        <ele>32</ele>
        <time>2014-10-05T08:25:39Z</time>
      </trkpt>
      <trkpt lat="48.76414" lon="-3.24691">
        <ele>32</ele>
        <time>2014-10-05T08:25:40Z</time>
      </trkpt>
      <trkpt lat="48.76406" lon="-3.247">
        <ele>32</ele>
        <time>2014-10-05T08:25:41Z</time>
      </trkpt>
      <trkpt lat="48.76399" lon="-3.2471">
        <ele>32</ele>
        <time>2014-10-05T08:25:42Z</time>
      </trkpt>
      <trkpt lat="48.76392" lon="-3.24719">
        <ele>32</ele>
        <time>2014-10-05T08:25:43Z</time>
      </trkpt>
      <trkpt lat="48.76384" lon="-3.24728">
        <ele>32</ele>
        <time>2014-10-05T08:25:44Z</time>
      </trkpt>
      <trkpt lat="48.76376" lon="-3.24738">
        <ele>32</ele>
        <time>2014-10-05T08:25:45Z</time>
      </trkpt>
      <trkpt lat="48.76369" lon="-3.24748">
        <ele>32</ele>
        <time>2014-10-05T08:25:46Z</time>
      </trkpt>
      <trkpt lat="48.76361" lon="-3.24758">
        <ele>32</ele>
        <time>2014-10-05T08:25:47Z</time>
      </trkpt>
      <trkpt lat="48.76354" lon="-3.24767">
        <ele>32</ele>
        <time>2014-10-05T08:25:48Z</time>
      </trkpt>
      <trkpt lat="48.76347" lon="-3.24777">
        <ele>32</ele>
        <time>2014-10-05T08:25:49Z</time>
      </trkpt>
      <trkpt lat="48.76339" lon="-3.24786">
        <ele>32</ele>
        <time>2014-10-05T08:25:50Z</time>
      </trkpt>
      <trkpt lat="48.76332" lon="-3.24795">
        <ele>32</ele>
        <time>2014-10-05T08:25:51Z</time>
      </trkpt>
      <trkpt lat="48.76325" lon="-3.24804">
        <ele>32</ele>
        <time>2014-10-05T08:25:52Z</time>
      </trkpt>
      <trkpt lat="48.76318" lon="-3.24813">
        <ele>31</ele>
        <time>2014-10-05T08:25:53Z</time>
      </trkpt>
      <trkpt lat="48.76311" lon="-3.24822">
        <ele>31</ele>
        <time>2014-10-05T08:25:54Z</time>
      </trkpt>
      <trkpt lat="48.76303" lon="-3.24832">
        <ele>31</ele>
        <time>2014-10-05T08:25:55Z</time>
      </trkpt>
      <trkpt lat="48.76296" lon="-3.24841">
        <ele>31</ele>
        <time>2014-10-05T08:25:56Z</time>
      </trkpt>
      <trkpt lat="48.76288" lon="-3.24851">
        <ele>31</ele>
        <time>2014-10-05T08:25:57Z</time>
      </trkpt>
      <trkpt lat="48.76281" lon="-3.2486">
        <ele>31</ele>
        <time>2014-10-05T08:25:58Z</time>
      </trkpt>
      <trkpt lat="48.76273" lon="-3.2487">
        <ele>31</ele>
        <time>2014-10-05T08:25:59Z</time>
      </trkpt>
      <trkpt lat="48.76266" lon="-3.24879">
        <ele>31</ele>
        <time>2014-10-05T08:26:00Z</time>
      </trkpt>
      <trkpt lat="48.76258" lon="-3.24888">
        <ele>31</ele>
        <time>2014-10-05T08:26:01Z</time>
      </trkpt>
      <trkpt lat="48.76251" lon="-3.24898">
        <ele>31</ele>
        <time>2014-10-05T08:26:02Z</time>
      </trkpt>
      <trkpt lat="48.76244" lon="-3.24907">
        <ele>31</ele>
        <time>2014-10-05T08:26:03Z</time>
      </trkpt>
      <trkpt lat="48.76236" lon="-3.24917">
        <ele>31</ele>
        <time>2014-10-05T08:26:04Z</time>
      </trkpt>
      <trkpt lat="48.76229" lon="-3.24927">
        <ele>31</ele>
        <time>2014-10-05T08:26:05Z</time>
      </trkpt>
      <trkpt lat="48.76221" lon="-3.24937">
        <ele>31</ele>
        <time>2014-10-05T08:26:06Z</time>
      </trkpt>
      <trkpt lat="48.76214" lon="-3.24947">
        <ele>30</ele>
        <time>2014-10-05T08:26:07Z</time>
      </trkpt>
      <trkpt lat="48.76207" lon="-3.24956">
        <ele>30</ele>
        <time>2014-10-05T08:26:08Z</time>
      </trkpt>
      <trkpt lat="48.76199" lon="-3.24966">
        <ele>30</ele>
        <time>2014-10-05T08:26:09Z</time>
      </trkpt>
      <trkpt lat="48.76192" lon="-3.24975">
        <ele>30</ele>
        <time>2014-10-05T08:26:10Z</time>
      </trkpt>
      <trkpt lat="48.76185" lon="-3.24984">
        <ele>30</ele>
        <time>2014-10-05T08:26:11Z</time>
      </trkpt>
      <trkpt lat="48.76178" lon="-3.24993">
        <ele>30</ele>
        <time>2014-10-05T08:26:12Z</time>
      </trkpt>
      <trkpt lat="48.7617" lon="-3.25003">
        <ele>30</ele>
        <time>2014-10-05T08:26:13Z</time>
      </trkpt>
      <trkpt lat="48.76163" lon="-3.25012">
        <ele>30</ele>
        <time>2014-10-05T08:26:14Z</time>
      </trkpt>
      <trkpt lat="48.76155" lon="-3.25021">
        <ele>30</ele>
        <time>2014-10-05T08:26:15Z</time>
      </trkpt>
      <trkpt lat="48.76147" lon="-3.25031">
        <ele>30</ele>
        <time>2014-10-05T08:26:16Z</time>
      </trkpt>
      <trkpt lat="48.7614" lon="-3.25041">
        <ele>30</ele>
        <time>2014-10-05T08:26:17Z</time>
      </trkpt>
      <trkpt lat="48.76132" lon="-3.2505">
        <ele>30</ele>
        <time>2014-10-05T08:26:18Z</time>
      </trkpt>
      <trkpt lat="48.76124" lon="-3.2506">
        <ele>29</ele>
        <time>2014-10-05T08:26:19Z</time>
      </trkpt>
      <trkpt lat="48.76117" lon="-3.2507">
        <ele>29</ele>
        <time>2014-10-05T08:26:20Z</time>
      </trkpt>
      <trkpt lat="48.76109" lon="-3.2508">
        <ele>29</ele>
        <time>2014-10-05T08:26:21Z</time>
      </trkpt>
      <trkpt lat="48.76102" lon="-3.2509">
        <ele>29</ele>
        <time>2014-10-05T08:26:22Z</time>
      </trkpt>
      <trkpt lat="48.76094" lon="-3.251">
        <ele>28</ele>
        <time>2014-10-05T08:26:23Z</time>
      </trkpt>
      <trkpt lat="48.76086" lon="-3.2511">
        <ele>28</ele>
        <time>2014-10-05T08:26:24Z</time>
      </trkpt>
      <trkpt lat="48.76078" lon="-3.25119">
        <ele>28</ele>
        <time>2014-10-05T08:26:25Z</time>
      </trkpt>
      <trkpt lat="48.7607" lon="-3.25129">
        <ele>28</ele>
        <time>2014-10-05T08:26:26Z</time>
      </trkpt>
      <trkpt lat="48.76062" lon="-3.25139">
        <ele>27</ele>
        <time>2014-10-05T08:26:27Z</time>
      </trkpt>
      <trkpt lat="48.76055" lon="-3.25149">
        <ele>27</ele>
        <time>2014-10-05T08:26:28Z</time>
      </trkpt>
      <trkpt lat="48.76047" lon="-3.2516">
        <ele>27</ele>
        <time>2014-10-05T08:26:29Z</time>
      </trkpt>
      <trkpt lat="48.76039" lon="-3.2517">
        <ele>27</ele>
        <time>2014-10-05T08:26:30Z</time>
      </trkpt>
      <trkpt lat="48.7603" lon="-3.2518">
        <ele>26</ele>
        <time>2014-10-05T08:26:31Z</time>
      </trkpt>
      <trkpt lat="48.76022" lon="-3.2519">
        <ele>26</ele>
        <time>2014-10-05T08:26:32Z</time>
      </trkpt>
      <trkpt lat="48.76014" lon="-3.252">
        <ele>25</ele>
        <time>2014-10-05T08:26:33Z</time>
      </trkpt>
      <trkpt lat="48.76006" lon="-3.25211">
        <ele>25</ele>
        <time>2014-10-05T08:26:34Z</time>
      </trkpt>
      <trkpt lat="48.75998" lon="-3.25222">
        <ele>25</ele>
        <time>2014-10-05T08:26:35Z</time>
      </trkpt>
      <trkpt lat="48.75991" lon="-3.25233">
        <ele>24</ele>
        <time>2014-10-05T08:26:36Z</time>
      </trkpt>
      <trkpt lat="48.75984" lon="-3.25245">
        <ele>24</ele>
        <time>2014-10-05T08:26:37Z</time>
      </trkpt>
      <trkpt lat="48.75977" lon="-3.25258">
        <ele>24</ele>
        <time>2014-10-05T08:26:38Z</time>
      </trkpt>
      <trkpt lat="48.7597" lon="-3.25271">
        <ele>23</ele>
        <time>2014-10-05T08:26:39Z</time>
      </trkpt>
      <trkpt lat="48.75964" lon="-3.25285">
        <ele>23</ele>
        <time>2014-10-05T08:26:40Z</time>
      </trkpt>
      <trkpt lat="48.75959" lon="-3.25299">
        <ele>22</ele>
        <time>2014-10-05T08:26:41Z</time>
      </trkpt>
      <trkpt lat="48.75953" lon="-3.25313">
        <ele>22</ele>
        <time>2014-10-05T08:26:42Z</time>
      </trkpt>
      <trkpt lat="48.75948" lon="-3.25328">
        <ele>21</ele>
        <time>2014-10-05T08:26:43Z</time>
      </trkpt>
      <trkpt lat="48.75943" lon="-3.25344">
        <ele>21</ele>
        <time>2014-10-05T08:26:44Z</time>
      </trkpt>
      <trkpt lat="48.75939" lon="-3.25359">
        <ele>20</ele>
        <time>2014-10-05T08:26:45Z</time>
      </trkpt>
      <trkpt lat="48.75935" lon="-3.25375">
        <ele>20</ele>
        <time>2014-10-05T08:26:46Z</time>
      </trkpt>
      <trkpt lat="48.75932" lon="-3.25391">
        <ele>19</ele>
        <time>2014-10-05T08:26:47Z</time>
      </trkpt>
      <trkpt lat="48.7593" lon="-3.25407">
        <ele>19</ele>
        <time>2014-10-05T08:26:48Z</time>
      </trkpt>
      <trkpt lat="48.75927" lon="-3.25424">
        <ele>18</ele>
        <time>2014-10-05T08:26:49Z</time>
      </trkpt>
      <trkpt lat="48.75924" lon="-3.25441">
        <ele>18</ele>
        <time>2014-10-05T08:26:50Z</time>
      </trkpt>
      <trkpt lat="48.7592" lon="-3.25457">
        <ele>17</ele>
        <time>2014-10-05T08:26:51Z</time>
      </trkpt>
      <trkpt lat="48.75917" lon="-3.25474">
        <ele>17</ele>
        <time>2014-10-05T08:26:52Z</time>
      </trkpt>
      <trkpt lat="48.75913" lon="-3.25491">
        <ele>16</ele>
        <time>2014-10-05T08:26:53Z</time>
      </trkpt>
      <trkpt lat="48.7591" lon="-3.25508">
        <ele>16</ele>
        <time>2014-10-05T08:26:54Z</time>
      </trkpt>
      <trkpt lat="48.75906" lon="-3.25524">
        <ele>15</ele>
        <time>2014-10-05T08:26:55Z</time>
      </trkpt>
      <trkpt lat="48.75903" lon="-3.25541">
        <ele>15</ele>
        <time>2014-10-05T08:26:56Z</time>
      </trkpt>
      <trkpt lat="48.759" lon="-3.25557">
        <ele>15</ele>
        <time>2014-10-05T08:26:57Z</time>
      </trkpt>
      <trkpt lat="48.75896" lon="-3.25573">
        <ele>14</ele>
        <time>2014-10-05T08:26:58Z</time>
      </trkpt>
      <trkpt lat="48.75892" lon="-3.25589">
        <ele>14</ele>
        <time>2014-10-05T08:26:59Z</time>
      </trkpt>
      <trkpt lat="48.75888" lon="-3.25604">
        <ele>13</ele>
        <time>2014-10-05T08:27:00Z</time>
      </trkpt>
      <trkpt lat="48.75884" lon="-3.25619">
        <ele>13</ele>
        <time>2014-10-05T08:27:01Z</time>
      </trkpt>
      <trkpt lat="48.7588" lon="-3.25634">
        <ele>13</ele>
        <time>2014-10-05T08:27:02Z</time>
      </trkpt>
      <trkpt lat="48.75875" lon="-3.25648">
        <ele>13</ele>
        <time>2014-10-05T08:27:03Z</time>
      </trkpt>
      <trkpt lat="48.75872" lon="-3.25661">
        <ele>13</ele>
        <time>2014-10-05T08:27:04Z</time>
      </trkpt>
      <trkpt lat="48.75868" lon="-3.25675">
        <ele>13</ele>
        <time>2014-10-05T08:27:05Z</time>
      </trkpt>
      <trkpt lat="48.75864" lon="-3.25688">
        <ele>13</ele>
        <time>2014-10-05T08:27:06Z</time>
      </trkpt>
      <trkpt lat="48.7586" lon="-3.25701">
        <ele>13</ele>
        <time>2014-10-05T08:27:07Z</time>
      </trkpt>
      <trkpt lat="48.75856" lon="-3.25714">
        <ele>13</ele>
        <time>2014-10-05T08:27:08Z</time>
      </trkpt>
      <trkpt lat="48.75853" lon="-3.25727">
        <ele>13</ele>
        <time>2014-10-05T08:27:09Z</time>
      </trkpt>
      <trkpt lat="48.75848" lon="-3.2574">
        <ele>13</ele>
        <time>2014-10-05T08:27:10Z</time>
      </trkpt>
      <trkpt lat="48.75844" lon="-3.25752">
        <ele>13</ele>
        <time>2014-10-05T08:27:11Z</time>
      </trkpt>
      <trkpt lat="48.75841" lon="-3.25765">
        <ele>13</ele>
        <time>2014-10-05T08:27:12Z</time>
      </trkpt>
      <trkpt lat="48.75837" lon="-3.25777">
        <ele>13</ele>
        <time>2014-10-05T08:27:13Z</time>
      </trkpt>
      <trkpt lat="48.75833" lon="-3.25789">
        <ele>13</ele>
        <time>2014-10-05T08:27:14Z</time>
      </trkpt>
      <trkpt lat="48.7583" lon="-3.25802">
        <ele>13</ele>
        <time>2014-10-05T08:27:15Z</time>
      </trkpt>
      <trkpt lat="48.75826" lon="-3.25814">
        <ele>13</ele>
        <time>2014-10-05T08:27:16Z</time>
      </trkpt>
      <trkpt lat="48.75823" lon="-3.25826">
        <ele>13</ele>
        <time>2014-10-05T08:27:17Z</time>
      </trkpt>
      <trkpt lat="48.75819" lon="-3.25839">
        <ele>13</ele>
        <time>2014-10-05T08:27:18Z</time>
      </trkpt>
      <trkpt lat="48.75816" lon="-3.25852">
        <ele>13</ele>
        <time>2014-10-05T08:27:19Z</time>
      </trkpt>
      <trkpt lat="48.75812" lon="-3.25864">
        <ele>13</ele>
        <time>2014-10-05T08:27:20Z</time>
      </trkpt>
      <trkpt lat="48.75809" lon="-3.25876">
        <ele>13</ele>
        <time>2014-10-05T08:27:21Z</time>
      </trkpt>
      <trkpt lat="48.75805" lon="-3.25888">
        <ele>13</ele>
        <time>2014-10-05T08:27:22Z</time>
      </trkpt>
      <trkpt lat="48.75802" lon="-3.259">
        <ele>13</ele>
        <time>2014-10-05T08:27:23Z</time>
      </trkpt>
      <trkpt lat="48.75798" lon="-3.25911">
        <ele>13</ele>
        <time>2014-10-05T08:27:24Z</time>
      </trkpt>
      <trkpt lat="48.75793" lon="-3.25922">
        <ele>13</ele>
        <time>2014-10-05T08:27:25Z</time>
      </trkpt>
      <trkpt lat="48.75789" lon="-3.25933">
        <ele>13</ele>
        <time>2014-10-05T08:27:26Z</time>
      </trkpt>
      <trkpt lat="48.75784" lon="-3.25944">
        <ele>13</ele>
        <time>2014-10-05T08:27:27Z</time>
      </trkpt>
      <trkpt lat="48.75779" lon="-3.25954">
        <ele>13</ele>
        <time>2014-10-05T08:27:28Z</time>
      </trkpt>
      <trkpt lat="48.75773" lon="-3.25964">
        <ele>13</ele>
        <time>2014-10-05T08:27:29Z</time>
      </trkpt>
      <trkpt lat="48.75768" lon="-3.25974">
        <ele>13</ele>
        <time>2014-10-05T08:27:30Z</time>
      </trkpt>
      <trkpt lat="48.75761" lon="-3.25983">
        <ele>13</ele>
        <time>2014-10-05T08:27:31Z</time>
      </trkpt>
      <trkpt lat="48.75755" lon="-3.25991">
        <ele>13</ele>
        <time>2014-10-05T08:27:32Z</time>
      </trkpt>
      <trkpt lat="48.75748" lon="-3.26">
        <ele>13</ele>
        <time>2014-10-05T08:27:33Z</time>
      </trkpt>
      <trkpt lat="48.75741" lon="-3.26008">
        <ele>13</ele>
        <time>2014-10-05T08:27:34Z</time>
      </trkpt>
      <trkpt lat="48.75734" lon="-3.26015">
        <ele>13</ele>
        <time>2014-10-05T08:27:35Z</time>
      </trkpt>
      <trkpt lat="48.75726" lon="-3.26022">
        <ele>13</ele>
        <time>2014-10-05T08:27:36Z</time>
      </trkpt>
      <trkpt lat="48.75718" lon="-3.26028">
        <ele>13</ele>
        <time>2014-10-05T08:27:37Z</time>
      </trkpt>
      <trkpt lat="48.7571" lon="-3.26034">
        <ele>13</ele>
        <time>2014-10-05T08:27:38Z</time>
      </trkpt>
      <trkpt lat="48.75702" lon="-3.26039">
        <ele>13</ele>
        <time>2014-10-05T08:27:39Z</time>
      </trkpt>
      <trkpt lat="48.75693" lon="-3.26043">
        <ele>13</ele>
        <time>2014-10-05T08:27:40Z</time>
      </trkpt>
      <trkpt lat="48.75684" lon="-3.26047">
        <ele>13</ele>
        <time>2014-10-05T08:27:41Z</time>
      </trkpt>
      <trkpt lat="48.75676" lon="-3.2605">
        <ele>13</ele>
        <time>2014-10-05T08:27:42Z</time>
      </trkpt>
      <trkpt lat="48.75666" lon="-3.26053">
        <ele>13</ele>
        <time>2014-10-05T08:27:43Z</time>
      </trkpt>
      <trkpt lat="48.75657" lon="-3.26055">
        <ele>13</ele>
        <time>2014-10-05T08:27:44Z</time>
      </trkpt>
      <trkpt lat="48.75647" lon="-3.26056">
        <ele>13</ele>
        <time>2014-10-05T08:27:45Z</time>
      </trkpt>
      <trkpt lat="48.75638" lon="-3.26058">
        <ele>13</ele>
        <time>2014-10-05T08:27:46Z</time>
      </trkpt>
      <trkpt lat="48.75628" lon="-3.26059">
        <ele>13</ele>
        <time>2014-10-05T08:27:47Z</time>
      </trkpt>
      <trkpt lat="48.75618" lon="-3.26061">
        <ele>13</ele>
        <time>2014-10-05T08:27:48Z</time>
      </trkpt>
      <trkpt lat="48.75607" lon="-3.26062">
        <ele>13</ele>
        <time>2014-10-05T08:27:49Z</time>
      </trkpt>
      <trkpt lat="48.75597" lon="-3.26064">
        <ele>13</ele>
        <time>2014-10-05T08:27:50Z</time>
      </trkpt>
      <trkpt lat="48.75587" lon="-3.26065">
        <ele>13</ele>
        <time>2014-10-05T08:27:51Z</time>
      </trkpt>
      <trkpt lat="48.75577" lon="-3.26067">
        <ele>13</ele>
        <time>2014-10-05T08:27:52Z</time>
      </trkpt>
      <trkpt lat="48.75567" lon="-3.26069">
        <ele>13</ele>
        <time>2014-10-05T08:27:53Z</time>
      </trkpt>
      <trkpt lat="48.75557" lon="-3.2607">
        <ele>13</ele>
        <time>2014-10-05T08:27:54Z</time>
      </trkpt>
      <trkpt lat="48.75548" lon="-3.26072">
        <ele>13</ele>
        <time>2014-10-05T08:27:55Z</time>
      </trkpt>
      <trkpt lat="48.75539" lon="-3.26073">
        <ele>13</ele>
        <time>2014-10-05T08:27:56Z</time>
      </trkpt>
      <trkpt lat="48.75529" lon="-3.26075">
        <ele>13</ele>
        <time>2014-10-05T08:27:57Z</time>
      </trkpt>
      <trkpt lat="48.7552" lon="-3.26077">
        <ele>13</ele>
        <time>2014-10-05T08:27:58Z</time>
      </trkpt>
      <trkpt lat="48.75511" lon="-3.26078">
        <ele>13</ele>
        <time>2014-10-05T08:27:59Z</time>
      </trkpt>
      <trkpt lat="48.75502" lon="-3.2608">
        <ele>13</ele>
        <time>2014-10-05T08:28:00Z</time>
      </trkpt>
      <trkpt lat="48.75493" lon="-3.26081">
        <ele>13</ele>
        <time>2014-10-05T08:28:01Z</time>
      </trkpt>
      <trkpt lat="48.75484" lon="-3.26083">
        <ele>13</ele>
        <time>2014-10-05T08:28:02Z</time>
      </trkpt>
      <trkpt lat="48.75476" lon="-3.26085">
        <ele>13</ele>
        <time>2014-10-05T08:28:03Z</time>
      </trkpt>
      <trkpt lat="48.75467" lon="-3.26087">
        <ele>13</ele>
        <time>2014-10-05T08:28:04Z</time>
      </trkpt>
      <trkpt lat="48.75458" lon="-3.26089">
        <ele>13</ele>
        <time>2014-10-05T08:28:05Z</time>
      </trkpt>
      <trkpt lat="48.75449" lon="-3.2609">
        <ele>13</ele>
        <time>2014-10-05T08:28:06Z</time>
      </trkpt>
      <trkpt lat="48.7544" lon="-3.26092">
        <ele>13</ele>
        <time>2014-10-05T08:28:07Z</time>
      </trkpt>
      <trkpt lat="48.75431" lon="-3.26093">
        <ele>13</ele>
        <time>2014-10-05T08:28:08Z</time>
      </trkpt>
      <trkpt lat="48.75422" lon="-3.26095">
        <ele>13</ele>
        <time>2014-10-05T08:28:09Z</time>
      </trkpt>
      <trkpt lat="48.75413" lon="-3.26097">
        <ele>13</ele>
        <time>2014-10-05T08:28:10Z</time>
      </trkpt>
      <trkpt lat="48.75404" lon="-3.26098">
        <ele>13</ele>
        <time>2014-10-05T08:28:11Z</time>
      </trkpt>
      <trkpt lat="48.75395" lon="-3.261">
        <ele>13</ele>
        <time>2014-10-05T08:28:12Z</time>
      </trkpt>
      <trkpt lat="48.75386" lon="-3.26101">
        <ele>13</ele>
        <time>2014-10-05T08:28:13Z</time>
      </trkpt>
      <trkpt lat="48.75377" lon="-3.26102">
        <ele>13</ele>
        <time>2014-10-05T08:28:14Z</time>
      </trkpt>
      <trkpt lat="48.75368" lon="-3.26104">
        <ele>13</ele>
        <time>2014-10-05T08:28:15Z</time>
      </trkpt>
      <trkpt lat="48.7536" lon="-3.26105">
        <ele>13</ele>
        <time>2014-10-05T08:28:16Z</time>
      </trkpt>
      <trkpt lat="48.75351" lon="-3.26107">
        <ele>13</ele>
        <time>2014-10-05T08:28:17Z</time>
      </trkpt>
      <trkpt lat="48.75343" lon="-3.26108">
        <ele>13</ele>
        <time>2014-10-05T08:28:18Z</time>
      </trkpt>
      <trkpt lat="48.75335" lon="-3.2611">
        <ele>13</ele>
        <time>2014-10-05T08:28:19Z</time>
      </trkpt>
      <trkpt lat="48.75327" lon="-3.26111">
        <ele>13</ele>
        <time>2014-10-05T08:28:20Z</time>
      </trkpt>
      <trkpt lat="48.75319" lon="-3.26112">
        <ele>13</ele>
        <time>2014-10-05T08:28:21Z</time>
      </trkpt>
      <trkpt lat="48.75311" lon="-3.26113">
        <ele>13</ele>
        <time>2014-10-05T08:28:22Z</time>
      </trkpt>
      <trkpt lat="48.75304" lon="-3.26115">
        <ele>13</ele>
        <time>2014-10-05T08:28:23Z</time>
      </trkpt>
      <trkpt lat="48.75297" lon="-3.26118">
        <ele>13</ele>
        <time>2014-10-05T08:28:24Z</time>
      </trkpt>
      <trkpt lat="48.75291" lon="-3.26123">
        <ele>13</ele>
        <time>2014-10-05T08:28:25Z</time>
      </trkpt>
      <trkpt lat="48.75287" lon="-3.26131">
        <ele>13</ele>
        <time>2014-10-05T08:28:26Z</time>
      </trkpt>
      <trkpt lat="48.75285" lon="-3.2614">
        <ele>13</ele>
        <time>2014-10-05T08:28:27Z</time>
      </trkpt>
      <trkpt lat="48.75283" lon="-3.2615">
        <ele>13</ele>
        <time>2014-10-05T08:28:28Z</time>
      </trkpt>
      <trkpt lat="48.75281" lon="-3.26159">
        <ele>13</ele>
        <time>2014-10-05T08:28:29Z</time>
      </trkpt>
      <trkpt lat="48.75278" lon="-3.26167">
        <ele>13</ele>
        <time>2014-10-05T08:28:30Z</time>
      </trkpt>
      <trkpt lat="48.75275" lon="-3.26175">
        <ele>13</ele>
        <time>2014-10-05T08:28:31Z</time>
      </trkpt>
      <trkpt lat="48.7527" lon="-3.2618">
        <ele>13</ele>
        <time>2014-10-05T08:28:32Z</time>
      </trkpt>
      <trkpt lat="48.75264" lon="-3.26183">
        <ele>13</ele>
        <time>2014-10-05T08:28:33Z</time>
      </trkpt>
      <trkpt lat="48.75258" lon="-3.26184">
        <ele>13</ele>
        <time>2014-10-05T08:28:34Z</time>
      </trkpt>
      <trkpt lat="48.75252" lon="-3.26185">
        <ele>13</ele>
        <time>2014-10-05T08:28:35Z</time>
      </trkpt>
      <trkpt lat="48.75246" lon="-3.26187">
        <ele>13</ele>
        <time>2014-10-05T08:28:36Z</time>
      </trkpt>
      <trkpt lat="48.75239" lon="-3.26192">
        <ele>13</ele>
        <time>2014-10-05T08:28:37Z</time>
      </trkpt>
      <trkpt lat="48.75234" lon="-3.26199">
        <ele>13</ele>
        <time>2014-10-05T08:28:38Z</time>
      </trkpt>
      <trkpt lat="48.7523" lon="-3.2621">
        <ele>13</ele>
        <time>2014-10-05T08:28:39Z</time>
      </trkpt>
      <trkpt lat="48.75228" lon="-3.26222">
        <ele>12</ele>
        <time>2014-10-05T08:28:40Z</time>
      </trkpt>
      <trkpt lat="48.75229" lon="-3.26235">
        <ele>12</ele>
        <time>2014-10-05T08:28:41Z</time>
      </trkpt>
      <trkpt lat="48.75231" lon="-3.26248">
        <ele>12</ele>
        <time>2014-10-05T08:28:42Z</time>
      </trkpt>
      <trkpt lat="48.75234" lon="-3.2626">
        <ele>12</ele>
        <time>2014-10-05T08:28:43Z</time>
      </trkpt>
      <trkpt lat="48.75238" lon="-3.26272">
        <ele>12</ele>
        <time>2014-10-05T08:28:44Z</time>
      </trkpt>
      <trkpt lat="48.75241" lon="-3.26284">
        <ele>12</ele>
        <time>2014-10-05T08:28:45Z</time>
      </trkpt>
      <trkpt lat="48.75244" lon="-3.26296">
        <ele>12</ele>
        <time>2014-10-05T08:28:46Z</time>
      </trkpt>
      <trkpt lat="48.75247" lon="-3.26308">
        <ele>12</ele>
        <time>2014-10-05T08:28:47Z</time>
      </trkpt>
      <trkpt lat="48.7525" lon="-3.2632">
        <ele>12</ele>
        <time>2014-10-05T08:28:48Z</time>
      </trkpt>
      <trkpt lat="48.75253" lon="-3.26332">
        <ele>12</ele>
        <time>2014-10-05T08:28:49Z</time>
      </trkpt>
      <trkpt lat="48.75256" lon="-3.26344">
        <ele>12</ele>
        <time>2014-10-05T08:28:50Z</time>
      </trkpt>
      <trkpt lat="48.75259" lon="-3.26357">
        <ele>12</ele>
        <time>2014-10-05T08:28:51Z</time>
      </trkpt>
      <trkpt lat="48.75263" lon="-3.26369">
        <ele>12</ele>
        <time>2014-10-05T08:28:52Z</time>
      </trkpt>
      <trkpt lat="48.75266" lon="-3.26382">
        <ele>12</ele>
        <time>2014-10-05T08:28:53Z</time>
      </trkpt>
      <trkpt lat="48.75269" lon="-3.26395">
        <ele>12</ele>
        <time>2014-10-05T08:28:54Z</time>
      </trkpt>
      <trkpt lat="48.75271" lon="-3.26408">
        <ele>12</ele>
        <time>2014-10-05T08:28:55Z</time>
      </trkpt>
      <trkpt lat="48.75273" lon="-3.26422">
        <ele>12</ele>
        <time>2014-10-05T08:28:56Z</time>
      </trkpt>
      <trkpt lat="48.75273" lon="-3.26435">
        <ele>12</ele>
        <time>2014-10-05T08:28:57Z</time>
      </trkpt>
      <trkpt lat="48.75272" lon="-3.26449">
        <ele>12</ele>
        <time>2014-10-05T08:28:58Z</time>
      </trkpt>
      <trkpt lat="48.75271" lon="-3.26463">
        <ele>12</ele>
        <time>2014-10-05T08:28:59Z</time>
      </trkpt>
      <trkpt lat="48.75269" lon="-3.26477">
        <ele>12</ele>
        <time>2014-10-05T08:29:00Z</time>
      </trkpt>
      <trkpt lat="48.75267" lon="-3.2649">
        <ele>12</ele>
        <time>2014-10-05T08:29:01Z</time>
      </trkpt>
      <trkpt lat="48.75263" lon="-3.26502">
        <ele>12</ele>
        <time>2014-10-05T08:29:02Z</time>
      </trkpt>
      <trkpt lat="48.75258" lon="-3.26513">
        <ele>12</ele>
        <time>2014-10-05T08:29:03Z</time>
      </trkpt>
      <trkpt lat="48.75253" lon="-3.26524">
        <ele>12</ele>
        <time>2014-10-05T08:29:04Z</time>
      </trkpt>
      <trkpt lat="48.75248" lon="-3.26535">
        <ele>12</ele>
        <time>2014-10-05T08:29:05Z</time>
      </trkpt>
      <trkpt lat="48.75242" lon="-3.26546">
        <ele>12</ele>
        <time>2014-10-05T08:29:06Z</time>
      </trkpt>
      <trkpt lat="48.75236" lon="-3.26557">
        <ele>12</ele>
        <time>2014-10-05T08:29:07Z</time>
      </trkpt>
      <trkpt lat="48.7523" lon="-3.26568">
        <ele>12</ele>
        <time>2014-10-05T08:29:08Z</time>
      </trkpt>
      <trkpt lat="48.75225" lon="-3.26578">
        <ele>13</ele>
        <time>2014-10-05T08:29:09Z</time>
      </trkpt>
      <trkpt lat="48.75219" lon="-3.26589">
        <ele>13</ele>
        <time>2014-10-05T08:29:10Z</time>
      </trkpt>
      <trkpt lat="48.75213" lon="-3.266">
        <ele>14</ele>
        <time>2014-10-05T08:29:11Z</time>
      </trkpt>
      <trkpt lat="48.75207" lon="-3.26611">
        <ele>15</ele>
        <time>2014-10-05T08:29:12Z</time>
      </trkpt>
      <trkpt lat="48.75201" lon="-3.26622">
        <ele>16</ele>
        <time>2014-10-05T08:29:13Z</time>
      </trkpt>
      <trkpt lat="48.75195" lon="-3.26632">
        <ele>16</ele>
        <time>2014-10-05T08:29:14Z</time>
      </trkpt>
      <trkpt lat="48.75188" lon="-3.26642">
        <ele>16</ele>
        <time>2014-10-05T08:29:15Z</time>
      </trkpt>
      <trkpt lat="48.75182" lon="-3.26651">
        <ele>16</ele>
        <time>2014-10-05T08:29:16Z</time>
      </trkpt>
      <trkpt lat="48.75175" lon="-3.26659">
        <ele>16</ele>
        <time>2014-10-05T08:29:17Z</time>
      </trkpt>
      <trkpt lat="48.75168" lon="-3.26666">
        <ele>16</ele>
        <time>2014-10-05T08:29:18Z</time>
      </trkpt>
      <trkpt lat="48.75161" lon="-3.26673">
        <ele>16</ele>
        <time>2014-10-05T08:29:19Z</time>
      </trkpt>
      <trkpt lat="48.75153" lon="-3.26678">
        <ele>16</ele>
        <time>2014-10-05T08:29:20Z</time>
      </trkpt>
      <trkpt lat="48.75145" lon="-3.26684">
        <ele>16</ele>
        <time>2014-10-05T08:29:21Z</time>
      </trkpt>
      <trkpt lat="48.75137" lon="-3.26689">
        <ele>16</ele>
        <time>2014-10-05T08:29:22Z</time>
      </trkpt>
      <trkpt lat="48.75129" lon="-3.26694">
        <ele>16</ele>
        <time>2014-10-05T08:29:23Z</time>
      </trkpt>
      <trkpt lat="48.75122" lon="-3.267">
        <ele>16</ele>
        <time>2014-10-05T08:29:24Z</time>
      </trkpt>
      <trkpt lat="48.75114" lon="-3.26705">
        <ele>16</ele>
        <time>2014-10-05T08:29:25Z</time>
      </trkpt>
      <trkpt lat="48.75107" lon="-3.26709">
        <ele>16</ele>
        <time>2014-10-05T08:29:26Z</time>
      </trkpt>
      <trkpt lat="48.75099" lon="-3.26713">
        <ele>16</ele>
        <time>2014-10-05T08:29:27Z</time>
      </trkpt>
      <trkpt lat="48.75092" lon="-3.26718">
        <ele>16</ele>
        <time>2014-10-05T08:29:28Z</time>
      </trkpt>
      <trkpt lat="48.75085" lon="-3.26722">
        <ele>16</ele>
        <time>2014-10-05T08:29:29Z</time>
      </trkpt>
      <trkpt lat="48.75078" lon="-3.26726">
        <ele>16</ele>
        <time>2014-10-05T08:29:30Z</time>
      </trkpt>
      <trkpt lat="48.7507" lon="-3.26729">
        <ele>16</ele>
        <time>2014-10-05T08:29:31Z</time>
      </trkpt>
      <trkpt lat="48.75063" lon="-3.26733">
        <ele>16</ele>
        <time>2014-10-05T08:29:32Z</time>
      </trkpt>
      <trkpt lat="48.75056" lon="-3.26737">
        <ele>16</ele>
        <time>2014-10-05T08:29:33Z</time>
      </trkpt>
      <trkpt lat="48.75049" lon="-3.26742">
        <ele>16</ele>
        <time>2014-10-05T08:29:34Z</time>
      </trkpt>
      <trkpt lat="48.75042" lon="-3.26746">
        <ele>16</ele>
        <time>2014-10-05T08:29:35Z</time>
      </trkpt>
      <trkpt lat="48.75034" lon="-3.26751">
        <ele>16</ele>
        <time>2014-10-05T08:29:36Z</time>
      </trkpt>
      <trkpt lat="48.75027" lon="-3.26756">
        <ele>16</ele>
        <time>2014-10-05T08:29:37Z</time>
      </trkpt>
      <trkpt lat="48.75021" lon="-3.26761">
        <ele>16</ele>
        <time>2014-10-05T08:29:38Z</time>
      </trkpt>
      <trkpt lat="48.75014" lon="-3.26765">
        <ele>16</ele>
        <time>2014-10-05T08:29:39Z</time>
      </trkpt>
      <trkpt lat="48.75008" lon="-3.26768">
        <ele>16</ele>
        <time>2014-10-05T08:29:40Z</time>
      </trkpt>
      <trkpt lat="48.75003" lon="-3.2677">
        <ele>16</ele>
        <time>2014-10-05T08:29:41Z</time>
      </trkpt>
      <trkpt lat="48.74998" lon="-3.26772">
        <ele>16</ele>
        <time>2014-10-05T08:29:42Z</time>
      </trkpt>
      <trkpt lat="48.74994" lon="-3.26775">
        <ele>16</ele>
        <time>2014-10-05T08:29:43Z</time>
      </trkpt>
      <trkpt lat="48.7499" lon="-3.26779">
        <ele>16</ele>
        <time>2014-10-05T08:29:44Z</time>
      </trkpt>
      <trkpt lat="48.74985" lon="-3.26782">
        <ele>16</ele>
        <time>2014-10-05T08:29:45Z</time>
      </trkpt>
      <trkpt lat="48.7498" lon="-3.26787">
        <ele>16</ele>
        <time>2014-10-05T08:29:46Z</time>
      </trkpt>
      <trkpt lat="48.74974" lon="-3.26792">
        <ele>16</ele>
        <time>2014-10-05T08:29:47Z</time>
      </trkpt>
      <trkpt lat="48.74967" lon="-3.26797">
        <ele>16</ele>
        <time>2014-10-05T08:29:48Z</time>
      </trkpt>
      <trkpt lat="48.7496" lon="-3.26802">
        <ele>16</ele>
        <time>2014-10-05T08:29:49Z</time>
      </trkpt>
      <trkpt lat="48.74953" lon="-3.26808">
        <ele>16</ele>
        <time>2014-10-05T08:29:50Z</time>
      </trkpt>
      <trkpt lat="48.74946" lon="-3.26815">
        <ele>16</ele>
        <time>2014-10-05T08:29:51Z</time>
      </trkpt>
      <trkpt lat="48.74939" lon="-3.26823">
        <ele>16</ele>
        <time>2014-10-05T08:29:52Z</time>
      </trkpt>
      <trkpt lat="48.74933" lon="-3.26832">
        <ele>16</ele>
        <time>2014-10-05T08:29:53Z</time>
      </trkpt>
      <trkpt lat="48.74928" lon="-3.26842">
        <ele>16</ele>
        <time>2014-10-05T08:29:54Z</time>
      </trkpt>
      <trkpt lat="48.74923" lon="-3.26852">
        <ele>16</ele>
        <time>2014-10-05T08:29:55Z</time>
      </trkpt>
      <trkpt lat="48.74919" lon="-3.26864">
        <ele>16</ele>
        <time>2014-10-05T08:29:56Z</time>
      </trkpt>
      <trkpt lat="48.74916" lon="-3.26876">
        <ele>16</ele>
        <time>2014-10-05T08:29:57Z</time>
      </trkpt>
      <trkpt lat="48.74914" lon="-3.26887">
        <ele>16</ele>
        <time>2014-10-05T08:29:58Z</time>
      </trkpt>
      <trkpt lat="48.74912" lon="-3.269">
        <ele>16</ele>
        <time>2014-10-05T08:29:59Z</time>
      </trkpt>
      <trkpt lat="48.7491" lon="-3.26911">
        <ele>16</ele>
        <time>2014-10-05T08:30:00Z</time>
      </trkpt>
      <trkpt lat="48.74908" lon="-3.26923">
        <ele>15</ele>
        <time>2014-10-05T08:30:01Z</time>
      </trkpt>
      <trkpt lat="48.74907" lon="-3.26936">
        <ele>15</ele>
        <time>2014-10-05T08:30:02Z</time>
      </trkpt>
      <trkpt lat="48.74906" lon="-3.26948">
        <ele>15</ele>
        <time>2014-10-05T08:30:03Z</time>
      </trkpt>
      <trkpt lat="48.74904" lon="-3.26959">
        <ele>15</ele>
        <time>2014-10-05T08:30:04Z</time>
      </trkpt>
      <trkpt lat="48.74903" lon="-3.26969">
        <ele>15</ele>
        <time>2014-10-05T08:30:05Z</time>
      </trkpt>
      <trkpt lat="48.74902" lon="-3.26978">
        <ele>15</ele>
        <time>2014-10-05T08:30:06Z</time>
      </trkpt>
      <trkpt lat="48.74901" lon="-3.26986">
        <ele>15</ele>
        <time>2014-10-05T08:30:07Z</time>
      </trkpt>
      <trkpt lat="48.74899" lon="-3.26992">
        <ele>15</ele>
        <time>2014-10-05T08:30:08Z</time>
      </trkpt>
      <trkpt lat="48.74896" lon="-3.26997">
        <ele>15</ele>
        <time>2014-10-05T08:30:09Z</time>
      </trkpt>
      <trkpt lat="48.74892" lon="-3.27">
        <ele>15</ele>
        <time>2014-10-05T08:30:10Z</time>
      </trkpt>
      <trkpt lat="48.74887" lon="-3.27">
        <ele>15</ele>
        <time>2014-10-05T08:30:11Z</time>
      </trkpt>
      <trkpt lat="48.74883" lon="-3.26998">
        <ele>15</ele>
        <time>2014-10-05T08:30:12Z</time>
      </trkpt>
      <trkpt lat="48.74878" lon="-3.26994">
        <ele>15</ele>
        <time>2014-10-05T08:30:13Z</time>
      </trkpt>
      <trkpt lat="48.74874" lon="-3.26989">
        <ele>15</ele>
        <time>2014-10-05T08:30:14Z</time>
      </trkpt>
      <trkpt lat="48.74869" lon="-3.26983">
        <ele>15</ele>
        <time>2014-10-05T08:30:15Z</time>
      </trkpt>
      <trkpt lat="48.74864" lon="-3.26978">
        <ele>15</ele>
        <time>2014-10-05T08:30:16Z</time>
      </trkpt>
      <trkpt lat="48.74858" lon="-3.26972">
        <ele>15</ele>
        <time>2014-10-05T08:30:17Z</time>
      </trkpt>
      <trkpt lat="48.74853" lon="-3.26965">
        <ele>14</ele>
        <time>2014-10-05T08:30:18Z</time>
      </trkpt>
      <trkpt lat="48.74847" lon="-3.26959">
        <ele>14</ele>
        <time>2014-10-05T08:30:19Z</time>
      </trkpt>
      <trkpt lat="48.74841" lon="-3.26953">
        <ele>14</ele>
        <time>2014-10-05T08:30:20Z</time>
      </trkpt>
      <trkpt lat="48.74835" lon="-3.26946">
        <ele>13</ele>
        <time>2014-10-05T08:30:21Z</time>
      </trkpt>
      <trkpt lat="48.74829" lon="-3.2694">
        <ele>13</ele>
        <time>2014-10-05T08:30:22Z</time>
      </trkpt>
      <trkpt lat="48.74822" lon="-3.26934">
        <ele>13</ele>
        <time>2014-10-05T08:30:23Z</time>
      </trkpt>
      <trkpt lat="48.74816" lon="-3.26927">
        <ele>13</ele>
        <time>2014-10-05T08:30:24Z</time>
      </trkpt>
      <trkpt lat="48.7481" lon="-3.2692">
        <ele>12</ele>
        <time>2014-10-05T08:30:25Z</time>
      </trkpt>
      <trkpt lat="48.74805" lon="-3.26912">
        <ele>12</ele>
        <time>2014-10-05T08:30:26Z</time>
      </trkpt>
      <trkpt lat="48.74799" lon="-3.26904">
        <ele>12</ele>
        <time>2014-10-05T08:30:27Z</time>
      </trkpt>
      <trkpt lat="48.74794" lon="-3.26896">
        <ele>12</ele>
        <time>2014-10-05T08:30:28Z</time>
      </trkpt>
      <trkpt lat="48.7479" lon="-3.26887">
        <ele>12</ele>
        <time>2014-10-05T08:30:29Z</time>
      </trkpt>
      <trkpt lat="48.74785" lon="-3.26878">
        <ele>12</ele>
        <time>2014-10-05T08:30:30Z</time>
      </trkpt>
      <trkpt lat="48.7478" lon="-3.2687">
        <ele>12</ele>
        <time>2014-10-05T08:30:31Z</time>
      </trkpt>
      <trkpt lat="48.74776" lon="-3.26861">
        <ele>12</ele>
        <time>2014-10-05T08:30:32Z</time>
      </trkpt>
      <trkpt lat="48.74771" lon="-3.26853">
        <ele>11</ele>
        <time>2014-10-05T08:30:33Z</time>
      </trkpt>
      <trkpt lat="48.74766" lon="-3.26844">
        <ele>11</ele>
        <time>2014-10-05T08:30:34Z</time>
      </trkpt>
      <trkpt lat="48.74761" lon="-3.26835">
        <ele>11</ele>
        <time>2014-10-05T08:30:35Z</time>
      </trkpt>
      <trkpt lat="48.74757" lon="-3.26825">
        <ele>11</ele>
        <time>2014-10-05T08:30:36Z</time>
      </trkpt>
      <trkpt lat="48.74752" lon="-3.26816">
        <ele>10</ele>
        <time>2014-10-05T08:30:37Z</time>
      </trkpt>
      <trkpt lat="48.74747" lon="-3.26807">
        <ele>10</ele>
        <time>2014-10-05T08:30:38Z</time>
      </trkpt>
      <trkpt lat="48.74742" lon="-3.26798">
        <ele>10</ele>
        <time>2014-10-05T08:30:39Z</time>
      </trkpt>
      <trkpt lat="48.74736" lon="-3.26788">
        <ele>10</ele>
        <time>2014-10-05T08:30:40Z</time>
      </trkpt>
      <trkpt lat="48.74731" lon="-3.26779">
        <ele>10</ele>
        <time>2014-10-05T08:30:41Z</time>
      </trkpt>
      <trkpt lat="48.74725" lon="-3.2677">
        <ele>10</ele>
        <time>2014-10-05T08:30:42Z</time>
      </trkpt>
      <trkpt lat="48.7472" lon="-3.2676">
        <ele>10</ele>
        <time>2014-10-05T08:30:43Z</time>
      </trkpt>
      <trkpt lat="48.74714" lon="-3.26751">
        <ele>10</ele>
        <time>2014-10-05T08:30:44Z</time>
      </trkpt>
      <trkpt lat="48.74709" lon="-3.26741">
        <ele>10</ele>
        <time>2014-10-05T08:30:45Z</time>
      </trkpt>
      <trkpt lat="48.74704" lon="-3.26731">
        <ele>10</ele>
        <time>2014-10-05T08:30:46Z</time>
      </trkpt>
      <trkpt lat="48.74698" lon="-3.26722">
        <ele>10</ele>
        <time>2014-10-05T08:30:47Z</time>
      </trkpt>
      <trkpt lat="48.74693" lon="-3.26712">
        <ele>10</ele>
        <time>2014-10-05T08:30:48Z</time>
      </trkpt>
      <trkpt lat="48.74687" lon="-3.26703">
        <ele>10</ele>
        <time>2014-10-05T08:30:49Z</time>
      </trkpt>
      <trkpt lat="48.74681" lon="-3.26694">
        <ele>10</ele>
        <time>2014-10-05T08:30:50Z</time>
      </trkpt>
      <trkpt lat="48.74675" lon="-3.26686">
        <ele>10</ele>
        <time>2014-10-05T08:30:51Z</time>
      </trkpt>
      <trkpt lat="48.74669" lon="-3.26679">
        <ele>10</ele>
        <time>2014-10-05T08:30:52Z</time>
      </trkpt>
      <trkpt lat="48.74663" lon="-3.26672">
        <ele>10</ele>
        <time>2014-10-05T08:30:53Z</time>
      </trkpt>
      <trkpt lat="48.74657" lon="-3.26666">
        <ele>10</ele>
        <time>2014-10-05T08:30:54Z</time>
      </trkpt>
      <trkpt lat="48.74651" lon="-3.2666">
        <ele>10</ele>
        <time>2014-10-05T08:30:55Z</time>
      </trkpt>
      <trkpt lat="48.74644" lon="-3.26654">
        <ele>10</ele>
        <time>2014-10-05T08:30:56Z</time>
      </trkpt>
      <trkpt lat="48.74638" lon="-3.26648">
        <ele>10</ele>
        <time>2014-10-05T08:30:57Z</time>
      </trkpt>
      <trkpt lat="48.74631" lon="-3.26642">
        <ele>10</ele>
        <time>2014-10-05T08:30:58Z</time>
      </trkpt>
      <trkpt lat="48.74625" lon="-3.26635">
        <ele>10</ele>
        <time>2014-10-05T08:30:59Z</time>
      </trkpt>
      <trkpt lat="48.74618" lon="-3.26628">
        <ele>10</ele>
        <time>2014-10-05T08:31:00Z</time>
      </trkpt>
      <trkpt lat="48.74611" lon="-3.26621">
        <ele>10</ele>
        <time>2014-10-05T08:31:01Z</time>
      </trkpt>
      <trkpt lat="48.74605" lon="-3.26613">
        <ele>10</ele>
        <time>2014-10-05T08:31:02Z</time>
      </trkpt>
      <trkpt lat="48.74598" lon="-3.26605">
        <ele>10</ele>
        <time>2014-10-05T08:31:03Z</time>
      </trkpt>
      <trkpt lat="48.74591" lon="-3.26597">
        <ele>10</ele>
        <time>2014-10-05T08:31:04Z</time>
      </trkpt>
      <trkpt lat="48.74585" lon="-3.26588">
        <ele>10</ele>
        <time>2014-10-05T08:31:05Z</time>
      </trkpt>
      <trkpt lat="48.7458" lon="-3.26578">
        <ele>10</ele>
        <time>2014-10-05T08:31:06Z</time>
      </trkpt>
      <trkpt lat="48.74575" lon="-3.26567">
        <ele>10</ele>
        <time>2014-10-05T08:31:07Z</time>
      </trkpt>
      <trkpt lat="48.74571" lon="-3.26556">
        <ele>10</ele>
        <time>2014-10-05T08:31:08Z</time>
      </trkpt>
      <trkpt lat="48.74567" lon="-3.26546">
        <ele>10</ele>
        <time>2014-10-05T08:31:09Z</time>
      </trkpt>
      <trkpt lat="48.74563" lon="-3.26536">
        <ele>10</ele>
        <time>2014-10-05T08:31:10Z</time>
      </trkpt>
      <trkpt lat="48.74558" lon="-3.26526">
        <ele>10</ele>
        <time>2014-10-05T08:31:11Z</time>
      </trkpt>
      <trkpt lat="48.74554" lon="-3.26517">
        <ele>10</ele>
        <time>2014-10-05T08:31:12Z</time>
      </trkpt>
      <trkpt lat="48.74549" lon="-3.26507">
        <ele>10</ele>
        <time>2014-10-05T08:31:13Z</time>
      </trkpt>
      <trkpt lat="48.74545" lon="-3.26498">
        <ele>10</ele>
        <time>2014-10-05T08:31:14Z</time>
      </trkpt>
      <trkpt lat="48.7454" lon="-3.2649">
        <ele>10</ele>
        <time>2014-10-05T08:31:15Z</time>
      </trkpt>
      <trkpt lat="48.74534" lon="-3.26482">
        <ele>10</ele>
        <time>2014-10-05T08:31:16Z</time>
      </trkpt>
      <trkpt lat="48.74529" lon="-3.26475">
        <ele>10</ele>
        <time>2014-10-05T08:31:17Z</time>
      </trkpt>
      <trkpt lat="48.74524" lon="-3.26467">
        <ele>10</ele>
        <time>2014-10-05T08:31:18Z</time>
      </trkpt>
      <trkpt lat="48.74518" lon="-3.2646">
        <ele>10</ele>
        <time>2014-10-05T08:31:19Z</time>
      </trkpt>
      <trkpt lat="48.74513" lon="-3.26453">
        <ele>10</ele>
        <time>2014-10-05T08:31:20Z</time>
      </trkpt>
      <trkpt lat="48.74508" lon="-3.26446">
        <ele>10</ele>
        <time>2014-10-05T08:31:21Z</time>
      </trkpt>
      <trkpt lat="48.74503" lon="-3.26439">
        <ele>10</ele>
        <time>2014-10-05T08:31:22Z</time>
      </trkpt>
      <trkpt lat="48.74497" lon="-3.26432">
        <ele>10</ele>
        <time>2014-10-05T08:31:23Z</time>
      </trkpt>
      <trkpt lat="48.74492" lon="-3.26425">
        <ele>10</ele>
        <time>2014-10-05T08:31:24Z</time>
      </trkpt>
      <trkpt lat="48.74488" lon="-3.2642">
        <ele>10</ele>
        <time>2014-10-05T08:31:25Z</time>
      </trkpt>
      <trkpt lat="48.74484" lon="-3.26414">
        <ele>10</ele>
        <time>2014-10-05T08:31:26Z</time>
      </trkpt>
      <trkpt lat="48.7448" lon="-3.26406">
        <ele>10</ele>
        <time>2014-10-05T08:31:27Z</time>
      </trkpt>
      <trkpt lat="48.74476" lon="-3.26398">
        <ele>10</ele>
        <time>2014-10-05T08:31:28Z</time>
      </trkpt>
      <trkpt lat="48.74472" lon="-3.2639">
        <ele>10</ele>
        <time>2014-10-05T08:31:29Z</time>
      </trkpt>
      <trkpt lat="48.74469" lon="-3.26381">
        <ele>10</ele>
        <time>2014-10-05T08:31:30Z</time>
      </trkpt>
      <trkpt lat="48.74465" lon="-3.26371">
        <ele>10</ele>
        <time>2014-10-05T08:31:31Z</time>
      </trkpt>
      <trkpt lat="48.74461" lon="-3.26362">
        <ele>10</ele>
        <time>2014-10-05T08:31:32Z</time>
      </trkpt>
      <trkpt lat="48.74458" lon="-3.26351">
        <ele>10</ele>
        <time>2014-10-05T08:31:33Z</time>
      </trkpt>
      <trkpt lat="48.74454" lon="-3.26342">
        <ele>10</ele>
        <time>2014-10-05T08:31:34Z</time>
      </trkpt>
      <trkpt lat="48.74451" lon="-3.26331">
        <ele>10</ele>
        <time>2014-10-05T08:31:35Z</time>
      </trkpt>
      <trkpt lat="48.74448" lon="-3.26321">
        <ele>10</ele>
        <time>2014-10-05T08:31:36Z</time>
      </trkpt>
      <trkpt lat="48.74444" lon="-3.26312">
        <ele>10</ele>
        <time>2014-10-05T08:31:37Z</time>
      </trkpt>
      <trkpt lat="48.7444" lon="-3.26306">
        <ele>10</ele>
        <time>2014-10-05T08:31:38Z</time>
      </trkpt>
      <trkpt lat="48.74435" lon="-3.26302">
        <ele>10</ele>
        <time>2014-10-05T08:31:39Z</time>
      </trkpt>
      <trkpt lat="48.74429" lon="-3.26301">
        <ele>10</ele>
        <time>2014-10-05T08:31:40Z</time>
      </trkpt>
      <trkpt lat="48.74425" lon="-3.26303">
        <ele>10</ele>
        <time>2014-10-05T08:31:41Z</time>
      </trkpt>
      <trkpt lat="48.74421" lon="-3.26306">
        <ele>10</ele>
        <time>2014-10-05T08:31:42Z</time>
      </trkpt>
      <trkpt lat="48.74417" lon="-3.26309">
        <ele>10</ele>
        <time>2014-10-05T08:31:43Z</time>
      </trkpt>
      <trkpt lat="48.74414" lon="-3.26313">
        <ele>10</ele>
        <time>2014-10-05T08:31:44Z</time>
      </trkpt>
      <trkpt lat="48.74411" lon="-3.26317">
        <ele>10</ele>
        <time>2014-10-05T08:31:45Z</time>
      </trkpt>
      <trkpt lat="48.74408" lon="-3.2632">
        <ele>10</ele>
        <time>2014-10-05T08:31:46Z</time>
      </trkpt>
      <trkpt lat="48.74405" lon="-3.26324">
        <ele>10</ele>
        <time>2014-10-05T08:31:47Z</time>
      </trkpt>
      <trkpt lat="48.74401" lon="-3.26327">
        <ele>10</ele>
        <time>2014-10-05T08:31:48Z</time>
      </trkpt>
      <trkpt lat="48.74397" lon="-3.2633">
        <ele>10</ele>
        <time>2014-10-05T08:31:49Z</time>
      </trkpt>
      <trkpt lat="48.74393" lon="-3.26333">
        <ele>10</ele>
        <time>2014-10-05T08:31:50Z</time>
      </trkpt>
      <trkpt lat="48.7439" lon="-3.26336">
        <ele>10</ele>
        <time>2014-10-05T08:31:51Z</time>
      </trkpt>
      <trkpt lat="48.74386" lon="-3.26339">
        <ele>10</ele>
        <time>2014-10-05T08:31:52Z</time>
      </trkpt>
      <trkpt lat="48.74382" lon="-3.26341">
        <ele>10</ele>
        <time>2014-10-05T08:31:53Z</time>
      </trkpt>
      <trkpt lat="48.74378" lon="-3.26343">
        <ele>11</ele>
        <time>2014-10-05T08:31:54Z</time>
      </trkpt>
      <trkpt lat="48.74375" lon="-3.26346">
        <ele>12</ele>
        <time>2014-10-05T08:31:55Z</time>
      </trkpt>
      <trkpt lat="48.74371" lon="-3.26349">
        <ele>13</ele>
        <time>2014-10-05T08:31:56Z</time>
      </trkpt>
      <trkpt lat="48.74368" lon="-3.26352">
        <ele>14</ele>
        <time>2014-10-05T08:31:57Z</time>
      </trkpt>
      <trkpt lat="48.74364" lon="-3.26354">
        <ele>15</ele>
        <time>2014-10-05T08:31:58Z</time>
      </trkpt>
      <trkpt lat="48.7436" lon="-3.26357">
        <ele>16</ele>
        <time>2014-10-05T08:31:59Z</time>
      </trkpt>
      <trkpt lat="48.74356" lon="-3.26359">
        <ele>17</ele>
        <time>2014-10-05T08:32:00Z</time>
      </trkpt>
      <trkpt lat="48.74353" lon="-3.26361">
        <ele>18</ele>
        <time>2014-10-05T08:32:01Z</time>
      </trkpt>
      <trkpt lat="48.74348" lon="-3.26364">
        <ele>18</ele>
        <time>2014-10-05T08:32:02Z</time>
      </trkpt>
      <trkpt lat="48.74344" lon="-3.26366">
        <ele>18</ele>
        <time>2014-10-05T08:32:03Z</time>
      </trkpt>
      <trkpt lat="48.7434" lon="-3.26368">
        <ele>18</ele>
        <time>2014-10-05T08:32:04Z</time>
      </trkpt>
      <trkpt lat="48.74336" lon="-3.26371">
        <ele>19</ele>
        <time>2014-10-05T08:32:05Z</time>
      </trkpt>
      <trkpt lat="48.74332" lon="-3.26374">
        <ele>19</ele>
        <time>2014-10-05T08:32:06Z</time>
      </trkpt>
      <trkpt lat="48.74328" lon="-3.26377">
        <ele>19</ele>
        <time>2014-10-05T08:32:07Z</time>
      </trkpt>
      <trkpt lat="48.74324" lon="-3.2638">
        <ele>19</ele>
        <time>2014-10-05T08:32:08Z</time>
      </trkpt>
      <trkpt lat="48.7432" lon="-3.26384">
        <ele>19</ele>
        <time>2014-10-05T08:32:09Z</time>
      </trkpt>
      <trkpt lat="48.74316" lon="-3.26388">
        <ele>19</ele>
        <time>2014-10-05T08:32:10Z</time>
      </trkpt>
      <trkpt lat="48.74313" lon="-3.26393">
        <ele>19</ele>
        <time>2014-10-05T08:32:11Z</time>
      </trkpt>
      <trkpt lat="48.74309" lon="-3.26397">
        <ele>19</ele>
        <time>2014-10-05T08:32:12Z</time>
      </trkpt>
      <trkpt lat="48.74305" lon="-3.26403">
        <ele>19</ele>
        <time>2014-10-05T08:32:13Z</time>
      </trkpt>
      <trkpt lat="48.74301" lon="-3.26408">
        <ele>19</ele>
        <time>2014-10-05T08:32:14Z</time>
      </trkpt>
      <trkpt lat="48.74297" lon="-3.26413">
        <ele>19</ele>
        <time>2014-10-05T08:32:15Z</time>
      </trkpt>
      <trkpt lat="48.74293" lon="-3.26419">
        <ele>19</ele>
        <time>2014-10-05T08:32:16Z</time>
      </trkpt>
      <trkpt lat="48.74289" lon="-3.26425">
        <ele>19</ele>
        <time>2014-10-05T08:32:17Z</time>
      </trkpt>
      <trkpt lat="48.74285" lon="-3.26431">
        <ele>19</ele>
        <time>2014-10-05T08:32:18Z</time>
      </trkpt>
      <trkpt lat="48.74281" lon="-3.26437">
        <ele>19</ele>
        <time>2014-10-05T08:32:19Z</time>
      </trkpt>
      <trkpt lat="48.74276" lon="-3.26443">
        <ele>19</ele>
        <time>2014-10-05T08:32:20Z</time>
      </trkpt>
      <trkpt lat="48.74272" lon="-3.26449">
        <ele>19</ele>
        <time>2014-10-05T08:32:21Z</time>
      </trkpt>
      <trkpt lat="48.74268" lon="-3.26456">
        <ele>19</ele>
        <time>2014-10-05T08:32:22Z</time>
      </trkpt>
      <trkpt lat="48.74263" lon="-3.26463">
        <ele>19</ele>
        <time>2014-10-05T08:32:23Z</time>
      </trkpt>
      <trkpt lat="48.74258" lon="-3.2647">
        <ele>19</ele>
        <time>2014-10-05T08:32:24Z</time>
      </trkpt>
      <trkpt lat="48.74254" lon="-3.26477">
        <ele>19</ele>
        <time>2014-10-05T08:32:25Z</time>
      </trkpt>
      <trkpt lat="48.74249" lon="-3.26483">
        <ele>19</ele>
        <time>2014-10-05T08:32:26Z</time>
      </trkpt>
      <trkpt lat="48.74244" lon="-3.2649">
        <ele>19</ele>
        <time>2014-10-05T08:32:27Z</time>
      </trkpt>
      <trkpt lat="48.74239" lon="-3.26497">
        <ele>19</ele>
        <time>2014-10-05T08:32:28Z</time>
      </trkpt>
      <trkpt lat="48.74234" lon="-3.26502">
        <ele>19</ele>
        <time>2014-10-05T08:32:29Z</time>
      </trkpt>
      <trkpt lat="48.74229" lon="-3.26508">
        <ele>19</ele>
        <time>2014-10-05T08:32:30Z</time>
      </trkpt>
      <trkpt lat="48.74223" lon="-3.26514">
        <ele>19</ele>
        <time>2014-10-05T08:32:31Z</time>
      </trkpt>
      <trkpt lat="48.74216" lon="-3.26518">
        <ele>19</ele>
        <time>2014-10-05T08:32:32Z</time>
      </trkpt>
      <trkpt lat="48.7421" lon="-3.26523">
        <ele>19</ele>
        <time>2014-10-05T08:32:33Z</time>
      </trkpt>
      <trkpt lat="48.74202" lon="-3.26527">
        <ele>19</ele>
        <time>2014-10-05T08:32:34Z</time>
      </trkpt>
      <trkpt lat="48.74194" lon="-3.26531">
        <ele>19</ele>
        <time>2014-10-05T08:32:35Z</time>
      </trkpt>
      <trkpt lat="48.74186" lon="-3.26535">
        <ele>19</ele>
        <time>2014-10-05T08:32:36Z</time>
      </trkpt>
      <trkpt lat="48.74178" lon="-3.2654">
        <ele>19</ele>
        <time>2014-10-05T08:32:37Z</time>
      </trkpt>
      <trkpt lat="48.7417" lon="-3.26545">
        <ele>19</ele>
        <time>2014-10-05T08:32:38Z</time>
      </trkpt>
      <trkpt lat="48.74161" lon="-3.26552">
        <ele>19</ele>
        <time>2014-10-05T08:32:39Z</time>
      </trkpt>
      <trkpt lat="48.74154" lon="-3.26559">
        <ele>19</ele>
        <time>2014-10-05T08:32:40Z</time>
      </trkpt>
      <trkpt lat="48.74146" lon="-3.26568">
        <ele>19</ele>
        <time>2014-10-05T08:32:41Z</time>
      </trkpt>
      <trkpt lat="48.74139" lon="-3.26578">
        <ele>19</ele>
        <time>2014-10-05T08:32:42Z</time>
      </trkpt>
      <trkpt lat="48.74132" lon="-3.26589">
        <ele>19</ele>
        <time>2014-10-05T08:32:43Z</time>
      </trkpt>
      <trkpt lat="48.74126" lon="-3.26601">
        <ele>19</ele>
        <time>2014-10-05T08:32:44Z</time>
      </trkpt>
      <trkpt lat="48.7412" lon="-3.26612">
        <ele>19</ele>
        <time>2014-10-05T08:32:45Z</time>
      </trkpt>
      <trkpt lat="48.74115" lon="-3.26624">
        <ele>19</ele>
        <time>2014-10-05T08:32:46Z</time>
      </trkpt>
      <trkpt lat="48.74109" lon="-3.26637">
        <ele>19</ele>
        <time>2014-10-05T08:32:47Z</time>
      </trkpt>
      <trkpt lat="48.74104" lon="-3.26649">
        <ele>19</ele>
        <time>2014-10-05T08:32:48Z</time>
      </trkpt>
      <trkpt lat="48.74099" lon="-3.26661">
        <ele>19</ele>
        <time>2014-10-05T08:32:49Z</time>
      </trkpt>
      <trkpt lat="48.74094" lon="-3.26672">
        <ele>19</ele>
        <time>2014-10-05T08:32:50Z</time>
      </trkpt>
      <trkpt lat="48.74089" lon="-3.26683">
        <ele>19</ele>
        <time>2014-10-05T08:32:51Z</time>
      </trkpt>
      <trkpt lat="48.74085" lon="-3.26692">
        <ele>19</ele>
        <time>2014-10-05T08:32:52Z</time>
      </trkpt>
      <trkpt lat="48.7408" lon="-3.267">
        <ele>19</ele>
        <time>2014-10-05T08:32:53Z</time>
      </trkpt>
      <trkpt lat="48.74075" lon="-3.26707">
        <ele>19</ele>
        <time>2014-10-05T08:32:54Z</time>
      </trkpt>
      <trkpt lat="48.74071" lon="-3.26713">
        <ele>19</ele>
        <time>2014-10-05T08:32:55Z</time>
      </trkpt>
      <trkpt lat="48.74066" lon="-3.26718">
        <ele>19</ele>
        <time>2014-10-05T08:32:56Z</time>
      </trkpt>
      <trkpt lat="48.74062" lon="-3.26724">
        <ele>19</ele>
        <time>2014-10-05T08:32:57Z</time>
      </trkpt>
      <trkpt lat="48.74057" lon="-3.2673">
        <ele>19</ele>
        <time>2014-10-05T08:32:58Z</time>
      </trkpt>
      <trkpt lat="48.74053" lon="-3.26735">
        <ele>19</ele>
        <time>2014-10-05T08:32:59Z</time>
      </trkpt>
      <trkpt lat="48.74048" lon="-3.26741">
        <ele>19</ele>
        <time>2014-10-05T08:33:00Z</time>
      </trkpt>
      <trkpt lat="48.74044" lon="-3.26747">
        <ele>19</ele>
        <time>2014-10-05T08:33:01Z</time>
      </trkpt>
      <trkpt lat="48.74038" lon="-3.26754">
        <ele>19</ele>
        <time>2014-10-05T08:33:02Z</time>
      </trkpt>
      <trkpt lat="48.74033" lon="-3.2676">
        <ele>20</ele>
        <time>2014-10-05T08:33:03Z</time>
      </trkpt>
      <trkpt lat="48.74028" lon="-3.26766">
        <ele>20</ele>
        <time>2014-10-05T08:33:04Z</time>
      </trkpt>
      <trkpt lat="48.74023" lon="-3.26772">
        <ele>20</ele>
        <time>2014-10-05T08:33:05Z</time>
      </trkpt>
      <trkpt lat="48.74018" lon="-3.26778">
        <ele>21</ele>
        <time>2014-10-05T08:33:06Z</time>
      </trkpt>
      <trkpt lat="48.74012" lon="-3.26784">
        <ele>21</ele>
        <time>2014-10-05T08:33:07Z</time>
      </trkpt>
      <trkpt lat="48.74007" lon="-3.26789">
        <ele>21</ele>
        <time>2014-10-05T08:33:08Z</time>
      </trkpt>
      <trkpt lat="48.74001" lon="-3.26795">
        <ele>21</ele>
        <time>2014-10-05T08:33:09Z</time>
      </trkpt>
      <trkpt lat="48.73996" lon="-3.268">
        <ele>22</ele>
        <time>2014-10-05T08:33:10Z</time>
      </trkpt>
      <trkpt lat="48.73989" lon="-3.26806">
        <ele>22</ele>
        <time>2014-10-05T08:33:11Z</time>
      </trkpt>
      <trkpt lat="48.73983" lon="-3.26812">
        <ele>22</ele>
        <time>2014-10-05T08:33:12Z</time>
      </trkpt>
      <trkpt lat="48.73977" lon="-3.26817">
        <ele>22</ele>
        <time>2014-10-05T08:33:13Z</time>
      </trkpt>
      <trkpt lat="48.73971" lon="-3.26823">
        <ele>22</ele>
        <time>2014-10-05T08:33:14Z</time>
      </trkpt>
      <trkpt lat="48.73964" lon="-3.26829">
        <ele>22</ele>
        <time>2014-10-05T08:33:15Z</time>
      </trkpt>
      <trkpt lat="48.73957" lon="-3.26834">
        <ele>22</ele>
        <time>2014-10-05T08:33:16Z</time>
      </trkpt>
      <trkpt lat="48.73951" lon="-3.2684">
        <ele>22</ele>
        <time>2014-10-05T08:33:17Z</time>
      </trkpt>
      <trkpt lat="48.73944" lon="-3.26845">
        <ele>22</ele>
        <time>2014-10-05T08:33:18Z</time>
      </trkpt>
      <trkpt lat="48.73937" lon="-3.2685">
        <ele>22</ele>
        <time>2014-10-05T08:33:19Z</time>
      </trkpt>
      <trkpt lat="48.7393" lon="-3.26855">
        <ele>22</ele>
        <time>2014-10-05T08:33:20Z</time>
      </trkpt>
      <trkpt lat="48.73923" lon="-3.2686">
        <ele>22</ele>
        <time>2014-10-05T08:33:21Z</time>
      </trkpt>
      <trkpt lat="48.73917" lon="-3.26864">
        <ele>22</ele>
        <time>2014-10-05T08:33:22Z</time>
      </trkpt>
      <trkpt lat="48.7391" lon="-3.26869">
        <ele>22</ele>
        <time>2014-10-05T08:33:23Z</time>
      </trkpt>
      <trkpt lat="48.73903" lon="-3.26874">
        <ele>22</ele>
        <time>2014-10-05T08:33:24Z</time>
      </trkpt>
      <trkpt lat="48.73896" lon="-3.2688">
        <ele>22</ele>
        <time>2014-10-05T08:33:25Z</time>
      </trkpt>
      <trkpt lat="48.73889" lon="-3.26885">
        <ele>22</ele>
        <time>2014-10-05T08:33:26Z</time>
      </trkpt>
      <trkpt lat="48.73881" lon="-3.26891">
        <ele>22</ele>
        <time>2014-10-05T08:33:27Z</time>
      </trkpt>
      <trkpt lat="48.73873" lon="-3.26898">
        <ele>22</ele>
        <time>2014-10-05T08:33:28Z</time>
      </trkpt>
      <trkpt lat="48.73865" lon="-3.26904">
        <ele>22</ele>
        <time>2014-10-05T08:33:29Z</time>
      </trkpt>
      <trkpt lat="48.73857" lon="-3.26912">
        <ele>22</ele>
        <time>2014-10-05T08:33:30Z</time>
      </trkpt>
      <trkpt lat="48.7385" lon="-3.26919">
        <ele>22</ele>
        <time>2014-10-05T08:33:31Z</time>
      </trkpt>
      <trkpt lat="48.73842" lon="-3.26928">
        <ele>22</ele>
        <time>2014-10-05T08:33:32Z</time>
      </trkpt>
      <trkpt lat="48.73835" lon="-3.26936">
        <ele>22</ele>
        <time>2014-10-05T08:33:33Z</time>
      </trkpt>
      <trkpt lat="48.73827" lon="-3.26946">
        <ele>22</ele>
        <time>2014-10-05T08:33:34Z</time>
      </trkpt>
      <trkpt lat="48.73819" lon="-3.26955">
        <ele>22</ele>
        <time>2014-10-05T08:33:35Z</time>
      </trkpt>
      <trkpt lat="48.73811" lon="-3.26965">
        <ele>22</ele>
        <time>2014-10-05T08:33:36Z</time>
      </trkpt>
      <trkpt lat="48.73804" lon="-3.26977">
        <ele>22</ele>
        <time>2014-10-05T08:33:37Z</time>
      </trkpt>
      <trkpt lat="48.73797" lon="-3.2699">
        <ele>21</ele>
        <time>2014-10-05T08:33:38Z</time>
      </trkpt>
      <trkpt lat="48.73791" lon="-3.27004">
        <ele>21</ele>
        <time>2014-10-05T08:33:39Z</time>
      </trkpt>
      <trkpt lat="48.73786" lon="-3.27019">
        <ele>20</ele>
        <time>2014-10-05T08:33:40Z</time>
      </trkpt>
      <trkpt lat="48.73782" lon="-3.27035">
        <ele>19</ele>
        <time>2014-10-05T08:33:41Z</time>
      </trkpt>
      <trkpt lat="48.73779" lon="-3.27051">
        <ele>19</ele>
        <time>2014-10-05T08:33:42Z</time>
      </trkpt>
      <trkpt lat="48.73775" lon="-3.27067">
        <ele>18</ele>
        <time>2014-10-05T08:33:43Z</time>
      </trkpt>
      <trkpt lat="48.73771" lon="-3.27084">
        <ele>18</ele>
        <time>2014-10-05T08:33:44Z</time>
      </trkpt>
      <trkpt lat="48.73768" lon="-3.271">
        <ele>18</ele>
        <time>2014-10-05T08:33:45Z</time>
      </trkpt>
      <trkpt lat="48.73764" lon="-3.27116">
        <ele>17</ele>
        <time>2014-10-05T08:33:46Z</time>
      </trkpt>
      <trkpt lat="48.73761" lon="-3.27132">
        <ele>17</ele>
        <time>2014-10-05T08:33:47Z</time>
      </trkpt>
      <trkpt lat="48.73757" lon="-3.27148">
        <ele>17</ele>
        <time>2014-10-05T08:33:48Z</time>
      </trkpt>
      <trkpt lat="48.73753" lon="-3.27165">
        <ele>17</ele>
        <time>2014-10-05T08:33:49Z</time>
      </trkpt>
      <trkpt lat="48.73749" lon="-3.27181">
        <ele>17</ele>
        <time>2014-10-05T08:33:50Z</time>
      </trkpt>
      <trkpt lat="48.73745" lon="-3.27196">
        <ele>16</ele>
        <time>2014-10-05T08:33:51Z</time>
      </trkpt>
      <trkpt lat="48.7374" lon="-3.27211">
        <ele>16</ele>
        <time>2014-10-05T08:33:52Z</time>
      </trkpt>
      <trkpt lat="48.73735" lon="-3.27226">
        <ele>16</ele>
        <time>2014-10-05T08:33:53Z</time>
      </trkpt>
      <trkpt lat="48.7373" lon="-3.2724">
        <ele>16</ele>
        <time>2014-10-05T08:33:54Z</time>
      </trkpt>
      <trkpt lat="48.73726" lon="-3.27254">
        <ele>16</ele>
        <time>2014-10-05T08:33:55Z</time>
      </trkpt>
      <trkpt lat="48.7372" lon="-3.27267">
        <ele>16</ele>
        <time>2014-10-05T08:33:56Z</time>
      </trkpt>
      <trkpt lat="48.73714" lon="-3.2728">
        <ele>16</ele>
        <time>2014-10-05T08:33:57Z</time>
      </trkpt>
      <trkpt lat="48.73709" lon="-3.27294">
        <ele>16</ele>
        <time>2014-10-05T08:33:58Z</time>
      </trkpt>
      <trkpt lat="48.73703" lon="-3.27307">
        <ele>16</ele>
        <time>2014-10-05T08:33:59Z</time>
      </trkpt>
      <trkpt lat="48.73698" lon="-3.2732">
        <ele>16</ele>
        <time>2014-10-05T08:34:00Z</time>
      </trkpt>
      <trkpt lat="48.73692" lon="-3.27333">
        <ele>16</ele>
        <time>2014-10-05T08:34:01Z</time>
      </trkpt>
      <trkpt lat="48.73685" lon="-3.27346">
        <ele>16</ele>
        <time>2014-10-05T08:34:02Z</time>
      </trkpt>
      <trkpt lat="48.73678" lon="-3.27358">
        <ele>16</ele>
        <time>2014-10-05T08:34:03Z</time>
      </trkpt>
      <trkpt lat="48.73671" lon="-3.2737">
        <ele>16</ele>
        <time>2014-10-05T08:34:04Z</time>
      </trkpt>
      <trkpt lat="48.73664" lon="-3.27383">
        <ele>15</ele>
        <time>2014-10-05T08:34:05Z</time>
      </trkpt>
      <trkpt lat="48.73657" lon="-3.27395">
        <ele>15</ele>
        <time>2014-10-05T08:34:06Z</time>
      </trkpt>
      <trkpt lat="48.7365" lon="-3.27407">
        <ele>15</ele>
        <time>2014-10-05T08:34:07Z</time>
      </trkpt>
      <trkpt lat="48.73643" lon="-3.2742">
        <ele>15</ele>
        <time>2014-10-05T08:34:08Z</time>
      </trkpt>
      <trkpt lat="48.73636" lon="-3.27432">
        <ele>14</ele>
        <time>2014-10-05T08:34:09Z</time>
      </trkpt>
      <trkpt lat="48.73629" lon="-3.27445">
        <ele>14</ele>
        <time>2014-10-05T08:34:10Z</time>
      </trkpt>
      <trkpt lat="48.73623" lon="-3.27458">
        <ele>14</ele>
        <time>2014-10-05T08:34:11Z</time>
      </trkpt>
      <trkpt lat="48.73616" lon="-3.27471">
        <ele>13</ele>
        <time>2014-10-05T08:34:12Z</time>
      </trkpt>
      <trkpt lat="48.73611" lon="-3.27485">
        <ele>13</ele>
        <time>2014-10-05T08:34:13Z</time>
      </trkpt>
      <trkpt lat="48.73605" lon="-3.27498">
        <ele>13</ele>
        <time>2014-10-05T08:34:14Z</time>
      </trkpt>
      <trkpt lat="48.73599" lon="-3.27512">
        <ele>13</ele>
        <time>2014-10-05T08:34:15Z</time>
      </trkpt>
      <trkpt lat="48.73593" lon="-3.27525">
        <ele>13</ele>
        <time>2014-10-05T08:34:16Z</time>
      </trkpt>
      <trkpt lat="48.73587" lon="-3.27538">
        <ele>12</ele>
        <time>2014-10-05T08:34:17Z</time>
      </trkpt>
      <trkpt lat="48.73581" lon="-3.27551">
        <ele>12</ele>
        <time>2014-10-05T08:34:18Z</time>
      </trkpt>
      <trkpt lat="48.73575" lon="-3.27564">
        <ele>12</ele>
        <time>2014-10-05T08:34:19Z</time>
      </trkpt>
      <trkpt lat="48.73568" lon="-3.27577">
        <ele>12</ele>
        <time>2014-10-05T08:34:20Z</time>
      </trkpt>
      <trkpt lat="48.73561" lon="-3.27589">
        <ele>12</ele>
        <time>2014-10-05T08:34:21Z</time>
      </trkpt>
      <trkpt lat="48.73554" lon="-3.27601">
        <ele>12</ele>
        <time>2014-10-05T08:34:22Z</time>
      </trkpt>
      <trkpt lat="48.73546" lon="-3.27613">
        <ele>12</ele>
        <time>2014-10-05T08:34:23Z</time>
      </trkpt>
      <trkpt lat="48.73539" lon="-3.27624">
        <ele>12</ele>
        <time>2014-10-05T08:34:24Z</time>
      </trkpt>
      <trkpt lat="48.73531" lon="-3.27635">
        <ele>12</ele>
        <time>2014-10-05T08:34:25Z</time>
      </trkpt>
      <trkpt lat="48.73523" lon="-3.27646">
        <ele>12</ele>
        <time>2014-10-05T08:34:26Z</time>
      </trkpt>
      <trkpt lat="48.73515" lon="-3.27657">
        <ele>12</ele>
        <time>2014-10-05T08:34:27Z</time>
      </trkpt>
      <trkpt lat="48.73507" lon="-3.27667">
        <ele>12</ele>
        <time>2014-10-05T08:34:28Z</time>
      </trkpt>
      <trkpt lat="48.73498" lon="-3.27677">
        <ele>12</ele>
        <time>2014-10-05T08:34:29Z</time>
      </trkpt>
      <trkpt lat="48.7349" lon="-3.27686">
        <ele>12</ele>
        <time>2014-10-05T08:34:30Z</time>
      </trkpt>
      <trkpt lat="48.73481" lon="-3.27695">
        <ele>12</ele>
        <time>2014-10-05T08:34:31Z</time>
      </trkpt>
      <trkpt lat="48.73473" lon="-3.27703">
        <ele>12</ele>
        <time>2014-10-05T08:34:32Z</time>
      </trkpt>
      <trkpt lat="48.73464" lon="-3.27711">
        <ele>12</ele>
        <time>2014-10-05T08:34:33Z</time>
      </trkpt>
      <trkpt lat="48.73455" lon="-3.27717">
        <ele>12</ele>
        <time>2014-10-05T08:34:34Z</time>
      </trkpt>
      <trkpt lat="48.73446" lon="-3.27723">
        <ele>12</ele>
        <time>2014-10-05T08:34:35Z</time>
      </trkpt>
      <trkpt lat="48.73436" lon="-3.27727">
        <ele>12</ele>
        <time>2014-10-05T08:34:36Z</time>
      </trkpt>
      <trkpt lat="48.73427" lon="-3.27731">
        <ele>12</ele>
        <time>2014-10-05T08:34:37Z</time>
      </trkpt>
      <trkpt lat="48.73418" lon="-3.27735">
        <ele>12</ele>
        <time>2014-10-05T08:34:38Z</time>
      </trkpt>
      <trkpt lat="48.73409" lon="-3.27739">
        <ele>12</ele>
        <time>2014-10-05T08:34:39Z</time>
      </trkpt>
      <trkpt lat="48.734" lon="-3.27743">
        <ele>12</ele>
        <time>2014-10-05T08:34:40Z</time>
      </trkpt>
      <trkpt lat="48.73391" lon="-3.27747">
        <ele>12</ele>
        <time>2014-10-05T08:34:41Z</time>
      </trkpt>
      <trkpt lat="48.73382" lon="-3.27751">
        <ele>12</ele>
        <time>2014-10-05T08:34:42Z</time>
      </trkpt>
      <trkpt lat="48.73373" lon="-3.27755">
        <ele>12</ele>
        <time>2014-10-05T08:34:43Z</time>
      </trkpt>
      <trkpt lat="48.73364" lon="-3.2776">
        <ele>12</ele>
        <time>2014-10-05T08:34:44Z</time>
      </trkpt>
      <trkpt lat="48.73355" lon="-3.27765">
        <ele>12</ele>
        <time>2014-10-05T08:34:45Z</time>
      </trkpt>
      <trkpt lat="48.73347" lon="-3.27771">
        <ele>12</ele>
        <time>2014-10-05T08:34:46Z</time>
      </trkpt>
      <trkpt lat="48.7334" lon="-3.27779">
        <ele>12</ele>
        <time>2014-10-05T08:34:47Z</time>
      </trkpt>
      <trkpt lat="48.73333" lon="-3.27786">
        <ele>12</ele>
        <time>2014-10-05T08:34:48Z</time>
      </trkpt>
      <trkpt lat="48.73327" lon="-3.27794">
        <ele>12</ele>
        <time>2014-10-05T08:34:49Z</time>
      </trkpt>
      <trkpt lat="48.7332" lon="-3.27802">
        <ele>12</ele>
        <time>2014-10-05T08:34:50Z</time>
      </trkpt>
      <trkpt lat="48.73314" lon="-3.27811">
        <ele>12</ele>
        <time>2014-10-05T08:34:51Z</time>
      </trkpt>
      <trkpt lat="48.73308" lon="-3.27819">
        <ele>12</ele>
        <time>2014-10-05T08:34:52Z</time>
      </trkpt>
      <trkpt lat="48.73302" lon="-3.27828">
        <ele>12</ele>
        <time>2014-10-05T08:34:53Z</time>
      </trkpt>
      <trkpt lat="48.73296" lon="-3.27836">
        <ele>12</ele>
        <time>2014-10-05T08:34:54Z</time>
      </trkpt>
      <trkpt lat="48.73292" lon="-3.27845">
        <ele>12</ele>
        <time>2014-10-05T08:34:55Z</time>
      </trkpt>
      <trkpt lat="48.73287" lon="-3.27853">
        <ele>12</ele>
        <time>2014-10-05T08:34:56Z</time>
      </trkpt>
      <trkpt lat="48.73282" lon="-3.27862">
        <ele>12</ele>
        <time>2014-10-05T08:34:57Z</time>
      </trkpt>
      <trkpt lat="48.73278" lon="-3.2787">
        <ele>12</ele>
        <time>2014-10-05T08:34:58Z</time>
      </trkpt>
      <trkpt lat="48.73274" lon="-3.27879">
        <ele>12</ele>
        <time>2014-10-05T08:34:59Z</time>
      </trkpt>
      <trkpt lat="48.7327" lon="-3.27888">
        <ele>12</ele>
        <time>2014-10-05T08:35:00Z</time>
      </trkpt>
      <trkpt lat="48.73267" lon="-3.27896">
        <ele>12</ele>
        <time>2014-10-05T08:35:01Z</time>
      </trkpt>
      <trkpt lat="48.73262" lon="-3.27904">
        <ele>12</ele>
        <time>2014-10-05T08:35:02Z</time>
      </trkpt>
      <trkpt lat="48.73259" lon="-3.27912">
        <ele>12</ele>
        <time>2014-10-05T08:35:03Z</time>
      </trkpt>
      <trkpt lat="48.73254" lon="-3.2792">
        <ele>12</ele>
        <time>2014-10-05T08:35:04Z</time>
      </trkpt>
      <trkpt lat="48.7325" lon="-3.27927">
        <ele>12</ele>
        <time>2014-10-05T08:35:05Z</time>
      </trkpt>
      <trkpt lat="48.73246" lon="-3.27934">
        <ele>13</ele>
        <time>2014-10-05T08:35:06Z</time>
      </trkpt>
      <trkpt lat="48.73242" lon="-3.27941">
        <ele>13</ele>
        <time>2014-10-05T08:35:07Z</time>
      </trkpt>
      <trkpt lat="48.73237" lon="-3.27948">
        <ele>13</ele>
        <time>2014-10-05T08:35:08Z</time>
      </trkpt>
      <trkpt lat="48.73233" lon="-3.27955">
        <ele>13</ele>
        <time>2014-10-05T08:35:09Z</time>
      </trkpt>
      <trkpt lat="48.73228" lon="-3.27962">
        <ele>14</ele>
        <time>2014-10-05T08:35:10Z</time>
      </trkpt>
      <trkpt lat="48.73223" lon="-3.27969">
        <ele>14</ele>
        <time>2014-10-05T08:35:11Z</time>
      </trkpt>
      <trkpt lat="48.73219" lon="-3.27976">
        <ele>14</ele>
        <time>2014-10-05T08:35:12Z</time>
      </trkpt>
      <trkpt lat="48.73214" lon="-3.27983">
        <ele>14</ele>
        <time>2014-10-05T08:35:13Z</time>
      </trkpt>
      <trkpt lat="48.7321" lon="-3.2799">
        <ele>14</ele>
        <time>2014-10-05T08:35:14Z</time>
      </trkpt>
      <trkpt lat="48.73205" lon="-3.27997">
        <ele>14</ele>
        <time>2014-10-05T08:35:15Z</time>
      </trkpt>
      <trkpt lat="48.73201" lon="-3.28004">
        <ele>15</ele>
        <time>2014-10-05T08:35:16Z</time>
      </trkpt>
      <trkpt lat="48.73197" lon="-3.28011">
        <ele>15</ele>
        <time>2014-10-05T08:35:17Z</time>
      </trkpt>
      <trkpt lat="48.73193" lon="-3.28018">
        <ele>15</ele>
        <time>2014-10-05T08:35:18Z</time>
      </trkpt>
      <trkpt lat="48.73189" lon="-3.28025">
        <ele>15</ele>
        <time>2014-10-05T08:35:19Z</time>
      </trkpt>
      <trkpt lat="48.73186" lon="-3.28032">
        <ele>15</ele>
        <time>2014-10-05T08:35:20Z</time>
      </trkpt>
      <trkpt lat="48.73182" lon="-3.2804">
        <ele>15</ele>
        <time>2014-10-05T08:35:21Z</time>
      </trkpt>
      <trkpt lat="48.73178" lon="-3.28047">
        <ele>15</ele>
        <time>2014-10-05T08:35:22Z</time>
      </trkpt>
      <trkpt lat="48.73175" lon="-3.28055">
        <ele>15</ele>
        <time>2014-10-05T08:35:23Z</time>
      </trkpt>
      <trkpt lat="48.73172" lon="-3.28063">
        <ele>15</ele>
        <time>2014-10-05T08:35:24Z</time>
      </trkpt>
      <trkpt lat="48.73169" lon="-3.28071">
        <ele>15</ele>
        <time>2014-10-05T08:35:25Z</time>
      </trkpt>
      <trkpt lat="48.73165" lon="-3.28079">
        <ele>16</ele>
        <time>2014-10-05T08:35:26Z</time>
      </trkpt>
      <trkpt lat="48.73162" lon="-3.28087">
        <ele>16</ele>
        <time>2014-10-05T08:35:27Z</time>
      </trkpt>
      <trkpt lat="48.73159" lon="-3.28095">
        <ele>16</ele>
        <time>2014-10-05T08:35:28Z</time>
      </trkpt>
      <trkpt lat="48.73156" lon="-3.28103">
        <ele>16</ele>
        <time>2014-10-05T08:35:29Z</time>
      </trkpt>
      <trkpt lat="48.73153" lon="-3.28112">
        <ele>16</ele>
        <time>2014-10-05T08:35:30Z</time>
      </trkpt>
      <trkpt lat="48.73149" lon="-3.28121">
        <ele>16</ele>
        <time>2014-10-05T08:35:31Z</time>
      </trkpt>
      <trkpt lat="48.73146" lon="-3.2813">
        <ele>17</ele>
        <time>2014-10-05T08:35:32Z</time>
      </trkpt>
      <trkpt lat="48.73144" lon="-3.28138">
        <ele>17</ele>
        <time>2014-10-05T08:35:33Z</time>
      </trkpt>
      <trkpt lat="48.73141" lon="-3.28148">
        <ele>17</ele>
        <time>2014-10-05T08:35:34Z</time>
      </trkpt>
      <trkpt lat="48.73138" lon="-3.28157">
        <ele>17</ele>
        <time>2014-10-05T08:35:35Z</time>
      </trkpt>
      <trkpt lat="48.73135" lon="-3.28166">
        <ele>18</ele>
        <time>2014-10-05T08:35:36Z</time>
      </trkpt>
      <trkpt lat="48.73132" lon="-3.28175">
        <ele>18</ele>
        <time>2014-10-05T08:35:37Z</time>
      </trkpt>
      <trkpt lat="48.73129" lon="-3.28184">
        <ele>18</ele>
        <time>2014-10-05T08:35:38Z</time>
      </trkpt>
      <trkpt lat="48.73126" lon="-3.28194">
        <ele>19</ele>
        <time>2014-10-05T08:35:39Z</time>
      </trkpt>
      <trkpt lat="48.73122" lon="-3.28203">
        <ele>19</ele>
        <time>2014-10-05T08:35:40Z</time>
      </trkpt>
      <trkpt lat="48.73119" lon="-3.28212">
        <ele>19</ele>
        <time>2014-10-05T08:35:41Z</time>
      </trkpt>
      <trkpt lat="48.73116" lon="-3.28221">
        <ele>20</ele>
        <time>2014-10-05T08:35:42Z</time>
      </trkpt>
      <trkpt lat="48.73113" lon="-3.2823">
        <ele>20</ele>
        <time>2014-10-05T08:35:43Z</time>
      </trkpt>
      <trkpt lat="48.7311" lon="-3.28238">
        <ele>20</ele>
        <time>2014-10-05T08:35:44Z</time>
      </trkpt>
      <trkpt lat="48.73107" lon="-3.28247">
        <ele>21</ele>
        <time>2014-10-05T08:35:45Z</time>
      </trkpt>
      <trkpt lat="48.73104" lon="-3.28256">
        <ele>21</ele>
        <time>2014-10-05T08:35:46Z</time>
      </trkpt>
      <trkpt lat="48.73101" lon="-3.28264">
        <ele>22</ele>
        <time>2014-10-05T08:35:47Z</time>
      </trkpt>
      <trkpt lat="48.73098" lon="-3.28273">
        <ele>22</ele>
        <time>2014-10-05T08:35:48Z</time>
      </trkpt>
      <trkpt lat="48.73095" lon="-3.28281">
        <ele>23</ele>
        <time>2014-10-05T08:35:49Z</time>
      </trkpt>
      <trkpt lat="48.73092" lon="-3.2829">
        <ele>23</ele>
        <time>2014-10-05T08:35:50Z</time>
      </trkpt>
      <trkpt lat="48.73088" lon="-3.28298">
        <ele>24</ele>
        <time>2014-10-05T08:35:51Z</time>
      </trkpt>
      <trkpt lat="48.73085" lon="-3.28306">
        <ele>24</ele>
        <time>2014-10-05T08:35:52Z</time>
      </trkpt>
      <trkpt lat="48.73082" lon="-3.28314">
        <ele>24</ele>
        <time>2014-10-05T08:35:53Z</time>
      </trkpt>
      <trkpt lat="48.73079" lon="-3.28322">
        <ele>25</ele>
        <time>2014-10-05T08:35:54Z</time>
      </trkpt>
      <trkpt lat="48.73075" lon="-3.2833">
        <ele>25</ele>
        <time>2014-10-05T08:35:55Z</time>
      </trkpt>
      <trkpt lat="48.73071" lon="-3.28338">
        <ele>25</ele>
        <time>2014-10-05T08:35:56Z</time>
      </trkpt>
      <trkpt lat="48.73067" lon="-3.28345">
        <ele>25</ele>
        <time>2014-10-05T08:35:57Z</time>
      </trkpt>
      <trkpt lat="48.73063" lon="-3.28351">
        <ele>25</ele>
        <time>2014-10-05T08:35:58Z</time>
      </trkpt>
      <trkpt lat="48.73058" lon="-3.28358">
        <ele>26</ele>
        <time>2014-10-05T08:35:59Z</time>
      </trkpt>
      <trkpt lat="48.73053" lon="-3.28364">
        <ele>26</ele>
        <time>2014-10-05T08:36:00Z</time>
      </trkpt>
      <trkpt lat="48.73049" lon="-3.28369">
        <ele>26</ele>
        <time>2014-10-05T08:36:01Z</time>
      </trkpt>
      <trkpt lat="48.73044" lon="-3.28375">
        <ele>26</ele>
        <time>2014-10-05T08:36:02Z</time>
      </trkpt>
      <trkpt lat="48.7304" lon="-3.2838">
        <ele>26</ele>
        <time>2014-10-05T08:36:03Z</time>
      </trkpt>
      <trkpt lat="48.73035" lon="-3.28385">
        <ele>26</ele>
        <time>2014-10-05T08:36:04Z</time>
      </trkpt>
      <trkpt lat="48.73029" lon="-3.2839">
        <ele>27</ele>
        <time>2014-10-05T08:36:05Z</time>
      </trkpt>
      <trkpt lat="48.73025" lon="-3.28395">
        <ele>27</ele>
        <time>2014-10-05T08:36:06Z</time>
      </trkpt>
      <trkpt lat="48.7302" lon="-3.28399">
        <ele>27</ele>
        <time>2014-10-05T08:36:07Z</time>
      </trkpt>
      <trkpt lat="48.73015" lon="-3.28403">
        <ele>27</ele>
        <time>2014-10-05T08:36:08Z</time>
      </trkpt>
      <trkpt lat="48.7301" lon="-3.28408">
        <ele>27</ele>
        <time>2014-10-05T08:36:09Z</time>
      </trkpt>
      <trkpt lat="48.73005" lon="-3.28412">
        <ele>27</ele>
        <time>2014-10-05T08:36:10Z</time>
      </trkpt>
      <trkpt lat="48.73" lon="-3.28416">
        <ele>28</ele>
        <time>2014-10-05T08:36:11Z</time>
      </trkpt>
      <trkpt lat="48.72996" lon="-3.2842">
        <ele>28</ele>
        <time>2014-10-05T08:36:12Z</time>
      </trkpt>
      <trkpt lat="48.72991" lon="-3.28424">
        <ele>28</ele>
        <time>2014-10-05T08:36:13Z</time>
      </trkpt>
      <trkpt lat="48.72986" lon="-3.28428">
        <ele>28</ele>
        <time>2014-10-05T08:36:14Z</time>
      </trkpt>
      <trkpt lat="48.72982" lon="-3.28432">
        <ele>29</ele>
        <time>2014-10-05T08:36:15Z</time>
      </trkpt>
      <trkpt lat="48.72977" lon="-3.28435">
        <ele>29</ele>
        <time>2014-10-05T08:36:16Z</time>
      </trkpt>
      <trkpt lat="48.72973" lon="-3.28438">
        <ele>29</ele>
        <time>2014-10-05T08:36:17Z</time>
      </trkpt>
      <trkpt lat="48.72968" lon="-3.28442">
        <ele>30</ele>
        <time>2014-10-05T08:36:18Z</time>
      </trkpt>
      <trkpt lat="48.72964" lon="-3.28445">
        <ele>30</ele>
        <time>2014-10-05T08:36:19Z</time>
      </trkpt>
      <trkpt lat="48.7296" lon="-3.28449">
        <ele>30</ele>
        <time>2014-10-05T08:36:20Z</time>
      </trkpt>
      <trkpt lat="48.72956" lon="-3.28452">
        <ele>31</ele>
        <time>2014-10-05T08:36:21Z</time>
      </trkpt>
      <trkpt lat="48.72952" lon="-3.28455">
        <ele>31</ele>
        <time>2014-10-05T08:36:22Z</time>
      </trkpt>
      <trkpt lat="48.72948" lon="-3.28458">
        <ele>31</ele>
        <time>2014-10-05T08:36:23Z</time>
      </trkpt>
      <trkpt lat="48.72944" lon="-3.28461">
        <ele>31</ele>
        <time>2014-10-05T08:36:24Z</time>
      </trkpt>
      <trkpt lat="48.7294" lon="-3.28463">
        <ele>32</ele>
        <time>2014-10-05T08:36:25Z</time>
      </trkpt>
      <trkpt lat="48.72936" lon="-3.28466">
        <ele>32</ele>
        <time>2014-10-05T08:36:26Z</time>
      </trkpt>
      <trkpt lat="48.72932" lon="-3.28468">
        <ele>32</ele>
        <time>2014-10-05T08:36:27Z</time>
      </trkpt>
      <trkpt lat="48.72927" lon="-3.2847">
        <ele>32</ele>
        <time>2014-10-05T08:36:28Z</time>
      </trkpt>
      <trkpt lat="48.72924" lon="-3.28472">
        <ele>33</ele>
        <time>2014-10-05T08:36:29Z</time>
      </trkpt>
      <trkpt lat="48.7292" lon="-3.28474">
        <ele>33</ele>
        <time>2014-10-05T08:36:30Z</time>
      </trkpt>
      <trkpt lat="48.72916" lon="-3.28476">
        <ele>34</ele>
        <time>2014-10-05T08:36:31Z</time>
      </trkpt>
      <trkpt lat="48.72911" lon="-3.28478">
        <ele>34</ele>
        <time>2014-10-05T08:36:32Z</time>
      </trkpt>
      <trkpt lat="48.72908" lon="-3.2848">
        <ele>34</ele>
        <time>2014-10-05T08:36:33Z</time>
      </trkpt>
      <trkpt lat="48.72904" lon="-3.28481">
        <ele>35</ele>
        <time>2014-10-05T08:36:34Z</time>
      </trkpt>
      <trkpt lat="48.729" lon="-3.28483">
        <ele>35</ele>
        <time>2014-10-05T08:36:35Z</time>
      </trkpt>
      <trkpt lat="48.72896" lon="-3.28484">
        <ele>35</ele>
        <time>2014-10-05T08:36:36Z</time>
      </trkpt>
      <trkpt lat="48.72892" lon="-3.28485">
        <ele>35</ele>
        <time>2014-10-05T08:36:37Z</time>
      </trkpt>
      <trkpt lat="48.72889" lon="-3.28487">
        <ele>36</ele>
        <time>2014-10-05T08:36:38Z</time>
      </trkpt>
      <trkpt lat="48.72886" lon="-3.28488">
        <ele>36</ele>
        <time>2014-10-05T08:36:39Z</time>
      </trkpt>
      <trkpt lat="48.72882" lon="-3.28489">
        <ele>36</ele>
        <time>2014-10-05T08:36:40Z</time>
      </trkpt>
      <trkpt lat="48.72879" lon="-3.2849">
        <ele>36</ele>
        <time>2014-10-05T08:36:41Z</time>
      </trkpt>
      <trkpt lat="48.72875" lon="-3.28491">
        <ele>36</ele>
        <time>2014-10-05T08:36:42Z</time>
      </trkpt>
      <trkpt lat="48.72871" lon="-3.28493">
        <ele>36</ele>
        <time>2014-10-05T08:36:43Z</time>
      </trkpt>
      <trkpt lat="48.72868" lon="-3.28494">
        <ele>36</ele>
        <time>2014-10-05T08:36:44Z</time>
      </trkpt>
      <trkpt lat="48.72864" lon="-3.28497">
        <ele>36</ele>
        <time>2014-10-05T08:36:45Z</time>
      </trkpt>
      <trkpt lat="48.7286" lon="-3.28499">
        <ele>36</ele>
        <time>2014-10-05T08:36:46Z</time>
      </trkpt>
      <trkpt lat="48.72857" lon="-3.28501">
        <ele>36</ele>
        <time>2014-10-05T08:36:47Z</time>
      </trkpt>
      <trkpt lat="48.72853" lon="-3.28503">
        <ele>36</ele>
        <time>2014-10-05T08:36:48Z</time>
      </trkpt>
      <trkpt lat="48.72849" lon="-3.28506">
        <ele>36</ele>
        <time>2014-10-05T08:36:49Z</time>
      </trkpt>
      <trkpt lat="48.72845" lon="-3.28508">
        <ele>36</ele>
        <time>2014-10-05T08:36:50Z</time>
      </trkpt>
      <trkpt lat="48.72841" lon="-3.28511">
        <ele>36</ele>
        <time>2014-10-05T08:36:51Z</time>
      </trkpt>
      <trkpt lat="48.72836" lon="-3.28513">
        <ele>36</ele>
        <time>2014-10-05T08:36:52Z</time>
      </trkpt>
      <trkpt lat="48.72832" lon="-3.28516">
        <ele>36</ele>
        <time>2014-10-05T08:36:53Z</time>
      </trkpt>
      <trkpt lat="48.72828" lon="-3.28518">
        <ele>36</ele>
        <time>2014-10-05T08:36:54Z</time>
      </trkpt>
      <trkpt lat="48.72824" lon="-3.28521">
        <ele>37</ele>
        <time>2014-10-05T08:36:55Z</time>
      </trkpt>
      <trkpt lat="48.7282" lon="-3.28524">
        <ele>37</ele>
        <time>2014-10-05T08:36:56Z</time>
      </trkpt>
      <trkpt lat="48.72816" lon="-3.28527">
        <ele>38</ele>
        <time>2014-10-05T08:36:57Z</time>
      </trkpt>
      <trkpt lat="48.72812" lon="-3.2853">
        <ele>38</ele>
        <time>2014-10-05T08:36:58Z</time>
      </trkpt>
      <trkpt lat="48.72808" lon="-3.28533">
        <ele>38</ele>
        <time>2014-10-05T08:36:59Z</time>
      </trkpt>
      <trkpt lat="48.72804" lon="-3.28537">
        <ele>38</ele>
        <time>2014-10-05T08:37:00Z</time>
      </trkpt>
      <trkpt lat="48.728" lon="-3.2854">
        <ele>39</ele>
        <time>2014-10-05T08:37:01Z</time>
      </trkpt>
      <trkpt lat="48.72796" lon="-3.28543">
        <ele>39</ele>
        <time>2014-10-05T08:37:02Z</time>
      </trkpt>
      <trkpt lat="48.72792" lon="-3.28547">
        <ele>39</ele>
        <time>2014-10-05T08:37:03Z</time>
      </trkpt>
      <trkpt lat="48.72787" lon="-3.28551">
        <ele>39</ele>
        <time>2014-10-05T08:37:04Z</time>
      </trkpt>
      <trkpt lat="48.72783" lon="-3.28554">
        <ele>40</ele>
        <time>2014-10-05T08:37:05Z</time>
      </trkpt>
      <trkpt lat="48.72779" lon="-3.28558">
        <ele>40</ele>
        <time>2014-10-05T08:37:06Z</time>
      </trkpt>
      <trkpt lat="48.72774" lon="-3.28562">
        <ele>40</ele>
        <time>2014-10-05T08:37:07Z</time>
      </trkpt>
      <trkpt lat="48.7277" lon="-3.28567">
        <ele>41</ele>
        <time>2014-10-05T08:37:08Z</time>
      </trkpt>
      <trkpt lat="48.72765" lon="-3.28571">
        <ele>41</ele>
        <time>2014-10-05T08:37:09Z</time>
      </trkpt>
      <trkpt lat="48.72761" lon="-3.28575">
        <ele>42</ele>
        <time>2014-10-05T08:37:10Z</time>
      </trkpt>
      <trkpt lat="48.72757" lon="-3.28579">
        <ele>42</ele>
        <time>2014-10-05T08:37:11Z</time>
      </trkpt>
      <trkpt lat="48.72752" lon="-3.28583">
        <ele>42</ele>
        <time>2014-10-05T08:37:12Z</time>
      </trkpt>
      <trkpt lat="48.72748" lon="-3.28587">
        <ele>43</ele>
        <time>2014-10-05T08:37:13Z</time>
      </trkpt>
      <trkpt lat="48.72744" lon="-3.28591">
        <ele>43</ele>
        <time>2014-10-05T08:37:14Z</time>
      </trkpt>
      <trkpt lat="48.72739" lon="-3.28595">
        <ele>43</ele>
        <time>2014-10-05T08:37:15Z</time>
      </trkpt>
      <trkpt lat="48.72735" lon="-3.28599">
        <ele>43</ele>
        <time>2014-10-05T08:37:16Z</time>
      </trkpt>
      <trkpt lat="48.7273" lon="-3.28603">
        <ele>43</ele>
        <time>2014-10-05T08:37:17Z</time>
      </trkpt>
      <trkpt lat="48.72726" lon="-3.28606">
        <ele>44</ele>
        <time>2014-10-05T08:37:18Z</time>
      </trkpt>
      <trkpt lat="48.72721" lon="-3.28609">
        <ele>44</ele>
        <time>2014-10-05T08:37:19Z</time>
      </trkpt>
      <trkpt lat="48.72716" lon="-3.28612">
        <ele>44</ele>
        <time>2014-10-05T08:37:20Z</time>
      </trkpt>
      <trkpt lat="48.72711" lon="-3.28615">
        <ele>44</ele>
        <time>2014-10-05T08:37:21Z</time>
      </trkpt>
      <trkpt lat="48.72707" lon="-3.28618">
        <ele>44</ele>
        <time>2014-10-05T08:37:22Z</time>
      </trkpt>
      <trkpt lat="48.72702" lon="-3.28622">
        <ele>45</ele>
        <time>2014-10-05T08:37:23Z</time>
      </trkpt>
      <trkpt lat="48.72697" lon="-3.28625">
        <ele>45</ele>
        <time>2014-10-05T08:37:24Z</time>
      </trkpt>
      <trkpt lat="48.72693" lon="-3.28629">
        <ele>45</ele>
        <time>2014-10-05T08:37:25Z</time>
      </trkpt>
      <trkpt lat="48.72688" lon="-3.28632">
        <ele>45</ele>
        <time>2014-10-05T08:37:26Z</time>
      </trkpt>
      <trkpt lat="48.72683" lon="-3.28635">
        <ele>45</ele>
        <time>2014-10-05T08:37:27Z</time>
      </trkpt>
      <trkpt lat="48.72678" lon="-3.28638">
        <ele>45</ele>
        <time>2014-10-05T08:37:28Z</time>
      </trkpt>
      <trkpt lat="48.72673" lon="-3.28641">
        <ele>45</ele>
        <time>2014-10-05T08:37:29Z</time>
      </trkpt>
      <trkpt lat="48.72668" lon="-3.28644">
        <ele>45</ele>
        <time>2014-10-05T08:37:30Z</time>
      </trkpt>
      <trkpt lat="48.72664" lon="-3.28647">
        <ele>45</ele>
        <time>2014-10-05T08:37:31Z</time>
      </trkpt>
      <trkpt lat="48.72659" lon="-3.2865">
        <ele>45</ele>
        <time>2014-10-05T08:37:32Z</time>
      </trkpt>
      <trkpt lat="48.72654" lon="-3.28653">
        <ele>45</ele>
        <time>2014-10-05T08:37:33Z</time>
      </trkpt>
      <trkpt lat="48.7265" lon="-3.28656">
        <ele>45</ele>
        <time>2014-10-05T08:37:34Z</time>
      </trkpt>
      <trkpt lat="48.72645" lon="-3.28659">
        <ele>45</ele>
        <time>2014-10-05T08:37:35Z</time>
      </trkpt>
      <trkpt lat="48.72641" lon="-3.28661">
        <ele>45</ele>
        <time>2014-10-05T08:37:36Z</time>
      </trkpt>
      <trkpt lat="48.72636" lon="-3.28664">
        <ele>46</ele>
        <time>2014-10-05T08:37:37Z</time>
      </trkpt>
      <trkpt lat="48.72632" lon="-3.28667">
        <ele>46</ele>
        <time>2014-10-05T08:37:38Z</time>
      </trkpt>
      <trkpt lat="48.72627" lon="-3.2867">
        <ele>46</ele>
        <time>2014-10-05T08:37:39Z</time>
      </trkpt>
      <trkpt lat="48.72623" lon="-3.28672">
        <ele>46</ele>
        <time>2014-10-05T08:37:40Z</time>
      </trkpt>
      <trkpt lat="48.72618" lon="-3.28675">
        <ele>47</ele>
        <time>2014-10-05T08:37:41Z</time>
      </trkpt>
      <trkpt lat="48.72614" lon="-3.28678">
        <ele>47</ele>
        <time>2014-10-05T08:37:42Z</time>
      </trkpt>
      <trkpt lat="48.7261" lon="-3.28681">
        <ele>48</ele>
        <time>2014-10-05T08:37:43Z</time>
      </trkpt>
      <trkpt lat="48.72606" lon="-3.28683">
        <ele>48</ele>
        <time>2014-10-05T08:37:44Z</time>
      </trkpt>
      <trkpt lat="48.72601" lon="-3.28686">
        <ele>48</ele>
        <time>2014-10-05T08:37:45Z</time>
      </trkpt>
      <trkpt lat="48.72597" lon="-3.28689">
        <ele>49</ele>
        <time>2014-10-05T08:37:46Z</time>
      </trkpt>
      <trkpt lat="48.72593" lon="-3.28691">
        <ele>50</ele>
        <time>2014-10-05T08:37:47Z</time>
      </trkpt>
      <trkpt lat="48.72589" lon="-3.28694">
        <ele>50</ele>
        <time>2014-10-05T08:37:48Z</time>
      </trkpt>
      <trkpt lat="48.72585" lon="-3.28696">
        <ele>51</ele>
        <time>2014-10-05T08:37:49Z</time>
      </trkpt>
      <trkpt lat="48.72581" lon="-3.28699">
        <ele>51</ele>
        <time>2014-10-05T08:37:50Z</time>
      </trkpt>
      <trkpt lat="48.72577" lon="-3.28702">
        <ele>51</ele>
        <time>2014-10-05T08:37:51Z</time>
      </trkpt>
      <trkpt lat="48.72573" lon="-3.28705">
        <ele>52</ele>
        <time>2014-10-05T08:37:52Z</time>
      </trkpt>
      <trkpt lat="48.7257" lon="-3.28708">
        <ele>53</ele>
        <time>2014-10-05T08:37:53Z</time>
      </trkpt>
      <trkpt lat="48.72566" lon="-3.28711">
        <ele>53</ele>
        <time>2014-10-05T08:37:54Z</time>
      </trkpt>
      <trkpt lat="48.72562" lon="-3.28715">
        <ele>54</ele>
        <time>2014-10-05T08:37:55Z</time>
      </trkpt>
      <trkpt lat="48.72558" lon="-3.28718">
        <ele>54</ele>
        <time>2014-10-05T08:37:56Z</time>
      </trkpt>
      <trkpt lat="48.72554" lon="-3.28721">
        <ele>55</ele>
        <time>2014-10-05T08:37:57Z</time>
      </trkpt>
      <trkpt lat="48.72551" lon="-3.28725">
        <ele>55</ele>
        <time>2014-10-05T08:37:58Z</time>
      </trkpt>
      <trkpt lat="48.72548" lon="-3.28729">
        <ele>55</ele>
        <time>2014-10-05T08:37:59Z</time>
      </trkpt>
      <trkpt lat="48.72544" lon="-3.28732">
        <ele>55</ele>
        <time>2014-10-05T08:38:00Z</time>
      </trkpt>
      <trkpt lat="48.72541" lon="-3.28735">
        <ele>55</ele>
        <time>2014-10-05T08:38:01Z</time>
      </trkpt>
      <trkpt lat="48.72537" lon="-3.28738">
        <ele>55</ele>
        <time>2014-10-05T08:38:02Z</time>
      </trkpt>
      <trkpt lat="48.72534" lon="-3.28741">
        <ele>55</ele>
        <time>2014-10-05T08:38:03Z</time>
      </trkpt>
      <trkpt lat="48.72531" lon="-3.28744">
        <ele>55</ele>
        <time>2014-10-05T08:38:04Z</time>
      </trkpt>
      <trkpt lat="48.72528" lon="-3.28747">
        <ele>56</ele>
        <time>2014-10-05T08:38:05Z</time>
      </trkpt>
      <trkpt lat="48.72525" lon="-3.2875">
        <ele>56</ele>
        <time>2014-10-05T08:38:06Z</time>
      </trkpt>
      <trkpt lat="48.72522" lon="-3.28754">
        <ele>57</ele>
        <time>2014-10-05T08:38:07Z</time>
      </trkpt>
      <trkpt lat="48.72519" lon="-3.28757">
        <ele>57</ele>
        <time>2014-10-05T08:38:09Z</time>
      </trkpt>
      <trkpt lat="48.72516" lon="-3.28761">
        <ele>58</ele>
        <time>2014-10-05T08:38:09Z</time>
      </trkpt>
      <trkpt lat="48.72513" lon="-3.28764">
        <ele>59</ele>
        <time>2014-10-05T08:38:10Z</time>
      </trkpt>
      <trkpt lat="48.7251" lon="-3.28767">
        <ele>59</ele>
        <time>2014-10-05T08:38:11Z</time>
      </trkpt>
      <trkpt lat="48.72506" lon="-3.2877">
        <ele>59</ele>
        <time>2014-10-05T08:38:12Z</time>
      </trkpt>
      <trkpt lat="48.72503" lon="-3.28772">
        <ele>60</ele>
        <time>2014-10-05T08:38:13Z</time>
      </trkpt>
      <trkpt lat="48.725" lon="-3.28775">
        <ele>60</ele>
        <time>2014-10-05T08:38:14Z</time>
      </trkpt>
      <trkpt lat="48.72497" lon="-3.28779">
        <ele>61</ele>
        <time>2014-10-05T08:38:15Z</time>
      </trkpt>
      <trkpt lat="48.72494" lon="-3.28782">
        <ele>61</ele>
        <time>2014-10-05T08:38:16Z</time>
      </trkpt>
      <trkpt lat="48.72491" lon="-3.28785">
        <ele>62</ele>
        <time>2014-10-05T08:38:17Z</time>
      </trkpt>
      <trkpt lat="48.72489" lon="-3.28789">
        <ele>62</ele>
        <time>2014-10-05T08:38:18Z</time>
      </trkpt>
      <trkpt lat="48.72486" lon="-3.28793">
        <ele>62</ele>
        <time>2014-10-05T08:38:19Z</time>
      </trkpt>
      <trkpt lat="48.72483" lon="-3.28797">
        <ele>62</ele>
        <time>2014-10-05T08:38:20Z</time>
      </trkpt>
      <trkpt lat="48.7248" lon="-3.288">
        <ele>62</ele>
        <time>2014-10-05T08:38:21Z</time>
      </trkpt>
      <trkpt lat="48.72476" lon="-3.28803">
        <ele>62</ele>
        <time>2014-10-05T08:38:22Z</time>
      </trkpt>
      <trkpt lat="48.72473" lon="-3.28806">
        <ele>62</ele>
        <time>2014-10-05T08:38:23Z</time>
      </trkpt>
      <trkpt lat="48.7247" lon="-3.2881">
        <ele>63</ele>
        <time>2014-10-05T08:38:24Z</time>
      </trkpt>
      <trkpt lat="48.72467" lon="-3.28813">
        <ele>64</ele>
        <time>2014-10-05T08:38:25Z</time>
      </trkpt>
      <trkpt lat="48.72464" lon="-3.28817">
        <ele>64</ele>
        <time>2014-10-05T08:38:26Z</time>
      </trkpt>
      <trkpt lat="48.72461" lon="-3.2882">
        <ele>64</ele>
        <time>2014-10-05T08:38:27Z</time>
      </trkpt>
      <trkpt lat="48.72457" lon="-3.28824">
        <ele>64</ele>
        <time>2014-10-05T08:38:28Z</time>
      </trkpt>
      <trkpt lat="48.72454" lon="-3.28828">
        <ele>64</ele>
        <time>2014-10-05T08:38:29Z</time>
      </trkpt>
      <trkpt lat="48.72451" lon="-3.28831">
        <ele>64</ele>
        <time>2014-10-05T08:38:30Z</time>
      </trkpt>
      <trkpt lat="48.72448" lon="-3.28834">
        <ele>64</ele>
        <time>2014-10-05T08:38:31Z</time>
      </trkpt>
      <trkpt lat="48.72445" lon="-3.28838">
        <ele>64</ele>
        <time>2014-10-05T08:38:32Z</time>
      </trkpt>
      <trkpt lat="48.72442" lon="-3.28842">
        <ele>65</ele>
        <time>2014-10-05T08:38:33Z</time>
      </trkpt>
      <trkpt lat="48.72439" lon="-3.28845">
        <ele>65</ele>
        <time>2014-10-05T08:38:34Z</time>
      </trkpt>
      <trkpt lat="48.72435" lon="-3.28849">
        <ele>65</ele>
        <time>2014-10-05T08:38:35Z</time>
      </trkpt>
      <trkpt lat="48.72432" lon="-3.28852">
        <ele>65</ele>
        <time>2014-10-05T08:38:36Z</time>
      </trkpt>
      <trkpt lat="48.72429" lon="-3.28856">
        <ele>65</ele>
        <time>2014-10-05T08:38:37Z</time>
      </trkpt>
      <trkpt lat="48.72426" lon="-3.28859">
        <ele>66</ele>
        <time>2014-10-05T08:38:38Z</time>
      </trkpt>
      <trkpt lat="48.72423" lon="-3.28862">
        <ele>66</ele>
        <time>2014-10-05T08:38:39Z</time>
      </trkpt>
      <trkpt lat="48.72419" lon="-3.28865">
        <ele>66</ele>
        <time>2014-10-05T08:38:40Z</time>
      </trkpt>
      <trkpt lat="48.72416" lon="-3.28869">
        <ele>66</ele>
        <time>2014-10-05T08:38:41Z</time>
      </trkpt>
      <trkpt lat="48.72413" lon="-3.28872">
        <ele>66</ele>
        <time>2014-10-05T08:38:42Z</time>
      </trkpt>
      <trkpt lat="48.72409" lon="-3.28875">
        <ele>66</ele>
        <time>2014-10-05T08:38:43Z</time>
      </trkpt>
      <trkpt lat="48.72406" lon="-3.28878">
        <ele>66</ele>
        <time>2014-10-05T08:38:44Z</time>
      </trkpt>
      <trkpt lat="48.72402" lon="-3.28881">
        <ele>66</ele>
        <time>2014-10-05T08:38:45Z</time>
      </trkpt>
      <trkpt lat="48.72399" lon="-3.28885">
        <ele>66</ele>
        <time>2014-10-05T08:38:46Z</time>
      </trkpt>
      <trkpt lat="48.72395" lon="-3.28888">
        <ele>66</ele>
        <time>2014-10-05T08:38:47Z</time>
      </trkpt>
      <trkpt lat="48.72392" lon="-3.28891">
        <ele>66</ele>
        <time>2014-10-05T08:38:48Z</time>
      </trkpt>
      <trkpt lat="48.72388" lon="-3.28894">
        <ele>66</ele>
        <time>2014-10-05T08:38:49Z</time>
      </trkpt>
      <trkpt lat="48.72385" lon="-3.28897">
        <ele>66</ele>
        <time>2014-10-05T08:38:50Z</time>
      </trkpt>
      <trkpt lat="48.72381" lon="-3.28901">
        <ele>66</ele>
        <time>2014-10-05T08:38:51Z</time>
      </trkpt>
      <trkpt lat="48.72377" lon="-3.28905">
        <ele>67</ele>
        <time>2014-10-05T08:38:52Z</time>
      </trkpt>
      <trkpt lat="48.72373" lon="-3.28908">
        <ele>67</ele>
        <time>2014-10-05T08:38:53Z</time>
      </trkpt>
      <trkpt lat="48.72369" lon="-3.28912">
        <ele>67</ele>
        <time>2014-10-05T08:38:54Z</time>
      </trkpt>
      <trkpt lat="48.72365" lon="-3.28915">
        <ele>67</ele>
        <time>2014-10-05T08:38:55Z</time>
      </trkpt>
      <trkpt lat="48.72361" lon="-3.28919">
        <ele>67</ele>
        <time>2014-10-05T08:38:56Z</time>
      </trkpt>
      <trkpt lat="48.72357" lon="-3.28922">
        <ele>68</ele>
        <time>2014-10-05T08:38:57Z</time>
      </trkpt>
      <trkpt lat="48.72353" lon="-3.28926">
        <ele>68</ele>
        <time>2014-10-05T08:38:58Z</time>
      </trkpt>
      <trkpt lat="48.7235" lon="-3.28929">
        <ele>68</ele>
        <time>2014-10-05T08:38:59Z</time>
      </trkpt>
      <trkpt lat="48.72346" lon="-3.28933">
        <ele>68</ele>
        <time>2014-10-05T08:39:00Z</time>
      </trkpt>
      <trkpt lat="48.72342" lon="-3.28937">
        <ele>69</ele>
        <time>2014-10-05T08:39:01Z</time>
      </trkpt>
      <trkpt lat="48.72338" lon="-3.2894">
        <ele>69</ele>
        <time>2014-10-05T08:39:02Z</time>
      </trkpt>
      <trkpt lat="48.72334" lon="-3.28943">
        <ele>69</ele>
        <time>2014-10-05T08:39:03Z</time>
      </trkpt>
      <trkpt lat="48.72329" lon="-3.28947">
        <ele>69</ele>
        <time>2014-10-05T08:39:04Z</time>
      </trkpt>
      <trkpt lat="48.72326" lon="-3.28951">
        <ele>69</ele>
        <time>2014-10-05T08:39:05Z</time>
      </trkpt>
      <trkpt lat="48.72321" lon="-3.28954">
        <ele>70</ele>
        <time>2014-10-05T08:39:06Z</time>
      </trkpt>
      <trkpt lat="48.72317" lon="-3.28959">
        <ele>70</ele>
        <time>2014-10-05T08:39:07Z</time>
      </trkpt>
      <trkpt lat="48.72313" lon="-3.28963">
        <ele>70</ele>
        <time>2014-10-05T08:39:08Z</time>
      </trkpt>
      <trkpt lat="48.72308" lon="-3.28967">
        <ele>70</ele>
        <time>2014-10-05T08:39:09Z</time>
      </trkpt>
      <trkpt lat="48.72303" lon="-3.28971">
        <ele>70</ele>
        <time>2014-10-05T08:39:10Z</time>
      </trkpt>
      <trkpt lat="48.72298" lon="-3.28975">
        <ele>70</ele>
        <time>2014-10-05T08:39:11Z</time>
      </trkpt>
      <trkpt lat="48.72294" lon="-3.28979">
        <ele>70</ele>
        <time>2014-10-05T08:39:12Z</time>
      </trkpt>
      <trkpt lat="48.72289" lon="-3.28984">
        <ele>71</ele>
        <time>2014-10-05T08:39:13Z</time>
      </trkpt>
      <trkpt lat="48.72284" lon="-3.28988">
        <ele>71</ele>
        <time>2014-10-05T08:39:14Z</time>
      </trkpt>
      <trkpt lat="48.72279" lon="-3.28992">
        <ele>71</ele>
        <time>2014-10-05T08:39:15Z</time>
      </trkpt>
      <trkpt lat="48.72274" lon="-3.28996">
        <ele>71</ele>
        <time>2014-10-05T08:39:16Z</time>
      </trkpt>
      <trkpt lat="48.72269" lon="-3.29">
        <ele>71</ele>
        <time>2014-10-05T08:39:17Z</time>
      </trkpt>
      <trkpt lat="48.72265" lon="-3.29004">
        <ele>72</ele>
        <time>2014-10-05T08:39:18Z</time>
      </trkpt>
      <trkpt lat="48.7226" lon="-3.29007">
        <ele>72</ele>
        <time>2014-10-05T08:39:19Z</time>
      </trkpt>
      <trkpt lat="48.72255" lon="-3.29011">
        <ele>72</ele>
        <time>2014-10-05T08:39:20Z</time>
      </trkpt>
      <trkpt lat="48.7225" lon="-3.29015">
        <ele>72</ele>
        <time>2014-10-05T08:39:21Z</time>
      </trkpt>
      <trkpt lat="48.72245" lon="-3.29019">
        <ele>73</ele>
        <time>2014-10-05T08:39:22Z</time>
      </trkpt>
      <trkpt lat="48.7224" lon="-3.29023">
        <ele>73</ele>
        <time>2014-10-05T08:39:23Z</time>
      </trkpt>
      <trkpt lat="48.72235" lon="-3.29027">
        <ele>73</ele>
        <time>2014-10-05T08:39:24Z</time>
      </trkpt>
      <trkpt lat="48.72231" lon="-3.29031">
        <ele>73</ele>
        <time>2014-10-05T08:39:25Z</time>
      </trkpt>
      <trkpt lat="48.72226" lon="-3.29035">
        <ele>73</ele>
        <time>2014-10-05T08:39:26Z</time>
      </trkpt>
      <trkpt lat="48.72221" lon="-3.29039">
        <ele>73</ele>
        <time>2014-10-05T08:39:27Z</time>
      </trkpt>
      <trkpt lat="48.72215" lon="-3.29043">
        <ele>73</ele>
        <time>2014-10-05T08:39:28Z</time>
      </trkpt>
      <trkpt lat="48.7221" lon="-3.29047">
        <ele>73</ele>
        <time>2014-10-05T08:39:29Z</time>
      </trkpt>
      <trkpt lat="48.72205" lon="-3.2905">
        <ele>73</ele>
        <time>2014-10-05T08:39:30Z</time>
      </trkpt>
      <trkpt lat="48.72199" lon="-3.29054">
        <ele>73</ele>
        <time>2014-10-05T08:39:31Z</time>
      </trkpt>
      <trkpt lat="48.72194" lon="-3.29059">
        <ele>73</ele>
        <time>2014-10-05T08:39:32Z</time>
      </trkpt>
      <trkpt lat="48.72189" lon="-3.29063">
        <ele>74</ele>
        <time>2014-10-05T08:39:33Z</time>
      </trkpt>
      <trkpt lat="48.72184" lon="-3.29067">
        <ele>74</ele>
        <time>2014-10-05T08:39:34Z</time>
      </trkpt>
      <trkpt lat="48.72179" lon="-3.2907">
        <ele>74</ele>
        <time>2014-10-05T08:39:35Z</time>
      </trkpt>
      <trkpt lat="48.72173" lon="-3.29074">
        <ele>74</ele>
        <time>2014-10-05T08:39:36Z</time>
      </trkpt>
      <trkpt lat="48.72168" lon="-3.29078">
        <ele>74</ele>
        <time>2014-10-05T08:39:37Z</time>
      </trkpt>
      <trkpt lat="48.72163" lon="-3.29082">
        <ele>74</ele>
        <time>2014-10-05T08:39:38Z</time>
      </trkpt>
      <trkpt lat="48.72157" lon="-3.29085">
        <ele>74</ele>
        <time>2014-10-05T08:39:39Z</time>
      </trkpt>
      <trkpt lat="48.72152" lon="-3.29089">
        <ele>74</ele>
        <time>2014-10-05T08:39:40Z</time>
      </trkpt>
      <trkpt lat="48.72147" lon="-3.29093">
        <ele>74</ele>
        <time>2014-10-05T08:39:41Z</time>
      </trkpt>
      <trkpt lat="48.72142" lon="-3.29097">
        <ele>74</ele>
        <time>2014-10-05T08:39:42Z</time>
      </trkpt>
      <trkpt lat="48.72136" lon="-3.291">
        <ele>74</ele>
        <time>2014-10-05T08:39:43Z</time>
      </trkpt>
      <trkpt lat="48.72131" lon="-3.29104">
        <ele>74</ele>
        <time>2014-10-05T08:39:44Z</time>
      </trkpt>
      <trkpt lat="48.72126" lon="-3.29108">
        <ele>74</ele>
        <time>2014-10-05T08:39:45Z</time>
      </trkpt>
      <trkpt lat="48.72121" lon="-3.29112">
        <ele>74</ele>
        <time>2014-10-05T08:39:46Z</time>
      </trkpt>
      <trkpt lat="48.72115" lon="-3.29115">
        <ele>74</ele>
        <time>2014-10-05T08:39:47Z</time>
      </trkpt>
      <trkpt lat="48.7211" lon="-3.29118">
        <ele>74</ele>
        <time>2014-10-05T08:39:48Z</time>
      </trkpt>
      <trkpt lat="48.72105" lon="-3.29122">
        <ele>74</ele>
        <time>2014-10-05T08:39:49Z</time>
      </trkpt>
      <trkpt lat="48.72099" lon="-3.29125">
        <ele>74</ele>
        <time>2014-10-05T08:39:50Z</time>
      </trkpt>
      <trkpt lat="48.72093" lon="-3.29127">
        <ele>74</ele>
        <time>2014-10-05T08:39:51Z</time>
      </trkpt>
      <trkpt lat="48.72087" lon="-3.2913">
        <ele>74</ele>
        <time>2014-10-05T08:39:52Z</time>
      </trkpt>
      <trkpt lat="48.72082" lon="-3.29132">
        <ele>74</ele>
        <time>2014-10-05T08:39:53Z</time>
      </trkpt>
      <trkpt lat="48.72076" lon="-3.29134">
        <ele>74</ele>
        <time>2014-10-05T08:39:54Z</time>
      </trkpt>
      <trkpt lat="48.7207" lon="-3.29136">
        <ele>74</ele>
        <time>2014-10-05T08:39:55Z</time>
      </trkpt>
      <trkpt lat="48.72064" lon="-3.29138">
        <ele>74</ele>
        <time>2014-10-05T08:39:56Z</time>
      </trkpt>
      <trkpt lat="48.72058" lon="-3.2914">
        <ele>74</ele>
        <time>2014-10-05T08:39:57Z</time>
      </trkpt>
      <trkpt lat="48.72052" lon="-3.29143">
        <ele>74</ele>
        <time>2014-10-05T08:39:58Z</time>
      </trkpt>
      <trkpt lat="48.72046" lon="-3.29145">
        <ele>74</ele>
        <time>2014-10-05T08:39:59Z</time>
      </trkpt>
      <trkpt lat="48.72039" lon="-3.29147">
        <ele>74</ele>
        <time>2014-10-05T08:40:00Z</time>
      </trkpt>
      <trkpt lat="48.72033" lon="-3.29149">
        <ele>74</ele>
        <time>2014-10-05T08:40:01Z</time>
      </trkpt>
      <trkpt lat="48.72027" lon="-3.29152">
        <ele>74</ele>
        <time>2014-10-05T08:40:02Z</time>
      </trkpt>
      <trkpt lat="48.7202" lon="-3.29154">
        <ele>74</ele>
        <time>2014-10-05T08:40:03Z</time>
      </trkpt>
      <trkpt lat="48.72015" lon="-3.29156">
        <ele>74</ele>
        <time>2014-10-05T08:40:04Z</time>
      </trkpt>
      <trkpt lat="48.72009" lon="-3.29158">
        <ele>74</ele>
        <time>2014-10-05T08:40:05Z</time>
      </trkpt>
      <trkpt lat="48.72003" lon="-3.2916">
        <ele>74</ele>
        <time>2014-10-05T08:40:06Z</time>
      </trkpt>
      <trkpt lat="48.71997" lon="-3.29162">
        <ele>75</ele>
        <time>2014-10-05T08:40:07Z</time>
      </trkpt>
      <trkpt lat="48.71991" lon="-3.29164">
        <ele>75</ele>
        <time>2014-10-05T08:40:08Z</time>
      </trkpt>
      <trkpt lat="48.71985" lon="-3.29165">
        <ele>75</ele>
        <time>2014-10-05T08:40:09Z</time>
      </trkpt>
      <trkpt lat="48.71979" lon="-3.29166">
        <ele>75</ele>
        <time>2014-10-05T08:40:10Z</time>
      </trkpt>
      <trkpt lat="48.71973" lon="-3.29167">
        <ele>75</ele>
        <time>2014-10-05T08:40:11Z</time>
      </trkpt>
      <trkpt lat="48.71966" lon="-3.29168">
        <ele>75</ele>
        <time>2014-10-05T08:40:12Z</time>
      </trkpt>
      <trkpt lat="48.7196" lon="-3.29169">
        <ele>75</ele>
        <time>2014-10-05T08:40:13Z</time>
      </trkpt>
      <trkpt lat="48.71954" lon="-3.2917">
        <ele>75</ele>
        <time>2014-10-05T08:40:14Z</time>
      </trkpt>
      <trkpt lat="48.71947" lon="-3.29172">
        <ele>75</ele>
        <time>2014-10-05T08:40:15Z</time>
      </trkpt>
      <trkpt lat="48.71941" lon="-3.29174">
        <ele>75</ele>
        <time>2014-10-05T08:40:16Z</time>
      </trkpt>
      <trkpt lat="48.71935" lon="-3.29175">
        <ele>75</ele>
        <time>2014-10-05T08:40:17Z</time>
      </trkpt>
      <trkpt lat="48.71928" lon="-3.29176">
        <ele>75</ele>
        <time>2014-10-05T08:40:18Z</time>
      </trkpt>
      <trkpt lat="48.71922" lon="-3.29177">
        <ele>75</ele>
        <time>2014-10-05T08:40:19Z</time>
      </trkpt>
      <trkpt lat="48.71915" lon="-3.29179">
        <ele>75</ele>
        <time>2014-10-05T08:40:20Z</time>
      </trkpt>
      <trkpt lat="48.71909" lon="-3.29181">
        <ele>75</ele>
        <time>2014-10-05T08:40:21Z</time>
      </trkpt>
      <trkpt lat="48.71902" lon="-3.29182">
        <ele>75</ele>
        <time>2014-10-05T08:40:22Z</time>
      </trkpt>
      <trkpt lat="48.71896" lon="-3.29184">
        <ele>75</ele>
        <time>2014-10-05T08:40:23Z</time>
      </trkpt>
      <trkpt lat="48.71889" lon="-3.29186">
        <ele>75</ele>
        <time>2014-10-05T08:40:24Z</time>
      </trkpt>
      <trkpt lat="48.71883" lon="-3.29187">
        <ele>75</ele>
        <time>2014-10-05T08:40:25Z</time>
      </trkpt>
      <trkpt lat="48.71877" lon="-3.29188">
        <ele>76</ele>
        <time>2014-10-05T08:40:26Z</time>
      </trkpt>
      <trkpt lat="48.7187" lon="-3.29189">
        <ele>76</ele>
        <time>2014-10-05T08:40:27Z</time>
      </trkpt>
      <trkpt lat="48.71864" lon="-3.2919">
        <ele>76</ele>
        <time>2014-10-05T08:40:28Z</time>
      </trkpt>
      <trkpt lat="48.71858" lon="-3.29191">
        <ele>76</ele>
        <time>2014-10-05T08:40:29Z</time>
      </trkpt>
      <trkpt lat="48.71852" lon="-3.29192">
        <ele>76</ele>
        <time>2014-10-05T08:40:30Z</time>
      </trkpt>
      <trkpt lat="48.71847" lon="-3.29194">
        <ele>76</ele>
        <time>2014-10-05T08:40:31Z</time>
      </trkpt>
      <trkpt lat="48.71841" lon="-3.29195">
        <ele>76</ele>
        <time>2014-10-05T08:40:32Z</time>
      </trkpt>
      <trkpt lat="48.71835" lon="-3.29197">
        <ele>77</ele>
        <time>2014-10-05T08:40:33Z</time>
      </trkpt>
      <trkpt lat="48.71829" lon="-3.29199">
        <ele>77</ele>
        <time>2014-10-05T08:40:34Z</time>
      </trkpt>
      <trkpt lat="48.71823" lon="-3.29201">
        <ele>77</ele>
        <time>2014-10-05T08:40:35Z</time>
      </trkpt>
      <trkpt lat="48.71817" lon="-3.29202">
        <ele>77</ele>
        <time>2014-10-05T08:40:36Z</time>
      </trkpt>
      <trkpt lat="48.7181" lon="-3.29204">
        <ele>77</ele>
        <time>2014-10-05T08:40:37Z</time>
      </trkpt>
      <trkpt lat="48.71804" lon="-3.29205">
        <ele>78</ele>
        <time>2014-10-05T08:40:38Z</time>
      </trkpt>
      <trkpt lat="48.71798" lon="-3.29207">
        <ele>78</ele>
        <time>2014-10-05T08:40:39Z</time>
      </trkpt>
      <trkpt lat="48.71791" lon="-3.29208">
        <ele>78</ele>
        <time>2014-10-05T08:40:40Z</time>
      </trkpt>
      <trkpt lat="48.71785" lon="-3.2921">
        <ele>78</ele>
        <time>2014-10-05T08:40:41Z</time>
      </trkpt>
      <trkpt lat="48.71778" lon="-3.29211">
        <ele>78</ele>
        <time>2014-10-05T08:40:42Z</time>
      </trkpt>
      <trkpt lat="48.71772" lon="-3.29213">
        <ele>78</ele>
        <time>2014-10-05T08:40:43Z</time>
      </trkpt>
      <trkpt lat="48.71766" lon="-3.29215">
        <ele>78</ele>
        <time>2014-10-05T08:40:44Z</time>
      </trkpt>
      <trkpt lat="48.7176" lon="-3.29216">
        <ele>79</ele>
        <time>2014-10-05T08:40:45Z</time>
      </trkpt>
      <trkpt lat="48.71753" lon="-3.29217">
        <ele>79</ele>
        <time>2014-10-05T08:40:46Z</time>
      </trkpt>
      <trkpt lat="48.71747" lon="-3.29218">
        <ele>79</ele>
        <time>2014-10-05T08:40:47Z</time>
      </trkpt>
      <trkpt lat="48.71741" lon="-3.29219">
        <ele>79</ele>
        <time>2014-10-05T08:40:48Z</time>
      </trkpt>
      <trkpt lat="48.71735" lon="-3.29221">
        <ele>79</ele>
        <time>2014-10-05T08:40:49Z</time>
      </trkpt>
      <trkpt lat="48.71728" lon="-3.29223">
        <ele>79</ele>
        <time>2014-10-05T08:40:50Z</time>
      </trkpt>
      <trkpt lat="48.71722" lon="-3.29225">
        <ele>80</ele>
        <time>2014-10-05T08:40:51Z</time>
      </trkpt>
      <trkpt lat="48.71716" lon="-3.29227">
        <ele>80</ele>
        <time>2014-10-05T08:40:52Z</time>
      </trkpt>
      <trkpt lat="48.7171" lon="-3.29229">
        <ele>80</ele>
        <time>2014-10-05T08:40:53Z</time>
      </trkpt>
      <trkpt lat="48.71704" lon="-3.29232">
        <ele>80</ele>
        <time>2014-10-05T08:40:54Z</time>
      </trkpt>
      <trkpt lat="48.71698" lon="-3.29234">
        <ele>80</ele>
        <time>2014-10-05T08:40:55Z</time>
      </trkpt>
      <trkpt lat="48.71692" lon="-3.29237">
        <ele>80</ele>
        <time>2014-10-05T08:40:56Z</time>
      </trkpt>
      <trkpt lat="48.71687" lon="-3.2924">
        <ele>81</ele>
        <time>2014-10-05T08:40:57Z</time>
      </trkpt>
      <trkpt lat="48.7168" lon="-3.29243">
        <ele>81</ele>
        <time>2014-10-05T08:40:58Z</time>
      </trkpt>
      <trkpt lat="48.71675" lon="-3.29246">
        <ele>81</ele>
        <time>2014-10-05T08:40:59Z</time>
      </trkpt>
      <trkpt lat="48.71669" lon="-3.29249">
        <ele>81</ele>
        <time>2014-10-05T08:41:00Z</time>
      </trkpt>
      <trkpt lat="48.71663" lon="-3.29252">
        <ele>81</ele>
        <time>2014-10-05T08:41:01Z</time>
      </trkpt>
      <trkpt lat="48.71657" lon="-3.29255">
        <ele>82</ele>
        <time>2014-10-05T08:41:02Z</time>
      </trkpt>
      <trkpt lat="48.71651" lon="-3.29258">
        <ele>82</ele>
        <time>2014-10-05T08:41:03Z</time>
      </trkpt>
      <trkpt lat="48.71645" lon="-3.29262">
        <ele>82</ele>
        <time>2014-10-05T08:41:04Z</time>
      </trkpt>
      <trkpt lat="48.7164" lon="-3.29265">
        <ele>82</ele>
        <time>2014-10-05T08:41:05Z</time>
      </trkpt>
      <trkpt lat="48.71634" lon="-3.29269">
        <ele>82</ele>
        <time>2014-10-05T08:41:06Z</time>
      </trkpt>
      <trkpt lat="48.71629" lon="-3.29273">
        <ele>82</ele>
        <time>2014-10-05T08:41:07Z</time>
      </trkpt>
      <trkpt lat="48.71624" lon="-3.29276">
        <ele>83</ele>
        <time>2014-10-05T08:41:08Z</time>
      </trkpt>
      <trkpt lat="48.71618" lon="-3.2928">
        <ele>83</ele>
        <time>2014-10-05T08:41:09Z</time>
      </trkpt>
      <trkpt lat="48.71613" lon="-3.29285">
        <ele>83</ele>
        <time>2014-10-05T08:41:10Z</time>
      </trkpt>
      <trkpt lat="48.71608" lon="-3.29289">
        <ele>83</ele>
        <time>2014-10-05T08:41:11Z</time>
      </trkpt>
      <trkpt lat="48.71602" lon="-3.29293">
        <ele>83</ele>
        <time>2014-10-05T08:41:12Z</time>
      </trkpt>
      <trkpt lat="48.71597" lon="-3.29297">
        <ele>83</ele>
        <time>2014-10-05T08:41:13Z</time>
      </trkpt>
      <trkpt lat="48.71592" lon="-3.29302">
        <ele>83</ele>
        <time>2014-10-05T08:41:14Z</time>
      </trkpt>
      <trkpt lat="48.71587" lon="-3.29307">
        <ele>83</ele>
        <time>2014-10-05T08:41:15Z</time>
      </trkpt>
      <trkpt lat="48.71582" lon="-3.29311">
        <ele>83</ele>
        <time>2014-10-05T08:41:16Z</time>
      </trkpt>
      <trkpt lat="48.71577" lon="-3.29316">
        <ele>83</ele>
        <time>2014-10-05T08:41:17Z</time>
      </trkpt>
      <trkpt lat="48.71572" lon="-3.2932">
        <ele>83</ele>
        <time>2014-10-05T08:41:18Z</time>
      </trkpt>
      <trkpt lat="48.71567" lon="-3.29325">
        <ele>83</ele>
        <time>2014-10-05T08:41:19Z</time>
      </trkpt>
      <trkpt lat="48.71563" lon="-3.2933">
        <ele>83</ele>
        <time>2014-10-05T08:41:20Z</time>
      </trkpt>
      <trkpt lat="48.71558" lon="-3.29335">
        <ele>83</ele>
        <time>2014-10-05T08:41:21Z</time>
      </trkpt>
      <trkpt lat="48.71555" lon="-3.29341">
        <ele>83</ele>
        <time>2014-10-05T08:41:22Z</time>
      </trkpt>
      <trkpt lat="48.71552" lon="-3.29348">
        <ele>83</ele>
        <time>2014-10-05T08:41:23Z</time>
      </trkpt>
      <trkpt lat="48.7155" lon="-3.29356">
        <ele>83</ele>
        <time>2014-10-05T08:41:24Z</time>
      </trkpt>
      <trkpt lat="48.71551" lon="-3.29364">
        <ele>83</ele>
        <time>2014-10-05T08:41:25Z</time>
      </trkpt>
      <trkpt lat="48.71552" lon="-3.29373">
        <ele>83</ele>
        <time>2014-10-05T08:41:26Z</time>
      </trkpt>
      <trkpt lat="48.71554" lon="-3.29381">
        <ele>83</ele>
        <time>2014-10-05T08:41:27Z</time>
      </trkpt>
      <trkpt lat="48.71557" lon="-3.29389">
        <ele>83</ele>
        <time>2014-10-05T08:41:28Z</time>
      </trkpt>
      <trkpt lat="48.71559" lon="-3.29397">
        <ele>83</ele>
        <time>2014-10-05T08:41:29Z</time>
      </trkpt>
      <trkpt lat="48.71562" lon="-3.29405">
        <ele>83</ele>
        <time>2014-10-05T08:41:30Z</time>
      </trkpt>
      <trkpt lat="48.71565" lon="-3.29414">
        <ele>83</ele>
        <time>2014-10-05T08:41:31Z</time>
      </trkpt>
      <trkpt lat="48.71568" lon="-3.29423">
        <ele>83</ele>
        <time>2014-10-05T08:41:32Z</time>
      </trkpt>
      <trkpt lat="48.71571" lon="-3.29432">
        <ele>83</ele>
        <time>2014-10-05T08:41:33Z</time>
      </trkpt>
      <trkpt lat="48.71574" lon="-3.29441">
        <ele>83</ele>
        <time>2014-10-05T08:41:34Z</time>
      </trkpt>
      <trkpt lat="48.71577" lon="-3.2945">
        <ele>83</ele>
        <time>2014-10-05T08:41:35Z</time>
      </trkpt>
      <trkpt lat="48.7158" lon="-3.2946">
        <ele>83</ele>
        <time>2014-10-05T08:41:36Z</time>
      </trkpt>
      <trkpt lat="48.71583" lon="-3.2947">
        <ele>83</ele>
        <time>2014-10-05T08:41:37Z</time>
      </trkpt>
      <trkpt lat="48.71586" lon="-3.2948">
        <ele>83</ele>
        <time>2014-10-05T08:41:38Z</time>
      </trkpt>
      <trkpt lat="48.7159" lon="-3.2949">
        <ele>83</ele>
        <time>2014-10-05T08:41:39Z</time>
      </trkpt>
      <trkpt lat="48.71593" lon="-3.295">
        <ele>83</ele>
        <time>2014-10-05T08:41:40Z</time>
      </trkpt>
      <trkpt lat="48.71597" lon="-3.2951">
        <ele>83</ele>
        <time>2014-10-05T08:41:41Z</time>
      </trkpt>
      <trkpt lat="48.716" lon="-3.29521">
        <ele>83</ele>
        <time>2014-10-05T08:41:42Z</time>
      </trkpt>
      <trkpt lat="48.71604" lon="-3.29531">
        <ele>83</ele>
        <time>2014-10-05T08:41:43Z</time>
      </trkpt>
      <trkpt lat="48.71607" lon="-3.29541">
        <ele>83</ele>
        <time>2014-10-05T08:41:44Z</time>
      </trkpt>
      <trkpt lat="48.71611" lon="-3.29551">
        <ele>83</ele>
        <time>2014-10-05T08:41:45Z</time>
      </trkpt>
      <trkpt lat="48.71614" lon="-3.29562">
        <ele>83</ele>
        <time>2014-10-05T08:41:46Z</time>
      </trkpt>
      <trkpt lat="48.71618" lon="-3.29573">
        <ele>83</ele>
        <time>2014-10-05T08:41:47Z</time>
      </trkpt>
      <trkpt lat="48.71621" lon="-3.29585">
        <ele>83</ele>
        <time>2014-10-05T08:41:48Z</time>
      </trkpt>
      <trkpt lat="48.71625" lon="-3.29596">
        <ele>83</ele>
        <time>2014-10-05T08:41:49Z</time>
      </trkpt>
      <trkpt lat="48.71629" lon="-3.29607">
        <ele>83</ele>
        <time>2014-10-05T08:41:50Z</time>
      </trkpt>
      <trkpt lat="48.71632" lon="-3.29618">
        <ele>83</ele>
        <time>2014-10-05T08:41:51Z</time>
      </trkpt>
      <trkpt lat="48.71636" lon="-3.2963">
        <ele>83</ele>
        <time>2014-10-05T08:41:52Z</time>
      </trkpt>
      <trkpt lat="48.7164" lon="-3.29641">
        <ele>83</ele>
        <time>2014-10-05T08:41:53Z</time>
      </trkpt>
      <trkpt lat="48.71643" lon="-3.29653">
        <ele>83</ele>
        <time>2014-10-05T08:41:54Z</time>
      </trkpt>
      <trkpt lat="48.71647" lon="-3.29664">
        <ele>83</ele>
        <time>2014-10-05T08:41:55Z</time>
      </trkpt>
      <trkpt lat="48.7165" lon="-3.29676">
        <ele>83</ele>
        <time>2014-10-05T08:41:56Z</time>
      </trkpt>
      <trkpt lat="48.71653" lon="-3.29688">
        <ele>83</ele>
        <time>2014-10-05T08:41:57Z</time>
      </trkpt>
      <trkpt lat="48.71657" lon="-3.29699">
        <ele>83</ele>
        <time>2014-10-05T08:41:58Z</time>
      </trkpt>
      <trkpt lat="48.7166" lon="-3.29711">
        <ele>83</ele>
        <time>2014-10-05T08:41:59Z</time>
      </trkpt>
      <trkpt lat="48.71663" lon="-3.29723">
        <ele>83</ele>
        <time>2014-10-05T08:42:00Z</time>
      </trkpt>
      <trkpt lat="48.71666" lon="-3.29736">
        <ele>83</ele>
        <time>2014-10-05T08:42:01Z</time>
      </trkpt>
      <trkpt lat="48.71669" lon="-3.29748">
        <ele>83</ele>
        <time>2014-10-05T08:42:02Z</time>
      </trkpt>
      <trkpt lat="48.71672" lon="-3.29761">
        <ele>83</ele>
        <time>2014-10-05T08:42:03Z</time>
      </trkpt>
      <trkpt lat="48.71674" lon="-3.29773">
        <ele>83</ele>
        <time>2014-10-05T08:42:04Z</time>
      </trkpt>
      <trkpt lat="48.71677" lon="-3.29785">
        <ele>83</ele>
        <time>2014-10-05T08:42:05Z</time>
      </trkpt>
      <trkpt lat="48.71679" lon="-3.29798">
        <ele>83</ele>
        <time>2014-10-05T08:42:06Z</time>
      </trkpt>
      <trkpt lat="48.71682" lon="-3.2981">
        <ele>83</ele>
        <time>2014-10-05T08:42:07Z</time>
      </trkpt>
      <trkpt lat="48.71684" lon="-3.29823">
        <ele>83</ele>
        <time>2014-10-05T08:42:08Z</time>
      </trkpt>
      <trkpt lat="48.71686" lon="-3.29835">
        <ele>83</ele>
        <time>2014-10-05T08:42:09Z</time>
      </trkpt>
      <trkpt lat="48.71688" lon="-3.29848">
        <ele>83</ele>
        <time>2014-10-05T08:42:10Z</time>
      </trkpt>
      <trkpt lat="48.7169" lon="-3.2986">
        <ele>83</ele>
        <time>2014-10-05T08:42:11Z</time>
      </trkpt>
      <trkpt lat="48.71693" lon="-3.29873">
        <ele>83</ele>
        <time>2014-10-05T08:42:12Z</time>
      </trkpt>
      <trkpt lat="48.71695" lon="-3.29886">
        <ele>83</ele>
        <time>2014-10-05T08:42:13Z</time>
      </trkpt>
      <trkpt lat="48.71698" lon="-3.29899">
        <ele>83</ele>
        <time>2014-10-05T08:42:14Z</time>
      </trkpt>
      <trkpt lat="48.717" lon="-3.29912">
        <ele>83</ele>
        <time>2014-10-05T08:42:15Z</time>
      </trkpt>
      <trkpt lat="48.71702" lon="-3.29925">
        <ele>83</ele>
        <time>2014-10-05T08:42:16Z</time>
      </trkpt>
      <trkpt lat="48.71704" lon="-3.29939">
        <ele>83</ele>
        <time>2014-10-05T08:42:17Z</time>
      </trkpt>
      <trkpt lat="48.71706" lon="-3.29953">
        <ele>83</ele>
        <time>2014-10-05T08:42:18Z</time>
      </trkpt>
      <trkpt lat="48.71708" lon="-3.29966">
        <ele>82</ele>
        <time>2014-10-05T08:42:19Z</time>
      </trkpt>
      <trkpt lat="48.7171" lon="-3.2998">
        <ele>82</ele>
        <time>2014-10-05T08:42:20Z</time>
      </trkpt>
      <trkpt lat="48.71712" lon="-3.29994">
        <ele>82</ele>
        <time>2014-10-05T08:42:21Z</time>
      </trkpt>
      <trkpt lat="48.71715" lon="-3.30007">
        <ele>82</ele>
        <time>2014-10-05T08:42:22Z</time>
      </trkpt>
      <trkpt lat="48.71718" lon="-3.30021">
        <ele>81</ele>
        <time>2014-10-05T08:42:23Z</time>
      </trkpt>
      <trkpt lat="48.71721" lon="-3.30034">
        <ele>81</ele>
        <time>2014-10-05T08:42:24Z</time>
      </trkpt>
      <trkpt lat="48.71724" lon="-3.30048">
        <ele>81</ele>
        <time>2014-10-05T08:42:25Z</time>
      </trkpt>
      <trkpt lat="48.71727" lon="-3.30062">
        <ele>81</ele>
        <time>2014-10-05T08:42:26Z</time>
      </trkpt>
      <trkpt lat="48.71731" lon="-3.30076">
        <ele>80</ele>
        <time>2014-10-05T08:42:27Z</time>
      </trkpt>
      <trkpt lat="48.71735" lon="-3.3009">
        <ele>80</ele>
        <time>2014-10-05T08:42:28Z</time>
      </trkpt>
      <trkpt lat="48.71738" lon="-3.30103">
        <ele>80</ele>
        <time>2014-10-05T08:42:29Z</time>
      </trkpt>
      <trkpt lat="48.71742" lon="-3.30117">
        <ele>80</ele>
        <time>2014-10-05T08:42:30Z</time>
      </trkpt>
      <trkpt lat="48.71746" lon="-3.30132">
        <ele>79</ele>
        <time>2014-10-05T08:42:31Z</time>
      </trkpt>
      <trkpt lat="48.71749" lon="-3.30146">
        <ele>79</ele>
        <time>2014-10-05T08:42:32Z</time>
      </trkpt>
      <trkpt lat="48.71753" lon="-3.3016">
        <ele>78</ele>
        <time>2014-10-05T08:42:33Z</time>
      </trkpt>
      <trkpt lat="48.71757" lon="-3.30174">
        <ele>78</ele>
        <time>2014-10-05T08:42:34Z</time>
      </trkpt>
      <trkpt lat="48.71761" lon="-3.30188">
        <ele>78</ele>
        <time>2014-10-05T08:42:35Z</time>
      </trkpt>
      <trkpt lat="48.71765" lon="-3.30203">
        <ele>77</ele>
        <time>2014-10-05T08:42:36Z</time>
      </trkpt>
      <trkpt lat="48.71769" lon="-3.30217">
        <ele>77</ele>
        <time>2014-10-05T08:42:37Z</time>
      </trkpt>
      <trkpt lat="48.71773" lon="-3.30231">
        <ele>77</ele>
        <time>2014-10-05T08:42:38Z</time>
      </trkpt>
      <trkpt lat="48.71777" lon="-3.30245">
        <ele>76</ele>
        <time>2014-10-05T08:42:39Z</time>
      </trkpt>
      <trkpt lat="48.71781" lon="-3.30259">
        <ele>76</ele>
        <time>2014-10-05T08:42:40Z</time>
      </trkpt>
      <trkpt lat="48.71785" lon="-3.30274">
        <ele>76</ele>
        <time>2014-10-05T08:42:41Z</time>
      </trkpt>
      <trkpt lat="48.71788" lon="-3.30287">
        <ele>76</ele>
        <time>2014-10-05T08:42:42Z</time>
      </trkpt>
      <trkpt lat="48.71792" lon="-3.30301">
        <ele>76</ele>
        <time>2014-10-05T08:42:43Z</time>
      </trkpt>
      <trkpt lat="48.71796" lon="-3.30314">
        <ele>75</ele>
        <time>2014-10-05T08:42:44Z</time>
      </trkpt>
      <trkpt lat="48.718" lon="-3.30328">
        <ele>75</ele>
        <time>2014-10-05T08:42:45Z</time>
      </trkpt>
      <trkpt lat="48.71804" lon="-3.30342">
        <ele>75</ele>
        <time>2014-10-05T08:42:46Z</time>
      </trkpt>
      <trkpt lat="48.71809" lon="-3.30355">
        <ele>75</ele>
        <time>2014-10-05T08:42:47Z</time>
      </trkpt>
      <trkpt lat="48.71813" lon="-3.30369">
        <ele>75</ele>
        <time>2014-10-05T08:42:48Z</time>
      </trkpt>
      <trkpt lat="48.71818" lon="-3.30382">
        <ele>74</ele>
        <time>2014-10-05T08:42:49Z</time>
      </trkpt>
      <trkpt lat="48.71823" lon="-3.30395">
        <ele>74</ele>
        <time>2014-10-05T08:42:50Z</time>
      </trkpt>
      <trkpt lat="48.71828" lon="-3.30408">
        <ele>74</ele>
        <time>2014-10-05T08:42:51Z</time>
      </trkpt>
      <trkpt lat="48.71833" lon="-3.30421">
        <ele>74</ele>
        <time>2014-10-05T08:42:52Z</time>
      </trkpt>
      <trkpt lat="48.71838" lon="-3.30434">
        <ele>73</ele>
        <time>2014-10-05T08:42:53Z</time>
      </trkpt>
      <trkpt lat="48.71843" lon="-3.30446">
        <ele>73</ele>
        <time>2014-10-05T08:42:54Z</time>
      </trkpt>
      <trkpt lat="48.71848" lon="-3.30459">
        <ele>73</ele>
        <time>2014-10-05T08:42:55Z</time>
      </trkpt>
      <trkpt lat="48.71852" lon="-3.30472">
        <ele>73</ele>
        <time>2014-10-05T08:42:56Z</time>
      </trkpt>
      <trkpt lat="48.71857" lon="-3.30485">
        <ele>73</ele>
        <time>2014-10-05T08:42:57Z</time>
      </trkpt>
      <trkpt lat="48.71862" lon="-3.30499">
        <ele>73</ele>
        <time>2014-10-05T08:42:58Z</time>
      </trkpt>
      <trkpt lat="48.71867" lon="-3.30512">
        <ele>72</ele>
        <time>2014-10-05T08:42:59Z</time>
      </trkpt>
      <trkpt lat="48.71872" lon="-3.30524">
        <ele>72</ele>
        <time>2014-10-05T08:43:00Z</time>
      </trkpt>
      <trkpt lat="48.71878" lon="-3.30537">
        <ele>72</ele>
        <time>2014-10-05T08:43:01Z</time>
      </trkpt>
      <trkpt lat="48.71884" lon="-3.30549">
        <ele>72</ele>
        <time>2014-10-05T08:43:02Z</time>
      </trkpt>
      <trkpt lat="48.7189" lon="-3.30561">
        <ele>72</ele>
        <time>2014-10-05T08:43:03Z</time>
      </trkpt>
      <trkpt lat="48.71896" lon="-3.30573">
        <ele>72</ele>
        <time>2014-10-05T08:43:04Z</time>
      </trkpt>
      <trkpt lat="48.71901" lon="-3.30585">
        <ele>72</ele>
        <time>2014-10-05T08:43:05Z</time>
      </trkpt>
      <trkpt lat="48.71907" lon="-3.30597">
        <ele>72</ele>
        <time>2014-10-05T08:43:06Z</time>
      </trkpt>
      <trkpt lat="48.71913" lon="-3.30609">
        <ele>72</ele>
        <time>2014-10-05T08:43:07Z</time>
      </trkpt>
      <trkpt lat="48.71919" lon="-3.3062">
        <ele>72</ele>
        <time>2014-10-05T08:43:08Z</time>
      </trkpt>
      <trkpt lat="48.71925" lon="-3.30632">
        <ele>72</ele>
        <time>2014-10-05T08:43:09Z</time>
      </trkpt>
      <trkpt lat="48.71931" lon="-3.30644">
        <ele>72</ele>
        <time>2014-10-05T08:43:10Z</time>
      </trkpt>
      <trkpt lat="48.71937" lon="-3.30655">
        <ele>72</ele>
        <time>2014-10-05T08:43:11Z</time>
      </trkpt>
      <trkpt lat="48.71943" lon="-3.30666">
        <ele>72</ele>
        <time>2014-10-05T08:43:12Z</time>
      </trkpt>
      <trkpt lat="48.71949" lon="-3.30677">
        <ele>72</ele>
        <time>2014-10-05T08:43:13Z</time>
      </trkpt>
      <trkpt lat="48.71955" lon="-3.30688">
        <ele>72</ele>
        <time>2014-10-05T08:43:14Z</time>
      </trkpt>
      <trkpt lat="48.71961" lon="-3.30699">
        <ele>72</ele>
        <time>2014-10-05T08:43:15Z</time>
      </trkpt>
      <trkpt lat="48.71967" lon="-3.30711">
        <ele>72</ele>
        <time>2014-10-05T08:43:16Z</time>
      </trkpt>
      <trkpt lat="48.71973" lon="-3.30722">
        <ele>72</ele>
        <time>2014-10-05T08:43:17Z</time>
      </trkpt>
      <trkpt lat="48.7198" lon="-3.30733">
        <ele>72</ele>
        <time>2014-10-05T08:43:18Z</time>
      </trkpt>
      <trkpt lat="48.71986" lon="-3.30743">
        <ele>72</ele>
        <time>2014-10-05T08:43:19Z</time>
      </trkpt>
      <trkpt lat="48.71993" lon="-3.30754">
        <ele>72</ele>
        <time>2014-10-05T08:43:20Z</time>
      </trkpt>
      <trkpt lat="48.71999" lon="-3.30765">
        <ele>71</ele>
        <time>2014-10-05T08:43:21Z</time>
      </trkpt>
      <trkpt lat="48.72006" lon="-3.30776">
        <ele>71</ele>
        <time>2014-10-05T08:43:22Z</time>
      </trkpt>
      <trkpt lat="48.72014" lon="-3.30787">
        <ele>71</ele>
        <time>2014-10-05T08:43:23Z</time>
      </trkpt>
      <trkpt lat="48.72021" lon="-3.30798">
        <ele>71</ele>
        <time>2014-10-05T08:43:24Z</time>
      </trkpt>
      <trkpt lat="48.72029" lon="-3.30809">
        <ele>70</ele>
        <time>2014-10-05T08:43:25Z</time>
      </trkpt>
      <trkpt lat="48.72036" lon="-3.30819">
        <ele>70</ele>
        <time>2014-10-05T08:43:26Z</time>
      </trkpt>
      <trkpt lat="48.72044" lon="-3.3083">
        <ele>69</ele>
        <time>2014-10-05T08:43:27Z</time>
      </trkpt>
      <trkpt lat="48.72052" lon="-3.30841">
        <ele>69</ele>
        <time>2014-10-05T08:43:28Z</time>
      </trkpt>
      <trkpt lat="48.7206" lon="-3.30852">
        <ele>68</ele>
        <time>2014-10-05T08:43:29Z</time>
      </trkpt>
      <trkpt lat="48.72067" lon="-3.30863">
        <ele>68</ele>
        <time>2014-10-05T08:43:30Z</time>
      </trkpt>
      <trkpt lat="48.72074" lon="-3.30876">
        <ele>67</ele>
        <time>2014-10-05T08:43:31Z</time>
      </trkpt>
      <trkpt lat="48.72081" lon="-3.30889">
        <ele>67</ele>
        <time>2014-10-05T08:43:32Z</time>
      </trkpt>
      <trkpt lat="48.72089" lon="-3.30902">
        <ele>66</ele>
        <time>2014-10-05T08:43:33Z</time>
      </trkpt>
      <trkpt lat="48.72096" lon="-3.30915">
        <ele>66</ele>
        <time>2014-10-05T08:43:34Z</time>
      </trkpt>
      <trkpt lat="48.72103" lon="-3.30929">
        <ele>65</ele>
        <time>2014-10-05T08:43:35Z</time>
      </trkpt>
      <trkpt lat="48.72111" lon="-3.30943">
        <ele>65</ele>
        <time>2014-10-05T08:43:36Z</time>
      </trkpt>
      <trkpt lat="48.72118" lon="-3.30958">
        <ele>64</ele>
        <time>2014-10-05T08:43:37Z</time>
      </trkpt>
      <trkpt lat="48.72125" lon="-3.30973">
        <ele>64</ele>
        <time>2014-10-05T08:43:38Z</time>
      </trkpt>
      <trkpt lat="48.72132" lon="-3.30988">
        <ele>63</ele>
        <time>2014-10-05T08:43:39Z</time>
      </trkpt>
      <trkpt lat="48.72139" lon="-3.31003">
        <ele>62</ele>
        <time>2014-10-05T08:43:40Z</time>
      </trkpt>
      <trkpt lat="48.72146" lon="-3.31018">
        <ele>61</ele>
        <time>2014-10-05T08:43:41Z</time>
      </trkpt>
      <trkpt lat="48.72153" lon="-3.31034">
        <ele>61</ele>
        <time>2014-10-05T08:43:42Z</time>
      </trkpt>
      <trkpt lat="48.72159" lon="-3.3105">
        <ele>60</ele>
        <time>2014-10-05T08:43:43Z</time>
      </trkpt>
      <trkpt lat="48.72165" lon="-3.31066">
        <ele>59</ele>
        <time>2014-10-05T08:43:44Z</time>
      </trkpt>
      <trkpt lat="48.72171" lon="-3.31083">
        <ele>59</ele>
        <time>2014-10-05T08:43:45Z</time>
      </trkpt>
      <trkpt lat="48.72176" lon="-3.311">
        <ele>58</ele>
        <time>2014-10-05T08:43:46Z</time>
      </trkpt>
      <trkpt lat="48.72182" lon="-3.31117">
        <ele>58</ele>
        <time>2014-10-05T08:43:47Z</time>
      </trkpt>
      <trkpt lat="48.72188" lon="-3.31134">
        <ele>57</ele>
        <time>2014-10-05T08:43:48Z</time>
      </trkpt>
      <trkpt lat="48.72194" lon="-3.31151">
        <ele>57</ele>
        <time>2014-10-05T08:43:49Z</time>
      </trkpt>
      <trkpt lat="48.722" lon="-3.3117">
        <ele>56</ele>
        <time>2014-10-05T08:43:50Z</time>
      </trkpt>
      <trkpt lat="48.72205" lon="-3.31188">
        <ele>55</ele>
        <time>2014-10-05T08:43:51Z</time>
      </trkpt>
      <trkpt lat="48.7221" lon="-3.31207">
        <ele>55</ele>
        <time>2014-10-05T08:43:52Z</time>
      </trkpt>
      <trkpt lat="48.72213" lon="-3.31226">
        <ele>54</ele>
        <time>2014-10-05T08:43:53Z</time>
      </trkpt>
      <trkpt lat="48.72214" lon="-3.31245">
        <ele>53</ele>
        <time>2014-10-05T08:43:54Z</time>
      </trkpt>
      <trkpt lat="48.72215" lon="-3.31265">
        <ele>53</ele>
        <time>2014-10-05T08:43:55Z</time>
      </trkpt>
      <trkpt lat="48.72214" lon="-3.31284">
        <ele>52</ele>
        <time>2014-10-05T08:43:56Z</time>
      </trkpt>
      <trkpt lat="48.72212" lon="-3.31302">
        <ele>52</ele>
        <time>2014-10-05T08:43:57Z</time>
      </trkpt>
      <trkpt lat="48.7221" lon="-3.31319">
        <ele>52</ele>
        <time>2014-10-05T08:43:58Z</time>
      </trkpt>
      <trkpt lat="48.72208" lon="-3.31334">
        <ele>52</ele>
        <time>2014-10-05T08:43:59Z</time>
      </trkpt>
      <trkpt lat="48.72207" lon="-3.31348">
        <ele>52</ele>
        <time>2014-10-05T08:44:00Z</time>
      </trkpt>
      <trkpt lat="48.72205" lon="-3.31361">
        <ele>52</ele>
        <time>2014-10-05T08:44:01Z</time>
      </trkpt>
      <trkpt lat="48.72203" lon="-3.31373">
        <ele>52</ele>
        <time>2014-10-05T08:44:02Z</time>
      </trkpt>
      <trkpt lat="48.72202" lon="-3.31384">
        <ele>52</ele>
        <time>2014-10-05T08:44:03Z</time>
      </trkpt>
      <trkpt lat="48.722" lon="-3.31395">
        <ele>52</ele>
        <time>2014-10-05T08:44:04Z</time>
      </trkpt>
      <trkpt lat="48.72199" lon="-3.31404">
        <ele>52</ele>
        <time>2014-10-05T08:44:05Z</time>
      </trkpt>
      <trkpt lat="48.72197" lon="-3.31414">
        <ele>52</ele>
        <time>2014-10-05T08:44:06Z</time>
      </trkpt>
      <trkpt lat="48.72196" lon="-3.31422">
        <ele>52</ele>
        <time>2014-10-05T08:44:07Z</time>
      </trkpt>
      <trkpt lat="48.72194" lon="-3.31432">
        <ele>52</ele>
        <time>2014-10-05T08:44:08Z</time>
      </trkpt>
      <trkpt lat="48.72193" lon="-3.3144">
        <ele>52</ele>
        <time>2014-10-05T08:44:09Z</time>
      </trkpt>
      <trkpt lat="48.72192" lon="-3.31449">
        <ele>52</ele>
        <time>2014-10-05T08:44:10Z</time>
      </trkpt>
      <trkpt lat="48.7219" lon="-3.31458">
        <ele>52</ele>
        <time>2014-10-05T08:44:11Z</time>
      </trkpt>
      <trkpt lat="48.72189" lon="-3.31467">
        <ele>52</ele>
        <time>2014-10-05T08:44:12Z</time>
      </trkpt>
      <trkpt lat="48.72188" lon="-3.31477">
        <ele>52</ele>
        <time>2014-10-05T08:44:13Z</time>
      </trkpt>
      <trkpt lat="48.72187" lon="-3.31487">
        <ele>52</ele>
        <time>2014-10-05T08:44:14Z</time>
      </trkpt>
      <trkpt lat="48.72187" lon="-3.31495">
        <ele>52</ele>
        <time>2014-10-05T08:44:15Z</time>
      </trkpt>
      <trkpt lat="48.72186" lon="-3.31505">
        <ele>52</ele>
        <time>2014-10-05T08:44:16Z</time>
      </trkpt>
      <trkpt lat="48.72185" lon="-3.31514">
        <ele>52</ele>
        <time>2014-10-05T08:44:17Z</time>
      </trkpt>
      <trkpt lat="48.72185" lon="-3.31524">
        <ele>53</ele>
        <time>2014-10-05T08:44:18Z</time>
      </trkpt>
      <trkpt lat="48.72185" lon="-3.31534">
        <ele>53</ele>
        <time>2014-10-05T08:44:19Z</time>
      </trkpt>
      <trkpt lat="48.72185" lon="-3.31544">
        <ele>53</ele>
        <time>2014-10-05T08:44:20Z</time>
      </trkpt>
      <trkpt lat="48.72186" lon="-3.31554">
        <ele>53</ele>
        <time>2014-10-05T08:44:21Z</time>
      </trkpt>
      <trkpt lat="48.72186" lon="-3.31564">
        <ele>53</ele>
        <time>2014-10-05T08:44:22Z</time>
      </trkpt>
      <trkpt lat="48.72187" lon="-3.31574">
        <ele>53</ele>
        <time>2014-10-05T08:44:23Z</time>
      </trkpt>
      <trkpt lat="48.72187" lon="-3.31583">
        <ele>54</ele>
        <time>2014-10-05T08:44:24Z</time>
      </trkpt>
      <trkpt lat="48.72187" lon="-3.31594">
        <ele>54</ele>
        <time>2014-10-05T08:44:25Z</time>
      </trkpt>
      <trkpt lat="48.72187" lon="-3.31604">
        <ele>55</ele>
        <time>2014-10-05T08:44:26Z</time>
      </trkpt>
      <trkpt lat="48.72187" lon="-3.31615">
        <ele>55</ele>
        <time>2014-10-05T08:44:27Z</time>
      </trkpt>
      <trkpt lat="48.72187" lon="-3.31626">
        <ele>56</ele>
        <time>2014-10-05T08:44:28Z</time>
      </trkpt>
      <trkpt lat="48.72187" lon="-3.31637">
        <ele>56</ele>
        <time>2014-10-05T08:44:29Z</time>
      </trkpt>
      <trkpt lat="48.72187" lon="-3.31648">
        <ele>57</ele>
        <time>2014-10-05T08:44:30Z</time>
      </trkpt>
      <trkpt lat="48.72187" lon="-3.31659">
        <ele>57</ele>
        <time>2014-10-05T08:44:31Z</time>
      </trkpt>
      <trkpt lat="48.72187" lon="-3.3167">
        <ele>58</ele>
        <time>2014-10-05T08:44:32Z</time>
      </trkpt>
      <trkpt lat="48.72187" lon="-3.31681">
        <ele>58</ele>
        <time>2014-10-05T08:44:33Z</time>
      </trkpt>
      <trkpt lat="48.72187" lon="-3.31692">
        <ele>58</ele>
        <time>2014-10-05T08:44:34Z</time>
      </trkpt>
      <trkpt lat="48.72187" lon="-3.31702">
        <ele>59</ele>
        <time>2014-10-05T08:44:35Z</time>
      </trkpt>
      <trkpt lat="48.72187" lon="-3.31713">
        <ele>59</ele>
        <time>2014-10-05T08:44:36Z</time>
      </trkpt>
      <trkpt lat="48.72187" lon="-3.31723">
        <ele>59</ele>
        <time>2014-10-05T08:44:37Z</time>
      </trkpt>
      <trkpt lat="48.72188" lon="-3.31734">
        <ele>59</ele>
        <time>2014-10-05T08:44:38Z</time>
      </trkpt>
      <trkpt lat="48.72189" lon="-3.31745">
        <ele>60</ele>
        <time>2014-10-05T08:44:39Z</time>
      </trkpt>
      <trkpt lat="48.72189" lon="-3.31755">
        <ele>60</ele>
        <time>2014-10-05T08:44:40Z</time>
      </trkpt>
      <trkpt lat="48.7219" lon="-3.31766">
        <ele>60</ele>
        <time>2014-10-05T08:44:41Z</time>
      </trkpt>
      <trkpt lat="48.72192" lon="-3.31776">
        <ele>60</ele>
        <time>2014-10-05T08:44:42Z</time>
      </trkpt>
      <trkpt lat="48.72193" lon="-3.31786">
        <ele>61</ele>
        <time>2014-10-05T08:44:43Z</time>
      </trkpt>
      <trkpt lat="48.72194" lon="-3.31796">
        <ele>61</ele>
        <time>2014-10-05T08:44:44Z</time>
      </trkpt>
      <trkpt lat="48.72195" lon="-3.31805">
        <ele>61</ele>
        <time>2014-10-05T08:44:45Z</time>
      </trkpt>
      <trkpt lat="48.72195" lon="-3.31814">
        <ele>61</ele>
        <time>2014-10-05T08:44:46Z</time>
      </trkpt>
      <trkpt lat="48.72196" lon="-3.31823">
        <ele>62</ele>
        <time>2014-10-05T08:44:47Z</time>
      </trkpt>
      <trkpt lat="48.72197" lon="-3.31832">
        <ele>62</ele>
        <time>2014-10-05T08:44:48Z</time>
      </trkpt>
      <trkpt lat="48.72197" lon="-3.31841">
        <ele>62</ele>
        <time>2014-10-05T08:44:49Z</time>
      </trkpt>
      <trkpt lat="48.72198" lon="-3.31851">
        <ele>62</ele>
        <time>2014-10-05T08:44:50Z</time>
      </trkpt>
      <trkpt lat="48.72198" lon="-3.3186">
        <ele>63</ele>
        <time>2014-10-05T08:44:51Z</time>
      </trkpt>
      <trkpt lat="48.72198" lon="-3.31869">
        <ele>63</ele>
        <time>2014-10-05T08:44:52Z</time>
      </trkpt>
      <trkpt lat="48.72198" lon="-3.31878">
        <ele>63</ele>
        <time>2014-10-05T08:44:53Z</time>
      </trkpt>
      <trkpt lat="48.72198" lon="-3.31888">
        <ele>63</ele>
        <time>2014-10-05T08:44:54Z</time>
      </trkpt>
      <trkpt lat="48.72198" lon="-3.31898">
        <ele>64</ele>
        <time>2014-10-05T08:44:55Z</time>
      </trkpt>
      <trkpt lat="48.72198" lon="-3.31908">
        <ele>64</ele>
        <time>2014-10-05T08:44:56Z</time>
      </trkpt>
      <trkpt lat="48.72198" lon="-3.31918">
        <ele>64</ele>
        <time>2014-10-05T08:44:57Z</time>
      </trkpt>
      <trkpt lat="48.72198" lon="-3.31928">
        <ele>64</ele>
        <time>2014-10-05T08:44:58Z</time>
      </trkpt>
      <trkpt lat="48.72198" lon="-3.31938">
        <ele>65</ele>
        <time>2014-10-05T08:44:59Z</time>
      </trkpt>
      <trkpt lat="48.72197" lon="-3.31948">
        <ele>65</ele>
        <time>2014-10-05T08:45:00Z</time>
      </trkpt>
      <trkpt lat="48.72197" lon="-3.31958">
        <ele>65</ele>
        <time>2014-10-05T08:45:01Z</time>
      </trkpt>
      <trkpt lat="48.72197" lon="-3.31968">
        <ele>65</ele>
        <time>2014-10-05T08:45:02Z</time>
      </trkpt>
      <trkpt lat="48.72197" lon="-3.31979">
        <ele>66</ele>
        <time>2014-10-05T08:45:03Z</time>
      </trkpt>
      <trkpt lat="48.72197" lon="-3.31988">
        <ele>66</ele>
        <time>2014-10-05T08:45:04Z</time>
      </trkpt>
      <trkpt lat="48.72197" lon="-3.31998">
        <ele>66</ele>
        <time>2014-10-05T08:45:05Z</time>
      </trkpt>
      <trkpt lat="48.72197" lon="-3.32008">
        <ele>67</ele>
        <time>2014-10-05T08:45:06Z</time>
      </trkpt>
      <trkpt lat="48.72197" lon="-3.32018">
        <ele>67</ele>
        <time>2014-10-05T08:45:07Z</time>
      </trkpt>
      <trkpt lat="48.72197" lon="-3.32028">
        <ele>67</ele>
        <time>2014-10-05T08:45:08Z</time>
      </trkpt>
      <trkpt lat="48.72197" lon="-3.32038">
        <ele>67</ele>
        <time>2014-10-05T08:45:09Z</time>
      </trkpt>
      <trkpt lat="48.72198" lon="-3.32048">
        <ele>68</ele>
        <time>2014-10-05T08:45:10Z</time>
      </trkpt>
      <trkpt lat="48.72199" lon="-3.32057">
        <ele>68</ele>
        <time>2014-10-05T08:45:11Z</time>
      </trkpt>
      <trkpt lat="48.722" lon="-3.32067">
        <ele>68</ele>
        <time>2014-10-05T08:45:12Z</time>
      </trkpt>
      <trkpt lat="48.72201" lon="-3.32076">
        <ele>68</ele>
        <time>2014-10-05T08:45:13Z</time>
      </trkpt>
      <trkpt lat="48.72202" lon="-3.32085">
        <ele>68</ele>
        <time>2014-10-05T08:45:14Z</time>
      </trkpt>
      <trkpt lat="48.72203" lon="-3.32093">
        <ele>69</ele>
        <time>2014-10-05T08:45:15Z</time>
      </trkpt>
      <trkpt lat="48.72204" lon="-3.32101">
        <ele>69</ele>
        <time>2014-10-05T08:45:16Z</time>
      </trkpt>
      <trkpt lat="48.72205" lon="-3.3211">
        <ele>69</ele>
        <time>2014-10-05T08:45:17Z</time>
      </trkpt>
      <trkpt lat="48.72206" lon="-3.32118">
        <ele>69</ele>
        <time>2014-10-05T08:45:18Z</time>
      </trkpt>
      <trkpt lat="48.72208" lon="-3.32126">
        <ele>69</ele>
        <time>2014-10-05T08:45:19Z</time>
      </trkpt>
      <trkpt lat="48.72209" lon="-3.32135">
        <ele>70</ele>
        <time>2014-10-05T08:45:20Z</time>
      </trkpt>
      <trkpt lat="48.7221" lon="-3.32143">
        <ele>70</ele>
        <time>2014-10-05T08:45:21Z</time>
      </trkpt>
      <trkpt lat="48.72211" lon="-3.32153">
        <ele>70</ele>
        <time>2014-10-05T08:45:22Z</time>
      </trkpt>
      <trkpt lat="48.72211" lon="-3.32162">
        <ele>70</ele>
        <time>2014-10-05T08:45:23Z</time>
      </trkpt>
      <trkpt lat="48.72212" lon="-3.32172">
        <ele>71</ele>
        <time>2014-10-05T08:45:24Z</time>
      </trkpt>
      <trkpt lat="48.72213" lon="-3.32181">
        <ele>71</ele>
        <time>2014-10-05T08:45:25Z</time>
      </trkpt>
      <trkpt lat="48.72213" lon="-3.32191">
        <ele>71</ele>
        <time>2014-10-05T08:45:26Z</time>
      </trkpt>
      <trkpt lat="48.72213" lon="-3.32201">
        <ele>71</ele>
        <time>2014-10-05T08:45:27Z</time>
      </trkpt>
      <trkpt lat="48.72213" lon="-3.32211">
        <ele>71</ele>
        <time>2014-10-05T08:45:28Z</time>
      </trkpt>
      <trkpt lat="48.72213" lon="-3.32221">
        <ele>71</ele>
        <time>2014-10-05T08:45:29Z</time>
      </trkpt>
      <trkpt lat="48.72212" lon="-3.32231">
        <ele>71</ele>
        <time>2014-10-05T08:45:30Z</time>
      </trkpt>
      <trkpt lat="48.72212" lon="-3.32241">
        <ele>71</ele>
        <time>2014-10-05T08:45:31Z</time>
      </trkpt>
      <trkpt lat="48.72211" lon="-3.32251">
        <ele>72</ele>
        <time>2014-10-05T08:45:32Z</time>
      </trkpt>
      <trkpt lat="48.72211" lon="-3.32261">
        <ele>72</ele>
        <time>2014-10-05T08:45:33Z</time>
      </trkpt>
      <trkpt lat="48.72211" lon="-3.32272">
        <ele>72</ele>
        <time>2014-10-05T08:45:34Z</time>
      </trkpt>
      <trkpt lat="48.72211" lon="-3.32282">
        <ele>72</ele>
        <time>2014-10-05T08:45:35Z</time>
      </trkpt>
      <trkpt lat="48.7221" lon="-3.32292">
        <ele>72</ele>
        <time>2014-10-05T08:45:36Z</time>
      </trkpt>
      <trkpt lat="48.72209" lon="-3.32302">
        <ele>72</ele>
        <time>2014-10-05T08:45:37Z</time>
      </trkpt>
      <trkpt lat="48.72208" lon="-3.32312">
        <ele>72</ele>
        <time>2014-10-05T08:45:38Z</time>
      </trkpt>
      <trkpt lat="48.72208" lon="-3.32322">
        <ele>72</ele>
        <time>2014-10-05T08:45:39Z</time>
      </trkpt>
      <trkpt lat="48.72207" lon="-3.32332">
        <ele>72</ele>
        <time>2014-10-05T08:45:40Z</time>
      </trkpt>
      <trkpt lat="48.72207" lon="-3.32343">
        <ele>72</ele>
        <time>2014-10-05T08:45:41Z</time>
      </trkpt>
      <trkpt lat="48.72206" lon="-3.32353">
        <ele>72</ele>
        <time>2014-10-05T08:45:42Z</time>
      </trkpt>
      <trkpt lat="48.72206" lon="-3.32364">
        <ele>72</ele>
        <time>2014-10-05T08:45:43Z</time>
      </trkpt>
      <trkpt lat="48.72206" lon="-3.32374">
        <ele>72</ele>
        <time>2014-10-05T08:45:44Z</time>
      </trkpt>
      <trkpt lat="48.72206" lon="-3.32385">
        <ele>72</ele>
        <time>2014-10-05T08:45:45Z</time>
      </trkpt>
      <trkpt lat="48.72206" lon="-3.32396">
        <ele>72</ele>
        <time>2014-10-05T08:45:46Z</time>
      </trkpt>
      <trkpt lat="48.72205" lon="-3.32406">
        <ele>72</ele>
        <time>2014-10-05T08:45:47Z</time>
      </trkpt>
      <trkpt lat="48.72205" lon="-3.32416">
        <ele>72</ele>
        <time>2014-10-05T08:45:48Z</time>
      </trkpt>
      <trkpt lat="48.72205" lon="-3.32426">
        <ele>72</ele>
        <time>2014-10-05T08:45:49Z</time>
      </trkpt>
      <trkpt lat="48.72205" lon="-3.32436">
        <ele>73</ele>
        <time>2014-10-05T08:45:50Z</time>
      </trkpt>
      <trkpt lat="48.72205" lon="-3.32446">
        <ele>73</ele>
        <time>2014-10-05T08:45:51Z</time>
      </trkpt>
      <trkpt lat="48.72205" lon="-3.32457">
        <ele>73</ele>
        <time>2014-10-05T08:45:52Z</time>
      </trkpt>
      <trkpt lat="48.72205" lon="-3.32467">
        <ele>73</ele>
        <time>2014-10-05T08:45:53Z</time>
      </trkpt>
      <trkpt lat="48.72205" lon="-3.32478">
        <ele>73</ele>
        <time>2014-10-05T08:45:54Z</time>
      </trkpt>
      <trkpt lat="48.72205" lon="-3.32489">
        <ele>73</ele>
        <time>2014-10-05T08:45:55Z</time>
      </trkpt>
      <trkpt lat="48.72205" lon="-3.325">
        <ele>73</ele>
        <time>2014-10-05T08:45:56Z</time>
      </trkpt>
      <trkpt lat="48.72206" lon="-3.32511">
        <ele>73</ele>
        <time>2014-10-05T08:45:57Z</time>
      </trkpt>
      <trkpt lat="48.72206" lon="-3.32522">
        <ele>73</ele>
        <time>2014-10-05T08:45:58Z</time>
      </trkpt>
      <trkpt lat="48.72207" lon="-3.32532">
        <ele>73</ele>
        <time>2014-10-05T08:45:59Z</time>
      </trkpt>
      <trkpt lat="48.72207" lon="-3.32543">
        <ele>73</ele>
        <time>2014-10-05T08:46:00Z</time>
      </trkpt>
      <trkpt lat="48.72208" lon="-3.32554">
        <ele>73</ele>
        <time>2014-10-05T08:46:01Z</time>
      </trkpt>
      <trkpt lat="48.72208" lon="-3.32564">
        <ele>73</ele>
        <time>2014-10-05T08:46:02Z</time>
      </trkpt>
      <trkpt lat="48.72209" lon="-3.32575">
        <ele>73</ele>
        <time>2014-10-05T08:46:03Z</time>
      </trkpt>
      <trkpt lat="48.7221" lon="-3.32585">
        <ele>73</ele>
        <time>2014-10-05T08:46:04Z</time>
      </trkpt>
      <trkpt lat="48.7221" lon="-3.32595">
        <ele>73</ele>
        <time>2014-10-05T08:46:05Z</time>
      </trkpt>
      <trkpt lat="48.7221" lon="-3.32605">
        <ele>73</ele>
        <time>2014-10-05T08:46:06Z</time>
      </trkpt>
      <trkpt lat="48.7221" lon="-3.32615">
        <ele>73</ele>
        <time>2014-10-05T08:46:07Z</time>
      </trkpt>
      <trkpt lat="48.7221" lon="-3.32626">
        <ele>73</ele>
        <time>2014-10-05T08:46:08Z</time>
      </trkpt>
      <trkpt lat="48.72211" lon="-3.32636">
        <ele>73</ele>
        <time>2014-10-05T08:46:09Z</time>
      </trkpt>
      <trkpt lat="48.72211" lon="-3.32647">
        <ele>73</ele>
        <time>2014-10-05T08:46:10Z</time>
      </trkpt>
      <trkpt lat="48.72212" lon="-3.32659">
        <ele>73</ele>
        <time>2014-10-05T08:46:11Z</time>
      </trkpt>
      <trkpt lat="48.72213" lon="-3.3267">
        <ele>73</ele>
        <time>2014-10-05T08:46:12Z</time>
      </trkpt>
      <trkpt lat="48.72215" lon="-3.32681">
        <ele>73</ele>
        <time>2014-10-05T08:46:13Z</time>
      </trkpt>
      <trkpt lat="48.72217" lon="-3.32693">
        <ele>73</ele>
        <time>2014-10-05T08:46:14Z</time>
      </trkpt>
      <trkpt lat="48.72219" lon="-3.32703">
        <ele>73</ele>
        <time>2014-10-05T08:46:15Z</time>
      </trkpt>
      <trkpt lat="48.72222" lon="-3.32714">
        <ele>73</ele>
        <time>2014-10-05T08:46:16Z</time>
      </trkpt>
      <trkpt lat="48.72226" lon="-3.32724">
        <ele>73</ele>
        <time>2014-10-05T08:46:17Z</time>
      </trkpt>
      <trkpt lat="48.72229" lon="-3.32735">
        <ele>73</ele>
        <time>2014-10-05T08:46:18Z</time>
      </trkpt>
      <trkpt lat="48.72232" lon="-3.32745">
        <ele>73</ele>
        <time>2014-10-05T08:46:19Z</time>
      </trkpt>
      <trkpt lat="48.72234" lon="-3.32756">
        <ele>73</ele>
        <time>2014-10-05T08:46:20Z</time>
      </trkpt>
      <trkpt lat="48.72237" lon="-3.32768">
        <ele>73</ele>
        <time>2014-10-05T08:46:21Z</time>
      </trkpt>
      <trkpt lat="48.72239" lon="-3.32779">
        <ele>73</ele>
        <time>2014-10-05T08:46:22Z</time>
      </trkpt>
      <trkpt lat="48.72241" lon="-3.3279">
        <ele>73</ele>
        <time>2014-10-05T08:46:23Z</time>
      </trkpt>
      <trkpt lat="48.72242" lon="-3.32801">
        <ele>73</ele>
        <time>2014-10-05T08:46:24Z</time>
      </trkpt>
      <trkpt lat="48.72243" lon="-3.32812">
        <ele>73</ele>
        <time>2014-10-05T08:46:25Z</time>
      </trkpt>
      <trkpt lat="48.72245" lon="-3.32823">
        <ele>73</ele>
        <time>2014-10-05T08:46:26Z</time>
      </trkpt>
      <trkpt lat="48.72245" lon="-3.32834">
        <ele>73</ele>
        <time>2014-10-05T08:46:27Z</time>
      </trkpt>
      <trkpt lat="48.72246" lon="-3.32845">
        <ele>73</ele>
        <time>2014-10-05T08:46:28Z</time>
      </trkpt>
      <trkpt lat="48.72247" lon="-3.32856">
        <ele>73</ele>
        <time>2014-10-05T08:46:29Z</time>
      </trkpt>
      <trkpt lat="48.72248" lon="-3.32868">
        <ele>73</ele>
        <time>2014-10-05T08:46:30Z</time>
      </trkpt>
      <trkpt lat="48.7225" lon="-3.32879">
        <ele>73</ele>
        <time>2014-10-05T08:46:31Z</time>
      </trkpt>
      <trkpt lat="48.7225" lon="-3.3289">
        <ele>73</ele>
        <time>2014-10-05T08:46:32Z</time>
      </trkpt>
      <trkpt lat="48.72252" lon="-3.32901">
        <ele>74</ele>
        <time>2014-10-05T08:46:33Z</time>
      </trkpt>
      <trkpt lat="48.72253" lon="-3.32912">
        <ele>74</ele>
        <time>2014-10-05T08:46:34Z</time>
      </trkpt>
      <trkpt lat="48.72254" lon="-3.32924">
        <ele>75</ele>
        <time>2014-10-05T08:46:35Z</time>
      </trkpt>
      <trkpt lat="48.72255" lon="-3.32936">
        <ele>75</ele>
        <time>2014-10-05T08:46:36Z</time>
      </trkpt>
      <trkpt lat="48.72256" lon="-3.32947">
        <ele>75</ele>
        <time>2014-10-05T08:46:37Z</time>
      </trkpt>
      <trkpt lat="48.72258" lon="-3.32959">
        <ele>75</ele>
        <time>2014-10-05T08:46:38Z</time>
      </trkpt>
      <trkpt lat="48.72259" lon="-3.32971">
        <ele>76</ele>
        <time>2014-10-05T08:46:39Z</time>
      </trkpt>
      <trkpt lat="48.72261" lon="-3.32982">
        <ele>76</ele>
        <time>2014-10-05T08:46:40Z</time>
      </trkpt>
      <trkpt lat="48.72262" lon="-3.32994">
        <ele>76</ele>
        <time>2014-10-05T08:46:41Z</time>
      </trkpt>
      <trkpt lat="48.72264" lon="-3.33005">
        <ele>76</ele>
        <time>2014-10-05T08:46:42Z</time>
      </trkpt>
      <trkpt lat="48.72266" lon="-3.33017">
        <ele>76</ele>
        <time>2014-10-05T08:46:43Z</time>
      </trkpt>
      <trkpt lat="48.72268" lon="-3.33028">
        <ele>76</ele>
        <time>2014-10-05T08:46:44Z</time>
      </trkpt>
      <trkpt lat="48.72271" lon="-3.33039">
        <ele>76</ele>
        <time>2014-10-05T08:46:45Z</time>
      </trkpt>
      <trkpt lat="48.72272" lon="-3.3305">
        <ele>76</ele>
        <time>2014-10-05T08:46:46Z</time>
      </trkpt>
      <trkpt lat="48.72274" lon="-3.33062">
        <ele>76</ele>
        <time>2014-10-05T08:46:47Z</time>
      </trkpt>
      <trkpt lat="48.72276" lon="-3.33073">
        <ele>76</ele>
        <time>2014-10-05T08:46:48Z</time>
      </trkpt>
      <trkpt lat="48.72278" lon="-3.33084">
        <ele>77</ele>
        <time>2014-10-05T08:46:49Z</time>
      </trkpt>
      <trkpt lat="48.7228" lon="-3.33096">
        <ele>77</ele>
        <time>2014-10-05T08:46:50Z</time>
      </trkpt>
      <trkpt lat="48.72282" lon="-3.33107">
        <ele>77</ele>
        <time>2014-10-05T08:46:51Z</time>
      </trkpt>
      <trkpt lat="48.72284" lon="-3.33118">
        <ele>77</ele>
        <time>2014-10-05T08:46:52Z</time>
      </trkpt>
      <trkpt lat="48.72285" lon="-3.33128">
        <ele>78</ele>
        <time>2014-10-05T08:46:53Z</time>
      </trkpt>
      <trkpt lat="48.72287" lon="-3.33138">
        <ele>78</ele>
        <time>2014-10-05T08:46:54Z</time>
      </trkpt>
      <trkpt lat="48.7229" lon="-3.33149">
        <ele>78</ele>
        <time>2014-10-05T08:46:55Z</time>
      </trkpt>
      <trkpt lat="48.72292" lon="-3.33158">
        <ele>78</ele>
        <time>2014-10-05T08:46:56Z</time>
      </trkpt>
      <trkpt lat="48.72294" lon="-3.33168">
        <ele>78</ele>
        <time>2014-10-05T08:46:57Z</time>
      </trkpt>
      <trkpt lat="48.72296" lon="-3.33177">
        <ele>78</ele>
        <time>2014-10-05T08:46:58Z</time>
      </trkpt>
      <trkpt lat="48.72298" lon="-3.33185">
        <ele>78</ele>
        <time>2014-10-05T08:46:59Z</time>
      </trkpt>
      <trkpt lat="48.72301" lon="-3.33194">
        <ele>78</ele>
        <time>2014-10-05T08:47:00Z</time>
      </trkpt>
      <trkpt lat="48.72303" lon="-3.33202">
        <ele>79</ele>
        <time>2014-10-05T08:47:01Z</time>
      </trkpt>
      <trkpt lat="48.72305" lon="-3.3321">
        <ele>79</ele>
        <time>2014-10-05T08:47:02Z</time>
      </trkpt>
      <trkpt lat="48.72306" lon="-3.33219">
        <ele>79</ele>
        <time>2014-10-05T08:47:03Z</time>
      </trkpt>
      <trkpt lat="48.72308" lon="-3.33227">
        <ele>79</ele>
        <time>2014-10-05T08:47:04Z</time>
      </trkpt>
      <trkpt lat="48.72309" lon="-3.33236">
        <ele>79</ele>
        <time>2014-10-05T08:47:05Z</time>
      </trkpt>
      <trkpt lat="48.7231" lon="-3.33244">
        <ele>79</ele>
        <time>2014-10-05T08:47:06Z</time>
      </trkpt>
      <trkpt lat="48.72312" lon="-3.33253">
        <ele>79</ele>
        <time>2014-10-05T08:47:07Z</time>
      </trkpt>
      <trkpt lat="48.72314" lon="-3.33261">
        <ele>80</ele>
        <time>2014-10-05T08:47:08Z</time>
      </trkpt>
      <trkpt lat="48.72315" lon="-3.3327">
        <ele>80</ele>
        <time>2014-10-05T08:47:09Z</time>
      </trkpt>
      <trkpt lat="48.72316" lon="-3.33278">
        <ele>80</ele>
        <time>2014-10-05T08:47:10Z</time>
      </trkpt>
      <trkpt lat="48.72317" lon="-3.33287">
        <ele>80</ele>
        <time>2014-10-05T08:47:11Z</time>
      </trkpt>
      <trkpt lat="48.72318" lon="-3.33296">
        <ele>81</ele>
        <time>2014-10-05T08:47:12Z</time>
      </trkpt>
      <trkpt lat="48.72319" lon="-3.33305">
        <ele>81</ele>
        <time>2014-10-05T08:47:13Z</time>
      </trkpt>
      <trkpt lat="48.72319" lon="-3.33315">
        <ele>81</ele>
        <time>2014-10-05T08:47:14Z</time>
      </trkpt>
      <trkpt lat="48.72319" lon="-3.33324">
        <ele>81</ele>
        <time>2014-10-05T08:47:15Z</time>
      </trkpt>
      <trkpt lat="48.72319" lon="-3.33334">
        <ele>81</ele>
        <time>2014-10-05T08:47:16Z</time>
      </trkpt>
      <trkpt lat="48.72319" lon="-3.33344">
        <ele>81</ele>
        <time>2014-10-05T08:47:17Z</time>
      </trkpt>
      <trkpt lat="48.7232" lon="-3.33354">
        <ele>81</ele>
        <time>2014-10-05T08:47:18Z</time>
      </trkpt>
      <trkpt lat="48.72321" lon="-3.33365">
        <ele>81</ele>
        <time>2014-10-05T08:47:19Z</time>
      </trkpt>
      <trkpt lat="48.72322" lon="-3.33375">
        <ele>81</ele>
        <time>2014-10-05T08:47:20Z</time>
      </trkpt>
      <trkpt lat="48.72323" lon="-3.33385">
        <ele>81</ele>
        <time>2014-10-05T08:47:21Z</time>
      </trkpt>
      <trkpt lat="48.72325" lon="-3.33395">
        <ele>82</ele>
        <time>2014-10-05T08:47:22Z</time>
      </trkpt>
      <trkpt lat="48.72326" lon="-3.33405">
        <ele>82</ele>
        <time>2014-10-05T08:47:23Z</time>
      </trkpt>
      <trkpt lat="48.72327" lon="-3.33415">
        <ele>82</ele>
        <time>2014-10-05T08:47:24Z</time>
      </trkpt>
      <trkpt lat="48.72329" lon="-3.33424">
        <ele>82</ele>
        <time>2014-10-05T08:47:25Z</time>
      </trkpt>
      <trkpt lat="48.7233" lon="-3.33434">
        <ele>82</ele>
        <time>2014-10-05T08:47:26Z</time>
      </trkpt>
      <trkpt lat="48.72332" lon="-3.33443">
        <ele>83</ele>
        <time>2014-10-05T08:47:27Z</time>
      </trkpt>
      <trkpt lat="48.72332" lon="-3.33453">
        <ele>83</ele>
        <time>2014-10-05T08:47:28Z</time>
      </trkpt>
      <trkpt lat="48.72333" lon="-3.33463">
        <ele>83</ele>
        <time>2014-10-05T08:47:29Z</time>
      </trkpt>
      <trkpt lat="48.72334" lon="-3.33472">
        <ele>83</ele>
        <time>2014-10-05T08:47:30Z</time>
      </trkpt>
      <trkpt lat="48.72334" lon="-3.33483">
        <ele>83</ele>
        <time>2014-10-05T08:47:31Z</time>
      </trkpt>
      <trkpt lat="48.72335" lon="-3.33493">
        <ele>83</ele>
        <time>2014-10-05T08:47:32Z</time>
      </trkpt>
      <trkpt lat="48.72335" lon="-3.33503">
        <ele>83</ele>
        <time>2014-10-05T08:47:33Z</time>
      </trkpt>
      <trkpt lat="48.72335" lon="-3.33514">
        <ele>83</ele>
        <time>2014-10-05T08:47:34Z</time>
      </trkpt>
      <trkpt lat="48.72337" lon="-3.33525">
        <ele>83</ele>
        <time>2014-10-05T08:47:35Z</time>
      </trkpt>
      <trkpt lat="48.72338" lon="-3.33536">
        <ele>83</ele>
        <time>2014-10-05T08:47:36Z</time>
      </trkpt>
      <trkpt lat="48.7234" lon="-3.33546">
        <ele>83</ele>
        <time>2014-10-05T08:47:37Z</time>
      </trkpt>
      <trkpt lat="48.72343" lon="-3.33557">
        <ele>83</ele>
        <time>2014-10-05T08:47:38Z</time>
      </trkpt>
      <trkpt lat="48.72346" lon="-3.33567">
        <ele>83</ele>
        <time>2014-10-05T08:47:39Z</time>
      </trkpt>
      <trkpt lat="48.72349" lon="-3.33577">
        <ele>83</ele>
        <time>2014-10-05T08:47:40Z</time>
      </trkpt>
      <trkpt lat="48.72352" lon="-3.33588">
        <ele>83</ele>
        <time>2014-10-05T08:47:41Z</time>
      </trkpt>
      <trkpt lat="48.72356" lon="-3.33598">
        <ele>83</ele>
        <time>2014-10-05T08:47:42Z</time>
      </trkpt>
      <trkpt lat="48.72359" lon="-3.33608">
        <ele>83</ele>
        <time>2014-10-05T08:47:43Z</time>
      </trkpt>
      <trkpt lat="48.72363" lon="-3.33617">
        <ele>83</ele>
        <time>2014-10-05T08:47:44Z</time>
      </trkpt>
      <trkpt lat="48.72367" lon="-3.33628">
        <ele>83</ele>
        <time>2014-10-05T08:47:45Z</time>
      </trkpt>
      <trkpt lat="48.72371" lon="-3.33638">
        <ele>83</ele>
        <time>2014-10-05T08:47:46Z</time>
      </trkpt>
      <trkpt lat="48.72375" lon="-3.33648">
        <ele>83</ele>
        <time>2014-10-05T08:47:47Z</time>
      </trkpt>
      <trkpt lat="48.72379" lon="-3.33658">
        <ele>83</ele>
        <time>2014-10-05T08:47:48Z</time>
      </trkpt>
      <trkpt lat="48.72382" lon="-3.33668">
        <ele>83</ele>
        <time>2014-10-05T08:47:49Z</time>
      </trkpt>
      <trkpt lat="48.72386" lon="-3.33679">
        <ele>83</ele>
        <time>2014-10-05T08:47:50Z</time>
      </trkpt>
      <trkpt lat="48.7239" lon="-3.33689">
        <ele>83</ele>
        <time>2014-10-05T08:47:51Z</time>
      </trkpt>
      <trkpt lat="48.72394" lon="-3.337">
        <ele>83</ele>
        <time>2014-10-05T08:47:52Z</time>
      </trkpt>
      <trkpt lat="48.72398" lon="-3.33711">
        <ele>84</ele>
        <time>2014-10-05T08:47:53Z</time>
      </trkpt>
      <trkpt lat="48.72401" lon="-3.33723">
        <ele>84</ele>
        <time>2014-10-05T08:47:54Z</time>
      </trkpt>
      <trkpt lat="48.72405" lon="-3.33734">
        <ele>84</ele>
        <time>2014-10-05T08:47:55Z</time>
      </trkpt>
      <trkpt lat="48.72408" lon="-3.33746">
        <ele>84</ele>
        <time>2014-10-05T08:47:56Z</time>
      </trkpt>
      <trkpt lat="48.72412" lon="-3.33757">
        <ele>84</ele>
        <time>2014-10-05T08:47:57Z</time>
      </trkpt>
      <trkpt lat="48.72416" lon="-3.33769">
        <ele>84</ele>
        <time>2014-10-05T08:47:58Z</time>
      </trkpt>
      <trkpt lat="48.7242" lon="-3.3378">
        <ele>84</ele>
        <time>2014-10-05T08:47:59Z</time>
      </trkpt>
      <trkpt lat="48.72424" lon="-3.33791">
        <ele>84</ele>
        <time>2014-10-05T08:48:00Z</time>
      </trkpt>
      <trkpt lat="48.72428" lon="-3.33802">
        <ele>84</ele>
        <time>2014-10-05T08:48:01Z</time>
      </trkpt>
      <trkpt lat="48.72432" lon="-3.33813">
        <ele>84</ele>
        <time>2014-10-05T08:48:02Z</time>
      </trkpt>
      <trkpt lat="48.72435" lon="-3.33824">
        <ele>84</ele>
        <time>2014-10-05T08:48:03Z</time>
      </trkpt>
      <trkpt lat="48.72439" lon="-3.33835">
        <ele>84</ele>
        <time>2014-10-05T08:48:04Z</time>
      </trkpt>
      <trkpt lat="48.72443" lon="-3.33845">
        <ele>84</ele>
        <time>2014-10-05T08:48:05Z</time>
      </trkpt>
      <trkpt lat="48.72447" lon="-3.33855">
        <ele>84</ele>
        <time>2014-10-05T08:48:06Z</time>
      </trkpt>
      <trkpt lat="48.72451" lon="-3.33865">
        <ele>84</ele>
        <time>2014-10-05T08:48:07Z</time>
      </trkpt>
      <trkpt lat="48.72454" lon="-3.33875">
        <ele>84</ele>
        <time>2014-10-05T08:48:08Z</time>
      </trkpt>
      <trkpt lat="48.72458" lon="-3.33885">
        <ele>84</ele>
        <time>2014-10-05T08:48:09Z</time>
      </trkpt>
      <trkpt lat="48.72462" lon="-3.33895">
        <ele>84</ele>
        <time>2014-10-05T08:48:10Z</time>
      </trkpt>
      <trkpt lat="48.72466" lon="-3.33905">
        <ele>84</ele>
        <time>2014-10-05T08:48:11Z</time>
      </trkpt>
      <trkpt lat="48.7247" lon="-3.33916">
        <ele>84</ele>
        <time>2014-10-05T08:48:12Z</time>
      </trkpt>
      <trkpt lat="48.72474" lon="-3.33926">
        <ele>84</ele>
        <time>2014-10-05T08:48:13Z</time>
      </trkpt>
      <trkpt lat="48.72478" lon="-3.33937">
        <ele>84</ele>
        <time>2014-10-05T08:48:14Z</time>
      </trkpt>
      <trkpt lat="48.72483" lon="-3.33948">
        <ele>84</ele>
        <time>2014-10-05T08:48:15Z</time>
      </trkpt>
      <trkpt lat="48.72487" lon="-3.33959">
        <ele>84</ele>
        <time>2014-10-05T08:48:16Z</time>
      </trkpt>
      <trkpt lat="48.72491" lon="-3.3397">
        <ele>84</ele>
        <time>2014-10-05T08:48:17Z</time>
      </trkpt>
      <trkpt lat="48.72495" lon="-3.33981">
        <ele>84</ele>
        <time>2014-10-05T08:48:18Z</time>
      </trkpt>
      <trkpt lat="48.72499" lon="-3.33992">
        <ele>84</ele>
        <time>2014-10-05T08:48:19Z</time>
      </trkpt>
      <trkpt lat="48.72503" lon="-3.34003">
        <ele>84</ele>
        <time>2014-10-05T08:48:20Z</time>
      </trkpt>
      <trkpt lat="48.72506" lon="-3.34015">
        <ele>84</ele>
        <time>2014-10-05T08:48:21Z</time>
      </trkpt>
      <trkpt lat="48.7251" lon="-3.34026">
        <ele>84</ele>
        <time>2014-10-05T08:48:22Z</time>
      </trkpt>
      <trkpt lat="48.72514" lon="-3.34037">
        <ele>84</ele>
        <time>2014-10-05T08:48:23Z</time>
      </trkpt>
      <trkpt lat="48.72519" lon="-3.34049">
        <ele>84</ele>
        <time>2014-10-05T08:48:24Z</time>
      </trkpt>
      <trkpt lat="48.72523" lon="-3.3406">
        <ele>84</ele>
        <time>2014-10-05T08:48:25Z</time>
      </trkpt>
      <trkpt lat="48.72527" lon="-3.34072">
        <ele>84</ele>
        <time>2014-10-05T08:48:26Z</time>
      </trkpt>
      <trkpt lat="48.72532" lon="-3.34084">
        <ele>84</ele>
        <time>2014-10-05T08:48:27Z</time>
      </trkpt>
      <trkpt lat="48.72537" lon="-3.34097">
        <ele>84</ele>
        <time>2014-10-05T08:48:28Z</time>
      </trkpt>
      <trkpt lat="48.72541" lon="-3.34109">
        <ele>84</ele>
        <time>2014-10-05T08:48:29Z</time>
      </trkpt>
      <trkpt lat="48.72546" lon="-3.34121">
        <ele>84</ele>
        <time>2014-10-05T08:48:30Z</time>
      </trkpt>
      <trkpt lat="48.7255" lon="-3.34134">
        <ele>84</ele>
        <time>2014-10-05T08:48:31Z</time>
      </trkpt>
      <trkpt lat="48.72555" lon="-3.34147">
        <ele>84</ele>
        <time>2014-10-05T08:48:32Z</time>
      </trkpt>
      <trkpt lat="48.72559" lon="-3.34159">
        <ele>84</ele>
        <time>2014-10-05T08:48:33Z</time>
      </trkpt>
      <trkpt lat="48.72564" lon="-3.34172">
        <ele>84</ele>
        <time>2014-10-05T08:48:34Z</time>
      </trkpt>
      <trkpt lat="48.72568" lon="-3.34184">
        <ele>84</ele>
        <time>2014-10-05T08:48:35Z</time>
      </trkpt>
      <trkpt lat="48.72573" lon="-3.34196">
        <ele>84</ele>
        <time>2014-10-05T08:48:36Z</time>
      </trkpt>
      <trkpt lat="48.72578" lon="-3.34208">
        <ele>84</ele>
        <time>2014-10-05T08:48:37Z</time>
      </trkpt>
      <trkpt lat="48.72584" lon="-3.3422">
        <ele>84</ele>
        <time>2014-10-05T08:48:38Z</time>
      </trkpt>
      <trkpt lat="48.7259" lon="-3.34232">
        <ele>84</ele>
        <time>2014-10-05T08:48:39Z</time>
      </trkpt>
      <trkpt lat="48.72596" lon="-3.34243">
        <ele>84</ele>
        <time>2014-10-05T08:48:40Z</time>
      </trkpt>
      <trkpt lat="48.72602" lon="-3.34255">
        <ele>84</ele>
        <time>2014-10-05T08:48:41Z</time>
      </trkpt>
      <trkpt lat="48.72608" lon="-3.34267">
        <ele>84</ele>
        <time>2014-10-05T08:48:42Z</time>
      </trkpt>
      <trkpt lat="48.72614" lon="-3.34279">
        <ele>84</ele>
        <time>2014-10-05T08:48:43Z</time>
      </trkpt>
      <trkpt lat="48.7262" lon="-3.34291">
        <ele>84</ele>
        <time>2014-10-05T08:48:44Z</time>
      </trkpt>
      <trkpt lat="48.72626" lon="-3.34303">
        <ele>84</ele>
        <time>2014-10-05T08:48:45Z</time>
      </trkpt>
      <trkpt lat="48.72632" lon="-3.34315">
        <ele>83</ele>
        <time>2014-10-05T08:48:46Z</time>
      </trkpt>
      <trkpt lat="48.72639" lon="-3.34328">
        <ele>83</ele>
        <time>2014-10-05T08:48:47Z</time>
      </trkpt>
      <trkpt lat="48.72645" lon="-3.3434">
        <ele>82</ele>
        <time>2014-10-05T08:48:48Z</time>
      </trkpt>
      <trkpt lat="48.72652" lon="-3.34352">
        <ele>82</ele>
        <time>2014-10-05T08:48:49Z</time>
      </trkpt>
      <trkpt lat="48.72659" lon="-3.34365">
        <ele>82</ele>
        <time>2014-10-05T08:48:50Z</time>
      </trkpt>
      <trkpt lat="48.72665" lon="-3.34377">
        <ele>81</ele>
        <time>2014-10-05T08:48:51Z</time>
      </trkpt>
      <trkpt lat="48.72672" lon="-3.3439">
        <ele>81</ele>
        <time>2014-10-05T08:48:52Z</time>
      </trkpt>
      <trkpt lat="48.72679" lon="-3.34402">
        <ele>81</ele>
        <time>2014-10-05T08:48:53Z</time>
      </trkpt>
      <trkpt lat="48.72686" lon="-3.34415">
        <ele>80</ele>
        <time>2014-10-05T08:48:54Z</time>
      </trkpt>
      <trkpt lat="48.72692" lon="-3.34427">
        <ele>80</ele>
        <time>2014-10-05T08:48:55Z</time>
      </trkpt>
      <trkpt lat="48.72699" lon="-3.3444">
        <ele>79</ele>
        <time>2014-10-05T08:48:56Z</time>
      </trkpt>
      <trkpt lat="48.72705" lon="-3.34454">
        <ele>79</ele>
        <time>2014-10-05T08:48:57Z</time>
      </trkpt>
      <trkpt lat="48.72711" lon="-3.34467">
        <ele>79</ele>
        <time>2014-10-05T08:48:58Z</time>
      </trkpt>
      <trkpt lat="48.72717" lon="-3.34481">
        <ele>78</ele>
        <time>2014-10-05T08:48:59Z</time>
      </trkpt>
      <trkpt lat="48.72723" lon="-3.34494">
        <ele>78</ele>
        <time>2014-10-05T08:49:00Z</time>
      </trkpt>
      <trkpt lat="48.72728" lon="-3.34508">
        <ele>78</ele>
        <time>2014-10-05T08:49:01Z</time>
      </trkpt>
      <trkpt lat="48.72734" lon="-3.34521">
        <ele>77</ele>
        <time>2014-10-05T08:49:02Z</time>
      </trkpt>
      <trkpt lat="48.7274" lon="-3.34535">
        <ele>77</ele>
        <time>2014-10-05T08:49:03Z</time>
      </trkpt>
      <trkpt lat="48.72746" lon="-3.34549">
        <ele>76</ele>
        <time>2014-10-05T08:49:04Z</time>
      </trkpt>
      <trkpt lat="48.72752" lon="-3.34563">
        <ele>76</ele>
        <time>2014-10-05T08:49:05Z</time>
      </trkpt>
      <trkpt lat="48.72758" lon="-3.34577">
        <ele>75</ele>
        <time>2014-10-05T08:49:06Z</time>
      </trkpt>
      <trkpt lat="48.72765" lon="-3.34592">
        <ele>75</ele>
        <time>2014-10-05T08:49:07Z</time>
      </trkpt>
      <trkpt lat="48.72772" lon="-3.34607">
        <ele>74</ele>
        <time>2014-10-05T08:49:08Z</time>
      </trkpt>
      <trkpt lat="48.72778" lon="-3.34622">
        <ele>73</ele>
        <time>2014-10-05T08:49:09Z</time>
      </trkpt>
      <trkpt lat="48.72785" lon="-3.34638">
        <ele>72</ele>
        <time>2014-10-05T08:49:10Z</time>
      </trkpt>
      <trkpt lat="48.72792" lon="-3.34653">
        <ele>72</ele>
        <time>2014-10-05T08:49:11Z</time>
      </trkpt>
      <trkpt lat="48.728" lon="-3.34669">
        <ele>71</ele>
        <time>2014-10-05T08:49:12Z</time>
      </trkpt>
      <trkpt lat="48.72807" lon="-3.34685">
        <ele>70</ele>
        <time>2014-10-05T08:49:13Z</time>
      </trkpt>
      <trkpt lat="48.72813" lon="-3.347">
        <ele>70</ele>
        <time>2014-10-05T08:49:14Z</time>
      </trkpt>
      <trkpt lat="48.7282" lon="-3.34716">
        <ele>69</ele>
        <time>2014-10-05T08:49:15Z</time>
      </trkpt>
      <trkpt lat="48.72826" lon="-3.34732">
        <ele>68</ele>
        <time>2014-10-05T08:49:16Z</time>
      </trkpt>
      <trkpt lat="48.72832" lon="-3.34748">
        <ele>68</ele>
        <time>2014-10-05T08:49:17Z</time>
      </trkpt>
      <trkpt lat="48.72836" lon="-3.34766">
        <ele>67</ele>
        <time>2014-10-05T08:49:18Z</time>
      </trkpt>
      <trkpt lat="48.7284" lon="-3.34784">
        <ele>66</ele>
        <time>2014-10-05T08:49:19Z</time>
      </trkpt>
      <trkpt lat="48.72843" lon="-3.34802">
        <ele>66</ele>
        <time>2014-10-05T08:49:20Z</time>
      </trkpt>
      <trkpt lat="48.72844" lon="-3.3482">
        <ele>65</ele>
        <time>2014-10-05T08:49:21Z</time>
      </trkpt>
      <trkpt lat="48.72845" lon="-3.34839">
        <ele>64</ele>
        <time>2014-10-05T08:49:22Z</time>
      </trkpt>
      <trkpt lat="48.72845" lon="-3.34858">
        <ele>64</ele>
        <time>2014-10-05T08:49:23Z</time>
      </trkpt>
      <trkpt lat="48.72845" lon="-3.34877">
        <ele>63</ele>
        <time>2014-10-05T08:49:24Z</time>
      </trkpt>
      <trkpt lat="48.72846" lon="-3.34897">
        <ele>62</ele>
        <time>2014-10-05T08:49:25Z</time>
      </trkpt>
      <trkpt lat="48.72847" lon="-3.34916">
        <ele>61</ele>
        <time>2014-10-05T08:49:26Z</time>
      </trkpt>
      <trkpt lat="48.72848" lon="-3.34935">
        <ele>60</ele>
        <time>2014-10-05T08:49:27Z</time>
      </trkpt>
      <trkpt lat="48.72849" lon="-3.34955">
        <ele>59</ele>
        <time>2014-10-05T08:49:28Z</time>
      </trkpt>
      <trkpt lat="48.7285" lon="-3.34976">
        <ele>58</ele>
        <time>2014-10-05T08:49:29Z</time>
      </trkpt>
      <trkpt lat="48.72849" lon="-3.34996">
        <ele>57</ele>
        <time>2014-10-05T08:49:30Z</time>
      </trkpt>
      <trkpt lat="48.72849" lon="-3.35016">
        <ele>56</ele>
        <time>2014-10-05T08:49:31Z</time>
      </trkpt>
      <trkpt lat="48.72848" lon="-3.35036">
        <ele>55</ele>
        <time>2014-10-05T08:49:32Z</time>
      </trkpt>
      <trkpt lat="48.72848" lon="-3.35056">
        <ele>54</ele>
        <time>2014-10-05T08:49:33Z</time>
      </trkpt>
      <trkpt lat="48.72848" lon="-3.35076">
        <ele>53</ele>
        <time>2014-10-05T08:49:34Z</time>
      </trkpt>
      <trkpt lat="48.7285" lon="-3.35095">
        <ele>52</ele>
        <time>2014-10-05T08:49:35Z</time>
      </trkpt>
      <trkpt lat="48.72853" lon="-3.35115">
        <ele>51</ele>
        <time>2014-10-05T08:49:36Z</time>
      </trkpt>
      <trkpt lat="48.72858" lon="-3.35134">
        <ele>50</ele>
        <time>2014-10-05T08:49:37Z</time>
      </trkpt>
      <trkpt lat="48.72863" lon="-3.35152">
        <ele>49</ele>
        <time>2014-10-05T08:49:38Z</time>
      </trkpt>
      <trkpt lat="48.72868" lon="-3.3517">
        <ele>48</ele>
        <time>2014-10-05T08:49:39Z</time>
      </trkpt>
      <trkpt lat="48.72871" lon="-3.35189">
        <ele>47</ele>
        <time>2014-10-05T08:49:40Z</time>
      </trkpt>
      <trkpt lat="48.72871" lon="-3.35208">
        <ele>46</ele>
        <time>2014-10-05T08:49:41Z</time>
      </trkpt>
      <trkpt lat="48.7287" lon="-3.35227">
        <ele>45</ele>
        <time>2014-10-05T08:49:42Z</time>
      </trkpt>
      <trkpt lat="48.72866" lon="-3.35244">
        <ele>44</ele>
        <time>2014-10-05T08:49:43Z</time>
      </trkpt>
      <trkpt lat="48.72861" lon="-3.35262">
        <ele>43</ele>
        <time>2014-10-05T08:49:44Z</time>
      </trkpt>
      <trkpt lat="48.72856" lon="-3.35278">
        <ele>42</ele>
        <time>2014-10-05T08:49:45Z</time>
      </trkpt>
      <trkpt lat="48.72851" lon="-3.35294">
        <ele>41</ele>
        <time>2014-10-05T08:49:46Z</time>
      </trkpt>
      <trkpt lat="48.72846" lon="-3.3531">
        <ele>41</ele>
        <time>2014-10-05T08:49:47Z</time>
      </trkpt>
      <trkpt lat="48.7284" lon="-3.35326">
        <ele>40</ele>
        <time>2014-10-05T08:49:48Z</time>
      </trkpt>
      <trkpt lat="48.72835" lon="-3.3534">
        <ele>40</ele>
        <time>2014-10-05T08:49:49Z</time>
      </trkpt>
      <trkpt lat="48.72829" lon="-3.35355">
        <ele>40</ele>
        <time>2014-10-05T08:49:50Z</time>
      </trkpt>
      <trkpt lat="48.72824" lon="-3.35369">
        <ele>40</ele>
        <time>2014-10-05T08:49:51Z</time>
      </trkpt>
      <trkpt lat="48.72819" lon="-3.35383">
        <ele>40</ele>
        <time>2014-10-05T08:49:52Z</time>
      </trkpt>
      <trkpt lat="48.72815" lon="-3.35396">
        <ele>40</ele>
        <time>2014-10-05T08:49:53Z</time>
      </trkpt>
      <trkpt lat="48.7281" lon="-3.35409">
        <ele>40</ele>
        <time>2014-10-05T08:49:54Z</time>
      </trkpt>
      <trkpt lat="48.72806" lon="-3.35421">
        <ele>40</ele>
        <time>2014-10-05T08:49:55Z</time>
      </trkpt>
      <trkpt lat="48.72802" lon="-3.35433">
        <ele>40</ele>
        <time>2014-10-05T08:49:56Z</time>
      </trkpt>
      <trkpt lat="48.72799" lon="-3.35444">
        <ele>40</ele>
        <time>2014-10-05T08:49:57Z</time>
      </trkpt>
      <trkpt lat="48.72795" lon="-3.35455">
        <ele>40</ele>
        <time>2014-10-05T08:49:58Z</time>
      </trkpt>
      <trkpt lat="48.7279" lon="-3.35466">
        <ele>40</ele>
        <time>2014-10-05T08:49:59Z</time>
      </trkpt>
      <trkpt lat="48.72785" lon="-3.35475">
        <ele>40</ele>
        <time>2014-10-05T08:50:00Z</time>
      </trkpt>
      <trkpt lat="48.7278" lon="-3.35484">
        <ele>40</ele>
        <time>2014-10-05T08:50:01Z</time>
      </trkpt>
      <trkpt lat="48.72775" lon="-3.35493">
        <ele>40</ele>
        <time>2014-10-05T08:50:02Z</time>
      </trkpt>
      <trkpt lat="48.7277" lon="-3.35502">
        <ele>40</ele>
        <time>2014-10-05T08:50:03Z</time>
      </trkpt>
      <trkpt lat="48.72765" lon="-3.35511">
        <ele>40</ele>
        <time>2014-10-05T08:50:04Z</time>
      </trkpt>
      <trkpt lat="48.7276" lon="-3.3552">
        <ele>40</ele>
        <time>2014-10-05T08:50:05Z</time>
      </trkpt>
      <trkpt lat="48.72755" lon="-3.35529">
        <ele>40</ele>
        <time>2014-10-05T08:50:06Z</time>
      </trkpt>
      <trkpt lat="48.72751" lon="-3.35539">
        <ele>40</ele>
        <time>2014-10-05T08:50:07Z</time>
      </trkpt>
      <trkpt lat="48.72747" lon="-3.35549">
        <ele>40</ele>
        <time>2014-10-05T08:50:08Z</time>
      </trkpt>
      <trkpt lat="48.72744" lon="-3.3556">
        <ele>40</ele>
        <time>2014-10-05T08:50:09Z</time>
      </trkpt>
      <trkpt lat="48.72741" lon="-3.35571">
        <ele>40</ele>
        <time>2014-10-05T08:50:10Z</time>
      </trkpt>
      <trkpt lat="48.72738" lon="-3.35583">
        <ele>40</ele>
        <time>2014-10-05T08:50:11Z</time>
      </trkpt>
      <trkpt lat="48.72736" lon="-3.35595">
        <ele>40</ele>
        <time>2014-10-05T08:50:12Z</time>
      </trkpt>
      <trkpt lat="48.72734" lon="-3.35608">
        <ele>40</ele>
        <time>2014-10-05T08:50:13Z</time>
      </trkpt>
      <trkpt lat="48.72732" lon="-3.35621">
        <ele>40</ele>
        <time>2014-10-05T08:50:14Z</time>
      </trkpt>
      <trkpt lat="48.7273" lon="-3.35635">
        <ele>40</ele>
        <time>2014-10-05T08:50:15Z</time>
      </trkpt>
      <trkpt lat="48.72728" lon="-3.35649">
        <ele>40</ele>
        <time>2014-10-05T08:50:16Z</time>
      </trkpt>
      <trkpt lat="48.72726" lon="-3.35663">
        <ele>40</ele>
        <time>2014-10-05T08:50:17Z</time>
      </trkpt>
      <trkpt lat="48.72723" lon="-3.35677">
        <ele>40</ele>
        <time>2014-10-05T08:50:18Z</time>
      </trkpt>
      <trkpt lat="48.7272" lon="-3.35691">
        <ele>40</ele>
        <time>2014-10-05T08:50:19Z</time>
      </trkpt>
      <trkpt lat="48.72717" lon="-3.35705">
        <ele>40</ele>
        <time>2014-10-05T08:50:20Z</time>
      </trkpt>
      <trkpt lat="48.72714" lon="-3.35719">
        <ele>40</ele>
        <time>2014-10-05T08:50:21Z</time>
      </trkpt>
      <trkpt lat="48.7271" lon="-3.35734">
        <ele>40</ele>
        <time>2014-10-05T08:50:22Z</time>
      </trkpt>
      <trkpt lat="48.72707" lon="-3.35748">
        <ele>40</ele>
        <time>2014-10-05T08:50:23Z</time>
      </trkpt>
      <trkpt lat="48.72703" lon="-3.35762">
        <ele>40</ele>
        <time>2014-10-05T08:50:24Z</time>
      </trkpt>
      <trkpt lat="48.72699" lon="-3.35777">
        <ele>40</ele>
        <time>2014-10-05T08:50:25Z</time>
      </trkpt>
      <trkpt lat="48.72696" lon="-3.35793">
        <ele>40</ele>
        <time>2014-10-05T08:50:26Z</time>
      </trkpt>
      <trkpt lat="48.72693" lon="-3.3581">
        <ele>39</ele>
        <time>2014-10-05T08:50:27Z</time>
      </trkpt>
      <trkpt lat="48.7269" lon="-3.35828">
        <ele>39</ele>
        <time>2014-10-05T08:50:28Z</time>
      </trkpt>
      <trkpt lat="48.72687" lon="-3.35846">
        <ele>38</ele>
        <time>2014-10-05T08:50:29Z</time>
      </trkpt>
      <trkpt lat="48.72686" lon="-3.35865">
        <ele>37</ele>
        <time>2014-10-05T08:50:30Z</time>
      </trkpt>
      <trkpt lat="48.72686" lon="-3.35884">
        <ele>36</ele>
        <time>2014-10-05T08:50:31Z</time>
      </trkpt>
      <trkpt lat="48.72687" lon="-3.35904">
        <ele>35</ele>
        <time>2014-10-05T08:50:32Z</time>
      </trkpt>
      <trkpt lat="48.72689" lon="-3.35924">
        <ele>34</ele>
        <time>2014-10-05T08:50:33Z</time>
      </trkpt>
      <trkpt lat="48.7269" lon="-3.35942">
        <ele>33</ele>
        <time>2014-10-05T08:50:34Z</time>
      </trkpt>
      <trkpt lat="48.72692" lon="-3.3596">
        <ele>33</ele>
        <time>2014-10-05T08:50:35Z</time>
      </trkpt>
      <trkpt lat="48.72694" lon="-3.35977">
        <ele>32</ele>
        <time>2014-10-05T08:50:36Z</time>
      </trkpt>
      <trkpt lat="48.72695" lon="-3.35992">
        <ele>32</ele>
        <time>2014-10-05T08:50:37Z</time>
      </trkpt>
      <trkpt lat="48.72696" lon="-3.36006">
        <ele>31</ele>
        <time>2014-10-05T08:50:38Z</time>
      </trkpt>
      <trkpt lat="48.72696" lon="-3.36018">
        <ele>30</ele>
        <time>2014-10-05T08:50:39Z</time>
      </trkpt>
      <trkpt lat="48.72696" lon="-3.3603">
        <ele>30</ele>
        <time>2014-10-05T08:50:40Z</time>
      </trkpt>
      <trkpt lat="48.72696" lon="-3.36041">
        <ele>30</ele>
        <time>2014-10-05T08:50:41Z</time>
      </trkpt>
      <trkpt lat="48.72695" lon="-3.36051">
        <ele>30</ele>
        <time>2014-10-05T08:50:42Z</time>
      </trkpt>
      <trkpt lat="48.72695" lon="-3.36061">
        <ele>30</ele>
        <time>2014-10-05T08:50:43Z</time>
      </trkpt>
      <trkpt lat="48.72694" lon="-3.3607">
        <ele>30</ele>
        <time>2014-10-05T08:50:44Z</time>
      </trkpt>
      <trkpt lat="48.72693" lon="-3.36078">
        <ele>30</ele>
        <time>2014-10-05T08:50:45Z</time>
      </trkpt>
      <trkpt lat="48.72692" lon="-3.36087">
        <ele>30</ele>
        <time>2014-10-05T08:50:46Z</time>
      </trkpt>
      <trkpt lat="48.72691" lon="-3.36095">
        <ele>30</ele>
        <time>2014-10-05T08:50:47Z</time>
      </trkpt>
      <trkpt lat="48.7269" lon="-3.36102">
        <ele>30</ele>
        <time>2014-10-05T08:50:48Z</time>
      </trkpt>
      <trkpt lat="48.72689" lon="-3.3611">
        <ele>30</ele>
        <time>2014-10-05T08:50:49Z</time>
      </trkpt>
      <trkpt lat="48.72688" lon="-3.36118">
        <ele>30</ele>
        <time>2014-10-05T08:50:50Z</time>
      </trkpt>
      <trkpt lat="48.72687" lon="-3.36125">
        <ele>30</ele>
        <time>2014-10-05T08:50:51Z</time>
      </trkpt>
      <trkpt lat="48.72686" lon="-3.36133">
        <ele>31</ele>
        <time>2014-10-05T08:50:52Z</time>
      </trkpt>
      <trkpt lat="48.72684" lon="-3.36139">
        <ele>31</ele>
        <time>2014-10-05T08:50:53Z</time>
      </trkpt>
      <trkpt lat="48.72683" lon="-3.36146">
        <ele>32</ele>
        <time>2014-10-05T08:50:54Z</time>
      </trkpt>
      <trkpt lat="48.72682" lon="-3.36153">
        <ele>32</ele>
        <time>2014-10-05T08:50:55Z</time>
      </trkpt>
      <trkpt lat="48.72681" lon="-3.3616">
        <ele>33</ele>
        <time>2014-10-05T08:50:56Z</time>
      </trkpt>
      <trkpt lat="48.7268" lon="-3.36167">
        <ele>33</ele>
        <time>2014-10-05T08:50:57Z</time>
      </trkpt>
      <trkpt lat="48.72678" lon="-3.36173">
        <ele>34</ele>
        <time>2014-10-05T08:50:58Z</time>
      </trkpt>
      <trkpt lat="48.72677" lon="-3.3618">
        <ele>35</ele>
        <time>2014-10-05T08:50:59Z</time>
      </trkpt>
      <trkpt lat="48.72676" lon="-3.36187">
        <ele>35</ele>
        <time>2014-10-05T08:51:00Z</time>
      </trkpt>
      <trkpt lat="48.72675" lon="-3.36193">
        <ele>36</ele>
        <time>2014-10-05T08:51:01Z</time>
      </trkpt>
      <trkpt lat="48.72673" lon="-3.36199">
        <ele>36</ele>
        <time>2014-10-05T08:51:02Z</time>
      </trkpt>
      <trkpt lat="48.72672" lon="-3.36205">
        <ele>37</ele>
        <time>2014-10-05T08:51:03Z</time>
      </trkpt>
      <trkpt lat="48.7267" lon="-3.36211">
        <ele>37</ele>
        <time>2014-10-05T08:51:04Z</time>
      </trkpt>
      <trkpt lat="48.72669" lon="-3.36216">
        <ele>38</ele>
        <time>2014-10-05T08:51:05Z</time>
      </trkpt>
      <trkpt lat="48.72667" lon="-3.36222">
        <ele>38</ele>
        <time>2014-10-05T08:51:06Z</time>
      </trkpt>
      <trkpt lat="48.72665" lon="-3.36227">
        <ele>38</ele>
        <time>2014-10-05T08:51:07Z</time>
      </trkpt>
      <trkpt lat="48.72663" lon="-3.36232">
        <ele>39</ele>
        <time>2014-10-05T08:51:08Z</time>
      </trkpt>
      <trkpt lat="48.72662" lon="-3.36238">
        <ele>39</ele>
        <time>2014-10-05T08:51:09Z</time>
      </trkpt>
      <trkpt lat="48.7266" lon="-3.36243">
        <ele>39</ele>
        <time>2014-10-05T08:51:10Z</time>
      </trkpt>
      <trkpt lat="48.72657" lon="-3.36248">
        <ele>40</ele>
        <time>2014-10-05T08:51:11Z</time>
      </trkpt>
      <trkpt lat="48.72655" lon="-3.36254">
        <ele>40</ele>
        <time>2014-10-05T08:51:12Z</time>
      </trkpt>
      <trkpt lat="48.72653" lon="-3.3626">
        <ele>41</ele>
        <time>2014-10-05T08:51:13Z</time>
      </trkpt>
      <trkpt lat="48.7265" lon="-3.36266">
        <ele>41</ele>
        <time>2014-10-05T08:51:14Z</time>
      </trkpt>
      <trkpt lat="48.72647" lon="-3.36272">
        <ele>42</ele>
        <time>2014-10-05T08:51:15Z</time>
      </trkpt>
      <trkpt lat="48.72644" lon="-3.36278">
        <ele>42</ele>
        <time>2014-10-05T08:51:16Z</time>
      </trkpt>
      <trkpt lat="48.72641" lon="-3.36284">
        <ele>43</ele>
        <time>2014-10-05T08:51:17Z</time>
      </trkpt>
      <trkpt lat="48.72638" lon="-3.3629">
        <ele>43</ele>
        <time>2014-10-05T08:51:18Z</time>
      </trkpt>
      <trkpt lat="48.72635" lon="-3.36297">
        <ele>44</ele>
        <time>2014-10-05T08:51:19Z</time>
      </trkpt>
      <trkpt lat="48.72632" lon="-3.36303">
        <ele>44</ele>
        <time>2014-10-05T08:51:20Z</time>
      </trkpt>
      <trkpt lat="48.72628" lon="-3.36309">
        <ele>44</ele>
        <time>2014-10-05T08:51:21Z</time>
      </trkpt>
      <trkpt lat="48.72625" lon="-3.36315">
        <ele>44</ele>
        <time>2014-10-05T08:51:22Z</time>
      </trkpt>
      <trkpt lat="48.72621" lon="-3.36321">
        <ele>45</ele>
        <time>2014-10-05T08:51:23Z</time>
      </trkpt>
      <trkpt lat="48.72618" lon="-3.36327">
        <ele>45</ele>
        <time>2014-10-05T08:51:24Z</time>
      </trkpt>
      <trkpt lat="48.72615" lon="-3.36333">
        <ele>45</ele>
        <time>2014-10-05T08:51:25Z</time>
      </trkpt>
      <trkpt lat="48.72611" lon="-3.3634">
        <ele>45</ele>
        <time>2014-10-05T08:51:26Z</time>
      </trkpt>
      <trkpt lat="48.72608" lon="-3.36347">
        <ele>46</ele>
        <time>2014-10-05T08:51:27Z</time>
      </trkpt>
      <trkpt lat="48.72604" lon="-3.36353">
        <ele>46</ele>
        <time>2014-10-05T08:51:28Z</time>
      </trkpt>
      <trkpt lat="48.72601" lon="-3.3636">
        <ele>46</ele>
        <time>2014-10-05T08:51:29Z</time>
      </trkpt>
      <trkpt lat="48.72599" lon="-3.36367">
        <ele>47</ele>
        <time>2014-10-05T08:51:30Z</time>
      </trkpt>
      <trkpt lat="48.72596" lon="-3.36375">
        <ele>47</ele>
        <time>2014-10-05T08:51:31Z</time>
      </trkpt>
      <trkpt lat="48.72594" lon="-3.36383">
        <ele>48</ele>
        <time>2014-10-05T08:51:32Z</time>
      </trkpt>
      <trkpt lat="48.72592" lon="-3.36391">
        <ele>48</ele>
        <time>2014-10-05T08:51:33Z</time>
      </trkpt>
      <trkpt lat="48.7259" lon="-3.36399">
        <ele>49</ele>
        <time>2014-10-05T08:51:34Z</time>
      </trkpt>
      <trkpt lat="48.72589" lon="-3.36407">
        <ele>49</ele>
        <time>2014-10-05T08:51:35Z</time>
      </trkpt>
      <trkpt lat="48.72588" lon="-3.36416">
        <ele>49</ele>
        <time>2014-10-05T08:51:36Z</time>
      </trkpt>
      <trkpt lat="48.72586" lon="-3.36424">
        <ele>50</ele>
        <time>2014-10-05T08:51:37Z</time>
      </trkpt>
      <trkpt lat="48.72586" lon="-3.36433">
        <ele>50</ele>
        <time>2014-10-05T08:51:38Z</time>
      </trkpt>
      <trkpt lat="48.72586" lon="-3.36442">
        <ele>50</ele>
        <time>2014-10-05T08:51:39Z</time>
      </trkpt>
      <trkpt lat="48.72586" lon="-3.36452">
        <ele>50</ele>
        <time>2014-10-05T08:51:40Z</time>
      </trkpt>
      <trkpt lat="48.72587" lon="-3.36461">
        <ele>50</ele>
        <time>2014-10-05T08:51:41Z</time>
      </trkpt>
      <trkpt lat="48.72588" lon="-3.3647">
        <ele>50</ele>
        <time>2014-10-05T08:51:42Z</time>
      </trkpt>
      <trkpt lat="48.7259" lon="-3.36479">
        <ele>50</ele>
        <time>2014-10-05T08:51:43Z</time>
      </trkpt>
      <trkpt lat="48.72593" lon="-3.36488">
        <ele>50</ele>
        <time>2014-10-05T08:51:44Z</time>
      </trkpt>
      <trkpt lat="48.72595" lon="-3.36496">
        <ele>51</ele>
        <time>2014-10-05T08:51:45Z</time>
      </trkpt>
      <trkpt lat="48.72599" lon="-3.36505">
        <ele>51</ele>
        <time>2014-10-05T08:51:46Z</time>
      </trkpt>
      <trkpt lat="48.72602" lon="-3.36513">
        <ele>51</ele>
        <time>2014-10-05T08:51:47Z</time>
      </trkpt>
      <trkpt lat="48.72606" lon="-3.36521">
        <ele>51</ele>
        <time>2014-10-05T08:51:48Z</time>
      </trkpt>
      <trkpt lat="48.7261" lon="-3.3653">
        <ele>51</ele>
        <time>2014-10-05T08:51:49Z</time>
      </trkpt>
      <trkpt lat="48.72614" lon="-3.36539">
        <ele>51</ele>
        <time>2014-10-05T08:51:50Z</time>
      </trkpt>
      <trkpt lat="48.72618" lon="-3.36548">
        <ele>51</ele>
        <time>2014-10-05T08:51:51Z</time>
      </trkpt>
      <trkpt lat="48.72622" lon="-3.36557">
        <ele>51</ele>
        <time>2014-10-05T08:51:52Z</time>
      </trkpt>
      <trkpt lat="48.72627" lon="-3.36566">
        <ele>51</ele>
        <time>2014-10-05T08:51:53Z</time>
      </trkpt>
      <trkpt lat="48.72631" lon="-3.36576">
        <ele>51</ele>
        <time>2014-10-05T08:51:54Z</time>
      </trkpt>
      <trkpt lat="48.72635" lon="-3.36585">
        <ele>51</ele>
        <time>2014-10-05T08:51:55Z</time>
      </trkpt>
      <trkpt lat="48.72639" lon="-3.36595">
        <ele>51</ele>
        <time>2014-10-05T08:51:56Z</time>
      </trkpt>
      <trkpt lat="48.72643" lon="-3.36604">
        <ele>51</ele>
        <time>2014-10-05T08:51:57Z</time>
      </trkpt>
      <trkpt lat="48.72646" lon="-3.36614">
        <ele>51</ele>
        <time>2014-10-05T08:51:58Z</time>
      </trkpt>
      <trkpt lat="48.72649" lon="-3.36625">
        <ele>51</ele>
        <time>2014-10-05T08:51:59Z</time>
      </trkpt>
      <trkpt lat="48.72652" lon="-3.36636">
        <ele>51</ele>
        <time>2014-10-05T08:52:00Z</time>
      </trkpt>
      <trkpt lat="48.72654" lon="-3.36647">
        <ele>51</ele>
        <time>2014-10-05T08:52:01Z</time>
      </trkpt>
      <trkpt lat="48.72655" lon="-3.36658">
        <ele>52</ele>
        <time>2014-10-05T08:52:02Z</time>
      </trkpt>
      <trkpt lat="48.72657" lon="-3.36669">
        <ele>52</ele>
        <time>2014-10-05T08:52:03Z</time>
      </trkpt>
      <trkpt lat="48.72658" lon="-3.3668">
        <ele>52</ele>
        <time>2014-10-05T08:52:04Z</time>
      </trkpt>
      <trkpt lat="48.72658" lon="-3.36692">
        <ele>52</ele>
        <time>2014-10-05T08:52:05Z</time>
      </trkpt>
      <trkpt lat="48.72658" lon="-3.36703">
        <ele>52</ele>
        <time>2014-10-05T08:52:06Z</time>
      </trkpt>
      <trkpt lat="48.72658" lon="-3.36715">
        <ele>53</ele>
        <time>2014-10-05T08:52:07Z</time>
      </trkpt>
      <trkpt lat="48.72657" lon="-3.36726">
        <ele>53</ele>
        <time>2014-10-05T08:52:08Z</time>
      </trkpt>
      <trkpt lat="48.72656" lon="-3.36737">
        <ele>53</ele>
        <time>2014-10-05T08:52:09Z</time>
      </trkpt>
      <trkpt lat="48.72654" lon="-3.36748">
        <ele>53</ele>
        <time>2014-10-05T08:52:10Z</time>
      </trkpt>
      <trkpt lat="48.72652" lon="-3.36759">
        <ele>53</ele>
        <time>2014-10-05T08:52:11Z</time>
      </trkpt>
      <trkpt lat="48.72651" lon="-3.3677">
        <ele>54</ele>
        <time>2014-10-05T08:52:12Z</time>
      </trkpt>
      <trkpt lat="48.7265" lon="-3.36782">
        <ele>54</ele>
        <time>2014-10-05T08:52:13Z</time>
      </trkpt>
      <trkpt lat="48.72648" lon="-3.36793">
        <ele>54</ele>
        <time>2014-10-05T08:52:14Z</time>
      </trkpt>
      <trkpt lat="48.72646" lon="-3.36804">
        <ele>54</ele>
        <time>2014-10-05T08:52:15Z</time>
      </trkpt>
      <trkpt lat="48.72645" lon="-3.36814">
        <ele>54</ele>
        <time>2014-10-05T08:52:16Z</time>
      </trkpt>
      <trkpt lat="48.72644" lon="-3.36824">
        <ele>55</ele>
        <time>2014-10-05T08:52:17Z</time>
      </trkpt>
      <trkpt lat="48.72642" lon="-3.36833">
        <ele>55</ele>
        <time>2014-10-05T08:52:18Z</time>
      </trkpt>
      <trkpt lat="48.72641" lon="-3.36841">
        <ele>55</ele>
        <time>2014-10-05T08:52:19Z</time>
      </trkpt>
      <trkpt lat="48.7264" lon="-3.36848">
        <ele>55</ele>
        <time>2014-10-05T08:52:20Z</time>
      </trkpt>
      <trkpt lat="48.72639" lon="-3.36855">
        <ele>55</ele>
        <time>2014-10-05T08:52:21Z</time>
      </trkpt>
      <trkpt lat="48.72638" lon="-3.36861">
        <ele>56</ele>
        <time>2014-10-05T08:52:22Z</time>
      </trkpt>
      <trkpt lat="48.72637" lon="-3.36866">
        <ele>56</ele>
        <time>2014-10-05T08:52:23Z</time>
      </trkpt>
      <trkpt lat="48.72637" lon="-3.3687">
        <ele>56</ele>
        <time>2014-10-05T08:52:24Z</time>
      </trkpt>
      <trkpt lat="48.72635" lon="-3.36872">
        <ele>56</ele>
        <time>2014-10-05T08:52:28Z</time>
      </trkpt>
      <trkpt lat="48.72635" lon="-3.36875">
        <ele>57</ele>
        <time>2014-10-05T08:52:29Z</time>
      </trkpt>
      <trkpt lat="48.72635" lon="-3.36877">
        <ele>57</ele>
        <time>2014-10-05T08:52:30Z</time>
      </trkpt>
      <trkpt lat="48.72634" lon="-3.36881">
        <ele>57</ele>
        <time>2014-10-05T08:52:31Z</time>
      </trkpt>
      <trkpt lat="48.72634" lon="-3.36885">
        <ele>57</ele>
        <time>2014-10-05T08:52:32Z</time>
      </trkpt>
      <trkpt lat="48.72633" lon="-3.36889">
        <ele>57</ele>
        <time>2014-10-05T08:52:33Z</time>
      </trkpt>
      <trkpt lat="48.72633" lon="-3.36893">
        <ele>57</ele>
        <time>2014-10-05T08:52:34Z</time>
      </trkpt>
      <trkpt lat="48.72632" lon="-3.36897">
        <ele>57</ele>
        <time>2014-10-05T08:52:35Z</time>
      </trkpt>
      <trkpt lat="48.72631" lon="-3.36903">
        <ele>57</ele>
        <time>2014-10-05T08:52:36Z</time>
      </trkpt>
      <trkpt lat="48.72631" lon="-3.36909">
        <ele>57</ele>
        <time>2014-10-05T08:52:37Z</time>
      </trkpt>
      <trkpt lat="48.7263" lon="-3.36915">
        <ele>57</ele>
        <time>2014-10-05T08:52:38Z</time>
      </trkpt>
      <trkpt lat="48.72629" lon="-3.36922">
        <ele>57</ele>
        <time>2014-10-05T08:52:39Z</time>
      </trkpt>
      <trkpt lat="48.72629" lon="-3.36929">
        <ele>57</ele>
        <time>2014-10-05T08:52:40Z</time>
      </trkpt>
      <trkpt lat="48.72628" lon="-3.36936">
        <ele>57</ele>
        <time>2014-10-05T08:52:41Z</time>
      </trkpt>
      <trkpt lat="48.72628" lon="-3.36943">
        <ele>57</ele>
        <time>2014-10-05T08:52:42Z</time>
      </trkpt>
      <trkpt lat="48.72628" lon="-3.3695">
        <ele>57</ele>
        <time>2014-10-05T08:52:43Z</time>
      </trkpt>
      <trkpt lat="48.72628" lon="-3.36958">
        <ele>57</ele>
        <time>2014-10-05T08:52:44Z</time>
      </trkpt>
      <trkpt lat="48.72629" lon="-3.36966">
        <ele>57</ele>
        <time>2014-10-05T08:52:45Z</time>
      </trkpt>
      <trkpt lat="48.72629" lon="-3.36973">
        <ele>57</ele>
        <time>2014-10-05T08:52:46Z</time>
      </trkpt>
      <trkpt lat="48.72629" lon="-3.36981">
        <ele>57</ele>
        <time>2014-10-05T08:52:47Z</time>
      </trkpt>
      <trkpt lat="48.7263" lon="-3.36989">
        <ele>57</ele>
        <time>2014-10-05T08:52:48Z</time>
      </trkpt>
      <trkpt lat="48.72631" lon="-3.36997">
        <ele>57</ele>
        <time>2014-10-05T08:52:49Z</time>
      </trkpt>
      <trkpt lat="48.72632" lon="-3.37004">
        <ele>57</ele>
        <time>2014-10-05T08:52:50Z</time>
      </trkpt>
      <trkpt lat="48.72633" lon="-3.37012">
        <ele>57</ele>
        <time>2014-10-05T08:52:51Z</time>
      </trkpt>
      <trkpt lat="48.72635" lon="-3.3702">
        <ele>57</ele>
        <time>2014-10-05T08:52:52Z</time>
      </trkpt>
      <trkpt lat="48.72637" lon="-3.37027">
        <ele>57</ele>
        <time>2014-10-05T08:52:53Z</time>
      </trkpt>
      <trkpt lat="48.7264" lon="-3.37034">
        <ele>57</ele>
        <time>2014-10-05T08:52:54Z</time>
      </trkpt>
      <trkpt lat="48.72643" lon="-3.37042">
        <ele>57</ele>
        <time>2014-10-05T08:52:55Z</time>
      </trkpt>
      <trkpt lat="48.72646" lon="-3.37049">
        <ele>57</ele>
        <time>2014-10-05T08:52:56Z</time>
      </trkpt>
      <trkpt lat="48.72649" lon="-3.37056">
        <ele>57</ele>
        <time>2014-10-05T08:52:57Z</time>
      </trkpt>
      <trkpt lat="48.72652" lon="-3.37063">
        <ele>58</ele>
        <time>2014-10-05T08:52:58Z</time>
      </trkpt>
      <trkpt lat="48.72656" lon="-3.3707">
        <ele>58</ele>
        <time>2014-10-05T08:52:59Z</time>
      </trkpt>
      <trkpt lat="48.7266" lon="-3.37076">
        <ele>58</ele>
        <time>2014-10-05T08:53:00Z</time>
      </trkpt>
      <trkpt lat="48.72664" lon="-3.37083">
        <ele>58</ele>
        <time>2014-10-05T08:53:01Z</time>
      </trkpt>
      <trkpt lat="48.72668" lon="-3.37089">
        <ele>58</ele>
        <time>2014-10-05T08:53:02Z</time>
      </trkpt>
      <trkpt lat="48.72673" lon="-3.37095">
        <ele>59</ele>
        <time>2014-10-05T08:53:03Z</time>
      </trkpt>
      <trkpt lat="48.72677" lon="-3.37101">
        <ele>59</ele>
        <time>2014-10-05T08:53:04Z</time>
      </trkpt>
      <trkpt lat="48.72682" lon="-3.37107">
        <ele>59</ele>
        <time>2014-10-05T08:53:05Z</time>
      </trkpt>
      <trkpt lat="48.72686" lon="-3.37114">
        <ele>59</ele>
        <time>2014-10-05T08:53:06Z</time>
      </trkpt>
      <trkpt lat="48.72691" lon="-3.37121">
        <ele>59</ele>
        <time>2014-10-05T08:53:07Z</time>
      </trkpt>
      <trkpt lat="48.72695" lon="-3.37127">
        <ele>60</ele>
        <time>2014-10-05T08:53:08Z</time>
      </trkpt>
      <trkpt lat="48.727" lon="-3.37133">
        <ele>60</ele>
        <time>2014-10-05T08:53:09Z</time>
      </trkpt>
      <trkpt lat="48.72705" lon="-3.37139">
        <ele>60</ele>
        <time>2014-10-05T08:53:10Z</time>
      </trkpt>
      <trkpt lat="48.7271" lon="-3.37146">
        <ele>60</ele>
        <time>2014-10-05T08:53:11Z</time>
      </trkpt>
      <trkpt lat="48.72715" lon="-3.37152">
        <ele>60</ele>
        <time>2014-10-05T08:53:12Z</time>
      </trkpt>
      <trkpt lat="48.72719" lon="-3.37158">
        <ele>61</ele>
        <time>2014-10-05T08:53:13Z</time>
      </trkpt>
      <trkpt lat="48.72724" lon="-3.37164">
        <ele>61</ele>
        <time>2014-10-05T08:53:14Z</time>
      </trkpt>
      <trkpt lat="48.72729" lon="-3.3717">
        <ele>61</ele>
        <time>2014-10-05T08:53:15Z</time>
      </trkpt>
      <trkpt lat="48.72734" lon="-3.37175">
        <ele>61</ele>
        <time>2014-10-05T08:53:16Z</time>
      </trkpt>
      <trkpt lat="48.7274" lon="-3.37179">
        <ele>61</ele>
        <time>2014-10-05T08:53:17Z</time>
      </trkpt>
      <trkpt lat="48.72746" lon="-3.37183">
        <ele>61</ele>
        <time>2014-10-05T08:53:18Z</time>
      </trkpt>
      <trkpt lat="48.72752" lon="-3.37186">
        <ele>62</ele>
        <time>2014-10-05T08:53:19Z</time>
      </trkpt>
      <trkpt lat="48.72758" lon="-3.37189">
        <ele>62</ele>
        <time>2014-10-05T08:53:20Z</time>
      </trkpt>
      <trkpt lat="48.72765" lon="-3.37191">
        <ele>62</ele>
        <time>2014-10-05T08:53:21Z</time>
      </trkpt>
      <trkpt lat="48.72772" lon="-3.37193">
        <ele>62</ele>
        <time>2014-10-05T08:53:22Z</time>
      </trkpt>
      <trkpt lat="48.72778" lon="-3.37195">
        <ele>62</ele>
        <time>2014-10-05T08:53:23Z</time>
      </trkpt>
      <trkpt lat="48.72785" lon="-3.37197">
        <ele>62</ele>
        <time>2014-10-05T08:53:24Z</time>
      </trkpt>
      <trkpt lat="48.72792" lon="-3.37199">
        <ele>62</ele>
        <time>2014-10-05T08:53:25Z</time>
      </trkpt>
      <trkpt lat="48.72798" lon="-3.372">
        <ele>62</ele>
        <time>2014-10-05T08:53:26Z</time>
      </trkpt>
      <trkpt lat="48.72805" lon="-3.37202">
        <ele>62</ele>
        <time>2014-10-05T08:53:27Z</time>
      </trkpt>
      <trkpt lat="48.72811" lon="-3.37204">
        <ele>62</ele>
        <time>2014-10-05T08:53:28Z</time>
      </trkpt>
      <trkpt lat="48.72817" lon="-3.37206">
        <ele>62</ele>
        <time>2014-10-05T08:53:29Z</time>
      </trkpt>
      <trkpt lat="48.72823" lon="-3.37207">
        <ele>62</ele>
        <time>2014-10-05T08:53:30Z</time>
      </trkpt>
      <trkpt lat="48.72829" lon="-3.37209">
        <ele>62</ele>
        <time>2014-10-05T08:53:31Z</time>
      </trkpt>
      <trkpt lat="48.72835" lon="-3.37211">
        <ele>62</ele>
        <time>2014-10-05T08:53:32Z</time>
      </trkpt>
      <trkpt lat="48.72841" lon="-3.37213">
        <ele>62</ele>
        <time>2014-10-05T08:53:33Z</time>
      </trkpt>
      <trkpt lat="48.72847" lon="-3.37216">
        <ele>63</ele>
        <time>2014-10-05T08:53:34Z</time>
      </trkpt>
      <trkpt lat="48.72853" lon="-3.37218">
        <ele>63</ele>
        <time>2014-10-05T08:53:35Z</time>
      </trkpt>
      <trkpt lat="48.72859" lon="-3.37222">
        <ele>63</ele>
        <time>2014-10-05T08:53:36Z</time>
      </trkpt>
      <trkpt lat="48.72865" lon="-3.37225">
        <ele>63</ele>
        <time>2014-10-05T08:53:37Z</time>
      </trkpt>
      <trkpt lat="48.72871" lon="-3.37228">
        <ele>63</ele>
        <time>2014-10-05T08:53:38Z</time>
      </trkpt>
      <trkpt lat="48.72877" lon="-3.37233">
        <ele>63</ele>
        <time>2014-10-05T08:53:39Z</time>
      </trkpt>
      <trkpt lat="48.72883" lon="-3.37238">
        <ele>64</ele>
        <time>2014-10-05T08:53:40Z</time>
      </trkpt>
      <trkpt lat="48.7289" lon="-3.37244">
        <ele>64</ele>
        <time>2014-10-05T08:53:41Z</time>
      </trkpt>
      <trkpt lat="48.72897" lon="-3.37251">
        <ele>64</ele>
        <time>2014-10-05T08:53:42Z</time>
      </trkpt>
      <trkpt lat="48.72904" lon="-3.37258">
        <ele>64</ele>
        <time>2014-10-05T08:53:43Z</time>
      </trkpt>
      <trkpt lat="48.72911" lon="-3.37265">
        <ele>64</ele>
        <time>2014-10-05T08:53:44Z</time>
      </trkpt>
      <trkpt lat="48.72918" lon="-3.37272">
        <ele>64</ele>
        <time>2014-10-05T08:53:45Z</time>
      </trkpt>
      <trkpt lat="48.72925" lon="-3.37278">
        <ele>64</ele>
        <time>2014-10-05T08:53:46Z</time>
      </trkpt>
      <trkpt lat="48.72932" lon="-3.37284">
        <ele>64</ele>
        <time>2014-10-05T08:53:47Z</time>
      </trkpt>
      <trkpt lat="48.72938" lon="-3.37291">
        <ele>64</ele>
        <time>2014-10-05T08:53:48Z</time>
      </trkpt>
      <trkpt lat="48.72945" lon="-3.37297">
        <ele>64</ele>
        <time>2014-10-05T08:53:49Z</time>
      </trkpt>
      <trkpt lat="48.72952" lon="-3.37304">
        <ele>64</ele>
        <time>2014-10-05T08:53:50Z</time>
      </trkpt>
      <trkpt lat="48.72958" lon="-3.37312">
        <ele>64</ele>
        <time>2014-10-05T08:53:51Z</time>
      </trkpt>
      <trkpt lat="48.72963" lon="-3.37321">
        <ele>64</ele>
        <time>2014-10-05T08:53:52Z</time>
      </trkpt>
      <trkpt lat="48.72968" lon="-3.37331">
        <ele>64</ele>
        <time>2014-10-05T08:53:53Z</time>
      </trkpt>
      <trkpt lat="48.72971" lon="-3.37342">
        <ele>64</ele>
        <time>2014-10-05T08:53:54Z</time>
      </trkpt>
      <trkpt lat="48.72973" lon="-3.37353">
        <ele>64</ele>
        <time>2014-10-05T08:53:55Z</time>
      </trkpt>
      <trkpt lat="48.72974" lon="-3.37365">
        <ele>64</ele>
        <time>2014-10-05T08:53:56Z</time>
      </trkpt>
      <trkpt lat="48.72974" lon="-3.37376">
        <ele>64</ele>
        <time>2014-10-05T08:53:57Z</time>
      </trkpt>
      <trkpt lat="48.72974" lon="-3.37387">
        <ele>64</ele>
        <time>2014-10-05T08:53:58Z</time>
      </trkpt>
      <trkpt lat="48.72973" lon="-3.37398">
        <ele>64</ele>
        <time>2014-10-05T08:53:59Z</time>
      </trkpt>
      <trkpt lat="48.72972" lon="-3.37409">
        <ele>64</ele>
        <time>2014-10-05T08:54:00Z</time>
      </trkpt>
      <trkpt lat="48.7297" lon="-3.37419">
        <ele>65</ele>
        <time>2014-10-05T08:54:01Z</time>
      </trkpt>
      <trkpt lat="48.72968" lon="-3.3743">
        <ele>65</ele>
        <time>2014-10-05T08:54:02Z</time>
      </trkpt>
      <trkpt lat="48.72965" lon="-3.3744">
        <ele>65</ele>
        <time>2014-10-05T08:54:03Z</time>
      </trkpt>
      <trkpt lat="48.72963" lon="-3.37451">
        <ele>65</ele>
        <time>2014-10-05T08:54:04Z</time>
      </trkpt>
      <trkpt lat="48.7296" lon="-3.37461">
        <ele>65</ele>
        <time>2014-10-05T08:54:05Z</time>
      </trkpt>
      <trkpt lat="48.72957" lon="-3.37472">
        <ele>65</ele>
        <time>2014-10-05T08:54:06Z</time>
      </trkpt>
      <trkpt lat="48.72955" lon="-3.37483">
        <ele>65</ele>
        <time>2014-10-05T08:54:07Z</time>
      </trkpt>
      <trkpt lat="48.72952" lon="-3.37493">
        <ele>65</ele>
        <time>2014-10-05T08:54:08Z</time>
      </trkpt>
      <trkpt lat="48.72949" lon="-3.37504">
        <ele>65</ele>
        <time>2014-10-05T08:54:09Z</time>
      </trkpt>
      <trkpt lat="48.72947" lon="-3.37514">
        <ele>65</ele>
        <time>2014-10-05T08:54:10Z</time>
      </trkpt>
      <trkpt lat="48.72944" lon="-3.37525">
        <ele>65</ele>
        <time>2014-10-05T08:54:11Z</time>
      </trkpt>
      <trkpt lat="48.72941" lon="-3.37536">
        <ele>65</ele>
        <time>2014-10-05T08:54:12Z</time>
      </trkpt>
      <trkpt lat="48.72938" lon="-3.37547">
        <ele>65</ele>
        <time>2014-10-05T08:54:13Z</time>
      </trkpt>
      <trkpt lat="48.72935" lon="-3.37558">
        <ele>65</ele>
        <time>2014-10-05T08:54:14Z</time>
      </trkpt>
      <trkpt lat="48.72933" lon="-3.37569">
        <ele>65</ele>
        <time>2014-10-05T08:54:15Z</time>
      </trkpt>
      <trkpt lat="48.72932" lon="-3.37581">
        <ele>65</ele>
        <time>2014-10-05T08:54:16Z</time>
      </trkpt>
      <trkpt lat="48.72931" lon="-3.37592">
        <ele>65</ele>
        <time>2014-10-05T08:54:17Z</time>
      </trkpt>
      <trkpt lat="48.7293" lon="-3.37603">
        <ele>66</ele>
        <time>2014-10-05T08:54:18Z</time>
      </trkpt>
      <trkpt lat="48.7293" lon="-3.37614">
        <ele>66</ele>
        <time>2014-10-05T08:54:19Z</time>
      </trkpt>
      <trkpt lat="48.72931" lon="-3.37625">
        <ele>66</ele>
        <time>2014-10-05T08:54:20Z</time>
      </trkpt>
      <trkpt lat="48.72933" lon="-3.37636">
        <ele>66</ele>
        <time>2014-10-05T08:54:21Z</time>
      </trkpt>
      <trkpt lat="48.72935" lon="-3.37646">
        <ele>67</ele>
        <time>2014-10-05T08:54:22Z</time>
      </trkpt>
      <trkpt lat="48.72938" lon="-3.37656">
        <ele>67</ele>
        <time>2014-10-05T08:54:23Z</time>
      </trkpt>
      <trkpt lat="48.72941" lon="-3.37667">
        <ele>67</ele>
        <time>2014-10-05T08:54:24Z</time>
      </trkpt>
      <trkpt lat="48.72945" lon="-3.37676">
        <ele>67</ele>
        <time>2014-10-05T08:54:25Z</time>
      </trkpt>
      <trkpt lat="48.72949" lon="-3.37685">
        <ele>67</ele>
        <time>2014-10-05T08:54:26Z</time>
      </trkpt>
      <trkpt lat="48.72954" lon="-3.37693">
        <ele>68</ele>
        <time>2014-10-05T08:54:27Z</time>
      </trkpt>
      <trkpt lat="48.72959" lon="-3.37702">
        <ele>68</ele>
        <time>2014-10-05T08:54:28Z</time>
      </trkpt>
      <trkpt lat="48.72964" lon="-3.37709">
        <ele>68</ele>
        <time>2014-10-05T08:54:29Z</time>
      </trkpt>
      <trkpt lat="48.72969" lon="-3.37718">
        <ele>68</ele>
        <time>2014-10-05T08:54:30Z</time>
      </trkpt>
      <trkpt lat="48.72975" lon="-3.37726">
        <ele>68</ele>
        <time>2014-10-05T08:54:31Z</time>
      </trkpt>
      <trkpt lat="48.7298" lon="-3.37734">
        <ele>68</ele>
        <time>2014-10-05T08:54:32Z</time>
      </trkpt>
      <trkpt lat="48.72986" lon="-3.37743">
        <ele>68</ele>
        <time>2014-10-05T08:54:33Z</time>
      </trkpt>
      <trkpt lat="48.72991" lon="-3.37752">
        <ele>68</ele>
        <time>2014-10-05T08:54:34Z</time>
      </trkpt>
      <trkpt lat="48.72997" lon="-3.37761">
        <ele>68</ele>
        <time>2014-10-05T08:54:35Z</time>
      </trkpt>
      <trkpt lat="48.73002" lon="-3.37771">
        <ele>68</ele>
        <time>2014-10-05T08:54:36Z</time>
      </trkpt>
      <trkpt lat="48.73006" lon="-3.37781">
        <ele>68</ele>
        <time>2014-10-05T08:54:37Z</time>
      </trkpt>
      <trkpt lat="48.7301" lon="-3.37791">
        <ele>68</ele>
        <time>2014-10-05T08:54:38Z</time>
      </trkpt>
      <trkpt lat="48.73014" lon="-3.37802">
        <ele>68</ele>
        <time>2014-10-05T08:54:39Z</time>
      </trkpt>
      <trkpt lat="48.73017" lon="-3.37813">
        <ele>68</ele>
        <time>2014-10-05T08:54:40Z</time>
      </trkpt>
      <trkpt lat="48.73019" lon="-3.37825">
        <ele>68</ele>
        <time>2014-10-05T08:54:41Z</time>
      </trkpt>
      <trkpt lat="48.7302" lon="-3.37836">
        <ele>68</ele>
        <time>2014-10-05T08:54:42Z</time>
      </trkpt>
      <trkpt lat="48.73022" lon="-3.37847">
        <ele>68</ele>
        <time>2014-10-05T08:54:43Z</time>
      </trkpt>
      <trkpt lat="48.73024" lon="-3.37858">
        <ele>69</ele>
        <time>2014-10-05T08:54:44Z</time>
      </trkpt>
      <trkpt lat="48.73025" lon="-3.37869">
        <ele>69</ele>
        <time>2014-10-05T08:54:45Z</time>
      </trkpt>
      <trkpt lat="48.73027" lon="-3.37881">
        <ele>69</ele>
        <time>2014-10-05T08:54:46Z</time>
      </trkpt>
      <trkpt lat="48.73028" lon="-3.37892">
        <ele>69</ele>
        <time>2014-10-05T08:54:47Z</time>
      </trkpt>
      <trkpt lat="48.7303" lon="-3.37903">
        <ele>69</ele>
        <time>2014-10-05T08:54:48Z</time>
      </trkpt>
      <trkpt lat="48.73032" lon="-3.37915">
        <ele>69</ele>
        <time>2014-10-05T08:54:49Z</time>
      </trkpt>
      <trkpt lat="48.73033" lon="-3.37926">
        <ele>69</ele>
        <time>2014-10-05T08:54:50Z</time>
      </trkpt>
      <trkpt lat="48.73035" lon="-3.37938">
        <ele>69</ele>
        <time>2014-10-05T08:54:51Z</time>
      </trkpt>
      <trkpt lat="48.73037" lon="-3.37949">
        <ele>69</ele>
        <time>2014-10-05T08:54:52Z</time>
      </trkpt>
      <trkpt lat="48.73038" lon="-3.37961">
        <ele>69</ele>
        <time>2014-10-05T08:54:53Z</time>
      </trkpt>
      <trkpt lat="48.7304" lon="-3.37972">
        <ele>69</ele>
        <time>2014-10-05T08:54:54Z</time>
      </trkpt>
      <trkpt lat="48.73042" lon="-3.37983">
        <ele>69</ele>
        <time>2014-10-05T08:54:55Z</time>
      </trkpt>
      <trkpt lat="48.73043" lon="-3.37994">
        <ele>69</ele>
        <time>2014-10-05T08:54:56Z</time>
      </trkpt>
      <trkpt lat="48.73045" lon="-3.38005">
        <ele>70</ele>
        <time>2014-10-05T08:54:57Z</time>
      </trkpt>
      <trkpt lat="48.73046" lon="-3.38016">
        <ele>70</ele>
        <time>2014-10-05T08:54:58Z</time>
      </trkpt>
      <trkpt lat="48.73047" lon="-3.38027">
        <ele>70</ele>
        <time>2014-10-05T08:54:59Z</time>
      </trkpt>
      <trkpt lat="48.73047" lon="-3.38038">
        <ele>70</ele>
        <time>2014-10-05T08:55:00Z</time>
      </trkpt>
      <trkpt lat="48.73047" lon="-3.38049">
        <ele>70</ele>
        <time>2014-10-05T08:55:01Z</time>
      </trkpt>
      <trkpt lat="48.73046" lon="-3.3806">
        <ele>71</ele>
        <time>2014-10-05T08:55:02Z</time>
      </trkpt>
      <trkpt lat="48.73044" lon="-3.38072">
        <ele>71</ele>
        <time>2014-10-05T08:55:03Z</time>
      </trkpt>
      <trkpt lat="48.73042" lon="-3.38083">
        <ele>71</ele>
        <time>2014-10-05T08:55:04Z</time>
      </trkpt>
      <trkpt lat="48.7304" lon="-3.38094">
        <ele>71</ele>
        <time>2014-10-05T08:55:05Z</time>
      </trkpt>
      <trkpt lat="48.73037" lon="-3.38105">
        <ele>72</ele>
        <time>2014-10-05T08:55:06Z</time>
      </trkpt>
      <trkpt lat="48.73033" lon="-3.38115">
        <ele>72</ele>
        <time>2014-10-05T08:55:07Z</time>
      </trkpt>
      <trkpt lat="48.73029" lon="-3.38125">
        <ele>72</ele>
        <time>2014-10-05T08:55:08Z</time>
      </trkpt>
      <trkpt lat="48.73025" lon="-3.38135">
        <ele>72</ele>
        <time>2014-10-05T08:55:09Z</time>
      </trkpt>
      <trkpt lat="48.7302" lon="-3.38144">
        <ele>73</ele>
        <time>2014-10-05T08:55:10Z</time>
      </trkpt>
      <trkpt lat="48.73015" lon="-3.38153">
        <ele>73</ele>
        <time>2014-10-05T08:55:11Z</time>
      </trkpt>
      <trkpt lat="48.7301" lon="-3.38161">
        <ele>73</ele>
        <time>2014-10-05T08:55:12Z</time>
      </trkpt>
      <trkpt lat="48.73005" lon="-3.3817">
        <ele>73</ele>
        <time>2014-10-05T08:55:13Z</time>
      </trkpt>
      <trkpt lat="48.73" lon="-3.38179">
        <ele>73</ele>
        <time>2014-10-05T08:55:14Z</time>
      </trkpt>
      <trkpt lat="48.72995" lon="-3.38188">
        <ele>73</ele>
        <time>2014-10-05T08:55:15Z</time>
      </trkpt>
      <trkpt lat="48.7299" lon="-3.38197">
        <ele>73</ele>
        <time>2014-10-05T08:55:16Z</time>
      </trkpt>
      <trkpt lat="48.72985" lon="-3.38207">
        <ele>74</ele>
        <time>2014-10-05T08:55:17Z</time>
      </trkpt>
      <trkpt lat="48.7298" lon="-3.38216">
        <ele>74</ele>
        <time>2014-10-05T08:55:18Z</time>
      </trkpt>
      <trkpt lat="48.72975" lon="-3.38226">
        <ele>74</ele>
        <time>2014-10-05T08:55:19Z</time>
      </trkpt>
      <trkpt lat="48.72971" lon="-3.38235">
        <ele>74</ele>
        <time>2014-10-05T08:55:20Z</time>
      </trkpt>
      <trkpt lat="48.72966" lon="-3.38245">
        <ele>74</ele>
        <time>2014-10-05T08:55:21Z</time>
      </trkpt>
      <trkpt lat="48.72962" lon="-3.38256">
        <ele>75</ele>
        <time>2014-10-05T08:55:22Z</time>
      </trkpt>
      <trkpt lat="48.72958" lon="-3.38266">
        <ele>75</ele>
        <time>2014-10-05T08:55:23Z</time>
      </trkpt>
      <trkpt lat="48.72954" lon="-3.38277">
        <ele>75</ele>
        <time>2014-10-05T08:55:24Z</time>
      </trkpt>
      <trkpt lat="48.72951" lon="-3.38288">
        <ele>75</ele>
        <time>2014-10-05T08:55:25Z</time>
      </trkpt>
      <trkpt lat="48.72949" lon="-3.38299">
        <ele>75</ele>
        <time>2014-10-05T08:55:26Z</time>
      </trkpt>
      <trkpt lat="48.72947" lon="-3.3831">
        <ele>76</ele>
        <time>2014-10-05T08:55:27Z</time>
      </trkpt>
      <trkpt lat="48.72944" lon="-3.38321">
        <ele>76</ele>
        <time>2014-10-05T08:55:28Z</time>
      </trkpt>
      <trkpt lat="48.72942" lon="-3.38333">
        <ele>76</ele>
        <time>2014-10-05T08:55:29Z</time>
      </trkpt>
      <trkpt lat="48.72939" lon="-3.38344">
        <ele>76</ele>
        <time>2014-10-05T08:55:30Z</time>
      </trkpt>
      <trkpt lat="48.72937" lon="-3.38355">
        <ele>76</ele>
        <time>2014-10-05T08:55:31Z</time>
      </trkpt>
      <trkpt lat="48.72934" lon="-3.38366">
        <ele>76</ele>
        <time>2014-10-05T08:55:32Z</time>
      </trkpt>
      <trkpt lat="48.72932" lon="-3.38378">
        <ele>77</ele>
        <time>2014-10-05T08:55:33Z</time>
      </trkpt>
      <trkpt lat="48.72931" lon="-3.38389">
        <ele>77</ele>
        <time>2014-10-05T08:55:34Z</time>
      </trkpt>
      <trkpt lat="48.72929" lon="-3.38401">
        <ele>77</ele>
        <time>2014-10-05T08:55:35Z</time>
      </trkpt>
      <trkpt lat="48.72928" lon="-3.38412">
        <ele>77</ele>
        <time>2014-10-05T08:55:36Z</time>
      </trkpt>
      <trkpt lat="48.72927" lon="-3.38424">
        <ele>77</ele>
        <time>2014-10-05T08:55:37Z</time>
      </trkpt>
      <trkpt lat="48.72928" lon="-3.38435">
        <ele>77</ele>
        <time>2014-10-05T08:55:38Z</time>
      </trkpt>
      <trkpt lat="48.72931" lon="-3.38445">
        <ele>77</ele>
        <time>2014-10-05T08:55:39Z</time>
      </trkpt>
      <trkpt lat="48.72935" lon="-3.38451">
        <ele>77</ele>
        <time>2014-10-05T08:55:40Z</time>
      </trkpt>
      <trkpt lat="48.72941" lon="-3.38453">
        <ele>77</ele>
        <time>2014-10-05T08:55:41Z</time>
      </trkpt>
      <trkpt lat="48.72947" lon="-3.38453">
        <ele>77</ele>
        <time>2014-10-05T08:55:42Z</time>
      </trkpt>
      <trkpt lat="48.72955" lon="-3.38451">
        <ele>77</ele>
        <time>2014-10-05T08:55:43Z</time>
      </trkpt>
      <trkpt lat="48.72962" lon="-3.38448">
        <ele>77</ele>
        <time>2014-10-05T08:55:44Z</time>
      </trkpt>
      <trkpt lat="48.72968" lon="-3.38444">
        <ele>77</ele>
        <time>2014-10-05T08:55:45Z</time>
      </trkpt>
      <trkpt lat="48.72975" lon="-3.38439">
        <ele>77</ele>
        <time>2014-10-05T08:55:46Z</time>
      </trkpt>
      <trkpt lat="48.72982" lon="-3.38435">
        <ele>77</ele>
        <time>2014-10-05T08:55:47Z</time>
      </trkpt>
      <trkpt lat="48.72988" lon="-3.3843">
        <ele>77</ele>
        <time>2014-10-05T08:55:48Z</time>
      </trkpt>
      <trkpt lat="48.72993" lon="-3.38422">
        <ele>77</ele>
        <time>2014-10-05T08:55:49Z</time>
      </trkpt>
      <trkpt lat="48.72998" lon="-3.38414">
        <ele>77</ele>
        <time>2014-10-05T08:55:50Z</time>
      </trkpt>
      <trkpt lat="48.73003" lon="-3.38405">
        <ele>77</ele>
        <time>2014-10-05T08:55:51Z</time>
      </trkpt>
      <trkpt lat="48.73008" lon="-3.38396">
        <ele>77</ele>
        <time>2014-10-05T08:55:52Z</time>
      </trkpt>
      <trkpt lat="48.73012" lon="-3.38387">
        <ele>77</ele>
        <time>2014-10-05T08:55:53Z</time>
      </trkpt>
      <trkpt lat="48.73017" lon="-3.38379">
        <ele>77</ele>
        <time>2014-10-05T08:55:54Z</time>
      </trkpt>
      <trkpt lat="48.73022" lon="-3.3837">
        <ele>77</ele>
        <time>2014-10-05T08:55:55Z</time>
      </trkpt>
      <trkpt lat="48.73028" lon="-3.38361">
        <ele>77</ele>
        <time>2014-10-05T08:55:56Z</time>
      </trkpt>
      <trkpt lat="48.73033" lon="-3.38352">
        <ele>77</ele>
        <time>2014-10-05T08:55:57Z</time>
      </trkpt>
      <trkpt lat="48.73038" lon="-3.38343">
        <ele>77</ele>
        <time>2014-10-05T08:55:58Z</time>
      </trkpt>
      <trkpt lat="48.73042" lon="-3.38335">
        <ele>77</ele>
        <time>2014-10-05T08:55:59Z</time>
      </trkpt>
      <trkpt lat="48.73047" lon="-3.38329">
        <ele>77</ele>
        <time>2014-10-05T08:56:00Z</time>
      </trkpt>
      <trkpt lat="48.73052" lon="-3.38326">
        <ele>77</ele>
        <time>2014-10-05T08:56:01Z</time>
      </trkpt>
      <trkpt lat="48.73057" lon="-3.38325">
        <ele>77</ele>
        <time>2014-10-05T08:56:02Z</time>
      </trkpt>
      <trkpt lat="48.73062" lon="-3.38328">
        <ele>77</ele>
        <time>2014-10-05T08:56:03Z</time>
      </trkpt>
      <trkpt lat="48.73067" lon="-3.38334">
        <ele>77</ele>
        <time>2014-10-05T08:56:04Z</time>
      </trkpt>
      <trkpt lat="48.73071" lon="-3.38339">
        <ele>77</ele>
        <time>2014-10-05T08:56:05Z</time>
      </trkpt>
      <trkpt lat="48.73076" lon="-3.38346">
        <ele>77</ele>
        <time>2014-10-05T08:56:06Z</time>
      </trkpt>
      <trkpt lat="48.73081" lon="-3.38352">
        <ele>77</ele>
        <time>2014-10-05T08:56:07Z</time>
      </trkpt>
      <trkpt lat="48.73085" lon="-3.38359">
        <ele>77</ele>
        <time>2014-10-05T08:56:08Z</time>
      </trkpt>
      <trkpt lat="48.7309" lon="-3.38366">
        <ele>77</ele>
        <time>2014-10-05T08:56:09Z</time>
      </trkpt>
      <trkpt lat="48.73094" lon="-3.38371">
        <ele>77</ele>
        <time>2014-10-05T08:56:10Z</time>
      </trkpt>
      <trkpt lat="48.73096" lon="-3.38376">
        <ele>77</ele>
        <time>2014-10-05T08:56:11Z</time>
      </trkpt>
      <trkpt lat="48.73098" lon="-3.3838">
        <ele>77</ele>
        <time>2014-10-05T08:56:12Z</time>
      </trkpt>
      <trkpt lat="48.73099" lon="-3.38383">
        <ele>77</ele>
        <time>2014-10-05T08:56:13Z</time>
      </trkpt>
      <trkpt lat="48.731" lon="-3.38384">
        <ele>77</ele>
        <time>2014-10-05T08:56:15Z</time>
      </trkpt>
    </trkseg>
  </trk>
</gpx>